<?xml version="1.0" encoding="UTF-8" standalone="no" ?>
<gpx xmlns="http://www.topografix.com/GPX/1/1" xmlns:xsi="http://www.w3.org/2001/XMLSchema-instance" xsi:schemaLocation="http://www.topografix.com/GPX/1/1 http://www.topografix.com/GPX/1/1/gpx.xsd" version="1.1" creator="VisuGPX - https://www.visugpx.com">
  <metadata>
    <name>MB. Sortie du 13/10/2019</name>
    <desc><![CDATA[Sortie VTT du dimanche 13 octobre 2019]]></desc>
  </metadata>
  <trk>
    <name><![CDATA[Pornichet Cyclisme]]></name>
    <trkseg>
      <trkpt lat="47.26407" lon="-2.31581">
        <ele>19.60000038147</ele>
        <time>2019-10-13T07:02:54.000Z</time>
      </trkpt>
      <trkpt lat="47.26408" lon="-2.31614">
        <ele>19.200000762939</ele>
        <time>2019-10-13T07:02:58.000Z</time>
      </trkpt>
      <trkpt lat="47.26408" lon="-2.3162">
        <ele>19.200000762939</ele>
        <time>2019-10-13T07:03:01.000Z</time>
      </trkpt>
      <trkpt lat="47.26411" lon="-2.31657">
        <ele>19.200000762939</ele>
        <time>2019-10-13T07:03:07.000Z</time>
      </trkpt>
      <trkpt lat="47.26404" lon="-2.31671">
        <ele>19.200000762939</ele>
        <time>2019-10-13T07:03:10.000Z</time>
      </trkpt>
      <trkpt lat="47.26404" lon="-2.31671">
        <ele>19.200000762939</ele>
        <time>2019-10-13T07:03:12.000Z</time>
      </trkpt>
      <trkpt lat="47.26386" lon="-2.31679">
        <ele>19.200000762939</ele>
        <time>2019-10-13T07:03:15.000Z</time>
      </trkpt>
      <trkpt lat="47.26386" lon="-2.31679">
        <ele>19.200000762939</ele>
        <time>2019-10-13T07:03:16.000Z</time>
      </trkpt>
      <trkpt lat="47.2638" lon="-2.31682">
        <ele>19.200000762939</ele>
        <time>2019-10-13T07:03:17.000Z</time>
      </trkpt>
      <trkpt lat="47.26358" lon="-2.31697">
        <ele>19.200000762939</ele>
        <time>2019-10-13T07:03:21.000Z</time>
      </trkpt>
      <trkpt lat="47.26347" lon="-2.31702">
        <ele>19.200000762939</ele>
        <time>2019-10-13T07:03:23.000Z</time>
      </trkpt>
      <trkpt lat="47.26333" lon="-2.31709">
        <ele>19.200000762939</ele>
        <time>2019-10-13T07:03:25.000Z</time>
      </trkpt>
      <trkpt lat="47.26327" lon="-2.31712">
        <ele>18.799999237061</ele>
        <time>2019-10-13T07:03:26.000Z</time>
      </trkpt>
      <trkpt lat="47.26321" lon="-2.31713">
        <ele>18.60000038147</ele>
        <time>2019-10-13T07:03:27.000Z</time>
      </trkpt>
      <trkpt lat="47.26315" lon="-2.31715">
        <ele>18.39999961853</ele>
        <time>2019-10-13T07:03:28.000Z</time>
      </trkpt>
      <trkpt lat="47.26311" lon="-2.31717">
        <ele>18.200000762939</ele>
        <time>2019-10-13T07:03:29.000Z</time>
      </trkpt>
      <trkpt lat="47.26308" lon="-2.31721">
        <ele>17.799999237061</ele>
        <time>2019-10-13T07:03:30.000Z</time>
      </trkpt>
      <trkpt lat="47.26306" lon="-2.31726">
        <ele>17.39999961853</ele>
        <time>2019-10-13T07:03:31.000Z</time>
      </trkpt>
      <trkpt lat="47.26305" lon="-2.31732">
        <ele>17</ele>
        <time>2019-10-13T07:03:32.000Z</time>
      </trkpt>
      <trkpt lat="47.26305" lon="-2.31738">
        <ele>16.39999961853</ele>
        <time>2019-10-13T07:03:33.000Z</time>
      </trkpt>
      <trkpt lat="47.26306" lon="-2.31745">
        <ele>16</ele>
        <time>2019-10-13T07:03:34.000Z</time>
      </trkpt>
      <trkpt lat="47.26307" lon="-2.3175">
        <ele>15.60000038147</ele>
        <time>2019-10-13T07:03:35.000Z</time>
      </trkpt>
      <trkpt lat="47.26308" lon="-2.31762">
        <ele>15.60000038147</ele>
        <time>2019-10-13T07:03:37.000Z</time>
      </trkpt>
      <trkpt lat="47.2631" lon="-2.31783">
        <ele>15.60000038147</ele>
        <time>2019-10-13T07:03:40.000Z</time>
      </trkpt>
      <trkpt lat="47.2631" lon="-2.31804">
        <ele>15.60000038147</ele>
        <time>2019-10-13T07:03:43.000Z</time>
      </trkpt>
      <trkpt lat="47.26307" lon="-2.31838">
        <ele>15.60000038147</ele>
        <time>2019-10-13T07:03:48.000Z</time>
      </trkpt>
      <trkpt lat="47.26306" lon="-2.31875">
        <ele>15.60000038147</ele>
        <time>2019-10-13T07:03:53.000Z</time>
      </trkpt>
      <trkpt lat="47.26304" lon="-2.3188">
        <ele>15.60000038147</ele>
        <time>2019-10-13T07:03:54.000Z</time>
      </trkpt>
      <trkpt lat="47.26301" lon="-2.31885">
        <ele>15.60000038147</ele>
        <time>2019-10-13T07:03:56.000Z</time>
      </trkpt>
      <trkpt lat="47.26286" lon="-2.31902">
        <ele>15.60000038147</ele>
        <time>2019-10-13T07:04:00.000Z</time>
      </trkpt>
      <trkpt lat="47.26269" lon="-2.31929">
        <ele>15.60000038147</ele>
        <time>2019-10-13T07:04:05.000Z</time>
      </trkpt>
      <trkpt lat="47.26266" lon="-2.31935">
        <ele>15.60000038147</ele>
        <time>2019-10-13T07:04:06.000Z</time>
      </trkpt>
      <trkpt lat="47.2626" lon="-2.31951">
        <ele>15.60000038147</ele>
        <time>2019-10-13T07:04:09.000Z</time>
      </trkpt>
      <trkpt lat="47.26255" lon="-2.31956">
        <ele>15.60000038147</ele>
        <time>2019-10-13T07:04:10.000Z</time>
      </trkpt>
      <trkpt lat="47.26236" lon="-2.31975">
        <ele>15.60000038147</ele>
        <time>2019-10-13T07:04:16.000Z</time>
      </trkpt>
      <trkpt lat="47.26235" lon="-2.31978">
        <ele>15.60000038147</ele>
        <time>2019-10-13T07:04:17.000Z</time>
      </trkpt>
      <trkpt lat="47.2622" lon="-2.31994">
        <ele>15.60000038147</ele>
        <time>2019-10-13T07:04:23.000Z</time>
      </trkpt>
      <trkpt lat="47.26214" lon="-2.31998">
        <ele>15.60000038147</ele>
        <time>2019-10-13T07:04:25.000Z</time>
      </trkpt>
      <trkpt lat="47.26213" lon="-2.32003">
        <ele>15.60000038147</ele>
        <time>2019-10-13T07:04:26.000Z</time>
      </trkpt>
      <trkpt lat="47.26204" lon="-2.32017">
        <ele>15.60000038147</ele>
        <time>2019-10-13T07:04:30.000Z</time>
      </trkpt>
      <trkpt lat="47.26202" lon="-2.32018">
        <ele>15.60000038147</ele>
        <time>2019-10-13T07:04:31.000Z</time>
      </trkpt>
      <trkpt lat="47.26193" lon="-2.32019">
        <ele>15.60000038147</ele>
        <time>2019-10-13T07:04:34.000Z</time>
      </trkpt>
      <trkpt lat="47.26189" lon="-2.32018">
        <ele>15.60000038147</ele>
        <time>2019-10-13T07:04:36.000Z</time>
      </trkpt>
      <trkpt lat="47.26177" lon="-2.32023">
        <ele>15.60000038147</ele>
        <time>2019-10-13T07:04:38.000Z</time>
      </trkpt>
      <trkpt lat="47.26173" lon="-2.32025">
        <ele>15.60000038147</ele>
        <time>2019-10-13T07:04:39.000Z</time>
      </trkpt>
      <trkpt lat="47.26167" lon="-2.3203">
        <ele>15.60000038147</ele>
        <time>2019-10-13T07:04:40.000Z</time>
      </trkpt>
      <trkpt lat="47.2616" lon="-2.32042">
        <ele>15.60000038147</ele>
        <time>2019-10-13T07:04:42.000Z</time>
      </trkpt>
      <trkpt lat="47.26156" lon="-2.32056">
        <ele>15.60000038147</ele>
        <time>2019-10-13T07:04:44.000Z</time>
      </trkpt>
      <trkpt lat="47.26146" lon="-2.32084">
        <ele>15.60000038147</ele>
        <time>2019-10-13T07:04:48.000Z</time>
      </trkpt>
      <trkpt lat="47.26141" lon="-2.32098">
        <ele>15.60000038147</ele>
        <time>2019-10-13T07:04:50.000Z</time>
      </trkpt>
      <trkpt lat="47.26134" lon="-2.32127">
        <ele>15.60000038147</ele>
        <time>2019-10-13T07:04:54.000Z</time>
      </trkpt>
      <trkpt lat="47.26115" lon="-2.32178">
        <ele>15.60000038147</ele>
        <time>2019-10-13T07:05:02.000Z</time>
      </trkpt>
      <trkpt lat="47.2611" lon="-2.32191">
        <ele>15.60000038147</ele>
        <time>2019-10-13T07:05:04.000Z</time>
      </trkpt>
      <trkpt lat="47.261" lon="-2.32213">
        <ele>15.60000038147</ele>
        <time>2019-10-13T07:05:08.000Z</time>
      </trkpt>
      <trkpt lat="47.26078" lon="-2.32244">
        <ele>15.60000038147</ele>
        <time>2019-10-13T07:05:14.000Z</time>
      </trkpt>
      <trkpt lat="47.26055" lon="-2.32272">
        <ele>15.60000038147</ele>
        <time>2019-10-13T07:05:20.000Z</time>
      </trkpt>
      <trkpt lat="47.26046" lon="-2.32281">
        <ele>15.60000038147</ele>
        <time>2019-10-13T07:05:22.000Z</time>
      </trkpt>
      <trkpt lat="47.26029" lon="-2.323">
        <ele>15.60000038147</ele>
        <time>2019-10-13T07:05:26.000Z</time>
      </trkpt>
      <trkpt lat="47.26001" lon="-2.32336">
        <ele>15.60000038147</ele>
        <time>2019-10-13T07:05:33.000Z</time>
      </trkpt>
      <trkpt lat="47.25964" lon="-2.32383">
        <ele>15.60000038147</ele>
        <time>2019-10-13T07:05:41.000Z</time>
      </trkpt>
      <trkpt lat="47.25932" lon="-2.32422">
        <ele>15.60000038147</ele>
        <time>2019-10-13T07:05:49.000Z</time>
      </trkpt>
      <trkpt lat="47.25906" lon="-2.32456">
        <ele>15.60000038147</ele>
        <time>2019-10-13T07:05:56.000Z</time>
      </trkpt>
      <trkpt lat="47.25899" lon="-2.32464">
        <ele>15.60000038147</ele>
        <time>2019-10-13T07:05:58.000Z</time>
      </trkpt>
      <trkpt lat="47.25882" lon="-2.32477">
        <ele>15.60000038147</ele>
        <time>2019-10-13T07:06:02.000Z</time>
      </trkpt>
      <trkpt lat="47.25862" lon="-2.32479">
        <ele>15.60000038147</ele>
        <time>2019-10-13T07:06:06.000Z</time>
      </trkpt>
      <trkpt lat="47.25837" lon="-2.32475">
        <ele>15.60000038147</ele>
        <time>2019-10-13T07:06:09.000Z</time>
      </trkpt>
      <trkpt lat="47.25827" lon="-2.32471">
        <ele>15.60000038147</ele>
        <time>2019-10-13T07:06:14.000Z</time>
      </trkpt>
      <trkpt lat="47.25812" lon="-2.32464">
        <ele>15.60000038147</ele>
        <time>2019-10-13T07:06:17.000Z</time>
      </trkpt>
      <trkpt lat="47.25804" lon="-2.3246">
        <ele>15.60000038147</ele>
        <time>2019-10-13T07:06:19.000Z</time>
      </trkpt>
      <trkpt lat="47.25792" lon="-2.32462">
        <ele>15.60000038147</ele>
        <time>2019-10-13T07:06:23.000Z</time>
      </trkpt>
      <trkpt lat="47.25781" lon="-2.32457">
        <ele>15.60000038147</ele>
        <time>2019-10-13T07:06:26.000Z</time>
      </trkpt>
      <trkpt lat="47.25777" lon="-2.32453">
        <ele>15.60000038147</ele>
        <time>2019-10-13T07:06:27.000Z</time>
      </trkpt>
      <trkpt lat="47.25766" lon="-2.32432">
        <ele>15.60000038147</ele>
        <time>2019-10-13T07:06:31.000Z</time>
      </trkpt>
      <trkpt lat="47.25747" lon="-2.32426">
        <ele>15.60000038147</ele>
        <time>2019-10-13T07:06:35.000Z</time>
      </trkpt>
      <trkpt lat="47.25707" lon="-2.32424">
        <ele>15.60000038147</ele>
        <time>2019-10-13T07:06:43.000Z</time>
      </trkpt>
      <trkpt lat="47.25669" lon="-2.32418">
        <ele>15.60000038147</ele>
        <time>2019-10-13T07:06:51.000Z</time>
      </trkpt>
      <trkpt lat="47.2566" lon="-2.32429">
        <ele>15.60000038147</ele>
        <time>2019-10-13T07:06:54.000Z</time>
      </trkpt>
      <trkpt lat="47.25661" lon="-2.32449">
        <ele>15.60000038147</ele>
        <time>2019-10-13T07:06:57.000Z</time>
      </trkpt>
      <trkpt lat="47.25665" lon="-2.32462">
        <ele>15.60000038147</ele>
        <time>2019-10-13T07:06:59.000Z</time>
      </trkpt>
      <trkpt lat="47.25673" lon="-2.32487">
        <ele>15.60000038147</ele>
        <time>2019-10-13T07:07:03.000Z</time>
      </trkpt>
      <trkpt lat="47.25688" lon="-2.3253">
        <ele>15.60000038147</ele>
        <time>2019-10-13T07:07:10.000Z</time>
      </trkpt>
      <trkpt lat="47.2569" lon="-2.32537">
        <ele>16</ele>
        <time>2019-10-13T07:07:11.000Z</time>
      </trkpt>
      <trkpt lat="47.25692" lon="-2.32543">
        <ele>16.39999961853</ele>
        <time>2019-10-13T07:07:12.000Z</time>
      </trkpt>
      <trkpt lat="47.25694" lon="-2.32549">
        <ele>16.799999237061</ele>
        <time>2019-10-13T07:07:13.000Z</time>
      </trkpt>
      <trkpt lat="47.25696" lon="-2.32555">
        <ele>17.39999961853</ele>
        <time>2019-10-13T07:07:14.000Z</time>
      </trkpt>
      <trkpt lat="47.25698" lon="-2.32561">
        <ele>17.799999237061</ele>
        <time>2019-10-13T07:07:15.000Z</time>
      </trkpt>
      <trkpt lat="47.25704" lon="-2.32578">
        <ele>17.799999237061</ele>
        <time>2019-10-13T07:07:18.000Z</time>
      </trkpt>
      <trkpt lat="47.25711" lon="-2.32608">
        <ele>17.799999237061</ele>
        <time>2019-10-13T07:07:23.000Z</time>
      </trkpt>
      <trkpt lat="47.25711" lon="-2.32614">
        <ele>17.799999237061</ele>
        <time>2019-10-13T07:07:24.000Z</time>
      </trkpt>
      <trkpt lat="47.25704" lon="-2.32626">
        <ele>17.799999237061</ele>
        <time>2019-10-13T07:07:27.000Z</time>
      </trkpt>
      <trkpt lat="47.2569" lon="-2.32632">
        <ele>17.799999237061</ele>
        <time>2019-10-13T07:07:30.000Z</time>
      </trkpt>
      <trkpt lat="47.25686" lon="-2.32634">
        <ele>18.200000762939</ele>
        <time>2019-10-13T07:07:31.000Z</time>
      </trkpt>
      <trkpt lat="47.25681" lon="-2.32636">
        <ele>18.60000038147</ele>
        <time>2019-10-13T07:07:32.000Z</time>
      </trkpt>
      <trkpt lat="47.25677" lon="-2.32639">
        <ele>19</ele>
        <time>2019-10-13T07:07:33.000Z</time>
      </trkpt>
      <trkpt lat="47.25672" lon="-2.3264">
        <ele>19.799999237061</ele>
        <time>2019-10-13T07:07:34.000Z</time>
      </trkpt>
      <trkpt lat="47.25667" lon="-2.32642">
        <ele>19.799999237061</ele>
        <time>2019-10-13T07:07:35.000Z</time>
      </trkpt>
      <trkpt lat="47.25649" lon="-2.32649">
        <ele>19.799999237061</ele>
        <time>2019-10-13T07:07:39.000Z</time>
      </trkpt>
      <trkpt lat="47.25635" lon="-2.32655">
        <ele>19.799999237061</ele>
        <time>2019-10-13T07:07:42.000Z</time>
      </trkpt>
      <trkpt lat="47.25617" lon="-2.32662">
        <ele>19.799999237061</ele>
        <time>2019-10-13T07:07:46.000Z</time>
      </trkpt>
      <trkpt lat="47.25609" lon="-2.32665">
        <ele>20.200000762939</ele>
        <time>2019-10-13T07:07:48.000Z</time>
      </trkpt>
      <trkpt lat="47.25596" lon="-2.3267">
        <ele>21.60000038147</ele>
        <time>2019-10-13T07:07:49.000Z</time>
      </trkpt>
      <trkpt lat="47.25591" lon="-2.32672">
        <ele>22</ele>
        <time>2019-10-13T07:07:52.000Z</time>
      </trkpt>
      <trkpt lat="47.25581" lon="-2.32675">
        <ele>22</ele>
        <time>2019-10-13T07:07:54.000Z</time>
      </trkpt>
      <trkpt lat="47.25553" lon="-2.32685">
        <ele>22</ele>
        <time>2019-10-13T07:08:00.000Z</time>
      </trkpt>
      <trkpt lat="47.25548" lon="-2.32687">
        <ele>22</ele>
        <time>2019-10-13T07:08:01.000Z</time>
      </trkpt>
      <trkpt lat="47.2553" lon="-2.32694">
        <ele>22</ele>
        <time>2019-10-13T07:08:05.000Z</time>
      </trkpt>
      <trkpt lat="47.255" lon="-2.32699">
        <ele>22</ele>
        <time>2019-10-13T07:08:11.000Z</time>
      </trkpt>
      <trkpt lat="47.25486" lon="-2.32704">
        <ele>22</ele>
        <time>2019-10-13T07:08:14.000Z</time>
      </trkpt>
      <trkpt lat="47.25478" lon="-2.32709">
        <ele>22</ele>
        <time>2019-10-13T07:08:16.000Z</time>
      </trkpt>
      <trkpt lat="47.2547" lon="-2.32719">
        <ele>22</ele>
        <time>2019-10-13T07:08:18.000Z</time>
      </trkpt>
      <trkpt lat="47.25457" lon="-2.3274">
        <ele>22</ele>
        <time>2019-10-13T07:08:22.000Z</time>
      </trkpt>
      <trkpt lat="47.25437" lon="-2.32772">
        <ele>22</ele>
        <time>2019-10-13T07:08:28.000Z</time>
      </trkpt>
      <trkpt lat="47.25427" lon="-2.32795">
        <ele>22</ele>
        <time>2019-10-13T07:08:32.000Z</time>
      </trkpt>
      <trkpt lat="47.25423" lon="-2.32801">
        <ele>22</ele>
        <time>2019-10-13T07:08:33.000Z</time>
      </trkpt>
      <trkpt lat="47.25397" lon="-2.32834">
        <ele>22</ele>
        <time>2019-10-13T07:08:39.000Z</time>
      </trkpt>
      <trkpt lat="47.25384" lon="-2.32849">
        <ele>21</ele>
        <time>2019-10-13T07:08:40.000Z</time>
      </trkpt>
      <trkpt lat="47.2538" lon="-2.32854">
        <ele>20.60000038147</ele>
        <time>2019-10-13T07:08:43.000Z</time>
      </trkpt>
      <trkpt lat="47.25376" lon="-2.32859">
        <ele>20.200000762939</ele>
        <time>2019-10-13T07:08:44.000Z</time>
      </trkpt>
      <trkpt lat="47.25371" lon="-2.32864">
        <ele>19.799999237061</ele>
        <time>2019-10-13T07:08:45.000Z</time>
      </trkpt>
      <trkpt lat="47.25358" lon="-2.32879">
        <ele>19.799999237061</ele>
        <time>2019-10-13T07:08:48.000Z</time>
      </trkpt>
      <trkpt lat="47.25321" lon="-2.32914">
        <ele>19.799999237061</ele>
        <time>2019-10-13T07:08:56.000Z</time>
      </trkpt>
      <trkpt lat="47.25317" lon="-2.32918">
        <ele>19.799999237061</ele>
        <time>2019-10-13T07:08:57.000Z</time>
      </trkpt>
      <trkpt lat="47.25308" lon="-2.32937">
        <ele>19.799999237061</ele>
        <time>2019-10-13T07:09:00.000Z</time>
      </trkpt>
      <trkpt lat="47.25311" lon="-2.32965">
        <ele>19.799999237061</ele>
        <time>2019-10-13T07:09:04.000Z</time>
      </trkpt>
      <trkpt lat="47.25316" lon="-2.32979">
        <ele>19.799999237061</ele>
        <time>2019-10-13T07:09:06.000Z</time>
      </trkpt>
      <trkpt lat="47.25327" lon="-2.33006">
        <ele>19.799999237061</ele>
        <time>2019-10-13T07:09:10.000Z</time>
      </trkpt>
      <trkpt lat="47.25344" lon="-2.33051">
        <ele>19.799999237061</ele>
        <time>2019-10-13T07:09:17.000Z</time>
      </trkpt>
      <trkpt lat="47.25361" lon="-2.33089">
        <ele>19.799999237061</ele>
        <time>2019-10-13T07:09:23.000Z</time>
      </trkpt>
      <trkpt lat="47.25366" lon="-2.33101">
        <ele>19.39999961853</ele>
        <time>2019-10-13T07:09:25.000Z</time>
      </trkpt>
      <trkpt lat="47.25369" lon="-2.33106">
        <ele>19</ele>
        <time>2019-10-13T07:09:26.000Z</time>
      </trkpt>
      <trkpt lat="47.25371" lon="-2.33111">
        <ele>18.60000038147</ele>
        <time>2019-10-13T07:09:27.000Z</time>
      </trkpt>
      <trkpt lat="47.25372" lon="-2.33115">
        <ele>18.200000762939</ele>
        <time>2019-10-13T07:09:28.000Z</time>
      </trkpt>
      <trkpt lat="47.25374" lon="-2.33119">
        <ele>17.799999237061</ele>
        <time>2019-10-13T07:09:29.000Z</time>
      </trkpt>
      <trkpt lat="47.25376" lon="-2.33127">
        <ele>17.799999237061</ele>
        <time>2019-10-13T07:09:33.000Z</time>
      </trkpt>
      <trkpt lat="47.25379" lon="-2.33131">
        <ele>17.799999237061</ele>
        <time>2019-10-13T07:09:47.000Z</time>
      </trkpt>
      <trkpt lat="47.25379" lon="-2.33133">
        <ele>17.799999237061</ele>
        <time>2019-10-13T07:09:49.000Z</time>
      </trkpt>
      <trkpt lat="47.2538" lon="-2.33139">
        <ele>15.800000190735</ele>
        <time>2019-10-13T07:11:40.000Z</time>
      </trkpt>
      <trkpt lat="47.25383" lon="-2.33143">
        <ele>15.800000190735</ele>
        <time>2019-10-13T07:11:42.000Z</time>
      </trkpt>
      <trkpt lat="47.25391" lon="-2.33156">
        <ele>15.800000190735</ele>
        <time>2019-10-13T07:11:47.000Z</time>
      </trkpt>
      <trkpt lat="47.25398" lon="-2.33176">
        <ele>15.800000190735</ele>
        <time>2019-10-13T07:11:51.000Z</time>
      </trkpt>
      <trkpt lat="47.25411" lon="-2.33206">
        <ele>15.800000190735</ele>
        <time>2019-10-13T07:11:57.000Z</time>
      </trkpt>
      <trkpt lat="47.25425" lon="-2.3324">
        <ele>15.800000190735</ele>
        <time>2019-10-13T07:12:04.000Z</time>
      </trkpt>
      <trkpt lat="47.25435" lon="-2.33264">
        <ele>15.800000190735</ele>
        <time>2019-10-13T07:12:10.000Z</time>
      </trkpt>
      <trkpt lat="47.25446" lon="-2.33291">
        <ele>15.800000190735</ele>
        <time>2019-10-13T07:12:16.000Z</time>
      </trkpt>
      <trkpt lat="47.25446" lon="-2.33311">
        <ele>15.800000190735</ele>
        <time>2019-10-13T07:12:20.000Z</time>
      </trkpt>
      <trkpt lat="47.25434" lon="-2.33343">
        <ele>15.800000190735</ele>
        <time>2019-10-13T07:12:26.000Z</time>
      </trkpt>
      <trkpt lat="47.25432" lon="-2.3335">
        <ele>15.800000190735</ele>
        <time>2019-10-13T07:12:27.000Z</time>
      </trkpt>
      <trkpt lat="47.25431" lon="-2.33371">
        <ele>15.800000190735</ele>
        <time>2019-10-13T07:12:30.000Z</time>
      </trkpt>
      <trkpt lat="47.25431" lon="-2.33417">
        <ele>15.800000190735</ele>
        <time>2019-10-13T07:12:37.000Z</time>
      </trkpt>
      <trkpt lat="47.25434" lon="-2.33455">
        <ele>15.800000190735</ele>
        <time>2019-10-13T07:12:43.000Z</time>
      </trkpt>
      <trkpt lat="47.25435" lon="-2.33461">
        <ele>15.800000190735</ele>
        <time>2019-10-13T07:12:44.000Z</time>
      </trkpt>
      <trkpt lat="47.25437" lon="-2.33479">
        <ele>15.800000190735</ele>
        <time>2019-10-13T07:12:47.000Z</time>
      </trkpt>
      <trkpt lat="47.25441" lon="-2.33489">
        <ele>15.800000190735</ele>
        <time>2019-10-13T07:12:49.000Z</time>
      </trkpt>
      <trkpt lat="47.25448" lon="-2.33515">
        <ele>15.800000190735</ele>
        <time>2019-10-13T07:12:54.000Z</time>
      </trkpt>
      <trkpt lat="47.25456" lon="-2.33549">
        <ele>15.800000190735</ele>
        <time>2019-10-13T07:13:00.000Z</time>
      </trkpt>
      <trkpt lat="47.25457" lon="-2.33555">
        <ele>15.800000190735</ele>
        <time>2019-10-13T07:13:01.000Z</time>
      </trkpt>
      <trkpt lat="47.2546" lon="-2.33574">
        <ele>15.800000190735</ele>
        <time>2019-10-13T07:13:05.000Z</time>
      </trkpt>
      <trkpt lat="47.25454" lon="-2.33579">
        <ele>15.800000190735</ele>
        <time>2019-10-13T07:13:08.000Z</time>
      </trkpt>
      <trkpt lat="47.2545" lon="-2.33583">
        <ele>15.800000190735</ele>
        <time>2019-10-13T07:13:09.000Z</time>
      </trkpt>
      <trkpt lat="47.25445" lon="-2.33613">
        <ele>15.800000190735</ele>
        <time>2019-10-13T07:13:11.000Z</time>
      </trkpt>
      <trkpt lat="47.25445" lon="-2.33613">
        <ele>15.800000190735</ele>
        <time>2019-10-13T07:13:13.000Z</time>
      </trkpt>
      <trkpt lat="47.25445" lon="-2.33626">
        <ele>15.800000190735</ele>
        <time>2019-10-13T07:13:15.000Z</time>
      </trkpt>
      <trkpt lat="47.25446" lon="-2.33647">
        <ele>15.800000190735</ele>
        <time>2019-10-13T07:13:18.000Z</time>
      </trkpt>
      <trkpt lat="47.25447" lon="-2.33654">
        <ele>15.800000190735</ele>
        <time>2019-10-13T07:13:19.000Z</time>
      </trkpt>
      <trkpt lat="47.25456" lon="-2.33713">
        <ele>15.800000190735</ele>
        <time>2019-10-13T07:13:27.000Z</time>
      </trkpt>
      <trkpt lat="47.25459" lon="-2.33736">
        <ele>15.800000190735</ele>
        <time>2019-10-13T07:13:30.000Z</time>
      </trkpt>
      <trkpt lat="47.25464" lon="-2.33746">
        <ele>15.800000190735</ele>
        <time>2019-10-13T07:13:32.000Z</time>
      </trkpt>
      <trkpt lat="47.25481" lon="-2.33755">
        <ele>15.800000190735</ele>
        <time>2019-10-13T07:13:36.000Z</time>
      </trkpt>
      <trkpt lat="47.25486" lon="-2.33756">
        <ele>15.800000190735</ele>
        <time>2019-10-13T07:13:37.000Z</time>
      </trkpt>
      <trkpt lat="47.25503" lon="-2.33757">
        <ele>15.800000190735</ele>
        <time>2019-10-13T07:13:40.000Z</time>
      </trkpt>
      <trkpt lat="47.25537" lon="-2.33757">
        <ele>15.800000190735</ele>
        <time>2019-10-13T07:13:46.000Z</time>
      </trkpt>
      <trkpt lat="47.25575" lon="-2.33756">
        <ele>15.800000190735</ele>
        <time>2019-10-13T07:13:53.000Z</time>
      </trkpt>
      <trkpt lat="47.25591" lon="-2.33756">
        <ele>15.800000190735</ele>
        <time>2019-10-13T07:13:56.000Z</time>
      </trkpt>
      <trkpt lat="47.25613" lon="-2.3376">
        <ele>15.800000190735</ele>
        <time>2019-10-13T07:14:00.000Z</time>
      </trkpt>
      <trkpt lat="47.25647" lon="-2.33775">
        <ele>15.800000190735</ele>
        <time>2019-10-13T07:14:06.000Z</time>
      </trkpt>
      <trkpt lat="47.25685" lon="-2.3379">
        <ele>15.800000190735</ele>
        <time>2019-10-13T07:14:12.000Z</time>
      </trkpt>
      <trkpt lat="47.25731" lon="-2.3381">
        <ele>15.800000190735</ele>
        <time>2019-10-13T07:14:19.000Z</time>
      </trkpt>
      <trkpt lat="47.25767" lon="-2.33825">
        <ele>15.39999961853</ele>
        <time>2019-10-13T07:14:25.000Z</time>
      </trkpt>
      <trkpt lat="47.25772" lon="-2.33828">
        <ele>15</ele>
        <time>2019-10-13T07:14:26.000Z</time>
      </trkpt>
      <trkpt lat="47.25778" lon="-2.3383">
        <ele>14.60000038147</ele>
        <time>2019-10-13T07:14:27.000Z</time>
      </trkpt>
      <trkpt lat="47.25783" lon="-2.33832">
        <ele>14.199999809265</ele>
        <time>2019-10-13T07:14:28.000Z</time>
      </trkpt>
      <trkpt lat="47.25789" lon="-2.33834">
        <ele>13.800000190735</ele>
        <time>2019-10-13T07:14:29.000Z</time>
      </trkpt>
      <trkpt lat="47.2581" lon="-2.33846">
        <ele>13.800000190735</ele>
        <time>2019-10-13T07:14:33.000Z</time>
      </trkpt>
      <trkpt lat="47.25844" lon="-2.33859">
        <ele>13.800000190735</ele>
        <time>2019-10-13T07:14:39.000Z</time>
      </trkpt>
      <trkpt lat="47.25885" lon="-2.33876">
        <ele>13.800000190735</ele>
        <time>2019-10-13T07:14:47.000Z</time>
      </trkpt>
      <trkpt lat="47.25923" lon="-2.33895">
        <ele>13.800000190735</ele>
        <time>2019-10-13T07:14:54.000Z</time>
      </trkpt>
      <trkpt lat="47.25933" lon="-2.33902">
        <ele>13.800000190735</ele>
        <time>2019-10-13T07:14:56.000Z</time>
      </trkpt>
      <trkpt lat="47.25942" lon="-2.33904">
        <ele>13.800000190735</ele>
        <time>2019-10-13T07:14:58.000Z</time>
      </trkpt>
      <trkpt lat="47.25955" lon="-2.33899">
        <ele>13.800000190735</ele>
        <time>2019-10-13T07:15:01.000Z</time>
      </trkpt>
      <trkpt lat="47.25968" lon="-2.33907">
        <ele>13.800000190735</ele>
        <time>2019-10-13T07:15:04.000Z</time>
      </trkpt>
      <trkpt lat="47.25973" lon="-2.33911">
        <ele>13.800000190735</ele>
        <time>2019-10-13T07:15:05.000Z</time>
      </trkpt>
      <trkpt lat="47.25979" lon="-2.33914">
        <ele>13.800000190735</ele>
        <time>2019-10-13T07:15:06.000Z</time>
      </trkpt>
      <trkpt lat="47.25997" lon="-2.33921">
        <ele>13.800000190735</ele>
        <time>2019-10-13T07:15:09.000Z</time>
      </trkpt>
      <trkpt lat="47.26039" lon="-2.33933">
        <ele>13.800000190735</ele>
        <time>2019-10-13T07:15:16.000Z</time>
      </trkpt>
      <trkpt lat="47.2608" lon="-2.33945">
        <ele>13.800000190735</ele>
        <time>2019-10-13T07:15:23.000Z</time>
      </trkpt>
      <trkpt lat="47.26127" lon="-2.33956">
        <ele>13.800000190735</ele>
        <time>2019-10-13T07:15:31.000Z</time>
      </trkpt>
      <trkpt lat="47.26143" lon="-2.3396">
        <ele>13.800000190735</ele>
        <time>2019-10-13T07:15:35.000Z</time>
      </trkpt>
      <trkpt lat="47.26153" lon="-2.3396">
        <ele>13.800000190735</ele>
        <time>2019-10-13T07:15:40.000Z</time>
      </trkpt>
      <trkpt lat="47.26154" lon="-2.3396">
        <ele>13.800000190735</ele>
        <time>2019-10-13T07:16:17.000Z</time>
      </trkpt>
      <trkpt lat="47.2616" lon="-2.33964">
        <ele>13.800000190735</ele>
        <time>2019-10-13T07:16:20.000Z</time>
      </trkpt>
      <trkpt lat="47.2617" lon="-2.33966">
        <ele>13.800000190735</ele>
        <time>2019-10-13T07:16:23.000Z</time>
      </trkpt>
      <trkpt lat="47.26201" lon="-2.33973">
        <ele>13.800000190735</ele>
        <time>2019-10-13T07:16:30.000Z</time>
      </trkpt>
      <trkpt lat="47.26234" lon="-2.33978">
        <ele>13.800000190735</ele>
        <time>2019-10-13T07:16:36.000Z</time>
      </trkpt>
      <trkpt lat="47.26267" lon="-2.33986">
        <ele>13.800000190735</ele>
        <time>2019-10-13T07:16:43.000Z</time>
      </trkpt>
      <trkpt lat="47.26287" lon="-2.33989">
        <ele>14.199999809265</ele>
        <time>2019-10-13T07:16:47.000Z</time>
      </trkpt>
      <trkpt lat="47.26291" lon="-2.33989">
        <ele>14.60000038147</ele>
        <time>2019-10-13T07:16:48.000Z</time>
      </trkpt>
      <trkpt lat="47.26296" lon="-2.3399">
        <ele>15</ele>
        <time>2019-10-13T07:16:49.000Z</time>
      </trkpt>
      <trkpt lat="47.26301" lon="-2.33991">
        <ele>15.39999961853</ele>
        <time>2019-10-13T07:16:50.000Z</time>
      </trkpt>
      <trkpt lat="47.26306" lon="-2.33992">
        <ele>15.800000190735</ele>
        <time>2019-10-13T07:16:51.000Z</time>
      </trkpt>
      <trkpt lat="47.26344" lon="-2.34001">
        <ele>15.800000190735</ele>
        <time>2019-10-13T07:16:58.000Z</time>
      </trkpt>
      <trkpt lat="47.26379" lon="-2.34011">
        <ele>15.800000190735</ele>
        <time>2019-10-13T07:17:05.000Z</time>
      </trkpt>
      <trkpt lat="47.26395" lon="-2.34014">
        <ele>16.200000762939</ele>
        <time>2019-10-13T07:17:08.000Z</time>
      </trkpt>
      <trkpt lat="47.26401" lon="-2.34015">
        <ele>16.60000038147</ele>
        <time>2019-10-13T07:17:09.000Z</time>
      </trkpt>
      <trkpt lat="47.26406" lon="-2.34017">
        <ele>17</ele>
        <time>2019-10-13T07:17:10.000Z</time>
      </trkpt>
      <trkpt lat="47.26411" lon="-2.34018">
        <ele>17.39999961853</ele>
        <time>2019-10-13T07:17:11.000Z</time>
      </trkpt>
      <trkpt lat="47.26417" lon="-2.34019">
        <ele>17.799999237061</ele>
        <time>2019-10-13T07:17:12.000Z</time>
      </trkpt>
      <trkpt lat="47.26461" lon="-2.34028">
        <ele>17.799999237061</ele>
        <time>2019-10-13T07:17:20.000Z</time>
      </trkpt>
      <trkpt lat="47.26483" lon="-2.34033">
        <ele>17.799999237061</ele>
        <time>2019-10-13T07:17:24.000Z</time>
      </trkpt>
      <trkpt lat="47.26493" lon="-2.34036">
        <ele>17.799999237061</ele>
        <time>2019-10-13T07:17:26.000Z</time>
      </trkpt>
      <trkpt lat="47.26531" lon="-2.34041">
        <ele>17.799999237061</ele>
        <time>2019-10-13T07:17:33.000Z</time>
      </trkpt>
      <trkpt lat="47.26561" lon="-2.3405">
        <ele>17.799999237061</ele>
        <time>2019-10-13T07:17:39.000Z</time>
      </trkpt>
      <trkpt lat="47.26583" lon="-2.34061">
        <ele>17.799999237061</ele>
        <time>2019-10-13T07:17:44.000Z</time>
      </trkpt>
      <trkpt lat="47.26616" lon="-2.34082">
        <ele>17.799999237061</ele>
        <time>2019-10-13T07:17:51.000Z</time>
      </trkpt>
      <trkpt lat="47.26639" lon="-2.34099">
        <ele>17.799999237061</ele>
        <time>2019-10-13T07:17:56.000Z</time>
      </trkpt>
      <trkpt lat="47.26644" lon="-2.34103">
        <ele>17.799999237061</ele>
        <time>2019-10-13T07:17:57.000Z</time>
      </trkpt>
      <trkpt lat="47.26684" lon="-2.34132">
        <ele>17.799999237061</ele>
        <time>2019-10-13T07:18:05.000Z</time>
      </trkpt>
      <trkpt lat="47.26719" lon="-2.34157">
        <ele>17.799999237061</ele>
        <time>2019-10-13T07:18:12.000Z</time>
      </trkpt>
      <trkpt lat="47.26758" lon="-2.34185">
        <ele>17.799999237061</ele>
        <time>2019-10-13T07:18:19.000Z</time>
      </trkpt>
      <trkpt lat="47.26802" lon="-2.34218">
        <ele>17.799999237061</ele>
        <time>2019-10-13T07:18:27.000Z</time>
      </trkpt>
      <trkpt lat="47.26841" lon="-2.34247">
        <ele>17.799999237061</ele>
        <time>2019-10-13T07:18:34.000Z</time>
      </trkpt>
      <trkpt lat="47.26887" lon="-2.34275">
        <ele>17.799999237061</ele>
        <time>2019-10-13T07:18:42.000Z</time>
      </trkpt>
      <trkpt lat="47.26911" lon="-2.34292">
        <ele>17.799999237061</ele>
        <time>2019-10-13T07:18:47.000Z</time>
      </trkpt>
      <trkpt lat="47.26922" lon="-2.34304">
        <ele>17.799999237061</ele>
        <time>2019-10-13T07:18:50.000Z</time>
      </trkpt>
      <trkpt lat="47.26926" lon="-2.34305">
        <ele>17.799999237061</ele>
        <time>2019-10-13T07:18:51.000Z</time>
      </trkpt>
      <trkpt lat="47.26952" lon="-2.34307">
        <ele>17.799999237061</ele>
        <time>2019-10-13T07:18:56.000Z</time>
      </trkpt>
      <trkpt lat="47.26994" lon="-2.34316">
        <ele>17.799999237061</ele>
        <time>2019-10-13T07:19:03.000Z</time>
      </trkpt>
      <trkpt lat="47.27006" lon="-2.34317">
        <ele>17.799999237061</ele>
        <time>2019-10-13T07:19:05.000Z</time>
      </trkpt>
      <trkpt lat="47.27024" lon="-2.34317">
        <ele>18.200000762939</ele>
        <time>2019-10-13T07:19:08.000Z</time>
      </trkpt>
      <trkpt lat="47.2703" lon="-2.34317">
        <ele>18.60000038147</ele>
        <time>2019-10-13T07:19:09.000Z</time>
      </trkpt>
      <trkpt lat="47.27036" lon="-2.34317">
        <ele>19</ele>
        <time>2019-10-13T07:19:10.000Z</time>
      </trkpt>
      <trkpt lat="47.27042" lon="-2.34318">
        <ele>19.60000038147</ele>
        <time>2019-10-13T07:19:11.000Z</time>
      </trkpt>
      <trkpt lat="47.27048" lon="-2.34319">
        <ele>20</ele>
        <time>2019-10-13T07:19:12.000Z</time>
      </trkpt>
      <trkpt lat="47.27066" lon="-2.34318">
        <ele>20</ele>
        <time>2019-10-13T07:19:15.000Z</time>
      </trkpt>
      <trkpt lat="47.27094" lon="-2.34318">
        <ele>20</ele>
        <time>2019-10-13T07:19:20.000Z</time>
      </trkpt>
      <trkpt lat="47.27105" lon="-2.34319">
        <ele>20</ele>
        <time>2019-10-13T07:19:22.000Z</time>
      </trkpt>
      <trkpt lat="47.27122" lon="-2.3432">
        <ele>20.39999961853</ele>
        <time>2019-10-13T07:19:25.000Z</time>
      </trkpt>
      <trkpt lat="47.27127" lon="-2.34321">
        <ele>20.799999237061</ele>
        <time>2019-10-13T07:19:26.000Z</time>
      </trkpt>
      <trkpt lat="47.27133" lon="-2.34321">
        <ele>21.799999237061</ele>
        <time>2019-10-13T07:19:27.000Z</time>
      </trkpt>
      <trkpt lat="47.27138" lon="-2.34321">
        <ele>22.200000762939</ele>
        <time>2019-10-13T07:19:28.000Z</time>
      </trkpt>
      <trkpt lat="47.27149" lon="-2.3432">
        <ele>22.200000762939</ele>
        <time>2019-10-13T07:19:30.000Z</time>
      </trkpt>
      <trkpt lat="47.2717" lon="-2.34321">
        <ele>22.200000762939</ele>
        <time>2019-10-13T07:19:34.000Z</time>
      </trkpt>
      <trkpt lat="47.27191" lon="-2.34322">
        <ele>23.799999237061</ele>
        <time>2019-10-13T07:19:35.000Z</time>
      </trkpt>
      <trkpt lat="47.27191" lon="-2.34322">
        <ele>23.799999237061</ele>
        <time>2019-10-13T07:19:38.000Z</time>
      </trkpt>
      <trkpt lat="47.27196" lon="-2.34322">
        <ele>24.200000762939</ele>
        <time>2019-10-13T07:19:39.000Z</time>
      </trkpt>
      <trkpt lat="47.27226" lon="-2.34322">
        <ele>24.200000762939</ele>
        <time>2019-10-13T07:19:45.000Z</time>
      </trkpt>
      <trkpt lat="47.27236" lon="-2.34322">
        <ele>24.60000038147</ele>
        <time>2019-10-13T07:19:47.000Z</time>
      </trkpt>
      <trkpt lat="47.27241" lon="-2.34322">
        <ele>25</ele>
        <time>2019-10-13T07:19:48.000Z</time>
      </trkpt>
      <trkpt lat="47.27245" lon="-2.34322">
        <ele>25.39999961853</ele>
        <time>2019-10-13T07:19:49.000Z</time>
      </trkpt>
      <trkpt lat="47.2725" lon="-2.34322">
        <ele>25.799999237061</ele>
        <time>2019-10-13T07:19:50.000Z</time>
      </trkpt>
      <trkpt lat="47.27255" lon="-2.34323">
        <ele>26.200000762939</ele>
        <time>2019-10-13T07:19:51.000Z</time>
      </trkpt>
      <trkpt lat="47.27264" lon="-2.34322">
        <ele>26.200000762939</ele>
        <time>2019-10-13T07:19:53.000Z</time>
      </trkpt>
      <trkpt lat="47.2728" lon="-2.34319">
        <ele>26.200000762939</ele>
        <time>2019-10-13T07:19:56.000Z</time>
      </trkpt>
      <trkpt lat="47.27304" lon="-2.34309">
        <ele>27.39999961853</ele>
        <time>2019-10-13T07:19:59.000Z</time>
      </trkpt>
      <trkpt lat="47.27309" lon="-2.34307">
        <ele>27.799999237061</ele>
        <time>2019-10-13T07:20:03.000Z</time>
      </trkpt>
      <trkpt lat="47.27314" lon="-2.34304">
        <ele>28.200000762939</ele>
        <time>2019-10-13T07:20:04.000Z</time>
      </trkpt>
      <trkpt lat="47.27332" lon="-2.34293">
        <ele>28.200000762939</ele>
        <time>2019-10-13T07:20:06.000Z</time>
      </trkpt>
      <trkpt lat="47.27341" lon="-2.34288">
        <ele>28.200000762939</ele>
        <time>2019-10-13T07:20:10.000Z</time>
      </trkpt>
      <trkpt lat="47.27353" lon="-2.34277">
        <ele>28.799999237061</ele>
        <time>2019-10-13T07:20:13.000Z</time>
      </trkpt>
      <trkpt lat="47.27358" lon="-2.34275">
        <ele>29.200000762939</ele>
        <time>2019-10-13T07:20:14.000Z</time>
      </trkpt>
      <trkpt lat="47.27362" lon="-2.34272">
        <ele>29.60000038147</ele>
        <time>2019-10-13T07:20:15.000Z</time>
      </trkpt>
      <trkpt lat="47.27366" lon="-2.34268">
        <ele>30</ele>
        <time>2019-10-13T07:20:16.000Z</time>
      </trkpt>
      <trkpt lat="47.2737" lon="-2.34265">
        <ele>30.39999961853</ele>
        <time>2019-10-13T07:20:17.000Z</time>
      </trkpt>
      <trkpt lat="47.27387" lon="-2.34254">
        <ele>30.39999961853</ele>
        <time>2019-10-13T07:20:21.000Z</time>
      </trkpt>
      <trkpt lat="47.27403" lon="-2.34243">
        <ele>30.39999961853</ele>
        <time>2019-10-13T07:20:25.000Z</time>
      </trkpt>
      <trkpt lat="47.27411" lon="-2.34242">
        <ele>30.39999961853</ele>
        <time>2019-10-13T07:20:27.000Z</time>
      </trkpt>
      <trkpt lat="47.27419" lon="-2.34256">
        <ele>30.39999961853</ele>
        <time>2019-10-13T07:20:30.000Z</time>
      </trkpt>
      <trkpt lat="47.2742" lon="-2.34262">
        <ele>30.799999237061</ele>
        <time>2019-10-13T07:20:31.000Z</time>
      </trkpt>
      <trkpt lat="47.27421" lon="-2.34268">
        <ele>31.200000762939</ele>
        <time>2019-10-13T07:20:32.000Z</time>
      </trkpt>
      <trkpt lat="47.27421" lon="-2.34273">
        <ele>31.60000038147</ele>
        <time>2019-10-13T07:20:33.000Z</time>
      </trkpt>
      <trkpt lat="47.27421" lon="-2.3428">
        <ele>32</ele>
        <time>2019-10-13T07:20:34.000Z</time>
      </trkpt>
      <trkpt lat="47.27421" lon="-2.34287">
        <ele>32.400001525879</ele>
        <time>2019-10-13T07:20:35.000Z</time>
      </trkpt>
      <trkpt lat="47.27421" lon="-2.34293">
        <ele>32.400001525879</ele>
        <time>2019-10-13T07:20:36.000Z</time>
      </trkpt>
      <trkpt lat="47.2742" lon="-2.34316">
        <ele>32.400001525879</ele>
        <time>2019-10-13T07:20:40.000Z</time>
      </trkpt>
      <trkpt lat="47.27421" lon="-2.34328">
        <ele>32.400001525879</ele>
        <time>2019-10-13T07:20:42.000Z</time>
      </trkpt>
      <trkpt lat="47.27425" lon="-2.34376">
        <ele>32.400001525879</ele>
        <time>2019-10-13T07:20:49.000Z</time>
      </trkpt>
      <trkpt lat="47.27425" lon="-2.34382">
        <ele>32.400001525879</ele>
        <time>2019-10-13T07:20:50.000Z</time>
      </trkpt>
      <trkpt lat="47.27428" lon="-2.34416">
        <ele>32.799999237061</ele>
        <time>2019-10-13T07:20:55.000Z</time>
      </trkpt>
      <trkpt lat="47.27429" lon="-2.34423">
        <ele>33.200000762939</ele>
        <time>2019-10-13T07:20:56.000Z</time>
      </trkpt>
      <trkpt lat="47.27429" lon="-2.3443">
        <ele>33.599998474121</ele>
        <time>2019-10-13T07:20:57.000Z</time>
      </trkpt>
      <trkpt lat="47.27429" lon="-2.34436">
        <ele>34</ele>
        <time>2019-10-13T07:20:58.000Z</time>
      </trkpt>
      <trkpt lat="47.2743" lon="-2.34443">
        <ele>34.400001525879</ele>
        <time>2019-10-13T07:20:59.000Z</time>
      </trkpt>
      <trkpt lat="47.27432" lon="-2.3447">
        <ele>34.400001525879</ele>
        <time>2019-10-13T07:21:03.000Z</time>
      </trkpt>
      <trkpt lat="47.27433" lon="-2.34477">
        <ele>34.400001525879</ele>
        <time>2019-10-13T07:21:04.000Z</time>
      </trkpt>
      <trkpt lat="47.27437" lon="-2.3451">
        <ele>34.400001525879</ele>
        <time>2019-10-13T07:21:09.000Z</time>
      </trkpt>
      <trkpt lat="47.27444" lon="-2.34543">
        <ele>34.400001525879</ele>
        <time>2019-10-13T07:21:14.000Z</time>
      </trkpt>
      <trkpt lat="47.27446" lon="-2.3455">
        <ele>34.400001525879</ele>
        <time>2019-10-13T07:21:15.000Z</time>
      </trkpt>
      <trkpt lat="47.27451" lon="-2.34577">
        <ele>34.400001525879</ele>
        <time>2019-10-13T07:21:19.000Z</time>
      </trkpt>
      <trkpt lat="47.27454" lon="-2.34591">
        <ele>34.400001525879</ele>
        <time>2019-10-13T07:21:21.000Z</time>
      </trkpt>
      <trkpt lat="47.27461" lon="-2.34661">
        <ele>34.400001525879</ele>
        <time>2019-10-13T07:21:29.000Z</time>
      </trkpt>
      <trkpt lat="47.27461" lon="-2.3467">
        <ele>34.400001525879</ele>
        <time>2019-10-13T07:21:30.000Z</time>
      </trkpt>
      <trkpt lat="47.27462" lon="-2.34685">
        <ele>34.400001525879</ele>
        <time>2019-10-13T07:21:32.000Z</time>
      </trkpt>
      <trkpt lat="47.27468" lon="-2.34692">
        <ele>34.400001525879</ele>
        <time>2019-10-13T07:21:34.000Z</time>
      </trkpt>
      <trkpt lat="47.2748" lon="-2.34682">
        <ele>34.400001525879</ele>
        <time>2019-10-13T07:21:37.000Z</time>
      </trkpt>
      <trkpt lat="47.27492" lon="-2.34676">
        <ele>34.400001525879</ele>
        <time>2019-10-13T07:21:39.000Z</time>
      </trkpt>
      <trkpt lat="47.27497" lon="-2.34674">
        <ele>34.400001525879</ele>
        <time>2019-10-13T07:21:40.000Z</time>
      </trkpt>
      <trkpt lat="47.27531" lon="-2.34672">
        <ele>34.400001525879</ele>
        <time>2019-10-13T07:21:46.000Z</time>
      </trkpt>
      <trkpt lat="47.27553" lon="-2.34667">
        <ele>34.400001525879</ele>
        <time>2019-10-13T07:21:50.000Z</time>
      </trkpt>
      <trkpt lat="47.27564" lon="-2.34661">
        <ele>34.400001525879</ele>
        <time>2019-10-13T07:21:52.000Z</time>
      </trkpt>
      <trkpt lat="47.27569" lon="-2.34657">
        <ele>34.400001525879</ele>
        <time>2019-10-13T07:21:53.000Z</time>
      </trkpt>
      <trkpt lat="47.2759" lon="-2.34638">
        <ele>34.400001525879</ele>
        <time>2019-10-13T07:21:57.000Z</time>
      </trkpt>
      <trkpt lat="47.27633" lon="-2.34596">
        <ele>34.400001525879</ele>
        <time>2019-10-13T07:22:05.000Z</time>
      </trkpt>
      <trkpt lat="47.27662" lon="-2.34572">
        <ele>34.400001525879</ele>
        <time>2019-10-13T07:22:11.000Z</time>
      </trkpt>
      <trkpt lat="47.27665" lon="-2.34568">
        <ele>34.400001525879</ele>
        <time>2019-10-13T07:22:12.000Z</time>
      </trkpt>
      <trkpt lat="47.27673" lon="-2.34562">
        <ele>34.400001525879</ele>
        <time>2019-10-13T07:22:14.000Z</time>
      </trkpt>
      <trkpt lat="47.27676" lon="-2.34563">
        <ele>34.400001525879</ele>
        <time>2019-10-13T07:22:15.000Z</time>
      </trkpt>
      <trkpt lat="47.27682" lon="-2.34571">
        <ele>34.400001525879</ele>
        <time>2019-10-13T07:22:19.000Z</time>
      </trkpt>
      <trkpt lat="47.27684" lon="-2.34574">
        <ele>34.400001525879</ele>
        <time>2019-10-13T07:22:20.000Z</time>
      </trkpt>
      <trkpt lat="47.27689" lon="-2.34591">
        <ele>34.400001525879</ele>
        <time>2019-10-13T07:22:24.000Z</time>
      </trkpt>
      <trkpt lat="47.27693" lon="-2.34628">
        <ele>34.400001525879</ele>
        <time>2019-10-13T07:22:30.000Z</time>
      </trkpt>
      <trkpt lat="47.27695" lon="-2.34656">
        <ele>34.400001525879</ele>
        <time>2019-10-13T07:22:34.000Z</time>
      </trkpt>
      <trkpt lat="47.27697" lon="-2.34669">
        <ele>34.400001525879</ele>
        <time>2019-10-13T07:22:36.000Z</time>
      </trkpt>
      <trkpt lat="47.277" lon="-2.34688">
        <ele>34.400001525879</ele>
        <time>2019-10-13T07:22:40.000Z</time>
      </trkpt>
      <trkpt lat="47.27702" lon="-2.34694">
        <ele>34.400001525879</ele>
        <time>2019-10-13T07:22:41.000Z</time>
      </trkpt>
      <trkpt lat="47.27707" lon="-2.34713">
        <ele>34.400001525879</ele>
        <time>2019-10-13T07:22:44.000Z</time>
      </trkpt>
      <trkpt lat="47.27713" lon="-2.34751">
        <ele>34.400001525879</ele>
        <time>2019-10-13T07:22:49.000Z</time>
      </trkpt>
      <trkpt lat="47.27715" lon="-2.34758">
        <ele>34.400001525879</ele>
        <time>2019-10-13T07:22:50.000Z</time>
      </trkpt>
      <trkpt lat="47.27725" lon="-2.34778">
        <ele>34.400001525879</ele>
        <time>2019-10-13T07:22:53.000Z</time>
      </trkpt>
      <trkpt lat="47.27728" lon="-2.34785">
        <ele>34.400001525879</ele>
        <time>2019-10-13T07:22:54.000Z</time>
      </trkpt>
      <trkpt lat="47.27741" lon="-2.34813">
        <ele>34.400001525879</ele>
        <time>2019-10-13T07:22:58.000Z</time>
      </trkpt>
      <trkpt lat="47.27761" lon="-2.34853">
        <ele>34.400001525879</ele>
        <time>2019-10-13T07:23:04.000Z</time>
      </trkpt>
      <trkpt lat="47.27765" lon="-2.34859">
        <ele>34.400001525879</ele>
        <time>2019-10-13T07:23:05.000Z</time>
      </trkpt>
      <trkpt lat="47.27768" lon="-2.34866">
        <ele>34</ele>
        <time>2019-10-13T07:23:06.000Z</time>
      </trkpt>
      <trkpt lat="47.27771" lon="-2.34871">
        <ele>33.599998474121</ele>
        <time>2019-10-13T07:23:07.000Z</time>
      </trkpt>
      <trkpt lat="47.27776" lon="-2.34875">
        <ele>33.200000762939</ele>
        <time>2019-10-13T07:23:08.000Z</time>
      </trkpt>
      <trkpt lat="47.27781" lon="-2.34876">
        <ele>32.799999237061</ele>
        <time>2019-10-13T07:23:09.000Z</time>
      </trkpt>
      <trkpt lat="47.27785" lon="-2.34877">
        <ele>32.400001525879</ele>
        <time>2019-10-13T07:23:10.000Z</time>
      </trkpt>
      <trkpt lat="47.27792" lon="-2.34879">
        <ele>32</ele>
        <time>2019-10-13T07:23:12.000Z</time>
      </trkpt>
      <trkpt lat="47.27796" lon="-2.3488">
        <ele>31.60000038147</ele>
        <time>2019-10-13T07:23:13.000Z</time>
      </trkpt>
      <trkpt lat="47.27799" lon="-2.34883">
        <ele>31.200000762939</ele>
        <time>2019-10-13T07:23:14.000Z</time>
      </trkpt>
      <trkpt lat="47.27802" lon="-2.34886">
        <ele>30.799999237061</ele>
        <time>2019-10-13T07:23:15.000Z</time>
      </trkpt>
      <trkpt lat="47.27805" lon="-2.34889">
        <ele>30.39999961853</ele>
        <time>2019-10-13T07:23:16.000Z</time>
      </trkpt>
      <trkpt lat="47.27809" lon="-2.34892">
        <ele>30.39999961853</ele>
        <time>2019-10-13T07:23:17.000Z</time>
      </trkpt>
      <trkpt lat="47.27818" lon="-2.34898">
        <ele>30.39999961853</ele>
        <time>2019-10-13T07:23:19.000Z</time>
      </trkpt>
      <trkpt lat="47.27827" lon="-2.34906">
        <ele>30.39999961853</ele>
        <time>2019-10-13T07:23:21.000Z</time>
      </trkpt>
      <trkpt lat="47.27844" lon="-2.34926">
        <ele>30.39999961853</ele>
        <time>2019-10-13T07:23:25.000Z</time>
      </trkpt>
      <trkpt lat="47.27861" lon="-2.34945">
        <ele>30.39999961853</ele>
        <time>2019-10-13T07:23:29.000Z</time>
      </trkpt>
      <trkpt lat="47.27872" lon="-2.34961">
        <ele>30.39999961853</ele>
        <time>2019-10-13T07:23:32.000Z</time>
      </trkpt>
      <trkpt lat="47.27878" lon="-2.34976">
        <ele>30.39999961853</ele>
        <time>2019-10-13T07:23:34.000Z</time>
      </trkpt>
      <trkpt lat="47.27881" lon="-2.34983">
        <ele>30.799999237061</ele>
        <time>2019-10-13T07:23:35.000Z</time>
      </trkpt>
      <trkpt lat="47.27884" lon="-2.3499">
        <ele>31.60000038147</ele>
        <time>2019-10-13T07:23:36.000Z</time>
      </trkpt>
      <trkpt lat="47.27886" lon="-2.34998">
        <ele>32</ele>
        <time>2019-10-13T07:23:37.000Z</time>
      </trkpt>
      <trkpt lat="47.27889" lon="-2.35006">
        <ele>32.400001525879</ele>
        <time>2019-10-13T07:23:38.000Z</time>
      </trkpt>
      <trkpt lat="47.27898" lon="-2.35036">
        <ele>32.400001525879</ele>
        <time>2019-10-13T07:23:42.000Z</time>
      </trkpt>
      <trkpt lat="47.27901" lon="-2.35039">
        <ele>32.400001525879</ele>
        <time>2019-10-13T07:23:43.000Z</time>
      </trkpt>
      <trkpt lat="47.27913" lon="-2.35039">
        <ele>32.400001525879</ele>
        <time>2019-10-13T07:23:46.000Z</time>
      </trkpt>
      <trkpt lat="47.27919" lon="-2.35036">
        <ele>32.400001525879</ele>
        <time>2019-10-13T07:23:48.000Z</time>
      </trkpt>
      <trkpt lat="47.27926" lon="-2.35037">
        <ele>32.400001525879</ele>
        <time>2019-10-13T07:23:51.000Z</time>
      </trkpt>
      <trkpt lat="47.27939" lon="-2.35041">
        <ele>32.400001525879</ele>
        <time>2019-10-13T07:23:57.000Z</time>
      </trkpt>
      <trkpt lat="47.27948" lon="-2.35056">
        <ele>32.400001525879</ele>
        <time>2019-10-13T07:24:00.000Z</time>
      </trkpt>
      <trkpt lat="47.2795" lon="-2.35061">
        <ele>32</ele>
        <time>2019-10-13T07:24:01.000Z</time>
      </trkpt>
      <trkpt lat="47.2795" lon="-2.35065">
        <ele>31.200000762939</ele>
        <time>2019-10-13T07:24:02.000Z</time>
      </trkpt>
      <trkpt lat="47.27951" lon="-2.35068">
        <ele>30.799999237061</ele>
        <time>2019-10-13T07:24:03.000Z</time>
      </trkpt>
      <trkpt lat="47.27951" lon="-2.35072">
        <ele>30.39999961853</ele>
        <time>2019-10-13T07:24:04.000Z</time>
      </trkpt>
      <trkpt lat="47.27954" lon="-2.35092">
        <ele>30.39999961853</ele>
        <time>2019-10-13T07:24:08.000Z</time>
      </trkpt>
      <trkpt lat="47.27952" lon="-2.35113">
        <ele>30.39999961853</ele>
        <time>2019-10-13T07:24:11.000Z</time>
      </trkpt>
      <trkpt lat="47.27947" lon="-2.35135">
        <ele>30.39999961853</ele>
        <time>2019-10-13T07:24:12.000Z</time>
      </trkpt>
      <trkpt lat="47.27947" lon="-2.35135">
        <ele>30.39999961853</ele>
        <time>2019-10-13T07:24:15.000Z</time>
      </trkpt>
      <trkpt lat="47.27942" lon="-2.35149">
        <ele>30.39999961853</ele>
        <time>2019-10-13T07:24:17.000Z</time>
      </trkpt>
      <trkpt lat="47.27936" lon="-2.35162">
        <ele>30.39999961853</ele>
        <time>2019-10-13T07:24:19.000Z</time>
      </trkpt>
      <trkpt lat="47.27933" lon="-2.35169">
        <ele>30</ele>
        <time>2019-10-13T07:24:20.000Z</time>
      </trkpt>
      <trkpt lat="47.27931" lon="-2.35175">
        <ele>29.60000038147</ele>
        <time>2019-10-13T07:24:21.000Z</time>
      </trkpt>
      <trkpt lat="47.27928" lon="-2.35181">
        <ele>29.200000762939</ele>
        <time>2019-10-13T07:24:22.000Z</time>
      </trkpt>
      <trkpt lat="47.27924" lon="-2.35185">
        <ele>28.799999237061</ele>
        <time>2019-10-13T07:24:23.000Z</time>
      </trkpt>
      <trkpt lat="47.2792" lon="-2.3519">
        <ele>28.39999961853</ele>
        <time>2019-10-13T07:24:24.000Z</time>
      </trkpt>
      <trkpt lat="47.27917" lon="-2.35197">
        <ele>28.39999961853</ele>
        <time>2019-10-13T07:24:25.000Z</time>
      </trkpt>
      <trkpt lat="47.27914" lon="-2.35214">
        <ele>28.39999961853</ele>
        <time>2019-10-13T07:24:27.000Z</time>
      </trkpt>
      <trkpt lat="47.27915" lon="-2.3523">
        <ele>28.39999961853</ele>
        <time>2019-10-13T07:24:29.000Z</time>
      </trkpt>
      <trkpt lat="47.27917" lon="-2.35245">
        <ele>28.39999961853</ele>
        <time>2019-10-13T07:24:31.000Z</time>
      </trkpt>
      <trkpt lat="47.27918" lon="-2.35252">
        <ele>28.39999961853</ele>
        <time>2019-10-13T07:24:32.000Z</time>
      </trkpt>
      <trkpt lat="47.27929" lon="-2.35303">
        <ele>28.39999961853</ele>
        <time>2019-10-13T07:24:39.000Z</time>
      </trkpt>
      <trkpt lat="47.27933" lon="-2.35315">
        <ele>28.39999961853</ele>
        <time>2019-10-13T07:24:41.000Z</time>
      </trkpt>
      <trkpt lat="47.27932" lon="-2.35323">
        <ele>28.39999961853</ele>
        <time>2019-10-13T07:24:43.000Z</time>
      </trkpt>
      <trkpt lat="47.2793" lon="-2.35324">
        <ele>28.39999961853</ele>
        <time>2019-10-13T07:24:44.000Z</time>
      </trkpt>
      <trkpt lat="47.27922" lon="-2.35323">
        <ele>28.39999961853</ele>
        <time>2019-10-13T07:24:49.000Z</time>
      </trkpt>
      <trkpt lat="47.27909" lon="-2.35323">
        <ele>28.39999961853</ele>
        <time>2019-10-13T07:24:54.000Z</time>
      </trkpt>
      <trkpt lat="47.27893" lon="-2.35332">
        <ele>28.39999961853</ele>
        <time>2019-10-13T07:24:58.000Z</time>
      </trkpt>
      <trkpt lat="47.27889" lon="-2.35335">
        <ele>28.39999961853</ele>
        <time>2019-10-13T07:24:59.000Z</time>
      </trkpt>
      <trkpt lat="47.27883" lon="-2.35355">
        <ele>28.39999961853</ele>
        <time>2019-10-13T07:25:02.000Z</time>
      </trkpt>
      <trkpt lat="47.27884" lon="-2.35379">
        <ele>28.39999961853</ele>
        <time>2019-10-13T07:25:06.000Z</time>
      </trkpt>
      <trkpt lat="47.27895" lon="-2.35393">
        <ele>28.39999961853</ele>
        <time>2019-10-13T07:25:09.000Z</time>
      </trkpt>
      <trkpt lat="47.27906" lon="-2.35409">
        <ele>28.39999961853</ele>
        <time>2019-10-13T07:25:12.000Z</time>
      </trkpt>
      <trkpt lat="47.27933" lon="-2.35444">
        <ele>28.39999961853</ele>
        <time>2019-10-13T07:25:19.000Z</time>
      </trkpt>
      <trkpt lat="47.27942" lon="-2.35453">
        <ele>28.39999961853</ele>
        <time>2019-10-13T07:25:21.000Z</time>
      </trkpt>
      <trkpt lat="47.27951" lon="-2.35459">
        <ele>28</ele>
        <time>2019-10-13T07:25:23.000Z</time>
      </trkpt>
      <trkpt lat="47.27956" lon="-2.35462">
        <ele>27.60000038147</ele>
        <time>2019-10-13T07:25:24.000Z</time>
      </trkpt>
      <trkpt lat="47.2796" lon="-2.35464">
        <ele>27.200000762939</ele>
        <time>2019-10-13T07:25:25.000Z</time>
      </trkpt>
      <trkpt lat="47.27965" lon="-2.35467">
        <ele>26.799999237061</ele>
        <time>2019-10-13T07:25:26.000Z</time>
      </trkpt>
      <trkpt lat="47.27969" lon="-2.3547">
        <ele>26.39999961853</ele>
        <time>2019-10-13T07:25:27.000Z</time>
      </trkpt>
      <trkpt lat="47.27973" lon="-2.35474">
        <ele>26.39999961853</ele>
        <time>2019-10-13T07:25:28.000Z</time>
      </trkpt>
      <trkpt lat="47.27983" lon="-2.35489">
        <ele>26.39999961853</ele>
        <time>2019-10-13T07:25:30.000Z</time>
      </trkpt>
      <trkpt lat="47.27997" lon="-2.35517">
        <ele>26.39999961853</ele>
        <time>2019-10-13T07:25:35.000Z</time>
      </trkpt>
      <trkpt lat="47.28008" lon="-2.35546">
        <ele>26.39999961853</ele>
        <time>2019-10-13T07:25:41.000Z</time>
      </trkpt>
      <trkpt lat="47.28015" lon="-2.35553">
        <ele>26.799999237061</ele>
        <time>2019-10-13T07:25:43.000Z</time>
      </trkpt>
      <trkpt lat="47.28018" lon="-2.35556">
        <ele>27.200000762939</ele>
        <time>2019-10-13T07:25:44.000Z</time>
      </trkpt>
      <trkpt lat="47.28022" lon="-2.35558">
        <ele>27.60000038147</ele>
        <time>2019-10-13T07:25:45.000Z</time>
      </trkpt>
      <trkpt lat="47.28026" lon="-2.35561">
        <ele>28</ele>
        <time>2019-10-13T07:25:46.000Z</time>
      </trkpt>
      <trkpt lat="47.28029" lon="-2.35564">
        <ele>28.39999961853</ele>
        <time>2019-10-13T07:25:47.000Z</time>
      </trkpt>
      <trkpt lat="47.28037" lon="-2.35571">
        <ele>28.39999961853</ele>
        <time>2019-10-13T07:25:49.000Z</time>
      </trkpt>
      <trkpt lat="47.28045" lon="-2.35576">
        <ele>28.39999961853</ele>
        <time>2019-10-13T07:25:51.000Z</time>
      </trkpt>
      <trkpt lat="47.28062" lon="-2.35582">
        <ele>28.39999961853</ele>
        <time>2019-10-13T07:25:56.000Z</time>
      </trkpt>
      <trkpt lat="47.28068" lon="-2.35585">
        <ele>28.799999237061</ele>
        <time>2019-10-13T07:25:58.000Z</time>
      </trkpt>
      <trkpt lat="47.2807" lon="-2.35588">
        <ele>29.200000762939</ele>
        <time>2019-10-13T07:25:59.000Z</time>
      </trkpt>
      <trkpt lat="47.28072" lon="-2.35593">
        <ele>29.60000038147</ele>
        <time>2019-10-13T07:26:00.000Z</time>
      </trkpt>
      <trkpt lat="47.28073" lon="-2.35599">
        <ele>30</ele>
        <time>2019-10-13T07:26:01.000Z</time>
      </trkpt>
      <trkpt lat="47.28075" lon="-2.35605">
        <ele>30.39999961853</ele>
        <time>2019-10-13T07:26:02.000Z</time>
      </trkpt>
      <trkpt lat="47.28079" lon="-2.35627">
        <ele>30.39999961853</ele>
        <time>2019-10-13T07:26:06.000Z</time>
      </trkpt>
      <trkpt lat="47.28081" lon="-2.35637">
        <ele>31</ele>
        <time>2019-10-13T07:26:08.000Z</time>
      </trkpt>
      <trkpt lat="47.28081" lon="-2.3564">
        <ele>31.39999961853</ele>
        <time>2019-10-13T07:26:09.000Z</time>
      </trkpt>
      <trkpt lat="47.28082" lon="-2.35644">
        <ele>31.799999237061</ele>
        <time>2019-10-13T07:26:10.000Z</time>
      </trkpt>
      <trkpt lat="47.28083" lon="-2.35648">
        <ele>32.200000762939</ele>
        <time>2019-10-13T07:26:11.000Z</time>
      </trkpt>
      <trkpt lat="47.28084" lon="-2.35652">
        <ele>32.799999237061</ele>
        <time>2019-10-13T07:26:12.000Z</time>
      </trkpt>
      <trkpt lat="47.28087" lon="-2.35661">
        <ele>33.200000762939</ele>
        <time>2019-10-13T07:26:14.000Z</time>
      </trkpt>
      <trkpt lat="47.28088" lon="-2.35665">
        <ele>33.599998474121</ele>
        <time>2019-10-13T07:26:15.000Z</time>
      </trkpt>
      <trkpt lat="47.28089" lon="-2.35669">
        <ele>34</ele>
        <time>2019-10-13T07:26:16.000Z</time>
      </trkpt>
      <trkpt lat="47.2809" lon="-2.35673">
        <ele>34.400001525879</ele>
        <time>2019-10-13T07:26:17.000Z</time>
      </trkpt>
      <trkpt lat="47.2809" lon="-2.35676">
        <ele>35</ele>
        <time>2019-10-13T07:26:18.000Z</time>
      </trkpt>
      <trkpt lat="47.28092" lon="-2.35685">
        <ele>35</ele>
        <time>2019-10-13T07:26:23.000Z</time>
      </trkpt>
      <trkpt lat="47.28092" lon="-2.35692">
        <ele>35</ele>
        <time>2019-10-13T07:26:26.000Z</time>
      </trkpt>
      <trkpt lat="47.28096" lon="-2.35691">
        <ele>37</ele>
        <time>2019-10-13T07:26:37.000Z</time>
      </trkpt>
      <trkpt lat="47.28096" lon="-2.35691">
        <ele>37</ele>
        <time>2019-10-13T07:26:40.000Z</time>
      </trkpt>
      <trkpt lat="47.28107" lon="-2.35682">
        <ele>38.200000762939</ele>
        <time>2019-10-13T07:26:47.000Z</time>
      </trkpt>
      <trkpt lat="47.28109" lon="-2.35681">
        <ele>38.799999237061</ele>
        <time>2019-10-13T07:26:50.000Z</time>
      </trkpt>
      <trkpt lat="47.28112" lon="-2.3568">
        <ele>39.200000762939</ele>
        <time>2019-10-13T07:26:51.000Z</time>
      </trkpt>
      <trkpt lat="47.28117" lon="-2.35679">
        <ele>39.599998474121</ele>
        <time>2019-10-13T07:26:54.000Z</time>
      </trkpt>
      <trkpt lat="47.28117" lon="-2.35679">
        <ele>40.400001525879</ele>
        <time>2019-10-13T07:26:55.000Z</time>
      </trkpt>
      <trkpt lat="47.28118" lon="-2.35679">
        <ele>40.799999237061</ele>
        <time>2019-10-13T07:26:56.000Z</time>
      </trkpt>
      <trkpt lat="47.28119" lon="-2.35679">
        <ele>41.400001525879</ele>
        <time>2019-10-13T07:26:57.000Z</time>
      </trkpt>
      <trkpt lat="47.28122" lon="-2.35677">
        <ele>41.400001525879</ele>
        <time>2019-10-13T07:27:00.000Z</time>
      </trkpt>
      <trkpt lat="47.28127" lon="-2.35675">
        <ele>41.400001525879</ele>
        <time>2019-10-13T07:27:02.000Z</time>
      </trkpt>
      <trkpt lat="47.28133" lon="-2.35676">
        <ele>41.799999237061</ele>
        <time>2019-10-13T07:27:05.000Z</time>
      </trkpt>
      <trkpt lat="47.28133" lon="-2.35675">
        <ele>42.200000762939</ele>
        <time>2019-10-13T07:27:06.000Z</time>
      </trkpt>
      <trkpt lat="47.28135" lon="-2.35673">
        <ele>42.599998474121</ele>
        <time>2019-10-13T07:27:07.000Z</time>
      </trkpt>
      <trkpt lat="47.28136" lon="-2.35672">
        <ele>43</ele>
        <time>2019-10-13T07:27:08.000Z</time>
      </trkpt>
      <trkpt lat="47.28137" lon="-2.35671">
        <ele>43.400001525879</ele>
        <time>2019-10-13T07:27:09.000Z</time>
      </trkpt>
      <trkpt lat="47.2814" lon="-2.3567">
        <ele>43.400001525879</ele>
        <time>2019-10-13T07:27:11.000Z</time>
      </trkpt>
      <trkpt lat="47.28142" lon="-2.35669">
        <ele>43.400001525879</ele>
        <time>2019-10-13T07:27:12.000Z</time>
      </trkpt>
      <trkpt lat="47.28144" lon="-2.3567">
        <ele>43.400001525879</ele>
        <time>2019-10-13T07:27:13.000Z</time>
      </trkpt>
      <trkpt lat="47.28155" lon="-2.35676">
        <ele>43.400001525879</ele>
        <time>2019-10-13T07:27:18.000Z</time>
      </trkpt>
      <trkpt lat="47.2816" lon="-2.35679">
        <ele>43</ele>
        <time>2019-10-13T07:27:21.000Z</time>
      </trkpt>
      <trkpt lat="47.28162" lon="-2.35679">
        <ele>42.599998474121</ele>
        <time>2019-10-13T07:27:22.000Z</time>
      </trkpt>
      <trkpt lat="47.28164" lon="-2.35679">
        <ele>42.200000762939</ele>
        <time>2019-10-13T07:27:23.000Z</time>
      </trkpt>
      <trkpt lat="47.28165" lon="-2.35679">
        <ele>41.799999237061</ele>
        <time>2019-10-13T07:27:24.000Z</time>
      </trkpt>
      <trkpt lat="47.28167" lon="-2.3568">
        <ele>41.400001525879</ele>
        <time>2019-10-13T07:27:25.000Z</time>
      </trkpt>
      <trkpt lat="47.28174" lon="-2.35685">
        <ele>40.799999237061</ele>
        <time>2019-10-13T07:27:30.000Z</time>
      </trkpt>
      <trkpt lat="47.28177" lon="-2.3569">
        <ele>39.400001525879</ele>
        <time>2019-10-13T07:27:31.000Z</time>
      </trkpt>
      <trkpt lat="47.28179" lon="-2.35692">
        <ele>39</ele>
        <time>2019-10-13T07:27:33.000Z</time>
      </trkpt>
      <trkpt lat="47.28182" lon="-2.35701">
        <ele>38.599998474121</ele>
        <time>2019-10-13T07:27:36.000Z</time>
      </trkpt>
      <trkpt lat="47.28182" lon="-2.35704">
        <ele>38.200000762939</ele>
        <time>2019-10-13T07:27:37.000Z</time>
      </trkpt>
      <trkpt lat="47.28183" lon="-2.35705">
        <ele>37.799999237061</ele>
        <time>2019-10-13T07:27:38.000Z</time>
      </trkpt>
      <trkpt lat="47.28183" lon="-2.35707">
        <ele>37.400001525879</ele>
        <time>2019-10-13T07:27:39.000Z</time>
      </trkpt>
      <trkpt lat="47.28184" lon="-2.35708">
        <ele>37</ele>
        <time>2019-10-13T07:27:40.000Z</time>
      </trkpt>
      <trkpt lat="47.28188" lon="-2.35707">
        <ele>36.599998474121</ele>
        <time>2019-10-13T07:27:42.000Z</time>
      </trkpt>
      <trkpt lat="47.2819" lon="-2.35706">
        <ele>36</ele>
        <time>2019-10-13T07:27:43.000Z</time>
      </trkpt>
      <trkpt lat="47.28192" lon="-2.35705">
        <ele>35.599998474121</ele>
        <time>2019-10-13T07:27:44.000Z</time>
      </trkpt>
      <trkpt lat="47.28194" lon="-2.35704">
        <ele>35.200000762939</ele>
        <time>2019-10-13T07:27:45.000Z</time>
      </trkpt>
      <trkpt lat="47.28195" lon="-2.35702">
        <ele>34.799999237061</ele>
        <time>2019-10-13T07:27:46.000Z</time>
      </trkpt>
      <trkpt lat="47.28198" lon="-2.35703">
        <ele>34.799999237061</ele>
        <time>2019-10-13T07:27:47.000Z</time>
      </trkpt>
      <trkpt lat="47.282" lon="-2.35703">
        <ele>34.799999237061</ele>
        <time>2019-10-13T07:27:48.000Z</time>
      </trkpt>
      <trkpt lat="47.28207" lon="-2.35702">
        <ele>34.799999237061</ele>
        <time>2019-10-13T07:27:51.000Z</time>
      </trkpt>
      <trkpt lat="47.28209" lon="-2.35701">
        <ele>34.799999237061</ele>
        <time>2019-10-13T07:27:53.000Z</time>
      </trkpt>
      <trkpt lat="47.28215" lon="-2.35699">
        <ele>34.799999237061</ele>
        <time>2019-10-13T07:28:48.000Z</time>
      </trkpt>
      <trkpt lat="47.28232" lon="-2.35713">
        <ele>34.799999237061</ele>
        <time>2019-10-13T07:28:52.000Z</time>
      </trkpt>
      <trkpt lat="47.28243" lon="-2.35741">
        <ele>34.799999237061</ele>
        <time>2019-10-13T07:29:00.000Z</time>
      </trkpt>
      <trkpt lat="47.28245" lon="-2.35747">
        <ele>35.200000762939</ele>
        <time>2019-10-13T07:29:01.000Z</time>
      </trkpt>
      <trkpt lat="47.28247" lon="-2.35752">
        <ele>35.599998474121</ele>
        <time>2019-10-13T07:29:02.000Z</time>
      </trkpt>
      <trkpt lat="47.2825" lon="-2.35757">
        <ele>36</ele>
        <time>2019-10-13T07:29:03.000Z</time>
      </trkpt>
      <trkpt lat="47.28252" lon="-2.35761">
        <ele>36.400001525879</ele>
        <time>2019-10-13T07:29:04.000Z</time>
      </trkpt>
      <trkpt lat="47.28254" lon="-2.35764">
        <ele>36.799999237061</ele>
        <time>2019-10-13T07:29:05.000Z</time>
      </trkpt>
      <trkpt lat="47.28265" lon="-2.35774">
        <ele>36.799999237061</ele>
        <time>2019-10-13T07:29:06.000Z</time>
      </trkpt>
      <trkpt lat="47.28282" lon="-2.35781">
        <ele>37.200000762939</ele>
        <time>2019-10-13T07:29:13.000Z</time>
      </trkpt>
      <trkpt lat="47.28285" lon="-2.35782">
        <ele>37.599998474121</ele>
        <time>2019-10-13T07:29:14.000Z</time>
      </trkpt>
      <trkpt lat="47.28289" lon="-2.35782">
        <ele>38</ele>
        <time>2019-10-13T07:29:15.000Z</time>
      </trkpt>
      <trkpt lat="47.28292" lon="-2.35783">
        <ele>38.400001525879</ele>
        <time>2019-10-13T07:29:16.000Z</time>
      </trkpt>
      <trkpt lat="47.28296" lon="-2.35784">
        <ele>38.799999237061</ele>
        <time>2019-10-13T07:29:17.000Z</time>
      </trkpt>
      <trkpt lat="47.28298" lon="-2.35786">
        <ele>38.799999237061</ele>
        <time>2019-10-13T07:29:18.000Z</time>
      </trkpt>
      <trkpt lat="47.2831" lon="-2.35805">
        <ele>38.799999237061</ele>
        <time>2019-10-13T07:29:24.000Z</time>
      </trkpt>
      <trkpt lat="47.28321" lon="-2.3582">
        <ele>38.799999237061</ele>
        <time>2019-10-13T07:29:30.000Z</time>
      </trkpt>
      <trkpt lat="47.28321" lon="-2.35828">
        <ele>38.799999237061</ele>
        <time>2019-10-13T07:29:33.000Z</time>
      </trkpt>
      <trkpt lat="47.28318" lon="-2.35831">
        <ele>38.799999237061</ele>
        <time>2019-10-13T07:29:34.000Z</time>
      </trkpt>
      <trkpt lat="47.28303" lon="-2.35848">
        <ele>38.799999237061</ele>
        <time>2019-10-13T07:29:40.000Z</time>
      </trkpt>
      <trkpt lat="47.28288" lon="-2.35862">
        <ele>38.799999237061</ele>
        <time>2019-10-13T07:29:43.000Z</time>
      </trkpt>
      <trkpt lat="47.28284" lon="-2.35866">
        <ele>38.799999237061</ele>
        <time>2019-10-13T07:29:44.000Z</time>
      </trkpt>
      <trkpt lat="47.28268" lon="-2.35886">
        <ele>38.799999237061</ele>
        <time>2019-10-13T07:29:49.000Z</time>
      </trkpt>
      <trkpt lat="47.28266" lon="-2.35891">
        <ele>38.400001525879</ele>
        <time>2019-10-13T07:29:50.000Z</time>
      </trkpt>
      <trkpt lat="47.28264" lon="-2.35893">
        <ele>38</ele>
        <time>2019-10-13T07:29:51.000Z</time>
      </trkpt>
      <trkpt lat="47.28264" lon="-2.35895">
        <ele>37.599998474121</ele>
        <time>2019-10-13T07:29:52.000Z</time>
      </trkpt>
      <trkpt lat="47.28265" lon="-2.35897">
        <ele>37.200000762939</ele>
        <time>2019-10-13T07:29:53.000Z</time>
      </trkpt>
      <trkpt lat="47.28265" lon="-2.35901">
        <ele>36.799999237061</ele>
        <time>2019-10-13T07:29:54.000Z</time>
      </trkpt>
      <trkpt lat="47.28267" lon="-2.35912">
        <ele>36.799999237061</ele>
        <time>2019-10-13T07:29:57.000Z</time>
      </trkpt>
      <trkpt lat="47.28271" lon="-2.35923">
        <ele>36.799999237061</ele>
        <time>2019-10-13T07:30:00.000Z</time>
      </trkpt>
      <trkpt lat="47.28276" lon="-2.35937">
        <ele>36.799999237061</ele>
        <time>2019-10-13T07:30:03.000Z</time>
      </trkpt>
      <trkpt lat="47.28281" lon="-2.35953">
        <ele>36.400001525879</ele>
        <time>2019-10-13T07:30:06.000Z</time>
      </trkpt>
      <trkpt lat="47.28281" lon="-2.35959">
        <ele>36</ele>
        <time>2019-10-13T07:30:07.000Z</time>
      </trkpt>
      <trkpt lat="47.28282" lon="-2.35966">
        <ele>35.400001525879</ele>
        <time>2019-10-13T07:30:08.000Z</time>
      </trkpt>
      <trkpt lat="47.28282" lon="-2.35973">
        <ele>35</ele>
        <time>2019-10-13T07:30:09.000Z</time>
      </trkpt>
      <trkpt lat="47.28281" lon="-2.35977">
        <ele>34.599998474121</ele>
        <time>2019-10-13T07:30:10.000Z</time>
      </trkpt>
      <trkpt lat="47.28284" lon="-2.35985">
        <ele>34.599998474121</ele>
        <time>2019-10-13T07:30:12.000Z</time>
      </trkpt>
      <trkpt lat="47.28284" lon="-2.35991">
        <ele>35.200000762939</ele>
        <time>2019-10-13T07:30:13.000Z</time>
      </trkpt>
      <trkpt lat="47.28284" lon="-2.35997">
        <ele>35.599998474121</ele>
        <time>2019-10-13T07:30:14.000Z</time>
      </trkpt>
      <trkpt lat="47.28285" lon="-2.36003">
        <ele>36</ele>
        <time>2019-10-13T07:30:15.000Z</time>
      </trkpt>
      <trkpt lat="47.28286" lon="-2.36007">
        <ele>36.599998474121</ele>
        <time>2019-10-13T07:30:16.000Z</time>
      </trkpt>
      <trkpt lat="47.28287" lon="-2.3601">
        <ele>37</ele>
        <time>2019-10-13T07:30:17.000Z</time>
      </trkpt>
      <trkpt lat="47.28288" lon="-2.36014">
        <ele>37.400001525879</ele>
        <time>2019-10-13T07:30:18.000Z</time>
      </trkpt>
      <trkpt lat="47.28288" lon="-2.3602">
        <ele>38</ele>
        <time>2019-10-13T07:30:19.000Z</time>
      </trkpt>
      <trkpt lat="47.28289" lon="-2.36023">
        <ele>38.400001525879</ele>
        <time>2019-10-13T07:30:20.000Z</time>
      </trkpt>
      <trkpt lat="47.2829" lon="-2.36026">
        <ele>38.799999237061</ele>
        <time>2019-10-13T07:30:21.000Z</time>
      </trkpt>
      <trkpt lat="47.28292" lon="-2.36028">
        <ele>39.200000762939</ele>
        <time>2019-10-13T07:30:22.000Z</time>
      </trkpt>
      <trkpt lat="47.28293" lon="-2.3603">
        <ele>39.599998474121</ele>
        <time>2019-10-13T07:30:23.000Z</time>
      </trkpt>
      <trkpt lat="47.28296" lon="-2.36031">
        <ele>40.200000762939</ele>
        <time>2019-10-13T07:30:24.000Z</time>
      </trkpt>
      <trkpt lat="47.28298" lon="-2.36033">
        <ele>40.599998474121</ele>
        <time>2019-10-13T07:30:25.000Z</time>
      </trkpt>
      <trkpt lat="47.283" lon="-2.36034">
        <ele>41</ele>
        <time>2019-10-13T07:30:26.000Z</time>
      </trkpt>
      <trkpt lat="47.28303" lon="-2.36036">
        <ele>41.400001525879</ele>
        <time>2019-10-13T07:30:27.000Z</time>
      </trkpt>
      <trkpt lat="47.28305" lon="-2.36037">
        <ele>41.400001525879</ele>
        <time>2019-10-13T07:30:28.000Z</time>
      </trkpt>
      <trkpt lat="47.2832" lon="-2.36039">
        <ele>41.400001525879</ele>
        <time>2019-10-13T07:30:34.000Z</time>
      </trkpt>
      <trkpt lat="47.28331" lon="-2.3603">
        <ele>41.799999237061</ele>
        <time>2019-10-13T07:30:38.000Z</time>
      </trkpt>
      <trkpt lat="47.28334" lon="-2.36029">
        <ele>42.200000762939</ele>
        <time>2019-10-13T07:30:39.000Z</time>
      </trkpt>
      <trkpt lat="47.28337" lon="-2.36026">
        <ele>42.599998474121</ele>
        <time>2019-10-13T07:30:40.000Z</time>
      </trkpt>
      <trkpt lat="47.2834" lon="-2.36026">
        <ele>43</ele>
        <time>2019-10-13T07:30:41.000Z</time>
      </trkpt>
      <trkpt lat="47.28343" lon="-2.36024">
        <ele>43.400001525879</ele>
        <time>2019-10-13T07:30:42.000Z</time>
      </trkpt>
      <trkpt lat="47.28346" lon="-2.36022">
        <ele>43.400001525879</ele>
        <time>2019-10-13T07:30:43.000Z</time>
      </trkpt>
      <trkpt lat="47.28359" lon="-2.36017">
        <ele>43.400001525879</ele>
        <time>2019-10-13T07:30:49.000Z</time>
      </trkpt>
      <trkpt lat="47.28361" lon="-2.36017">
        <ele>43.799999237061</ele>
        <time>2019-10-13T07:30:50.000Z</time>
      </trkpt>
      <trkpt lat="47.28363" lon="-2.36018">
        <ele>44.200000762939</ele>
        <time>2019-10-13T07:30:51.000Z</time>
      </trkpt>
      <trkpt lat="47.28366" lon="-2.36018">
        <ele>44.799999237061</ele>
        <time>2019-10-13T07:30:52.000Z</time>
      </trkpt>
      <trkpt lat="47.28368" lon="-2.36018">
        <ele>45.200000762939</ele>
        <time>2019-10-13T07:30:53.000Z</time>
      </trkpt>
      <trkpt lat="47.2837" lon="-2.36018">
        <ele>45.599998474121</ele>
        <time>2019-10-13T07:30:54.000Z</time>
      </trkpt>
      <trkpt lat="47.28374" lon="-2.36018">
        <ele>45.599998474121</ele>
        <time>2019-10-13T07:30:55.000Z</time>
      </trkpt>
      <trkpt lat="47.28376" lon="-2.36018">
        <ele>45.599998474121</ele>
        <time>2019-10-13T07:30:57.000Z</time>
      </trkpt>
      <trkpt lat="47.28378" lon="-2.36019">
        <ele>46</ele>
        <time>2019-10-13T07:30:58.000Z</time>
      </trkpt>
      <trkpt lat="47.28379" lon="-2.36019">
        <ele>46.400001525879</ele>
        <time>2019-10-13T07:30:59.000Z</time>
      </trkpt>
      <trkpt lat="47.2838" lon="-2.36019">
        <ele>47</ele>
        <time>2019-10-13T07:31:00.000Z</time>
      </trkpt>
      <trkpt lat="47.28382" lon="-2.36018">
        <ele>47.400001525879</ele>
        <time>2019-10-13T07:31:01.000Z</time>
      </trkpt>
      <trkpt lat="47.28383" lon="-2.36018">
        <ele>47.799999237061</ele>
        <time>2019-10-13T07:31:02.000Z</time>
      </trkpt>
      <trkpt lat="47.28387" lon="-2.3602">
        <ele>48.200000762939</ele>
        <time>2019-10-13T07:31:05.000Z</time>
      </trkpt>
      <trkpt lat="47.28388" lon="-2.36021">
        <ele>48.599998474121</ele>
        <time>2019-10-13T07:31:06.000Z</time>
      </trkpt>
      <trkpt lat="47.2839" lon="-2.36021">
        <ele>49</ele>
        <time>2019-10-13T07:31:07.000Z</time>
      </trkpt>
      <trkpt lat="47.28391" lon="-2.3602">
        <ele>49.400001525879</ele>
        <time>2019-10-13T07:31:08.000Z</time>
      </trkpt>
      <trkpt lat="47.28394" lon="-2.3602">
        <ele>49.799999237061</ele>
        <time>2019-10-13T07:31:09.000Z</time>
      </trkpt>
      <trkpt lat="47.28399" lon="-2.36019">
        <ele>49.799999237061</ele>
        <time>2019-10-13T07:31:11.000Z</time>
      </trkpt>
      <trkpt lat="47.28402" lon="-2.36017">
        <ele>49.799999237061</ele>
        <time>2019-10-13T07:31:12.000Z</time>
      </trkpt>
      <trkpt lat="47.28411" lon="-2.36009">
        <ele>49.799999237061</ele>
        <time>2019-10-13T07:31:16.000Z</time>
      </trkpt>
      <trkpt lat="47.28426" lon="-2.35999">
        <ele>49.799999237061</ele>
        <time>2019-10-13T07:31:20.000Z</time>
      </trkpt>
      <trkpt lat="47.28431" lon="-2.35997">
        <ele>49.799999237061</ele>
        <time>2019-10-13T07:31:21.000Z</time>
      </trkpt>
      <trkpt lat="47.2844" lon="-2.35994">
        <ele>50.200000762939</ele>
        <time>2019-10-13T07:31:24.000Z</time>
      </trkpt>
      <trkpt lat="47.28443" lon="-2.35994">
        <ele>50.599998474121</ele>
        <time>2019-10-13T07:31:25.000Z</time>
      </trkpt>
      <trkpt lat="47.28446" lon="-2.35995">
        <ele>51.599998474121</ele>
        <time>2019-10-13T07:31:26.000Z</time>
      </trkpt>
      <trkpt lat="47.28448" lon="-2.35996">
        <ele>52</ele>
        <time>2019-10-13T07:31:27.000Z</time>
      </trkpt>
      <trkpt lat="47.28453" lon="-2.36003">
        <ele>52</ele>
        <time>2019-10-13T07:31:30.000Z</time>
      </trkpt>
      <trkpt lat="47.28463" lon="-2.36024">
        <ele>52</ele>
        <time>2019-10-13T07:31:36.000Z</time>
      </trkpt>
      <trkpt lat="47.28479" lon="-2.36031">
        <ele>52</ele>
        <time>2019-10-13T07:31:40.000Z</time>
      </trkpt>
      <trkpt lat="47.28491" lon="-2.36035">
        <ele>52</ele>
        <time>2019-10-13T07:31:44.000Z</time>
      </trkpt>
      <trkpt lat="47.28509" lon="-2.36061">
        <ele>52</ele>
        <time>2019-10-13T07:31:49.000Z</time>
      </trkpt>
      <trkpt lat="47.28524" lon="-2.36079">
        <ele>52</ele>
        <time>2019-10-13T07:31:54.000Z</time>
      </trkpt>
      <trkpt lat="47.28528" lon="-2.36096">
        <ele>52</ele>
        <time>2019-10-13T07:31:57.000Z</time>
      </trkpt>
      <trkpt lat="47.28528" lon="-2.36103">
        <ele>52</ele>
        <time>2019-10-13T07:31:58.000Z</time>
      </trkpt>
      <trkpt lat="47.2853" lon="-2.36119">
        <ele>52</ele>
        <time>2019-10-13T07:32:00.000Z</time>
      </trkpt>
      <trkpt lat="47.28535" lon="-2.36134">
        <ele>52</ele>
        <time>2019-10-13T07:32:02.000Z</time>
      </trkpt>
      <trkpt lat="47.28537" lon="-2.36141">
        <ele>52</ele>
        <time>2019-10-13T07:32:03.000Z</time>
      </trkpt>
      <trkpt lat="47.28542" lon="-2.36151">
        <ele>52</ele>
        <time>2019-10-13T07:32:05.000Z</time>
      </trkpt>
      <trkpt lat="47.28545" lon="-2.36152">
        <ele>52</ele>
        <time>2019-10-13T07:32:06.000Z</time>
      </trkpt>
      <trkpt lat="47.28557" lon="-2.36149">
        <ele>52</ele>
        <time>2019-10-13T07:32:10.000Z</time>
      </trkpt>
      <trkpt lat="47.2856" lon="-2.36147">
        <ele>52</ele>
        <time>2019-10-13T07:32:11.000Z</time>
      </trkpt>
      <trkpt lat="47.28562" lon="-2.36146">
        <ele>52.400001525879</ele>
        <time>2019-10-13T07:32:12.000Z</time>
      </trkpt>
      <trkpt lat="47.28564" lon="-2.36145">
        <ele>52.799999237061</ele>
        <time>2019-10-13T07:32:13.000Z</time>
      </trkpt>
      <trkpt lat="47.28567" lon="-2.36144">
        <ele>53.200000762939</ele>
        <time>2019-10-13T07:32:14.000Z</time>
      </trkpt>
      <trkpt lat="47.2857" lon="-2.36144">
        <ele>54.200000762939</ele>
        <time>2019-10-13T07:32:15.000Z</time>
      </trkpt>
      <trkpt lat="47.28572" lon="-2.36145">
        <ele>54.599998474121</ele>
        <time>2019-10-13T07:32:16.000Z</time>
      </trkpt>
      <trkpt lat="47.28573" lon="-2.36145">
        <ele>55</ele>
        <time>2019-10-13T07:32:17.000Z</time>
      </trkpt>
      <trkpt lat="47.28576" lon="-2.36147">
        <ele>55.400001525879</ele>
        <time>2019-10-13T07:32:18.000Z</time>
      </trkpt>
      <trkpt lat="47.28578" lon="-2.36149">
        <ele>56</ele>
        <time>2019-10-13T07:32:19.000Z</time>
      </trkpt>
      <trkpt lat="47.2858" lon="-2.3615">
        <ele>56.400001525879</ele>
        <time>2019-10-13T07:32:20.000Z</time>
      </trkpt>
      <trkpt lat="47.28583" lon="-2.3615">
        <ele>56.400001525879</ele>
        <time>2019-10-13T07:32:21.000Z</time>
      </trkpt>
      <trkpt lat="47.286" lon="-2.36148">
        <ele>56.400001525879</ele>
        <time>2019-10-13T07:32:25.000Z</time>
      </trkpt>
      <trkpt lat="47.28615" lon="-2.36137">
        <ele>56.400001525879</ele>
        <time>2019-10-13T07:32:30.000Z</time>
      </trkpt>
      <trkpt lat="47.28622" lon="-2.36137">
        <ele>56.400001525879</ele>
        <time>2019-10-13T07:32:32.000Z</time>
      </trkpt>
      <trkpt lat="47.28628" lon="-2.36141">
        <ele>56.400001525879</ele>
        <time>2019-10-13T07:32:34.000Z</time>
      </trkpt>
      <trkpt lat="47.28647" lon="-2.36159">
        <ele>56.400001525879</ele>
        <time>2019-10-13T07:32:41.000Z</time>
      </trkpt>
      <trkpt lat="47.28664" lon="-2.36191">
        <ele>56</ele>
        <time>2019-10-13T07:32:46.000Z</time>
      </trkpt>
      <trkpt lat="47.28667" lon="-2.36198">
        <ele>55.599998474121</ele>
        <time>2019-10-13T07:32:47.000Z</time>
      </trkpt>
      <trkpt lat="47.28667" lon="-2.36209">
        <ele>55.200000762939</ele>
        <time>2019-10-13T07:32:48.000Z</time>
      </trkpt>
      <trkpt lat="47.28667" lon="-2.36219">
        <ele>54.799999237061</ele>
        <time>2019-10-13T07:32:49.000Z</time>
      </trkpt>
      <trkpt lat="47.28666" lon="-2.36228">
        <ele>54.400001525879</ele>
        <time>2019-10-13T07:32:50.000Z</time>
      </trkpt>
      <trkpt lat="47.28666" lon="-2.36236">
        <ele>54.400001525879</ele>
        <time>2019-10-13T07:32:51.000Z</time>
      </trkpt>
      <trkpt lat="47.28666" lon="-2.36244">
        <ele>53.799999237061</ele>
        <time>2019-10-13T07:32:52.000Z</time>
      </trkpt>
      <trkpt lat="47.28665" lon="-2.3625">
        <ele>53.400001525879</ele>
        <time>2019-10-13T07:32:53.000Z</time>
      </trkpt>
      <trkpt lat="47.28666" lon="-2.36257">
        <ele>53</ele>
        <time>2019-10-13T07:32:54.000Z</time>
      </trkpt>
      <trkpt lat="47.28668" lon="-2.36263">
        <ele>52.599998474121</ele>
        <time>2019-10-13T07:32:55.000Z</time>
      </trkpt>
      <trkpt lat="47.28671" lon="-2.36266">
        <ele>52.200000762939</ele>
        <time>2019-10-13T07:32:56.000Z</time>
      </trkpt>
      <trkpt lat="47.28679" lon="-2.36269">
        <ele>52.200000762939</ele>
        <time>2019-10-13T07:32:58.000Z</time>
      </trkpt>
      <trkpt lat="47.28685" lon="-2.36271">
        <ele>52.200000762939</ele>
        <time>2019-10-13T07:33:00.000Z</time>
      </trkpt>
      <trkpt lat="47.28697" lon="-2.36266">
        <ele>51.400001525879</ele>
        <time>2019-10-13T07:33:02.000Z</time>
      </trkpt>
      <trkpt lat="47.28697" lon="-2.36266">
        <ele>51.400001525879</ele>
        <time>2019-10-13T07:33:05.000Z</time>
      </trkpt>
      <trkpt lat="47.28701" lon="-2.36264">
        <ele>50.599998474121</ele>
        <time>2019-10-13T07:33:06.000Z</time>
      </trkpt>
      <trkpt lat="47.28705" lon="-2.36261">
        <ele>50.200000762939</ele>
        <time>2019-10-13T07:33:07.000Z</time>
      </trkpt>
      <trkpt lat="47.28712" lon="-2.3625">
        <ele>50.200000762939</ele>
        <time>2019-10-13T07:33:10.000Z</time>
      </trkpt>
      <trkpt lat="47.28716" lon="-2.36247">
        <ele>49.799999237061</ele>
        <time>2019-10-13T07:33:11.000Z</time>
      </trkpt>
      <trkpt lat="47.28719" lon="-2.36245">
        <ele>49.400001525879</ele>
        <time>2019-10-13T07:33:12.000Z</time>
      </trkpt>
      <trkpt lat="47.28722" lon="-2.36242">
        <ele>48.799999237061</ele>
        <time>2019-10-13T07:33:13.000Z</time>
      </trkpt>
      <trkpt lat="47.28726" lon="-2.36239">
        <ele>48.400001525879</ele>
        <time>2019-10-13T07:33:14.000Z</time>
      </trkpt>
      <trkpt lat="47.28729" lon="-2.36236">
        <ele>48</ele>
        <time>2019-10-13T07:33:15.000Z</time>
      </trkpt>
      <trkpt lat="47.28753" lon="-2.36218">
        <ele>48</ele>
        <time>2019-10-13T07:33:21.000Z</time>
      </trkpt>
      <trkpt lat="47.28784" lon="-2.36197">
        <ele>48</ele>
        <time>2019-10-13T07:33:26.000Z</time>
      </trkpt>
      <trkpt lat="47.28831" lon="-2.36157">
        <ele>48</ele>
        <time>2019-10-13T07:33:32.000Z</time>
      </trkpt>
      <trkpt lat="47.28864" lon="-2.36121">
        <ele>48</ele>
        <time>2019-10-13T07:33:41.000Z</time>
      </trkpt>
      <trkpt lat="47.28872" lon="-2.36113">
        <ele>48</ele>
        <time>2019-10-13T07:33:43.000Z</time>
      </trkpt>
      <trkpt lat="47.28886" lon="-2.361">
        <ele>48</ele>
        <time>2019-10-13T07:33:46.000Z</time>
      </trkpt>
      <trkpt lat="47.2889" lon="-2.36095">
        <ele>48</ele>
        <time>2019-10-13T07:33:47.000Z</time>
      </trkpt>
      <trkpt lat="47.28922" lon="-2.36065">
        <ele>48</ele>
        <time>2019-10-13T07:33:52.000Z</time>
      </trkpt>
      <trkpt lat="47.28957" lon="-2.36039">
        <ele>48</ele>
        <time>2019-10-13T07:34:01.000Z</time>
      </trkpt>
      <trkpt lat="47.28997" lon="-2.36001">
        <ele>48</ele>
        <time>2019-10-13T07:34:10.000Z</time>
      </trkpt>
      <trkpt lat="47.29025" lon="-2.35973">
        <ele>48</ele>
        <time>2019-10-13T07:34:16.000Z</time>
      </trkpt>
      <trkpt lat="47.29067" lon="-2.35927">
        <ele>48</ele>
        <time>2019-10-13T07:34:23.000Z</time>
      </trkpt>
      <trkpt lat="47.29099" lon="-2.35889">
        <ele>48</ele>
        <time>2019-10-13T07:34:32.000Z</time>
      </trkpt>
      <trkpt lat="47.29134" lon="-2.35849">
        <ele>48</ele>
        <time>2019-10-13T07:34:40.000Z</time>
      </trkpt>
      <trkpt lat="47.29171" lon="-2.35818">
        <ele>48</ele>
        <time>2019-10-13T07:34:48.000Z</time>
      </trkpt>
      <trkpt lat="47.29201" lon="-2.35798">
        <ele>48</ele>
        <time>2019-10-13T07:34:54.000Z</time>
      </trkpt>
      <trkpt lat="47.29215" lon="-2.35787">
        <ele>48</ele>
        <time>2019-10-13T07:34:55.000Z</time>
      </trkpt>
      <trkpt lat="47.29231" lon="-2.35771">
        <ele>48</ele>
        <time>2019-10-13T07:34:58.000Z</time>
      </trkpt>
      <trkpt lat="47.29231" lon="-2.35771">
        <ele>48</ele>
        <time>2019-10-13T07:35:00.000Z</time>
      </trkpt>
      <trkpt lat="47.29242" lon="-2.3576">
        <ele>48</ele>
        <time>2019-10-13T07:35:03.000Z</time>
      </trkpt>
      <trkpt lat="47.29248" lon="-2.35751">
        <ele>48</ele>
        <time>2019-10-13T07:35:05.000Z</time>
      </trkpt>
      <trkpt lat="47.29255" lon="-2.35734">
        <ele>48</ele>
        <time>2019-10-13T07:35:09.000Z</time>
      </trkpt>
      <trkpt lat="47.29258" lon="-2.35732">
        <ele>48</ele>
        <time>2019-10-13T07:35:11.000Z</time>
      </trkpt>
      <trkpt lat="47.29261" lon="-2.35733">
        <ele>48</ele>
        <time>2019-10-13T07:35:12.000Z</time>
      </trkpt>
      <trkpt lat="47.29271" lon="-2.35739">
        <ele>48</ele>
        <time>2019-10-13T07:35:15.000Z</time>
      </trkpt>
      <trkpt lat="47.29276" lon="-2.35742">
        <ele>48</ele>
        <time>2019-10-13T07:35:16.000Z</time>
      </trkpt>
      <trkpt lat="47.29307" lon="-2.35771">
        <ele>48</ele>
        <time>2019-10-13T07:35:23.000Z</time>
      </trkpt>
      <trkpt lat="47.29337" lon="-2.35799">
        <ele>48</ele>
        <time>2019-10-13T07:35:29.000Z</time>
      </trkpt>
      <trkpt lat="47.29346" lon="-2.35808">
        <ele>48</ele>
        <time>2019-10-13T07:35:31.000Z</time>
      </trkpt>
      <trkpt lat="47.2936" lon="-2.35821">
        <ele>47.599998474121</ele>
        <time>2019-10-13T07:35:34.000Z</time>
      </trkpt>
      <trkpt lat="47.29364" lon="-2.35825">
        <ele>47.200000762939</ele>
        <time>2019-10-13T07:35:35.000Z</time>
      </trkpt>
      <trkpt lat="47.29369" lon="-2.35829">
        <ele>46.599998474121</ele>
        <time>2019-10-13T07:35:36.000Z</time>
      </trkpt>
      <trkpt lat="47.29373" lon="-2.35832">
        <ele>46.200000762939</ele>
        <time>2019-10-13T07:35:37.000Z</time>
      </trkpt>
      <trkpt lat="47.29377" lon="-2.35837">
        <ele>45.799999237061</ele>
        <time>2019-10-13T07:35:38.000Z</time>
      </trkpt>
      <trkpt lat="47.29394" lon="-2.35854">
        <ele>45.799999237061</ele>
        <time>2019-10-13T07:35:42.000Z</time>
      </trkpt>
      <trkpt lat="47.29432" lon="-2.35901">
        <ele>45.799999237061</ele>
        <time>2019-10-13T07:35:50.000Z</time>
      </trkpt>
      <trkpt lat="47.2944" lon="-2.35908">
        <ele>45.799999237061</ele>
        <time>2019-10-13T07:35:55.000Z</time>
      </trkpt>
      <trkpt lat="47.29448" lon="-2.35909">
        <ele>45.799999237061</ele>
        <time>2019-10-13T07:35:57.000Z</time>
      </trkpt>
      <trkpt lat="47.29469" lon="-2.35903">
        <ele>45.799999237061</ele>
        <time>2019-10-13T07:36:02.000Z</time>
      </trkpt>
      <trkpt lat="47.29476" lon="-2.35902">
        <ele>45.799999237061</ele>
        <time>2019-10-13T07:36:04.000Z</time>
      </trkpt>
      <trkpt lat="47.29488" lon="-2.35899">
        <ele>45.799999237061</ele>
        <time>2019-10-13T07:36:07.000Z</time>
      </trkpt>
      <trkpt lat="47.29495" lon="-2.35903">
        <ele>45.799999237061</ele>
        <time>2019-10-13T07:36:09.000Z</time>
      </trkpt>
      <trkpt lat="47.29498" lon="-2.35907">
        <ele>45.799999237061</ele>
        <time>2019-10-13T07:36:10.000Z</time>
      </trkpt>
      <trkpt lat="47.29504" lon="-2.35923">
        <ele>45.799999237061</ele>
        <time>2019-10-13T07:36:13.000Z</time>
      </trkpt>
      <trkpt lat="47.29505" lon="-2.35929">
        <ele>45.799999237061</ele>
        <time>2019-10-13T07:36:14.000Z</time>
      </trkpt>
      <trkpt lat="47.29514" lon="-2.35943">
        <ele>45.799999237061</ele>
        <time>2019-10-13T07:36:19.000Z</time>
      </trkpt>
      <trkpt lat="47.29531" lon="-2.35935">
        <ele>45.799999237061</ele>
        <time>2019-10-13T07:36:23.000Z</time>
      </trkpt>
      <trkpt lat="47.29567" lon="-2.35913">
        <ele>45.799999237061</ele>
        <time>2019-10-13T07:36:30.000Z</time>
      </trkpt>
      <trkpt lat="47.29572" lon="-2.35911">
        <ele>45.799999237061</ele>
        <time>2019-10-13T07:36:31.000Z</time>
      </trkpt>
      <trkpt lat="47.29591" lon="-2.359">
        <ele>45.799999237061</ele>
        <time>2019-10-13T07:36:35.000Z</time>
      </trkpt>
      <trkpt lat="47.29601" lon="-2.35893">
        <ele>45.799999237061</ele>
        <time>2019-10-13T07:36:37.000Z</time>
      </trkpt>
      <trkpt lat="47.2961" lon="-2.35886">
        <ele>45.799999237061</ele>
        <time>2019-10-13T07:36:39.000Z</time>
      </trkpt>
      <trkpt lat="47.29619" lon="-2.35882">
        <ele>45.799999237061</ele>
        <time>2019-10-13T07:36:41.000Z</time>
      </trkpt>
      <trkpt lat="47.29647" lon="-2.35863">
        <ele>45.799999237061</ele>
        <time>2019-10-13T07:36:47.000Z</time>
      </trkpt>
      <trkpt lat="47.29651" lon="-2.35856">
        <ele>45.799999237061</ele>
        <time>2019-10-13T07:36:48.000Z</time>
      </trkpt>
      <trkpt lat="47.29665" lon="-2.35836">
        <ele>45.799999237061</ele>
        <time>2019-10-13T07:36:52.000Z</time>
      </trkpt>
      <trkpt lat="47.29676" lon="-2.35837">
        <ele>45.799999237061</ele>
        <time>2019-10-13T07:36:54.000Z</time>
      </trkpt>
      <trkpt lat="47.29682" lon="-2.35838">
        <ele>45.799999237061</ele>
        <time>2019-10-13T07:36:55.000Z</time>
      </trkpt>
      <trkpt lat="47.29695" lon="-2.35837">
        <ele>45.799999237061</ele>
        <time>2019-10-13T07:36:57.000Z</time>
      </trkpt>
      <trkpt lat="47.29708" lon="-2.35831">
        <ele>45.799999237061</ele>
        <time>2019-10-13T07:36:59.000Z</time>
      </trkpt>
      <trkpt lat="47.29732" lon="-2.35817">
        <ele>45.799999237061</ele>
        <time>2019-10-13T07:37:01.000Z</time>
      </trkpt>
      <trkpt lat="47.29738" lon="-2.35814">
        <ele>46.200000762939</ele>
        <time>2019-10-13T07:37:04.000Z</time>
      </trkpt>
      <trkpt lat="47.29743" lon="-2.35811">
        <ele>46.599998474121</ele>
        <time>2019-10-13T07:37:05.000Z</time>
      </trkpt>
      <trkpt lat="47.29748" lon="-2.35808">
        <ele>47</ele>
        <time>2019-10-13T07:37:06.000Z</time>
      </trkpt>
      <trkpt lat="47.29753" lon="-2.35806">
        <ele>47.400001525879</ele>
        <time>2019-10-13T07:37:07.000Z</time>
      </trkpt>
      <trkpt lat="47.29758" lon="-2.35804">
        <ele>47.799999237061</ele>
        <time>2019-10-13T07:37:08.000Z</time>
      </trkpt>
      <trkpt lat="47.29767" lon="-2.35801">
        <ele>47.799999237061</ele>
        <time>2019-10-13T07:37:10.000Z</time>
      </trkpt>
      <trkpt lat="47.29786" lon="-2.35795">
        <ele>48.200000762939</ele>
        <time>2019-10-13T07:37:14.000Z</time>
      </trkpt>
      <trkpt lat="47.29791" lon="-2.35794">
        <ele>48.599998474121</ele>
        <time>2019-10-13T07:37:15.000Z</time>
      </trkpt>
      <trkpt lat="47.29796" lon="-2.35792">
        <ele>49</ele>
        <time>2019-10-13T07:37:16.000Z</time>
      </trkpt>
      <trkpt lat="47.29801" lon="-2.35791">
        <ele>49.400001525879</ele>
        <time>2019-10-13T07:37:17.000Z</time>
      </trkpt>
      <trkpt lat="47.29806" lon="-2.35789">
        <ele>49.799999237061</ele>
        <time>2019-10-13T07:37:18.000Z</time>
      </trkpt>
      <trkpt lat="47.29846" lon="-2.35775">
        <ele>49.799999237061</ele>
        <time>2019-10-13T07:37:25.000Z</time>
      </trkpt>
      <trkpt lat="47.29891" lon="-2.35759">
        <ele>49.799999237061</ele>
        <time>2019-10-13T07:37:32.000Z</time>
      </trkpt>
      <trkpt lat="47.29894" lon="-2.35756">
        <ele>49.400001525879</ele>
        <time>2019-10-13T07:37:33.000Z</time>
      </trkpt>
      <trkpt lat="47.29897" lon="-2.35741">
        <ele>47.799999237061</ele>
        <time>2019-10-13T07:37:34.000Z</time>
      </trkpt>
      <trkpt lat="47.29897" lon="-2.35741">
        <ele>47.799999237061</ele>
        <time>2019-10-13T07:37:36.000Z</time>
      </trkpt>
      <trkpt lat="47.29896" lon="-2.35729">
        <ele>47.799999237061</ele>
        <time>2019-10-13T07:37:38.000Z</time>
      </trkpt>
      <trkpt lat="47.29892" lon="-2.35714">
        <ele>47.799999237061</ele>
        <time>2019-10-13T07:37:40.000Z</time>
      </trkpt>
      <trkpt lat="47.29879" lon="-2.35657">
        <ele>47.799999237061</ele>
        <time>2019-10-13T07:37:47.000Z</time>
      </trkpt>
      <trkpt lat="47.29867" lon="-2.35587">
        <ele>47.799999237061</ele>
        <time>2019-10-13T07:37:55.000Z</time>
      </trkpt>
      <trkpt lat="47.29849" lon="-2.35529">
        <ele>47.799999237061</ele>
        <time>2019-10-13T07:38:02.000Z</time>
      </trkpt>
      <trkpt lat="47.29838" lon="-2.35498">
        <ele>47.400001525879</ele>
        <time>2019-10-13T07:38:06.000Z</time>
      </trkpt>
      <trkpt lat="47.29836" lon="-2.35492">
        <ele>47</ele>
        <time>2019-10-13T07:38:07.000Z</time>
      </trkpt>
      <trkpt lat="47.29834" lon="-2.35485">
        <ele>46.599998474121</ele>
        <time>2019-10-13T07:38:08.000Z</time>
      </trkpt>
      <trkpt lat="47.29831" lon="-2.35478">
        <ele>46.200000762939</ele>
        <time>2019-10-13T07:38:09.000Z</time>
      </trkpt>
      <trkpt lat="47.2983" lon="-2.35471">
        <ele>45.799999237061</ele>
        <time>2019-10-13T07:38:10.000Z</time>
      </trkpt>
      <trkpt lat="47.29834" lon="-2.35456">
        <ele>45.799999237061</ele>
        <time>2019-10-13T07:38:12.000Z</time>
      </trkpt>
      <trkpt lat="47.2985" lon="-2.35437">
        <ele>45.799999237061</ele>
        <time>2019-10-13T07:38:15.000Z</time>
      </trkpt>
      <trkpt lat="47.29862" lon="-2.35425">
        <ele>45.799999237061</ele>
        <time>2019-10-13T07:38:17.000Z</time>
      </trkpt>
      <trkpt lat="47.29879" lon="-2.35407">
        <ele>45.799999237061</ele>
        <time>2019-10-13T07:38:20.000Z</time>
      </trkpt>
      <trkpt lat="47.29908" lon="-2.35376">
        <ele>45.799999237061</ele>
        <time>2019-10-13T07:38:26.000Z</time>
      </trkpt>
      <trkpt lat="47.29911" lon="-2.35372">
        <ele>45.400001525879</ele>
        <time>2019-10-13T07:38:27.000Z</time>
      </trkpt>
      <trkpt lat="47.29915" lon="-2.35368">
        <ele>45</ele>
        <time>2019-10-13T07:38:28.000Z</time>
      </trkpt>
      <trkpt lat="47.29918" lon="-2.35364">
        <ele>44.400001525879</ele>
        <time>2019-10-13T07:38:29.000Z</time>
      </trkpt>
      <trkpt lat="47.29921" lon="-2.3536">
        <ele>44</ele>
        <time>2019-10-13T07:38:30.000Z</time>
      </trkpt>
      <trkpt lat="47.29932" lon="-2.35347">
        <ele>43.599998474121</ele>
        <time>2019-10-13T07:38:31.000Z</time>
      </trkpt>
      <trkpt lat="47.29932" lon="-2.35347">
        <ele>43.599998474121</ele>
        <time>2019-10-13T07:38:33.000Z</time>
      </trkpt>
      <trkpt lat="47.2996" lon="-2.35309">
        <ele>43.599998474121</ele>
        <time>2019-10-13T07:38:40.000Z</time>
      </trkpt>
      <trkpt lat="47.29985" lon="-2.35276">
        <ele>43.599998474121</ele>
        <time>2019-10-13T07:38:46.000Z</time>
      </trkpt>
      <trkpt lat="47.30006" lon="-2.35256">
        <ele>43.599998474121</ele>
        <time>2019-10-13T07:38:52.000Z</time>
      </trkpt>
      <trkpt lat="47.3002" lon="-2.35249">
        <ele>43.599998474121</ele>
        <time>2019-10-13T07:38:58.000Z</time>
      </trkpt>
      <trkpt lat="47.30025" lon="-2.35248">
        <ele>43.599998474121</ele>
        <time>2019-10-13T07:39:01.000Z</time>
      </trkpt>
      <trkpt lat="47.30026" lon="-2.35248">
        <ele>43.599998474121</ele>
        <time>2019-10-13T07:39:02.000Z</time>
      </trkpt>
      <trkpt lat="47.30038" lon="-2.3524">
        <ele>43.599998474121</ele>
        <time>2019-10-13T07:39:07.000Z</time>
      </trkpt>
      <trkpt lat="47.30051" lon="-2.35233">
        <ele>43.599998474121</ele>
        <time>2019-10-13T07:39:10.000Z</time>
      </trkpt>
      <trkpt lat="47.30058" lon="-2.35229">
        <ele>43.599998474121</ele>
        <time>2019-10-13T07:39:12.000Z</time>
      </trkpt>
      <trkpt lat="47.30066" lon="-2.35224">
        <ele>43.599998474121</ele>
        <time>2019-10-13T07:39:14.000Z</time>
      </trkpt>
      <trkpt lat="47.3007" lon="-2.35221">
        <ele>43.599998474121</ele>
        <time>2019-10-13T07:39:15.000Z</time>
      </trkpt>
      <trkpt lat="47.3008" lon="-2.35217">
        <ele>43.599998474121</ele>
        <time>2019-10-13T07:39:17.000Z</time>
      </trkpt>
      <trkpt lat="47.30093" lon="-2.3521">
        <ele>43.599998474121</ele>
        <time>2019-10-13T07:39:19.000Z</time>
      </trkpt>
      <trkpt lat="47.30098" lon="-2.35209">
        <ele>43.599998474121</ele>
        <time>2019-10-13T07:39:21.000Z</time>
      </trkpt>
      <trkpt lat="47.30116" lon="-2.35199">
        <ele>43.599998474121</ele>
        <time>2019-10-13T07:39:23.000Z</time>
      </trkpt>
      <trkpt lat="47.30121" lon="-2.35197">
        <ele>43.599998474121</ele>
        <time>2019-10-13T07:39:26.000Z</time>
      </trkpt>
      <trkpt lat="47.30139" lon="-2.35194">
        <ele>43.599998474121</ele>
        <time>2019-10-13T07:39:30.000Z</time>
      </trkpt>
      <trkpt lat="47.3016" lon="-2.35183">
        <ele>43.599998474121</ele>
        <time>2019-10-13T07:39:35.000Z</time>
      </trkpt>
      <trkpt lat="47.3017" lon="-2.35178">
        <ele>43.599998474121</ele>
        <time>2019-10-13T07:39:37.000Z</time>
      </trkpt>
      <trkpt lat="47.30179" lon="-2.35175">
        <ele>43.599998474121</ele>
        <time>2019-10-13T07:39:39.000Z</time>
      </trkpt>
      <trkpt lat="47.30206" lon="-2.35147">
        <ele>43.599998474121</ele>
        <time>2019-10-13T07:39:45.000Z</time>
      </trkpt>
      <trkpt lat="47.30208" lon="-2.35131">
        <ele>43.599998474121</ele>
        <time>2019-10-13T07:39:49.000Z</time>
      </trkpt>
      <trkpt lat="47.30208" lon="-2.35116">
        <ele>43.599998474121</ele>
        <time>2019-10-13T07:39:51.000Z</time>
      </trkpt>
      <trkpt lat="47.30209" lon="-2.35088">
        <ele>43.599998474121</ele>
        <time>2019-10-13T07:39:55.000Z</time>
      </trkpt>
      <trkpt lat="47.30209" lon="-2.35081">
        <ele>44.200000762939</ele>
        <time>2019-10-13T07:39:56.000Z</time>
      </trkpt>
      <trkpt lat="47.30209" lon="-2.35073">
        <ele>44.599998474121</ele>
        <time>2019-10-13T07:39:57.000Z</time>
      </trkpt>
      <trkpt lat="47.3021" lon="-2.35066">
        <ele>45</ele>
        <time>2019-10-13T07:39:58.000Z</time>
      </trkpt>
      <trkpt lat="47.3021" lon="-2.3506">
        <ele>45.400001525879</ele>
        <time>2019-10-13T07:39:59.000Z</time>
      </trkpt>
      <trkpt lat="47.3021" lon="-2.35053">
        <ele>45.799999237061</ele>
        <time>2019-10-13T07:40:00.000Z</time>
      </trkpt>
      <trkpt lat="47.30209" lon="-2.35046">
        <ele>45.799999237061</ele>
        <time>2019-10-13T07:40:01.000Z</time>
      </trkpt>
      <trkpt lat="47.30209" lon="-2.35021">
        <ele>45.799999237061</ele>
        <time>2019-10-13T07:40:05.000Z</time>
      </trkpt>
      <trkpt lat="47.30209" lon="-2.35009">
        <ele>45.799999237061</ele>
        <time>2019-10-13T07:40:07.000Z</time>
      </trkpt>
      <trkpt lat="47.30207" lon="-2.34998">
        <ele>45.799999237061</ele>
        <time>2019-10-13T07:40:09.000Z</time>
      </trkpt>
      <trkpt lat="47.30208" lon="-2.34992">
        <ele>45.799999237061</ele>
        <time>2019-10-13T07:40:10.000Z</time>
      </trkpt>
      <trkpt lat="47.30208" lon="-2.3498">
        <ele>45.799999237061</ele>
        <time>2019-10-13T07:40:12.000Z</time>
      </trkpt>
      <trkpt lat="47.30208" lon="-2.34973">
        <ele>46.200000762939</ele>
        <time>2019-10-13T07:40:13.000Z</time>
      </trkpt>
      <trkpt lat="47.30209" lon="-2.34967">
        <ele>46.599998474121</ele>
        <time>2019-10-13T07:40:14.000Z</time>
      </trkpt>
      <trkpt lat="47.30209" lon="-2.34961">
        <ele>47</ele>
        <time>2019-10-13T07:40:15.000Z</time>
      </trkpt>
      <trkpt lat="47.30209" lon="-2.34954">
        <ele>47.400001525879</ele>
        <time>2019-10-13T07:40:16.000Z</time>
      </trkpt>
      <trkpt lat="47.30209" lon="-2.34948">
        <ele>47.799999237061</ele>
        <time>2019-10-13T07:40:17.000Z</time>
      </trkpt>
      <trkpt lat="47.30209" lon="-2.34942">
        <ele>47.799999237061</ele>
        <time>2019-10-13T07:40:18.000Z</time>
      </trkpt>
      <trkpt lat="47.30209" lon="-2.34917">
        <ele>47.799999237061</ele>
        <time>2019-10-13T07:40:22.000Z</time>
      </trkpt>
      <trkpt lat="47.3021" lon="-2.34911">
        <ele>47.799999237061</ele>
        <time>2019-10-13T07:40:23.000Z</time>
      </trkpt>
      <trkpt lat="47.30222" lon="-2.34899">
        <ele>47.799999237061</ele>
        <time>2019-10-13T07:40:26.000Z</time>
      </trkpt>
      <trkpt lat="47.30239" lon="-2.3488">
        <ele>47.799999237061</ele>
        <time>2019-10-13T07:40:30.000Z</time>
      </trkpt>
      <trkpt lat="47.30244" lon="-2.34877">
        <ele>47.799999237061</ele>
        <time>2019-10-13T07:40:31.000Z</time>
      </trkpt>
      <trkpt lat="47.30249" lon="-2.34874">
        <ele>47.799999237061</ele>
        <time>2019-10-13T07:40:32.000Z</time>
      </trkpt>
      <trkpt lat="47.30272" lon="-2.3486">
        <ele>47.799999237061</ele>
        <time>2019-10-13T07:40:35.000Z</time>
      </trkpt>
      <trkpt lat="47.30281" lon="-2.34855">
        <ele>48.200000762939</ele>
        <time>2019-10-13T07:40:39.000Z</time>
      </trkpt>
      <trkpt lat="47.30285" lon="-2.34852">
        <ele>48.599998474121</ele>
        <time>2019-10-13T07:40:40.000Z</time>
      </trkpt>
      <trkpt lat="47.30289" lon="-2.34848">
        <ele>49</ele>
        <time>2019-10-13T07:40:41.000Z</time>
      </trkpt>
      <trkpt lat="47.30294" lon="-2.34843">
        <ele>49.400001525879</ele>
        <time>2019-10-13T07:40:42.000Z</time>
      </trkpt>
      <trkpt lat="47.30298" lon="-2.34837">
        <ele>49.799999237061</ele>
        <time>2019-10-13T07:40:43.000Z</time>
      </trkpt>
      <trkpt lat="47.30306" lon="-2.34825">
        <ele>49.799999237061</ele>
        <time>2019-10-13T07:40:45.000Z</time>
      </trkpt>
      <trkpt lat="47.30314" lon="-2.34814">
        <ele>49.799999237061</ele>
        <time>2019-10-13T07:40:47.000Z</time>
      </trkpt>
      <trkpt lat="47.30318" lon="-2.34808">
        <ele>49.799999237061</ele>
        <time>2019-10-13T07:40:48.000Z</time>
      </trkpt>
      <trkpt lat="47.30335" lon="-2.3478">
        <ele>49.799999237061</ele>
        <time>2019-10-13T07:40:53.000Z</time>
      </trkpt>
      <trkpt lat="47.30361" lon="-2.34762">
        <ele>49.799999237061</ele>
        <time>2019-10-13T07:40:58.000Z</time>
      </trkpt>
      <trkpt lat="47.30389" lon="-2.34744">
        <ele>49.799999237061</ele>
        <time>2019-10-13T07:41:03.000Z</time>
      </trkpt>
      <trkpt lat="47.30395" lon="-2.34741">
        <ele>49.799999237061</ele>
        <time>2019-10-13T07:41:04.000Z</time>
      </trkpt>
      <trkpt lat="47.30425" lon="-2.34718">
        <ele>49.799999237061</ele>
        <time>2019-10-13T07:41:10.000Z</time>
      </trkpt>
      <trkpt lat="47.30441" lon="-2.34701">
        <ele>49.799999237061</ele>
        <time>2019-10-13T07:41:13.000Z</time>
      </trkpt>
      <trkpt lat="47.30452" lon="-2.34692">
        <ele>49.799999237061</ele>
        <time>2019-10-13T07:41:15.000Z</time>
      </trkpt>
      <trkpt lat="47.30474" lon="-2.34668">
        <ele>49.799999237061</ele>
        <time>2019-10-13T07:41:19.000Z</time>
      </trkpt>
      <trkpt lat="47.3048" lon="-2.34663">
        <ele>49.799999237061</ele>
        <time>2019-10-13T07:41:20.000Z</time>
      </trkpt>
      <trkpt lat="47.3049" lon="-2.34652">
        <ele>49.799999237061</ele>
        <time>2019-10-13T07:41:22.000Z</time>
      </trkpt>
      <trkpt lat="47.30493" lon="-2.34646">
        <ele>49.799999237061</ele>
        <time>2019-10-13T07:41:23.000Z</time>
      </trkpt>
      <trkpt lat="47.30507" lon="-2.34624">
        <ele>49.799999237061</ele>
        <time>2019-10-13T07:41:27.000Z</time>
      </trkpt>
      <trkpt lat="47.30513" lon="-2.34614">
        <ele>49.799999237061</ele>
        <time>2019-10-13T07:41:29.000Z</time>
      </trkpt>
      <trkpt lat="47.30516" lon="-2.3461">
        <ele>49.799999237061</ele>
        <time>2019-10-13T07:41:30.000Z</time>
      </trkpt>
      <trkpt lat="47.30527" lon="-2.34595">
        <ele>49.799999237061</ele>
        <time>2019-10-13T07:41:33.000Z</time>
      </trkpt>
      <trkpt lat="47.30536" lon="-2.34583">
        <ele>49.799999237061</ele>
        <time>2019-10-13T07:41:35.000Z</time>
      </trkpt>
      <trkpt lat="47.30548" lon="-2.34565">
        <ele>49.799999237061</ele>
        <time>2019-10-13T07:41:38.000Z</time>
      </trkpt>
      <trkpt lat="47.30554" lon="-2.34553">
        <ele>49.799999237061</ele>
        <time>2019-10-13T07:41:40.000Z</time>
      </trkpt>
      <trkpt lat="47.30564" lon="-2.34537">
        <ele>49.799999237061</ele>
        <time>2019-10-13T07:41:43.000Z</time>
      </trkpt>
      <trkpt lat="47.30574" lon="-2.34519">
        <ele>49.799999237061</ele>
        <time>2019-10-13T07:41:46.000Z</time>
      </trkpt>
      <trkpt lat="47.3058" lon="-2.34508">
        <ele>49.799999237061</ele>
        <time>2019-10-13T07:41:48.000Z</time>
      </trkpt>
      <trkpt lat="47.30588" lon="-2.34491">
        <ele>50.200000762939</ele>
        <time>2019-10-13T07:41:51.000Z</time>
      </trkpt>
      <trkpt lat="47.30591" lon="-2.34486">
        <ele>50.799999237061</ele>
        <time>2019-10-13T07:41:52.000Z</time>
      </trkpt>
      <trkpt lat="47.30594" lon="-2.3448">
        <ele>51.200000762939</ele>
        <time>2019-10-13T07:41:53.000Z</time>
      </trkpt>
      <trkpt lat="47.30597" lon="-2.34475">
        <ele>51.599998474121</ele>
        <time>2019-10-13T07:41:54.000Z</time>
      </trkpt>
      <trkpt lat="47.306" lon="-2.3447">
        <ele>52</ele>
        <time>2019-10-13T07:41:55.000Z</time>
      </trkpt>
      <trkpt lat="47.30604" lon="-2.34465">
        <ele>52</ele>
        <time>2019-10-13T07:41:56.000Z</time>
      </trkpt>
      <trkpt lat="47.30611" lon="-2.34455">
        <ele>52</ele>
        <time>2019-10-13T07:41:58.000Z</time>
      </trkpt>
      <trkpt lat="47.30637" lon="-2.34424">
        <ele>52</ele>
        <time>2019-10-13T07:42:04.000Z</time>
      </trkpt>
      <trkpt lat="47.3064" lon="-2.34419">
        <ele>52</ele>
        <time>2019-10-13T07:42:05.000Z</time>
      </trkpt>
      <trkpt lat="47.30654" lon="-2.34397">
        <ele>52</ele>
        <time>2019-10-13T07:42:09.000Z</time>
      </trkpt>
      <trkpt lat="47.30656" lon="-2.34391">
        <ele>52</ele>
        <time>2019-10-13T07:42:10.000Z</time>
      </trkpt>
      <trkpt lat="47.30677" lon="-2.3435">
        <ele>52</ele>
        <time>2019-10-13T07:42:15.000Z</time>
      </trkpt>
      <trkpt lat="47.30699" lon="-2.34309">
        <ele>52</ele>
        <time>2019-10-13T07:42:22.000Z</time>
      </trkpt>
      <trkpt lat="47.30702" lon="-2.34303">
        <ele>52</ele>
        <time>2019-10-13T07:42:23.000Z</time>
      </trkpt>
      <trkpt lat="47.30711" lon="-2.34276">
        <ele>52</ele>
        <time>2019-10-13T07:42:26.000Z</time>
      </trkpt>
      <trkpt lat="47.30714" lon="-2.34267">
        <ele>52</ele>
        <time>2019-10-13T07:42:27.000Z</time>
      </trkpt>
      <trkpt lat="47.30715" lon="-2.34258">
        <ele>52</ele>
        <time>2019-10-13T07:42:28.000Z</time>
      </trkpt>
      <trkpt lat="47.30719" lon="-2.34245">
        <ele>52</ele>
        <time>2019-10-13T07:42:30.000Z</time>
      </trkpt>
      <trkpt lat="47.30725" lon="-2.34241">
        <ele>52</ele>
        <time>2019-10-13T07:42:31.000Z</time>
      </trkpt>
      <trkpt lat="47.3073" lon="-2.34237">
        <ele>51.599998474121</ele>
        <time>2019-10-13T07:42:32.000Z</time>
      </trkpt>
      <trkpt lat="47.30736" lon="-2.34235">
        <ele>51.200000762939</ele>
        <time>2019-10-13T07:42:33.000Z</time>
      </trkpt>
      <trkpt lat="47.30741" lon="-2.34233">
        <ele>50.799999237061</ele>
        <time>2019-10-13T07:42:34.000Z</time>
      </trkpt>
      <trkpt lat="47.30747" lon="-2.34232">
        <ele>50.400001525879</ele>
        <time>2019-10-13T07:42:35.000Z</time>
      </trkpt>
      <trkpt lat="47.30751" lon="-2.34231">
        <ele>50</ele>
        <time>2019-10-13T07:42:36.000Z</time>
      </trkpt>
      <trkpt lat="47.30756" lon="-2.34227">
        <ele>50</ele>
        <time>2019-10-13T07:42:37.000Z</time>
      </trkpt>
      <trkpt lat="47.30761" lon="-2.34216">
        <ele>50</ele>
        <time>2019-10-13T07:42:39.000Z</time>
      </trkpt>
      <trkpt lat="47.30765" lon="-2.34191">
        <ele>50</ele>
        <time>2019-10-13T07:42:43.000Z</time>
      </trkpt>
      <trkpt lat="47.30769" lon="-2.34133">
        <ele>50</ele>
        <time>2019-10-13T07:42:50.000Z</time>
      </trkpt>
      <trkpt lat="47.30775" lon="-2.34064">
        <ele>50</ele>
        <time>2019-10-13T07:42:57.000Z</time>
      </trkpt>
      <trkpt lat="47.30775" lon="-2.34048">
        <ele>50</ele>
        <time>2019-10-13T07:42:59.000Z</time>
      </trkpt>
      <trkpt lat="47.30778" lon="-2.34012">
        <ele>50</ele>
        <time>2019-10-13T07:43:03.000Z</time>
      </trkpt>
      <trkpt lat="47.30787" lon="-2.33975">
        <ele>50</ele>
        <time>2019-10-13T07:43:08.000Z</time>
      </trkpt>
      <trkpt lat="47.30792" lon="-2.33973">
        <ele>50</ele>
        <time>2019-10-13T07:43:10.000Z</time>
      </trkpt>
      <trkpt lat="47.30809" lon="-2.33969">
        <ele>50</ele>
        <time>2019-10-13T07:43:14.000Z</time>
      </trkpt>
      <trkpt lat="47.30849" lon="-2.33956">
        <ele>50</ele>
        <time>2019-10-13T07:43:20.000Z</time>
      </trkpt>
      <trkpt lat="47.30895" lon="-2.33948">
        <ele>50</ele>
        <time>2019-10-13T07:43:27.000Z</time>
      </trkpt>
      <trkpt lat="47.30938" lon="-2.33951">
        <ele>50</ele>
        <time>2019-10-13T07:43:34.000Z</time>
      </trkpt>
      <trkpt lat="47.30982" lon="-2.33955">
        <ele>50</ele>
        <time>2019-10-13T07:43:41.000Z</time>
      </trkpt>
      <trkpt lat="47.30988" lon="-2.33955">
        <ele>50</ele>
        <time>2019-10-13T07:43:42.000Z</time>
      </trkpt>
      <trkpt lat="47.31027" lon="-2.33951">
        <ele>50</ele>
        <time>2019-10-13T07:43:48.000Z</time>
      </trkpt>
      <trkpt lat="47.31034" lon="-2.33949">
        <ele>49.599998474121</ele>
        <time>2019-10-13T07:43:49.000Z</time>
      </trkpt>
      <trkpt lat="47.3104" lon="-2.33948">
        <ele>49.200000762939</ele>
        <time>2019-10-13T07:43:50.000Z</time>
      </trkpt>
      <trkpt lat="47.31046" lon="-2.33946">
        <ele>48.599998474121</ele>
        <time>2019-10-13T07:43:51.000Z</time>
      </trkpt>
      <trkpt lat="47.31051" lon="-2.33945">
        <ele>48.200000762939</ele>
        <time>2019-10-13T07:43:52.000Z</time>
      </trkpt>
      <trkpt lat="47.31055" lon="-2.33944">
        <ele>47.799999237061</ele>
        <time>2019-10-13T07:43:53.000Z</time>
      </trkpt>
      <trkpt lat="47.31058" lon="-2.33941">
        <ele>47.799999237061</ele>
        <time>2019-10-13T07:43:54.000Z</time>
      </trkpt>
      <trkpt lat="47.31062" lon="-2.33928">
        <ele>47.799999237061</ele>
        <time>2019-10-13T07:43:56.000Z</time>
      </trkpt>
      <trkpt lat="47.31063" lon="-2.33896">
        <ele>47.799999237061</ele>
        <time>2019-10-13T07:44:00.000Z</time>
      </trkpt>
      <trkpt lat="47.31064" lon="-2.33847">
        <ele>47.799999237061</ele>
        <time>2019-10-13T07:44:06.000Z</time>
      </trkpt>
      <trkpt lat="47.31071" lon="-2.33797">
        <ele>47.799999237061</ele>
        <time>2019-10-13T07:44:13.000Z</time>
      </trkpt>
      <trkpt lat="47.31073" lon="-2.33791">
        <ele>47.799999237061</ele>
        <time>2019-10-13T07:44:14.000Z</time>
      </trkpt>
      <trkpt lat="47.31084" lon="-2.3377">
        <ele>47.400001525879</ele>
        <time>2019-10-13T07:44:18.000Z</time>
      </trkpt>
      <trkpt lat="47.31088" lon="-2.33764">
        <ele>47</ele>
        <time>2019-10-13T07:44:19.000Z</time>
      </trkpt>
      <trkpt lat="47.31089" lon="-2.33758">
        <ele>46.599998474121</ele>
        <time>2019-10-13T07:44:20.000Z</time>
      </trkpt>
      <trkpt lat="47.31091" lon="-2.33752">
        <ele>46</ele>
        <time>2019-10-13T07:44:21.000Z</time>
      </trkpt>
      <trkpt lat="47.31092" lon="-2.33745">
        <ele>45.599998474121</ele>
        <time>2019-10-13T07:44:22.000Z</time>
      </trkpt>
      <trkpt lat="47.31096" lon="-2.33721">
        <ele>45.599998474121</ele>
        <time>2019-10-13T07:44:25.000Z</time>
      </trkpt>
      <trkpt lat="47.31106" lon="-2.33652">
        <ele>45.599998474121</ele>
        <time>2019-10-13T07:44:34.000Z</time>
      </trkpt>
      <trkpt lat="47.3111" lon="-2.33621">
        <ele>45.599998474121</ele>
        <time>2019-10-13T07:44:38.000Z</time>
      </trkpt>
      <trkpt lat="47.31112" lon="-2.33605">
        <ele>45.599998474121</ele>
        <time>2019-10-13T07:44:40.000Z</time>
      </trkpt>
      <trkpt lat="47.31112" lon="-2.33596">
        <ele>45.599998474121</ele>
        <time>2019-10-13T07:44:41.000Z</time>
      </trkpt>
      <trkpt lat="47.31111" lon="-2.33569">
        <ele>45.599998474121</ele>
        <time>2019-10-13T07:44:44.000Z</time>
      </trkpt>
      <trkpt lat="47.3111" lon="-2.33535">
        <ele>45.599998474121</ele>
        <time>2019-10-13T07:44:48.000Z</time>
      </trkpt>
      <trkpt lat="47.31105" lon="-2.33506">
        <ele>45.599998474121</ele>
        <time>2019-10-13T07:44:49.000Z</time>
      </trkpt>
      <trkpt lat="47.31098" lon="-2.33422">
        <ele>45.599998474121</ele>
        <time>2019-10-13T07:44:59.000Z</time>
      </trkpt>
      <trkpt lat="47.31096" lon="-2.33338">
        <ele>45.599998474121</ele>
        <time>2019-10-13T07:45:07.000Z</time>
      </trkpt>
      <trkpt lat="47.31097" lon="-2.33317">
        <ele>45.200000762939</ele>
        <time>2019-10-13T07:45:09.000Z</time>
      </trkpt>
      <trkpt lat="47.31098" lon="-2.33308">
        <ele>44.799999237061</ele>
        <time>2019-10-13T07:45:10.000Z</time>
      </trkpt>
      <trkpt lat="47.31099" lon="-2.33298">
        <ele>44.400001525879</ele>
        <time>2019-10-13T07:45:11.000Z</time>
      </trkpt>
      <trkpt lat="47.31099" lon="-2.33289">
        <ele>44</ele>
        <time>2019-10-13T07:45:12.000Z</time>
      </trkpt>
      <trkpt lat="47.31099" lon="-2.3328">
        <ele>43.599998474121</ele>
        <time>2019-10-13T07:45:13.000Z</time>
      </trkpt>
      <trkpt lat="47.31102" lon="-2.33254">
        <ele>43.599998474121</ele>
        <time>2019-10-13T07:45:16.000Z</time>
      </trkpt>
      <trkpt lat="47.31106" lon="-2.33222">
        <ele>43.599998474121</ele>
        <time>2019-10-13T07:45:20.000Z</time>
      </trkpt>
      <trkpt lat="47.31109" lon="-2.33214">
        <ele>43.599998474121</ele>
        <time>2019-10-13T07:45:21.000Z</time>
      </trkpt>
      <trkpt lat="47.31136" lon="-2.33194">
        <ele>43.599998474121</ele>
        <time>2019-10-13T07:45:24.000Z</time>
      </trkpt>
      <trkpt lat="47.31136" lon="-2.33194">
        <ele>43.599998474121</ele>
        <time>2019-10-13T07:45:26.000Z</time>
      </trkpt>
      <trkpt lat="47.31154" lon="-2.33183">
        <ele>43.200000762939</ele>
        <time>2019-10-13T07:45:29.000Z</time>
      </trkpt>
      <trkpt lat="47.3116" lon="-2.33179">
        <ele>42.799999237061</ele>
        <time>2019-10-13T07:45:30.000Z</time>
      </trkpt>
      <trkpt lat="47.31165" lon="-2.33176">
        <ele>42.400001525879</ele>
        <time>2019-10-13T07:45:31.000Z</time>
      </trkpt>
      <trkpt lat="47.31171" lon="-2.33172">
        <ele>42</ele>
        <time>2019-10-13T07:45:32.000Z</time>
      </trkpt>
      <trkpt lat="47.31177" lon="-2.33169">
        <ele>41.599998474121</ele>
        <time>2019-10-13T07:45:33.000Z</time>
      </trkpt>
      <trkpt lat="47.31193" lon="-2.33158">
        <ele>41.599998474121</ele>
        <time>2019-10-13T07:45:36.000Z</time>
      </trkpt>
      <trkpt lat="47.31199" lon="-2.33156">
        <ele>41.599998474121</ele>
        <time>2019-10-13T07:45:37.000Z</time>
      </trkpt>
      <trkpt lat="47.31223" lon="-2.33148">
        <ele>41.599998474121</ele>
        <time>2019-10-13T07:45:41.000Z</time>
      </trkpt>
      <trkpt lat="47.31247" lon="-2.33148">
        <ele>41.599998474121</ele>
        <time>2019-10-13T07:45:45.000Z</time>
      </trkpt>
      <trkpt lat="47.31259" lon="-2.33151">
        <ele>41.599998474121</ele>
        <time>2019-10-13T07:45:47.000Z</time>
      </trkpt>
      <trkpt lat="47.31294" lon="-2.33167">
        <ele>41.599998474121</ele>
        <time>2019-10-13T07:45:53.000Z</time>
      </trkpt>
      <trkpt lat="47.31327" lon="-2.33198">
        <ele>41.599998474121</ele>
        <time>2019-10-13T07:45:59.000Z</time>
      </trkpt>
      <trkpt lat="47.31371" lon="-2.33234">
        <ele>41.599998474121</ele>
        <time>2019-10-13T07:46:07.000Z</time>
      </trkpt>
      <trkpt lat="47.31418" lon="-2.33267">
        <ele>41.599998474121</ele>
        <time>2019-10-13T07:46:14.000Z</time>
      </trkpt>
      <trkpt lat="47.31441" lon="-2.3329">
        <ele>41.599998474121</ele>
        <time>2019-10-13T07:46:21.000Z</time>
      </trkpt>
      <trkpt lat="47.31445" lon="-2.33296">
        <ele>41.599998474121</ele>
        <time>2019-10-13T07:46:22.000Z</time>
      </trkpt>
      <trkpt lat="47.31469" lon="-2.33345">
        <ele>41.599998474121</ele>
        <time>2019-10-13T07:46:29.000Z</time>
      </trkpt>
      <trkpt lat="47.31472" lon="-2.33352">
        <ele>42</ele>
        <time>2019-10-13T07:46:30.000Z</time>
      </trkpt>
      <trkpt lat="47.31475" lon="-2.33357">
        <ele>42.400001525879</ele>
        <time>2019-10-13T07:46:31.000Z</time>
      </trkpt>
      <trkpt lat="47.31479" lon="-2.33362">
        <ele>42.799999237061</ele>
        <time>2019-10-13T07:46:32.000Z</time>
      </trkpt>
      <trkpt lat="47.31484" lon="-2.33364">
        <ele>43.200000762939</ele>
        <time>2019-10-13T07:46:33.000Z</time>
      </trkpt>
      <trkpt lat="47.3149" lon="-2.33362">
        <ele>43.599998474121</ele>
        <time>2019-10-13T07:46:34.000Z</time>
      </trkpt>
      <trkpt lat="47.31501" lon="-2.33357">
        <ele>43.599998474121</ele>
        <time>2019-10-13T07:46:36.000Z</time>
      </trkpt>
      <trkpt lat="47.31512" lon="-2.33349">
        <ele>43.599998474121</ele>
        <time>2019-10-13T07:46:38.000Z</time>
      </trkpt>
      <trkpt lat="47.31518" lon="-2.33346">
        <ele>43.599998474121</ele>
        <time>2019-10-13T07:46:39.000Z</time>
      </trkpt>
      <trkpt lat="47.3153" lon="-2.3334">
        <ele>43.599998474121</ele>
        <time>2019-10-13T07:46:41.000Z</time>
      </trkpt>
      <trkpt lat="47.31579" lon="-2.33319">
        <ele>43.599998474121</ele>
        <time>2019-10-13T07:46:49.000Z</time>
      </trkpt>
      <trkpt lat="47.31602" lon="-2.33306">
        <ele>43.599998474121</ele>
        <time>2019-10-13T07:46:53.000Z</time>
      </trkpt>
      <trkpt lat="47.31619" lon="-2.33297">
        <ele>43.599998474121</ele>
        <time>2019-10-13T07:46:56.000Z</time>
      </trkpt>
      <trkpt lat="47.31647" lon="-2.33281">
        <ele>43.599998474121</ele>
        <time>2019-10-13T07:47:01.000Z</time>
      </trkpt>
      <trkpt lat="47.31665" lon="-2.33272">
        <ele>43.599998474121</ele>
        <time>2019-10-13T07:47:04.000Z</time>
      </trkpt>
      <trkpt lat="47.31677" lon="-2.33268">
        <ele>43.599998474121</ele>
        <time>2019-10-13T07:47:06.000Z</time>
      </trkpt>
      <trkpt lat="47.31693" lon="-2.33261">
        <ele>43.599998474121</ele>
        <time>2019-10-13T07:47:09.000Z</time>
      </trkpt>
      <trkpt lat="47.31702" lon="-2.33255">
        <ele>43.599998474121</ele>
        <time>2019-10-13T07:47:11.000Z</time>
      </trkpt>
      <trkpt lat="47.31707" lon="-2.33252">
        <ele>43.599998474121</ele>
        <time>2019-10-13T07:47:12.000Z</time>
      </trkpt>
      <trkpt lat="47.31724" lon="-2.33246">
        <ele>43.200000762939</ele>
        <time>2019-10-13T07:47:15.000Z</time>
      </trkpt>
      <trkpt lat="47.3173" lon="-2.33243">
        <ele>42.599998474121</ele>
        <time>2019-10-13T07:47:16.000Z</time>
      </trkpt>
      <trkpt lat="47.31734" lon="-2.33242">
        <ele>42.200000762939</ele>
        <time>2019-10-13T07:47:17.000Z</time>
      </trkpt>
      <trkpt lat="47.31738" lon="-2.33242">
        <ele>41.799999237061</ele>
        <time>2019-10-13T07:47:18.000Z</time>
      </trkpt>
      <trkpt lat="47.31741" lon="-2.33245">
        <ele>41.400001525879</ele>
        <time>2019-10-13T07:47:19.000Z</time>
      </trkpt>
      <trkpt lat="47.31743" lon="-2.33249">
        <ele>41.400001525879</ele>
        <time>2019-10-13T07:47:20.000Z</time>
      </trkpt>
      <trkpt lat="47.31747" lon="-2.33269">
        <ele>41.400001525879</ele>
        <time>2019-10-13T07:47:23.000Z</time>
      </trkpt>
      <trkpt lat="47.31756" lon="-2.33303">
        <ele>41.400001525879</ele>
        <time>2019-10-13T07:47:28.000Z</time>
      </trkpt>
      <trkpt lat="47.3176" lon="-2.33311">
        <ele>41.400001525879</ele>
        <time>2019-10-13T07:47:29.000Z</time>
      </trkpt>
      <trkpt lat="47.31764" lon="-2.33317">
        <ele>40.400001525879</ele>
        <time>2019-10-13T07:47:30.000Z</time>
      </trkpt>
      <trkpt lat="47.31769" lon="-2.33323">
        <ele>40</ele>
        <time>2019-10-13T07:47:31.000Z</time>
      </trkpt>
      <trkpt lat="47.31774" lon="-2.33326">
        <ele>39.599998474121</ele>
        <time>2019-10-13T07:47:32.000Z</time>
      </trkpt>
      <trkpt lat="47.3179" lon="-2.33324">
        <ele>39.200000762939</ele>
        <time>2019-10-13T07:47:33.000Z</time>
      </trkpt>
      <trkpt lat="47.3179" lon="-2.33324">
        <ele>39.200000762939</ele>
        <time>2019-10-13T07:47:34.000Z</time>
      </trkpt>
      <trkpt lat="47.31795" lon="-2.33323">
        <ele>38.799999237061</ele>
        <time>2019-10-13T07:47:35.000Z</time>
      </trkpt>
      <trkpt lat="47.31799" lon="-2.33319">
        <ele>38.200000762939</ele>
        <time>2019-10-13T07:47:36.000Z</time>
      </trkpt>
      <trkpt lat="47.31804" lon="-2.33314">
        <ele>37.799999237061</ele>
        <time>2019-10-13T07:47:37.000Z</time>
      </trkpt>
      <trkpt lat="47.3181" lon="-2.3331">
        <ele>37.200000762939</ele>
        <time>2019-10-13T07:47:38.000Z</time>
      </trkpt>
      <trkpt lat="47.31814" lon="-2.33308">
        <ele>36.799999237061</ele>
        <time>2019-10-13T07:47:39.000Z</time>
      </trkpt>
      <trkpt lat="47.31821" lon="-2.33299">
        <ele>36.400001525879</ele>
        <time>2019-10-13T07:47:41.000Z</time>
      </trkpt>
      <trkpt lat="47.31823" lon="-2.33293">
        <ele>35.799999237061</ele>
        <time>2019-10-13T07:47:42.000Z</time>
      </trkpt>
      <trkpt lat="47.31826" lon="-2.33285">
        <ele>35.400001525879</ele>
        <time>2019-10-13T07:47:43.000Z</time>
      </trkpt>
      <trkpt lat="47.31829" lon="-2.33278">
        <ele>35</ele>
        <time>2019-10-13T07:47:44.000Z</time>
      </trkpt>
      <trkpt lat="47.31833" lon="-2.33269">
        <ele>34.400001525879</ele>
        <time>2019-10-13T07:47:45.000Z</time>
      </trkpt>
      <trkpt lat="47.31836" lon="-2.3326">
        <ele>34.400001525879</ele>
        <time>2019-10-13T07:47:46.000Z</time>
      </trkpt>
      <trkpt lat="47.31841" lon="-2.3324">
        <ele>34</ele>
        <time>2019-10-13T07:47:48.000Z</time>
      </trkpt>
      <trkpt lat="47.31842" lon="-2.33229">
        <ele>33.599998474121</ele>
        <time>2019-10-13T07:47:49.000Z</time>
      </trkpt>
      <trkpt lat="47.31843" lon="-2.33218">
        <ele>33.200000762939</ele>
        <time>2019-10-13T07:47:50.000Z</time>
      </trkpt>
      <trkpt lat="47.31844" lon="-2.33207">
        <ele>32.799999237061</ele>
        <time>2019-10-13T07:47:51.000Z</time>
      </trkpt>
      <trkpt lat="47.31847" lon="-2.33172">
        <ele>32.400001525879</ele>
        <time>2019-10-13T07:47:52.000Z</time>
      </trkpt>
      <trkpt lat="47.31849" lon="-2.33151">
        <ele>32.400001525879</ele>
        <time>2019-10-13T07:47:57.000Z</time>
      </trkpt>
      <trkpt lat="47.3185" lon="-2.33141">
        <ele>32</ele>
        <time>2019-10-13T07:47:58.000Z</time>
      </trkpt>
      <trkpt lat="47.31851" lon="-2.33129">
        <ele>31.60000038147</ele>
        <time>2019-10-13T07:47:59.000Z</time>
      </trkpt>
      <trkpt lat="47.31854" lon="-2.33117">
        <ele>31.200000762939</ele>
        <time>2019-10-13T07:48:00.000Z</time>
      </trkpt>
      <trkpt lat="47.31857" lon="-2.33104">
        <ele>30.60000038147</ele>
        <time>2019-10-13T07:48:01.000Z</time>
      </trkpt>
      <trkpt lat="47.3186" lon="-2.33091">
        <ele>30.200000762939</ele>
        <time>2019-10-13T07:48:02.000Z</time>
      </trkpt>
      <trkpt lat="47.31867" lon="-2.33061">
        <ele>29.799999237061</ele>
        <time>2019-10-13T07:48:04.000Z</time>
      </trkpt>
      <trkpt lat="47.3187" lon="-2.33047">
        <ele>29.39999961853</ele>
        <time>2019-10-13T07:48:05.000Z</time>
      </trkpt>
      <trkpt lat="47.31872" lon="-2.33035">
        <ele>29</ele>
        <time>2019-10-13T07:48:06.000Z</time>
      </trkpt>
      <trkpt lat="47.31872" lon="-2.33023">
        <ele>28.60000038147</ele>
        <time>2019-10-13T07:48:07.000Z</time>
      </trkpt>
      <trkpt lat="47.31873" lon="-2.33013">
        <ele>28.200000762939</ele>
        <time>2019-10-13T07:48:08.000Z</time>
      </trkpt>
      <trkpt lat="47.31879" lon="-2.3296">
        <ele>28.200000762939</ele>
        <time>2019-10-13T07:48:13.000Z</time>
      </trkpt>
      <trkpt lat="47.31884" lon="-2.32912">
        <ele>28.200000762939</ele>
        <time>2019-10-13T07:48:18.000Z</time>
      </trkpt>
      <trkpt lat="47.31892" lon="-2.32851">
        <ele>28.200000762939</ele>
        <time>2019-10-13T07:48:24.000Z</time>
      </trkpt>
      <trkpt lat="47.31891" lon="-2.32803">
        <ele>28.200000762939</ele>
        <time>2019-10-13T07:48:29.000Z</time>
      </trkpt>
      <trkpt lat="47.3189" lon="-2.32771">
        <ele>28.200000762939</ele>
        <time>2019-10-13T07:48:33.000Z</time>
      </trkpt>
      <trkpt lat="47.31887" lon="-2.32756">
        <ele>28.200000762939</ele>
        <time>2019-10-13T07:48:35.000Z</time>
      </trkpt>
      <trkpt lat="47.31878" lon="-2.32736">
        <ele>28.200000762939</ele>
        <time>2019-10-13T07:48:38.000Z</time>
      </trkpt>
      <trkpt lat="47.31872" lon="-2.32722">
        <ele>28.60000038147</ele>
        <time>2019-10-13T07:48:40.000Z</time>
      </trkpt>
      <trkpt lat="47.31869" lon="-2.32716">
        <ele>29</ele>
        <time>2019-10-13T07:48:41.000Z</time>
      </trkpt>
      <trkpt lat="47.31867" lon="-2.3271">
        <ele>29.39999961853</ele>
        <time>2019-10-13T07:48:42.000Z</time>
      </trkpt>
      <trkpt lat="47.31864" lon="-2.32703">
        <ele>29.799999237061</ele>
        <time>2019-10-13T07:48:43.000Z</time>
      </trkpt>
      <trkpt lat="47.31858" lon="-2.32694">
        <ele>30.200000762939</ele>
        <time>2019-10-13T07:48:44.000Z</time>
      </trkpt>
      <trkpt lat="47.31845" lon="-2.32668">
        <ele>30.200000762939</ele>
        <time>2019-10-13T07:48:48.000Z</time>
      </trkpt>
      <trkpt lat="47.31832" lon="-2.32634">
        <ele>30.200000762939</ele>
        <time>2019-10-13T07:48:53.000Z</time>
      </trkpt>
      <trkpt lat="47.31828" lon="-2.3261">
        <ele>31</ele>
        <time>2019-10-13T07:48:54.000Z</time>
      </trkpt>
      <trkpt lat="47.31827" lon="-2.32605">
        <ele>31.39999961853</ele>
        <time>2019-10-13T07:48:58.000Z</time>
      </trkpt>
      <trkpt lat="47.31826" lon="-2.32601">
        <ele>31.799999237061</ele>
        <time>2019-10-13T07:48:59.000Z</time>
      </trkpt>
      <trkpt lat="47.31824" lon="-2.32596">
        <ele>32.200000762939</ele>
        <time>2019-10-13T07:49:00.000Z</time>
      </trkpt>
      <trkpt lat="47.31821" lon="-2.32562">
        <ele>32.200000762939</ele>
        <time>2019-10-13T07:49:06.000Z</time>
      </trkpt>
      <trkpt lat="47.31813" lon="-2.32544">
        <ele>32.599998474121</ele>
        <time>2019-10-13T07:49:11.000Z</time>
      </trkpt>
      <trkpt lat="47.31814" lon="-2.32541">
        <ele>33</ele>
        <time>2019-10-13T07:49:12.000Z</time>
      </trkpt>
      <trkpt lat="47.31814" lon="-2.32538">
        <ele>33.400001525879</ele>
        <time>2019-10-13T07:49:13.000Z</time>
      </trkpt>
      <trkpt lat="47.31813" lon="-2.32533">
        <ele>33.799999237061</ele>
        <time>2019-10-13T07:49:14.000Z</time>
      </trkpt>
      <trkpt lat="47.31813" lon="-2.3253">
        <ele>34.200000762939</ele>
        <time>2019-10-13T07:49:15.000Z</time>
      </trkpt>
      <trkpt lat="47.31809" lon="-2.32504">
        <ele>34.200000762939</ele>
        <time>2019-10-13T07:49:21.000Z</time>
      </trkpt>
      <trkpt lat="47.31808" lon="-2.32501">
        <ele>34.200000762939</ele>
        <time>2019-10-13T07:49:22.000Z</time>
      </trkpt>
      <trkpt lat="47.31807" lon="-2.32489">
        <ele>34.599998474121</ele>
        <time>2019-10-13T07:49:26.000Z</time>
      </trkpt>
      <trkpt lat="47.31806" lon="-2.32487">
        <ele>35</ele>
        <time>2019-10-13T07:49:27.000Z</time>
      </trkpt>
      <trkpt lat="47.31802" lon="-2.32483">
        <ele>35.400001525879</ele>
        <time>2019-10-13T07:49:28.000Z</time>
      </trkpt>
      <trkpt lat="47.31798" lon="-2.32479">
        <ele>36</ele>
        <time>2019-10-13T07:49:29.000Z</time>
      </trkpt>
      <trkpt lat="47.31796" lon="-2.32475">
        <ele>36.400001525879</ele>
        <time>2019-10-13T07:49:30.000Z</time>
      </trkpt>
      <trkpt lat="47.31789" lon="-2.32459">
        <ele>36.400001525879</ele>
        <time>2019-10-13T07:49:33.000Z</time>
      </trkpt>
      <trkpt lat="47.31788" lon="-2.32454">
        <ele>36.799999237061</ele>
        <time>2019-10-13T07:49:34.000Z</time>
      </trkpt>
      <trkpt lat="47.31786" lon="-2.32447">
        <ele>37.200000762939</ele>
        <time>2019-10-13T07:49:35.000Z</time>
      </trkpt>
      <trkpt lat="47.31786" lon="-2.32439">
        <ele>37.599998474121</ele>
        <time>2019-10-13T07:49:36.000Z</time>
      </trkpt>
      <trkpt lat="47.31785" lon="-2.32431">
        <ele>38</ele>
        <time>2019-10-13T07:49:37.000Z</time>
      </trkpt>
      <trkpt lat="47.31785" lon="-2.32423">
        <ele>38.400001525879</ele>
        <time>2019-10-13T07:49:38.000Z</time>
      </trkpt>
      <trkpt lat="47.31777" lon="-2.32381">
        <ele>38.799999237061</ele>
        <time>2019-10-13T07:49:44.000Z</time>
      </trkpt>
      <trkpt lat="47.31776" lon="-2.32375">
        <ele>39.200000762939</ele>
        <time>2019-10-13T07:49:45.000Z</time>
      </trkpt>
      <trkpt lat="47.31775" lon="-2.32369">
        <ele>39.799999237061</ele>
        <time>2019-10-13T07:49:46.000Z</time>
      </trkpt>
      <trkpt lat="47.31774" lon="-2.32362">
        <ele>40.200000762939</ele>
        <time>2019-10-13T07:49:47.000Z</time>
      </trkpt>
      <trkpt lat="47.31773" lon="-2.32355">
        <ele>40.599998474121</ele>
        <time>2019-10-13T07:49:48.000Z</time>
      </trkpt>
      <trkpt lat="47.31769" lon="-2.32334">
        <ele>40.599998474121</ele>
        <time>2019-10-13T07:49:51.000Z</time>
      </trkpt>
      <trkpt lat="47.3176" lon="-2.32285">
        <ele>40.599998474121</ele>
        <time>2019-10-13T07:49:58.000Z</time>
      </trkpt>
      <trkpt lat="47.31755" lon="-2.3225">
        <ele>41</ele>
        <time>2019-10-13T07:50:03.000Z</time>
      </trkpt>
      <trkpt lat="47.31754" lon="-2.32244">
        <ele>41.400001525879</ele>
        <time>2019-10-13T07:50:04.000Z</time>
      </trkpt>
      <trkpt lat="47.31755" lon="-2.32238">
        <ele>41.799999237061</ele>
        <time>2019-10-13T07:50:05.000Z</time>
      </trkpt>
      <trkpt lat="47.31758" lon="-2.32235">
        <ele>42.200000762939</ele>
        <time>2019-10-13T07:50:06.000Z</time>
      </trkpt>
      <trkpt lat="47.31761" lon="-2.32232">
        <ele>42.599998474121</ele>
        <time>2019-10-13T07:50:07.000Z</time>
      </trkpt>
      <trkpt lat="47.31766" lon="-2.32233">
        <ele>42.599998474121</ele>
        <time>2019-10-13T07:50:08.000Z</time>
      </trkpt>
      <trkpt lat="47.31775" lon="-2.32233">
        <ele>42.599998474121</ele>
        <time>2019-10-13T07:50:10.000Z</time>
      </trkpt>
      <trkpt lat="47.31792" lon="-2.3223">
        <ele>42.599998474121</ele>
        <time>2019-10-13T07:50:11.000Z</time>
      </trkpt>
      <trkpt lat="47.31798" lon="-2.32229">
        <ele>42.599998474121</ele>
        <time>2019-10-13T07:50:15.000Z</time>
      </trkpt>
      <trkpt lat="47.31834" lon="-2.32223">
        <ele>42.599998474121</ele>
        <time>2019-10-13T07:50:21.000Z</time>
      </trkpt>
      <trkpt lat="47.31856" lon="-2.32219">
        <ele>42.200000762939</ele>
        <time>2019-10-13T07:50:24.000Z</time>
      </trkpt>
      <trkpt lat="47.31862" lon="-2.32218">
        <ele>41.799999237061</ele>
        <time>2019-10-13T07:50:25.000Z</time>
      </trkpt>
      <trkpt lat="47.31871" lon="-2.32213">
        <ele>41.400001525879</ele>
        <time>2019-10-13T07:50:26.000Z</time>
      </trkpt>
      <trkpt lat="47.31879" lon="-2.3221">
        <ele>41</ele>
        <time>2019-10-13T07:50:27.000Z</time>
      </trkpt>
      <trkpt lat="47.31888" lon="-2.32208">
        <ele>40.599998474121</ele>
        <time>2019-10-13T07:50:28.000Z</time>
      </trkpt>
      <trkpt lat="47.31904" lon="-2.32205">
        <ele>40</ele>
        <time>2019-10-13T07:50:30.000Z</time>
      </trkpt>
      <trkpt lat="47.31911" lon="-2.32205">
        <ele>39.599998474121</ele>
        <time>2019-10-13T07:50:31.000Z</time>
      </trkpt>
      <trkpt lat="47.31919" lon="-2.32206">
        <ele>39</ele>
        <time>2019-10-13T07:50:32.000Z</time>
      </trkpt>
      <trkpt lat="47.31928" lon="-2.32207">
        <ele>38.599998474121</ele>
        <time>2019-10-13T07:50:33.000Z</time>
      </trkpt>
      <trkpt lat="47.31935" lon="-2.3221">
        <ele>38.200000762939</ele>
        <time>2019-10-13T07:50:34.000Z</time>
      </trkpt>
      <trkpt lat="47.31953" lon="-2.32217">
        <ele>36</ele>
        <time>2019-10-13T07:50:35.000Z</time>
      </trkpt>
      <trkpt lat="47.31957" lon="-2.32221">
        <ele>35.200000762939</ele>
        <time>2019-10-13T07:50:37.000Z</time>
      </trkpt>
      <trkpt lat="47.31959" lon="-2.32225">
        <ele>34.200000762939</ele>
        <time>2019-10-13T07:50:38.000Z</time>
      </trkpt>
      <trkpt lat="47.31957" lon="-2.32239">
        <ele>32.400001525879</ele>
        <time>2019-10-13T07:50:39.000Z</time>
      </trkpt>
      <trkpt lat="47.31957" lon="-2.32239">
        <ele>32.400001525879</ele>
        <time>2019-10-13T07:50:42.000Z</time>
      </trkpt>
      <trkpt lat="47.31953" lon="-2.32266">
        <ele>32</ele>
        <time>2019-10-13T07:50:46.000Z</time>
      </trkpt>
      <trkpt lat="47.31955" lon="-2.32267">
        <ele>31.200000762939</ele>
        <time>2019-10-13T07:50:47.000Z</time>
      </trkpt>
      <trkpt lat="47.31967" lon="-2.32242">
        <ele>30.200000762939</ele>
        <time>2019-10-13T07:50:48.000Z</time>
      </trkpt>
      <trkpt lat="47.31967" lon="-2.32242">
        <ele>30.200000762939</ele>
        <time>2019-10-13T07:50:51.000Z</time>
      </trkpt>
      <trkpt lat="47.31974" lon="-2.32233">
        <ele>29.799999237061</ele>
        <time>2019-10-13T07:50:52.000Z</time>
      </trkpt>
      <trkpt lat="47.3198" lon="-2.32226">
        <ele>29.39999961853</ele>
        <time>2019-10-13T07:50:53.000Z</time>
      </trkpt>
      <trkpt lat="47.31986" lon="-2.32217">
        <ele>29</ele>
        <time>2019-10-13T07:50:54.000Z</time>
      </trkpt>
      <trkpt lat="47.31992" lon="-2.32209">
        <ele>28.60000038147</ele>
        <time>2019-10-13T07:50:55.000Z</time>
      </trkpt>
      <trkpt lat="47.31997" lon="-2.322">
        <ele>28.200000762939</ele>
        <time>2019-10-13T07:50:56.000Z</time>
      </trkpt>
      <trkpt lat="47.32021" lon="-2.32184">
        <ele>27.39999961853</ele>
        <time>2019-10-13T07:50:59.000Z</time>
      </trkpt>
      <trkpt lat="47.32029" lon="-2.32183">
        <ele>27</ele>
        <time>2019-10-13T07:51:00.000Z</time>
      </trkpt>
      <trkpt lat="47.32038" lon="-2.32182">
        <ele>26.60000038147</ele>
        <time>2019-10-13T07:51:01.000Z</time>
      </trkpt>
      <trkpt lat="47.32045" lon="-2.32181">
        <ele>26.200000762939</ele>
        <time>2019-10-13T07:51:02.000Z</time>
      </trkpt>
      <trkpt lat="47.32092" lon="-2.32175">
        <ele>26.200000762939</ele>
        <time>2019-10-13T07:51:07.000Z</time>
      </trkpt>
      <trkpt lat="47.32116" lon="-2.32171">
        <ele>25.799999237061</ele>
        <time>2019-10-13T07:51:10.000Z</time>
      </trkpt>
      <trkpt lat="47.32124" lon="-2.32167">
        <ele>24.799999237061</ele>
        <time>2019-10-13T07:51:11.000Z</time>
      </trkpt>
      <trkpt lat="47.32132" lon="-2.32164">
        <ele>24.39999961853</ele>
        <time>2019-10-13T07:51:12.000Z</time>
      </trkpt>
      <trkpt lat="47.32153" lon="-2.32147">
        <ele>24</ele>
        <time>2019-10-13T07:51:13.000Z</time>
      </trkpt>
      <trkpt lat="47.32172" lon="-2.3213">
        <ele>24</ele>
        <time>2019-10-13T07:51:18.000Z</time>
      </trkpt>
      <trkpt lat="47.32183" lon="-2.32123">
        <ele>24</ele>
        <time>2019-10-13T07:51:20.000Z</time>
      </trkpt>
      <trkpt lat="47.32189" lon="-2.3212">
        <ele>23.60000038147</ele>
        <time>2019-10-13T07:51:22.000Z</time>
      </trkpt>
      <trkpt lat="47.32192" lon="-2.32118">
        <ele>23</ele>
        <time>2019-10-13T07:51:23.000Z</time>
      </trkpt>
      <trkpt lat="47.32194" lon="-2.32116">
        <ele>22.60000038147</ele>
        <time>2019-10-13T07:51:24.000Z</time>
      </trkpt>
      <trkpt lat="47.32196" lon="-2.32114">
        <ele>22.200000762939</ele>
        <time>2019-10-13T07:51:25.000Z</time>
      </trkpt>
      <trkpt lat="47.32199" lon="-2.32113">
        <ele>21.799999237061</ele>
        <time>2019-10-13T07:51:26.000Z</time>
      </trkpt>
      <trkpt lat="47.32206" lon="-2.32113">
        <ele>21.799999237061</ele>
        <time>2019-10-13T07:51:28.000Z</time>
      </trkpt>
      <trkpt lat="47.32214" lon="-2.32112">
        <ele>21.799999237061</ele>
        <time>2019-10-13T07:51:30.000Z</time>
      </trkpt>
      <trkpt lat="47.32229" lon="-2.32109">
        <ele>21.799999237061</ele>
        <time>2019-10-13T07:51:33.000Z</time>
      </trkpt>
      <trkpt lat="47.32258" lon="-2.32104">
        <ele>22.200000762939</ele>
        <time>2019-10-13T07:51:38.000Z</time>
      </trkpt>
      <trkpt lat="47.32264" lon="-2.32103">
        <ele>22.60000038147</ele>
        <time>2019-10-13T07:51:39.000Z</time>
      </trkpt>
      <trkpt lat="47.3227" lon="-2.32103">
        <ele>23.200000762939</ele>
        <time>2019-10-13T07:51:40.000Z</time>
      </trkpt>
      <trkpt lat="47.32277" lon="-2.32101">
        <ele>23.60000038147</ele>
        <time>2019-10-13T07:51:41.000Z</time>
      </trkpt>
      <trkpt lat="47.32283" lon="-2.321">
        <ele>24</ele>
        <time>2019-10-13T07:51:42.000Z</time>
      </trkpt>
      <trkpt lat="47.32316" lon="-2.321">
        <ele>24</ele>
        <time>2019-10-13T07:51:47.000Z</time>
      </trkpt>
      <trkpt lat="47.32334" lon="-2.32102">
        <ele>24</ele>
        <time>2019-10-13T07:51:50.000Z</time>
      </trkpt>
      <trkpt lat="47.32342" lon="-2.32104">
        <ele>24</ele>
        <time>2019-10-13T07:51:52.000Z</time>
      </trkpt>
      <trkpt lat="47.32364" lon="-2.32107">
        <ele>24</ele>
        <time>2019-10-13T07:51:57.000Z</time>
      </trkpt>
      <trkpt lat="47.32402" lon="-2.32103">
        <ele>24</ele>
        <time>2019-10-13T07:52:03.000Z</time>
      </trkpt>
      <trkpt lat="47.32448" lon="-2.32099">
        <ele>24</ele>
        <time>2019-10-13T07:52:10.000Z</time>
      </trkpt>
      <trkpt lat="47.32486" lon="-2.321">
        <ele>24</ele>
        <time>2019-10-13T07:52:16.000Z</time>
      </trkpt>
      <trkpt lat="47.32491" lon="-2.32099">
        <ele>24</ele>
        <time>2019-10-13T07:52:17.000Z</time>
      </trkpt>
      <trkpt lat="47.32498" lon="-2.32091">
        <ele>24</ele>
        <time>2019-10-13T07:52:19.000Z</time>
      </trkpt>
      <trkpt lat="47.32501" lon="-2.32057">
        <ele>24</ele>
        <time>2019-10-13T07:52:24.000Z</time>
      </trkpt>
      <trkpt lat="47.32503" lon="-2.32002">
        <ele>24</ele>
        <time>2019-10-13T07:52:31.000Z</time>
      </trkpt>
      <trkpt lat="47.32508" lon="-2.31948">
        <ele>24</ele>
        <time>2019-10-13T07:52:38.000Z</time>
      </trkpt>
      <trkpt lat="47.32513" lon="-2.31906">
        <ele>24</ele>
        <time>2019-10-13T07:52:44.000Z</time>
      </trkpt>
      <trkpt lat="47.32518" lon="-2.31858">
        <ele>24</ele>
        <time>2019-10-13T07:52:50.000Z</time>
      </trkpt>
      <trkpt lat="47.32519" lon="-2.31841">
        <ele>24</ele>
        <time>2019-10-13T07:52:52.000Z</time>
      </trkpt>
      <trkpt lat="47.32517" lon="-2.31812">
        <ele>24</ele>
        <time>2019-10-13T07:52:57.000Z</time>
      </trkpt>
      <trkpt lat="47.32515" lon="-2.31766">
        <ele>24</ele>
        <time>2019-10-13T07:53:03.000Z</time>
      </trkpt>
      <trkpt lat="47.32514" lon="-2.31748">
        <ele>24.39999961853</ele>
        <time>2019-10-13T07:53:05.000Z</time>
      </trkpt>
      <trkpt lat="47.32514" lon="-2.31739">
        <ele>24.799999237061</ele>
        <time>2019-10-13T07:53:06.000Z</time>
      </trkpt>
      <trkpt lat="47.32513" lon="-2.3173">
        <ele>25.200000762939</ele>
        <time>2019-10-13T07:53:07.000Z</time>
      </trkpt>
      <trkpt lat="47.32513" lon="-2.31721">
        <ele>25.60000038147</ele>
        <time>2019-10-13T07:53:08.000Z</time>
      </trkpt>
      <trkpt lat="47.32512" lon="-2.31713">
        <ele>26</ele>
        <time>2019-10-13T07:53:09.000Z</time>
      </trkpt>
      <trkpt lat="47.32509" lon="-2.31673">
        <ele>26</ele>
        <time>2019-10-13T07:53:13.000Z</time>
      </trkpt>
      <trkpt lat="47.32509" lon="-2.31663">
        <ele>26</ele>
        <time>2019-10-13T07:53:14.000Z</time>
      </trkpt>
      <trkpt lat="47.32518" lon="-2.31639">
        <ele>26</ele>
        <time>2019-10-13T07:53:17.000Z</time>
      </trkpt>
      <trkpt lat="47.32543" lon="-2.31603">
        <ele>26</ele>
        <time>2019-10-13T07:53:22.000Z</time>
      </trkpt>
      <trkpt lat="47.3255" lon="-2.31591">
        <ele>26</ele>
        <time>2019-10-13T07:53:24.000Z</time>
      </trkpt>
      <trkpt lat="47.32553" lon="-2.31587">
        <ele>26</ele>
        <time>2019-10-13T07:53:25.000Z</time>
      </trkpt>
      <trkpt lat="47.32564" lon="-2.31581">
        <ele>26</ele>
        <time>2019-10-13T07:53:29.000Z</time>
      </trkpt>
      <trkpt lat="47.32567" lon="-2.3158">
        <ele>26</ele>
        <time>2019-10-13T07:53:30.000Z</time>
      </trkpt>
      <trkpt lat="47.32581" lon="-2.31573">
        <ele>26</ele>
        <time>2019-10-13T07:53:34.000Z</time>
      </trkpt>
      <trkpt lat="47.32584" lon="-2.31572">
        <ele>25.60000038147</ele>
        <time>2019-10-13T07:53:35.000Z</time>
      </trkpt>
      <trkpt lat="47.32587" lon="-2.3157">
        <ele>25.200000762939</ele>
        <time>2019-10-13T07:53:36.000Z</time>
      </trkpt>
      <trkpt lat="47.32591" lon="-2.31569">
        <ele>24.799999237061</ele>
        <time>2019-10-13T07:53:37.000Z</time>
      </trkpt>
      <trkpt lat="47.32594" lon="-2.31568">
        <ele>24.39999961853</ele>
        <time>2019-10-13T07:53:38.000Z</time>
      </trkpt>
      <trkpt lat="47.32598" lon="-2.31566">
        <ele>24</ele>
        <time>2019-10-13T07:53:39.000Z</time>
      </trkpt>
      <trkpt lat="47.32602" lon="-2.31564">
        <ele>24</ele>
        <time>2019-10-13T07:53:40.000Z</time>
      </trkpt>
      <trkpt lat="47.32637" lon="-2.3155">
        <ele>24</ele>
        <time>2019-10-13T07:53:48.000Z</time>
      </trkpt>
      <trkpt lat="47.32661" lon="-2.31542">
        <ele>24</ele>
        <time>2019-10-13T07:53:53.000Z</time>
      </trkpt>
      <trkpt lat="47.32665" lon="-2.31539">
        <ele>24</ele>
        <time>2019-10-13T07:53:54.000Z</time>
      </trkpt>
      <trkpt lat="47.3267" lon="-2.31536">
        <ele>24</ele>
        <time>2019-10-13T07:53:55.000Z</time>
      </trkpt>
      <trkpt lat="47.3269" lon="-2.31523">
        <ele>24</ele>
        <time>2019-10-13T07:53:59.000Z</time>
      </trkpt>
      <trkpt lat="47.32716" lon="-2.31501">
        <ele>24</ele>
        <time>2019-10-13T07:54:04.000Z</time>
      </trkpt>
      <trkpt lat="47.32749" lon="-2.31451">
        <ele>23.60000038147</ele>
        <time>2019-10-13T07:54:09.000Z</time>
      </trkpt>
      <trkpt lat="47.32754" lon="-2.31442">
        <ele>23.200000762939</ele>
        <time>2019-10-13T07:54:12.000Z</time>
      </trkpt>
      <trkpt lat="47.32757" lon="-2.31432">
        <ele>22.799999237061</ele>
        <time>2019-10-13T07:54:13.000Z</time>
      </trkpt>
      <trkpt lat="47.32759" lon="-2.31421">
        <ele>22.39999961853</ele>
        <time>2019-10-13T07:54:14.000Z</time>
      </trkpt>
      <trkpt lat="47.3276" lon="-2.3141">
        <ele>22</ele>
        <time>2019-10-13T07:54:15.000Z</time>
      </trkpt>
      <trkpt lat="47.32758" lon="-2.31381">
        <ele>22</ele>
        <time>2019-10-13T07:54:18.000Z</time>
      </trkpt>
      <trkpt lat="47.32755" lon="-2.31356">
        <ele>22</ele>
        <time>2019-10-13T07:54:19.000Z</time>
      </trkpt>
      <trkpt lat="47.32756" lon="-2.31349">
        <ele>22</ele>
        <time>2019-10-13T07:54:22.000Z</time>
      </trkpt>
      <trkpt lat="47.32759" lon="-2.31344">
        <ele>22</ele>
        <time>2019-10-13T07:54:23.000Z</time>
      </trkpt>
      <trkpt lat="47.32774" lon="-2.31335">
        <ele>22</ele>
        <time>2019-10-13T07:54:26.000Z</time>
      </trkpt>
      <trkpt lat="47.32814" lon="-2.3132">
        <ele>22</ele>
        <time>2019-10-13T07:54:32.000Z</time>
      </trkpt>
      <trkpt lat="47.32893" lon="-2.31293">
        <ele>22</ele>
        <time>2019-10-13T07:54:43.000Z</time>
      </trkpt>
      <trkpt lat="47.32915" lon="-2.31285">
        <ele>21.39999961853</ele>
        <time>2019-10-13T07:54:46.000Z</time>
      </trkpt>
      <trkpt lat="47.32921" lon="-2.31282">
        <ele>21</ele>
        <time>2019-10-13T07:54:47.000Z</time>
      </trkpt>
      <trkpt lat="47.32927" lon="-2.31276">
        <ele>20.60000038147</ele>
        <time>2019-10-13T07:54:48.000Z</time>
      </trkpt>
      <trkpt lat="47.32931" lon="-2.3127">
        <ele>20</ele>
        <time>2019-10-13T07:54:49.000Z</time>
      </trkpt>
      <trkpt lat="47.32935" lon="-2.31262">
        <ele>19.60000038147</ele>
        <time>2019-10-13T07:54:50.000Z</time>
      </trkpt>
      <trkpt lat="47.32936" lon="-2.31252">
        <ele>19.60000038147</ele>
        <time>2019-10-13T07:54:51.000Z</time>
      </trkpt>
      <trkpt lat="47.32932" lon="-2.31222">
        <ele>19.60000038147</ele>
        <time>2019-10-13T07:54:54.000Z</time>
      </trkpt>
      <trkpt lat="47.3293" lon="-2.31213">
        <ele>19.60000038147</ele>
        <time>2019-10-13T07:54:55.000Z</time>
      </trkpt>
      <trkpt lat="47.32915" lon="-2.31163">
        <ele>19.60000038147</ele>
        <time>2019-10-13T07:55:00.000Z</time>
      </trkpt>
      <trkpt lat="47.32902" lon="-2.31112">
        <ele>19.60000038147</ele>
        <time>2019-10-13T07:55:05.000Z</time>
      </trkpt>
      <trkpt lat="47.32895" lon="-2.31081">
        <ele>19.60000038147</ele>
        <time>2019-10-13T07:55:06.000Z</time>
      </trkpt>
      <trkpt lat="47.32892" lon="-2.3105">
        <ele>19.60000038147</ele>
        <time>2019-10-13T07:55:09.000Z</time>
      </trkpt>
      <trkpt lat="47.32892" lon="-2.3105">
        <ele>19.60000038147</ele>
        <time>2019-10-13T07:55:11.000Z</time>
      </trkpt>
      <trkpt lat="47.32893" lon="-2.30971">
        <ele>19.60000038147</ele>
        <time>2019-10-13T07:55:19.000Z</time>
      </trkpt>
      <trkpt lat="47.32902" lon="-2.30896">
        <ele>19.60000038147</ele>
        <time>2019-10-13T07:55:27.000Z</time>
      </trkpt>
      <trkpt lat="47.32907" lon="-2.3084">
        <ele>19.60000038147</ele>
        <time>2019-10-13T07:55:33.000Z</time>
      </trkpt>
      <trkpt lat="47.3291" lon="-2.30823">
        <ele>19.60000038147</ele>
        <time>2019-10-13T07:55:35.000Z</time>
      </trkpt>
      <trkpt lat="47.32917" lon="-2.30812">
        <ele>19.60000038147</ele>
        <time>2019-10-13T07:55:37.000Z</time>
      </trkpt>
      <trkpt lat="47.32935" lon="-2.30808">
        <ele>19.60000038147</ele>
        <time>2019-10-13T07:55:40.000Z</time>
      </trkpt>
      <trkpt lat="47.32977" lon="-2.30806">
        <ele>19.60000038147</ele>
        <time>2019-10-13T07:55:46.000Z</time>
      </trkpt>
      <trkpt lat="47.32991" lon="-2.30806">
        <ele>19.60000038147</ele>
        <time>2019-10-13T07:55:48.000Z</time>
      </trkpt>
      <trkpt lat="47.3301" lon="-2.30809">
        <ele>19.60000038147</ele>
        <time>2019-10-13T07:55:51.000Z</time>
      </trkpt>
      <trkpt lat="47.33017" lon="-2.30809">
        <ele>19.60000038147</ele>
        <time>2019-10-13T07:55:52.000Z</time>
      </trkpt>
      <trkpt lat="47.33037" lon="-2.30809">
        <ele>19.200000762939</ele>
        <time>2019-10-13T07:55:55.000Z</time>
      </trkpt>
      <trkpt lat="47.33044" lon="-2.30807">
        <ele>18.799999237061</ele>
        <time>2019-10-13T07:55:56.000Z</time>
      </trkpt>
      <trkpt lat="47.33049" lon="-2.30803">
        <ele>18.39999961853</ele>
        <time>2019-10-13T07:55:57.000Z</time>
      </trkpt>
      <trkpt lat="47.33053" lon="-2.30796">
        <ele>18</ele>
        <time>2019-10-13T07:55:58.000Z</time>
      </trkpt>
      <trkpt lat="47.33056" lon="-2.30789">
        <ele>17.60000038147</ele>
        <time>2019-10-13T07:55:59.000Z</time>
      </trkpt>
      <trkpt lat="47.33061" lon="-2.30762">
        <ele>17.60000038147</ele>
        <time>2019-10-13T07:56:02.000Z</time>
      </trkpt>
      <trkpt lat="47.33063" lon="-2.30753">
        <ele>17.60000038147</ele>
        <time>2019-10-13T07:56:03.000Z</time>
      </trkpt>
      <trkpt lat="47.3307" lon="-2.30707">
        <ele>17.60000038147</ele>
        <time>2019-10-13T07:56:06.000Z</time>
      </trkpt>
      <trkpt lat="47.33072" lon="-2.30698">
        <ele>17.60000038147</ele>
        <time>2019-10-13T07:56:09.000Z</time>
      </trkpt>
      <trkpt lat="47.33084" lon="-2.3062">
        <ele>17.60000038147</ele>
        <time>2019-10-13T07:56:17.000Z</time>
      </trkpt>
      <trkpt lat="47.33089" lon="-2.30591">
        <ele>17.60000038147</ele>
        <time>2019-10-13T07:56:20.000Z</time>
      </trkpt>
      <trkpt lat="47.33093" lon="-2.30583">
        <ele>17.60000038147</ele>
        <time>2019-10-13T07:56:21.000Z</time>
      </trkpt>
      <trkpt lat="47.33108" lon="-2.30567">
        <ele>17.60000038147</ele>
        <time>2019-10-13T07:56:24.000Z</time>
      </trkpt>
      <trkpt lat="47.33113" lon="-2.30563">
        <ele>17.60000038147</ele>
        <time>2019-10-13T07:56:25.000Z</time>
      </trkpt>
      <trkpt lat="47.33139" lon="-2.30552">
        <ele>17.60000038147</ele>
        <time>2019-10-13T07:56:29.000Z</time>
      </trkpt>
      <trkpt lat="47.33177" lon="-2.30533">
        <ele>17.60000038147</ele>
        <time>2019-10-13T07:56:35.000Z</time>
      </trkpt>
      <trkpt lat="47.33203" lon="-2.30521">
        <ele>17.60000038147</ele>
        <time>2019-10-13T07:56:39.000Z</time>
      </trkpt>
      <trkpt lat="47.3322" lon="-2.30514">
        <ele>17.60000038147</ele>
        <time>2019-10-13T07:56:42.000Z</time>
      </trkpt>
      <trkpt lat="47.33249" lon="-2.30506">
        <ele>17.60000038147</ele>
        <time>2019-10-13T07:56:47.000Z</time>
      </trkpt>
      <trkpt lat="47.33262" lon="-2.30503">
        <ele>17.60000038147</ele>
        <time>2019-10-13T07:56:49.000Z</time>
      </trkpt>
      <trkpt lat="47.33301" lon="-2.30497">
        <ele>17.60000038147</ele>
        <time>2019-10-13T07:56:56.000Z</time>
      </trkpt>
      <trkpt lat="47.33305" lon="-2.30496">
        <ele>17.200000762939</ele>
        <time>2019-10-13T07:56:57.000Z</time>
      </trkpt>
      <trkpt lat="47.33309" lon="-2.30496">
        <ele>16.39999961853</ele>
        <time>2019-10-13T07:56:58.000Z</time>
      </trkpt>
      <trkpt lat="47.33311" lon="-2.30496">
        <ele>16</ele>
        <time>2019-10-13T07:56:59.000Z</time>
      </trkpt>
      <trkpt lat="47.33314" lon="-2.30497">
        <ele>15.60000038147</ele>
        <time>2019-10-13T07:57:00.000Z</time>
      </trkpt>
      <trkpt lat="47.33325" lon="-2.30499">
        <ele>15.60000038147</ele>
        <time>2019-10-13T07:57:05.000Z</time>
      </trkpt>
      <trkpt lat="47.33325" lon="-2.30499">
        <ele>15.60000038147</ele>
        <time>2019-10-13T07:57:07.000Z</time>
      </trkpt>
      <trkpt lat="47.33336" lon="-2.30496">
        <ele>15.60000038147</ele>
        <time>2019-10-13T07:57:22.000Z</time>
      </trkpt>
      <trkpt lat="47.33337" lon="-2.30495">
        <ele>15.60000038147</ele>
        <time>2019-10-13T07:57:23.000Z</time>
      </trkpt>
      <trkpt lat="47.33343" lon="-2.30488">
        <ele>15.60000038147</ele>
        <time>2019-10-13T07:57:27.000Z</time>
      </trkpt>
      <trkpt lat="47.33346" lon="-2.30481">
        <ele>15.60000038147</ele>
        <time>2019-10-13T07:57:30.000Z</time>
      </trkpt>
      <trkpt lat="47.33345" lon="-2.30478">
        <ele>15.60000038147</ele>
        <time>2019-10-13T07:57:31.000Z</time>
      </trkpt>
      <trkpt lat="47.33344" lon="-2.30473">
        <ele>15.60000038147</ele>
        <time>2019-10-13T07:57:34.000Z</time>
      </trkpt>
      <trkpt lat="47.33344" lon="-2.30469">
        <ele>15.60000038147</ele>
        <time>2019-10-13T07:57:36.000Z</time>
      </trkpt>
      <trkpt lat="47.33345" lon="-2.30454">
        <ele>15.60000038147</ele>
        <time>2019-10-13T07:57:41.000Z</time>
      </trkpt>
      <trkpt lat="47.33346" lon="-2.30429">
        <ele>15.60000038147</ele>
        <time>2019-10-13T07:57:46.000Z</time>
      </trkpt>
      <trkpt lat="47.33348" lon="-2.30421">
        <ele>15.60000038147</ele>
        <time>2019-10-13T07:57:47.000Z</time>
      </trkpt>
      <trkpt lat="47.33364" lon="-2.304">
        <ele>15.60000038147</ele>
        <time>2019-10-13T07:57:51.000Z</time>
      </trkpt>
      <trkpt lat="47.33383" lon="-2.30385">
        <ele>15.60000038147</ele>
        <time>2019-10-13T07:57:55.000Z</time>
      </trkpt>
      <trkpt lat="47.33389" lon="-2.30365">
        <ele>15.60000038147</ele>
        <time>2019-10-13T07:57:58.000Z</time>
      </trkpt>
      <trkpt lat="47.3339" lon="-2.30358">
        <ele>15.60000038147</ele>
        <time>2019-10-13T07:57:59.000Z</time>
      </trkpt>
      <trkpt lat="47.33393" lon="-2.30345">
        <ele>15.60000038147</ele>
        <time>2019-10-13T07:58:01.000Z</time>
      </trkpt>
      <trkpt lat="47.33392" lon="-2.30331">
        <ele>15.60000038147</ele>
        <time>2019-10-13T07:58:03.000Z</time>
      </trkpt>
      <trkpt lat="47.33394" lon="-2.3031">
        <ele>15.60000038147</ele>
        <time>2019-10-13T07:58:07.000Z</time>
      </trkpt>
      <trkpt lat="47.33393" lon="-2.3028">
        <ele>15.60000038147</ele>
        <time>2019-10-13T07:58:12.000Z</time>
      </trkpt>
      <trkpt lat="47.33393" lon="-2.30274">
        <ele>15.60000038147</ele>
        <time>2019-10-13T07:58:13.000Z</time>
      </trkpt>
      <trkpt lat="47.33396" lon="-2.30256">
        <ele>15.60000038147</ele>
        <time>2019-10-13T07:58:16.000Z</time>
      </trkpt>
      <trkpt lat="47.33398" lon="-2.3025">
        <ele>15.60000038147</ele>
        <time>2019-10-13T07:58:17.000Z</time>
      </trkpt>
      <trkpt lat="47.33405" lon="-2.30221">
        <ele>15.60000038147</ele>
        <time>2019-10-13T07:58:22.000Z</time>
      </trkpt>
      <trkpt lat="47.33407" lon="-2.30215">
        <ele>15.60000038147</ele>
        <time>2019-10-13T07:58:23.000Z</time>
      </trkpt>
      <trkpt lat="47.33415" lon="-2.30189">
        <ele>15.60000038147</ele>
        <time>2019-10-13T07:58:27.000Z</time>
      </trkpt>
      <trkpt lat="47.33419" lon="-2.30177">
        <ele>15.60000038147</ele>
        <time>2019-10-13T07:58:29.000Z</time>
      </trkpt>
      <trkpt lat="47.33429" lon="-2.30161">
        <ele>15.60000038147</ele>
        <time>2019-10-13T07:58:32.000Z</time>
      </trkpt>
      <trkpt lat="47.3344" lon="-2.30145">
        <ele>15.60000038147</ele>
        <time>2019-10-13T07:58:35.000Z</time>
      </trkpt>
      <trkpt lat="47.33447" lon="-2.30125">
        <ele>15.60000038147</ele>
        <time>2019-10-13T07:58:38.000Z</time>
      </trkpt>
      <trkpt lat="47.33454" lon="-2.30099">
        <ele>15.60000038147</ele>
        <time>2019-10-13T07:58:43.000Z</time>
      </trkpt>
      <trkpt lat="47.33462" lon="-2.30073">
        <ele>15.60000038147</ele>
        <time>2019-10-13T07:58:48.000Z</time>
      </trkpt>
      <trkpt lat="47.33464" lon="-2.30067">
        <ele>15.60000038147</ele>
        <time>2019-10-13T07:58:49.000Z</time>
      </trkpt>
      <trkpt lat="47.33479" lon="-2.30021">
        <ele>15.60000038147</ele>
        <time>2019-10-13T07:58:56.000Z</time>
      </trkpt>
      <trkpt lat="47.3349" lon="-2.30001">
        <ele>15.60000038147</ele>
        <time>2019-10-13T07:59:02.000Z</time>
      </trkpt>
      <trkpt lat="47.33505" lon="-2.29999">
        <ele>15.60000038147</ele>
        <time>2019-10-13T07:59:03.000Z</time>
      </trkpt>
      <trkpt lat="47.33519" lon="-2.30001">
        <ele>15.60000038147</ele>
        <time>2019-10-13T07:59:06.000Z</time>
      </trkpt>
      <trkpt lat="47.33548" lon="-2.30005">
        <ele>15.60000038147</ele>
        <time>2019-10-13T07:59:14.000Z</time>
      </trkpt>
      <trkpt lat="47.33557" lon="-2.30005">
        <ele>15.60000038147</ele>
        <time>2019-10-13T07:59:16.000Z</time>
      </trkpt>
      <trkpt lat="47.33571" lon="-2.29998">
        <ele>15.60000038147</ele>
        <time>2019-10-13T07:59:19.000Z</time>
      </trkpt>
      <trkpt lat="47.33583" lon="-2.29984">
        <ele>15.60000038147</ele>
        <time>2019-10-13T07:59:22.000Z</time>
      </trkpt>
      <trkpt lat="47.33591" lon="-2.29975">
        <ele>15.60000038147</ele>
        <time>2019-10-13T07:59:24.000Z</time>
      </trkpt>
      <trkpt lat="47.33604" lon="-2.2996">
        <ele>15.60000038147</ele>
        <time>2019-10-13T07:59:27.000Z</time>
      </trkpt>
      <trkpt lat="47.33622" lon="-2.2994">
        <ele>15.60000038147</ele>
        <time>2019-10-13T07:59:31.000Z</time>
      </trkpt>
      <trkpt lat="47.33626" lon="-2.29935">
        <ele>15.60000038147</ele>
        <time>2019-10-13T07:59:32.000Z</time>
      </trkpt>
      <trkpt lat="47.33644" lon="-2.29912">
        <ele>15.60000038147</ele>
        <time>2019-10-13T07:59:36.000Z</time>
      </trkpt>
      <trkpt lat="47.3365" lon="-2.29898">
        <ele>15.60000038147</ele>
        <time>2019-10-13T07:59:38.000Z</time>
      </trkpt>
      <trkpt lat="47.33651" lon="-2.29875">
        <ele>15.60000038147</ele>
        <time>2019-10-13T07:59:41.000Z</time>
      </trkpt>
      <trkpt lat="47.33644" lon="-2.29853">
        <ele>15.60000038147</ele>
        <time>2019-10-13T07:59:44.000Z</time>
      </trkpt>
      <trkpt lat="47.33639" lon="-2.29839">
        <ele>15.60000038147</ele>
        <time>2019-10-13T07:59:46.000Z</time>
      </trkpt>
      <trkpt lat="47.33638" lon="-2.29832">
        <ele>15.60000038147</ele>
        <time>2019-10-13T07:59:47.000Z</time>
      </trkpt>
      <trkpt lat="47.3364" lon="-2.29819">
        <ele>15.60000038147</ele>
        <time>2019-10-13T07:59:49.000Z</time>
      </trkpt>
      <trkpt lat="47.33652" lon="-2.29809">
        <ele>15.60000038147</ele>
        <time>2019-10-13T07:59:52.000Z</time>
      </trkpt>
      <trkpt lat="47.33663" lon="-2.29805">
        <ele>15.60000038147</ele>
        <time>2019-10-13T07:59:54.000Z</time>
      </trkpt>
      <trkpt lat="47.33667" lon="-2.29802">
        <ele>15.60000038147</ele>
        <time>2019-10-13T07:59:55.000Z</time>
      </trkpt>
      <trkpt lat="47.33677" lon="-2.29798">
        <ele>15.60000038147</ele>
        <time>2019-10-13T07:59:57.000Z</time>
      </trkpt>
      <trkpt lat="47.33691" lon="-2.29795">
        <ele>15.60000038147</ele>
        <time>2019-10-13T08:00:00.000Z</time>
      </trkpt>
      <trkpt lat="47.33703" lon="-2.29795">
        <ele>15.60000038147</ele>
        <time>2019-10-13T08:00:03.000Z</time>
      </trkpt>
      <trkpt lat="47.33728" lon="-2.29799">
        <ele>15.60000038147</ele>
        <time>2019-10-13T08:00:09.000Z</time>
      </trkpt>
      <trkpt lat="47.3375" lon="-2.29804">
        <ele>15.60000038147</ele>
        <time>2019-10-13T08:00:14.000Z</time>
      </trkpt>
      <trkpt lat="47.33799" lon="-2.29814">
        <ele>15.60000038147</ele>
        <time>2019-10-13T08:00:24.000Z</time>
      </trkpt>
      <trkpt lat="47.33822" lon="-2.29805">
        <ele>15.60000038147</ele>
        <time>2019-10-13T08:00:28.000Z</time>
      </trkpt>
      <trkpt lat="47.33855" lon="-2.29788">
        <ele>15.60000038147</ele>
        <time>2019-10-13T08:00:34.000Z</time>
      </trkpt>
      <trkpt lat="47.33864" lon="-2.2978">
        <ele>15.60000038147</ele>
        <time>2019-10-13T08:00:36.000Z</time>
      </trkpt>
      <trkpt lat="47.33874" lon="-2.29761">
        <ele>15.60000038147</ele>
        <time>2019-10-13T08:00:39.000Z</time>
      </trkpt>
      <trkpt lat="47.33877" lon="-2.29754">
        <ele>15.60000038147</ele>
        <time>2019-10-13T08:00:40.000Z</time>
      </trkpt>
      <trkpt lat="47.33886" lon="-2.29733">
        <ele>15.60000038147</ele>
        <time>2019-10-13T08:00:43.000Z</time>
      </trkpt>
      <trkpt lat="47.33892" lon="-2.29717">
        <ele>15.60000038147</ele>
        <time>2019-10-13T08:00:45.000Z</time>
      </trkpt>
      <trkpt lat="47.33908" lon="-2.29668">
        <ele>15.60000038147</ele>
        <time>2019-10-13T08:00:51.000Z</time>
      </trkpt>
      <trkpt lat="47.33918" lon="-2.2962">
        <ele>15.60000038147</ele>
        <time>2019-10-13T08:00:55.000Z</time>
      </trkpt>
      <trkpt lat="47.33918" lon="-2.2962">
        <ele>15.60000038147</ele>
        <time>2019-10-13T08:00:57.000Z</time>
      </trkpt>
      <trkpt lat="47.3392" lon="-2.29607">
        <ele>15.60000038147</ele>
        <time>2019-10-13T08:00:59.000Z</time>
      </trkpt>
      <trkpt lat="47.33928" lon="-2.29605">
        <ele>15.60000038147</ele>
        <time>2019-10-13T08:01:00.000Z</time>
      </trkpt>
      <trkpt lat="47.33944" lon="-2.29609">
        <ele>15.60000038147</ele>
        <time>2019-10-13T08:01:06.000Z</time>
      </trkpt>
      <trkpt lat="47.33953" lon="-2.29614">
        <ele>15.60000038147</ele>
        <time>2019-10-13T08:01:12.000Z</time>
      </trkpt>
      <trkpt lat="47.33956" lon="-2.29616">
        <ele>15.60000038147</ele>
        <time>2019-10-13T08:01:14.000Z</time>
      </trkpt>
      <trkpt lat="47.33961" lon="-2.2962">
        <ele>15.60000038147</ele>
        <time>2019-10-13T08:01:17.000Z</time>
      </trkpt>
      <trkpt lat="47.33973" lon="-2.29627">
        <ele>15.60000038147</ele>
        <time>2019-10-13T08:01:23.000Z</time>
      </trkpt>
      <trkpt lat="47.3399" lon="-2.29642">
        <ele>15.60000038147</ele>
        <time>2019-10-13T08:01:30.000Z</time>
      </trkpt>
      <trkpt lat="47.34009" lon="-2.29666">
        <ele>15.60000038147</ele>
        <time>2019-10-13T08:01:37.000Z</time>
      </trkpt>
      <trkpt lat="47.34026" lon="-2.29685">
        <ele>15.60000038147</ele>
        <time>2019-10-13T08:01:43.000Z</time>
      </trkpt>
      <trkpt lat="47.34043" lon="-2.29719">
        <ele>15.60000038147</ele>
        <time>2019-10-13T08:01:50.000Z</time>
      </trkpt>
      <trkpt lat="47.34056" lon="-2.29751">
        <ele>15.60000038147</ele>
        <time>2019-10-13T08:01:56.000Z</time>
      </trkpt>
      <trkpt lat="47.34061" lon="-2.29768">
        <ele>15.60000038147</ele>
        <time>2019-10-13T08:01:59.000Z</time>
      </trkpt>
      <trkpt lat="47.34062" lon="-2.2978">
        <ele>15.60000038147</ele>
        <time>2019-10-13T08:02:01.000Z</time>
      </trkpt>
      <trkpt lat="47.34063" lon="-2.29787">
        <ele>15.60000038147</ele>
        <time>2019-10-13T08:02:02.000Z</time>
      </trkpt>
      <trkpt lat="47.3406" lon="-2.29813">
        <ele>15.60000038147</ele>
        <time>2019-10-13T08:02:06.000Z</time>
      </trkpt>
      <trkpt lat="47.34052" lon="-2.2985">
        <ele>15.60000038147</ele>
        <time>2019-10-13T08:02:12.000Z</time>
      </trkpt>
      <trkpt lat="47.34051" lon="-2.29857">
        <ele>15.60000038147</ele>
        <time>2019-10-13T08:02:13.000Z</time>
      </trkpt>
      <trkpt lat="47.34052" lon="-2.29896">
        <ele>15.60000038147</ele>
        <time>2019-10-13T08:02:19.000Z</time>
      </trkpt>
      <trkpt lat="47.34055" lon="-2.29902">
        <ele>15.60000038147</ele>
        <time>2019-10-13T08:02:20.000Z</time>
      </trkpt>
      <trkpt lat="47.34065" lon="-2.29939">
        <ele>15.60000038147</ele>
        <time>2019-10-13T08:02:26.000Z</time>
      </trkpt>
      <trkpt lat="47.34075" lon="-2.29975">
        <ele>15.60000038147</ele>
        <time>2019-10-13T08:02:32.000Z</time>
      </trkpt>
      <trkpt lat="47.34077" lon="-2.2998">
        <ele>15.60000038147</ele>
        <time>2019-10-13T08:02:33.000Z</time>
      </trkpt>
      <trkpt lat="47.34084" lon="-2.29997">
        <ele>15.60000038147</ele>
        <time>2019-10-13T08:02:36.000Z</time>
      </trkpt>
      <trkpt lat="47.34097" lon="-2.30027">
        <ele>15.60000038147</ele>
        <time>2019-10-13T08:02:41.000Z</time>
      </trkpt>
      <trkpt lat="47.34109" lon="-2.3005">
        <ele>15.60000038147</ele>
        <time>2019-10-13T08:02:47.000Z</time>
      </trkpt>
      <trkpt lat="47.34113" lon="-2.30059">
        <ele>15.60000038147</ele>
        <time>2019-10-13T08:02:52.000Z</time>
      </trkpt>
      <trkpt lat="47.34119" lon="-2.30067">
        <ele>15.60000038147</ele>
        <time>2019-10-13T08:02:57.000Z</time>
      </trkpt>
      <trkpt lat="47.34128" lon="-2.30074">
        <ele>15.60000038147</ele>
        <time>2019-10-13T08:03:04.000Z</time>
      </trkpt>
      <trkpt lat="47.34134" lon="-2.30059">
        <ele>15.60000038147</ele>
        <time>2019-10-13T08:03:07.000Z</time>
      </trkpt>
      <trkpt lat="47.34139" lon="-2.30047">
        <ele>15.60000038147</ele>
        <time>2019-10-13T08:03:09.000Z</time>
      </trkpt>
      <trkpt lat="47.34151" lon="-2.30025">
        <ele>15.60000038147</ele>
        <time>2019-10-13T08:03:13.000Z</time>
      </trkpt>
      <trkpt lat="47.3417" lon="-2.29994">
        <ele>15.60000038147</ele>
        <time>2019-10-13T08:03:19.000Z</time>
      </trkpt>
      <trkpt lat="47.34194" lon="-2.29957">
        <ele>15.60000038147</ele>
        <time>2019-10-13T08:03:26.000Z</time>
      </trkpt>
      <trkpt lat="47.342" lon="-2.29949">
        <ele>15.60000038147</ele>
        <time>2019-10-13T08:03:29.000Z</time>
      </trkpt>
      <trkpt lat="47.34207" lon="-2.2994">
        <ele>15.60000038147</ele>
        <time>2019-10-13T08:03:36.000Z</time>
      </trkpt>
      <trkpt lat="47.34214" lon="-2.29931">
        <ele>15.60000038147</ele>
        <time>2019-10-13T08:03:43.000Z</time>
      </trkpt>
      <trkpt lat="47.34215" lon="-2.2993">
        <ele>15.60000038147</ele>
        <time>2019-10-13T08:03:45.000Z</time>
      </trkpt>
      <trkpt lat="47.34214" lon="-2.29931">
        <ele>15.60000038147</ele>
        <time>2019-10-13T08:05:24.000Z</time>
      </trkpt>
      <trkpt lat="47.34198" lon="-2.2995">
        <ele>15.60000038147</ele>
        <time>2019-10-13T08:05:32.000Z</time>
      </trkpt>
      <trkpt lat="47.34172" lon="-2.29993">
        <ele>15.60000038147</ele>
        <time>2019-10-13T08:05:42.000Z</time>
      </trkpt>
      <trkpt lat="47.34149" lon="-2.3003">
        <ele>15.60000038147</ele>
        <time>2019-10-13T08:05:52.000Z</time>
      </trkpt>
      <trkpt lat="47.34138" lon="-2.30053">
        <ele>15.60000038147</ele>
        <time>2019-10-13T08:05:58.000Z</time>
      </trkpt>
      <trkpt lat="47.34132" lon="-2.30073">
        <ele>15.60000038147</ele>
        <time>2019-10-13T08:06:04.000Z</time>
      </trkpt>
      <trkpt lat="47.34129" lon="-2.30077">
        <ele>15.60000038147</ele>
        <time>2019-10-13T08:06:07.000Z</time>
      </trkpt>
      <trkpt lat="47.34125" lon="-2.30074">
        <ele>15.60000038147</ele>
        <time>2019-10-13T08:06:09.000Z</time>
      </trkpt>
      <trkpt lat="47.34125" lon="-2.30074">
        <ele>15.60000038147</ele>
        <time>2019-10-13T08:06:11.000Z</time>
      </trkpt>
      <trkpt lat="47.34123" lon="-2.30071">
        <ele>15.199999809265</ele>
        <time>2019-10-13T08:06:16.000Z</time>
      </trkpt>
      <trkpt lat="47.34122" lon="-2.30071">
        <ele>14.800000190735</ele>
        <time>2019-10-13T08:06:17.000Z</time>
      </trkpt>
      <trkpt lat="47.34122" lon="-2.3007">
        <ele>14.199999809265</ele>
        <time>2019-10-13T08:06:18.000Z</time>
      </trkpt>
      <trkpt lat="47.34121" lon="-2.30068">
        <ele>14.60000038147</ele>
        <time>2019-10-13T08:06:19.000Z</time>
      </trkpt>
      <trkpt lat="47.3412" lon="-2.30067">
        <ele>15</ele>
        <time>2019-10-13T08:06:20.000Z</time>
      </trkpt>
      <trkpt lat="47.34118" lon="-2.30065">
        <ele>15.199999809265</ele>
        <time>2019-10-13T08:06:21.000Z</time>
      </trkpt>
      <trkpt lat="47.34116" lon="-2.30063">
        <ele>15.60000038147</ele>
        <time>2019-10-13T08:06:22.000Z</time>
      </trkpt>
      <trkpt lat="47.34114" lon="-2.30059">
        <ele>15.800000190735</ele>
        <time>2019-10-13T08:06:23.000Z</time>
      </trkpt>
      <trkpt lat="47.34102" lon="-2.30038">
        <ele>15.800000190735</ele>
        <time>2019-10-13T08:06:27.000Z</time>
      </trkpt>
      <trkpt lat="47.341" lon="-2.30032">
        <ele>15.800000190735</ele>
        <time>2019-10-13T08:06:28.000Z</time>
      </trkpt>
      <trkpt lat="47.3409" lon="-2.30009">
        <ele>15.800000190735</ele>
        <time>2019-10-13T08:06:32.000Z</time>
      </trkpt>
      <trkpt lat="47.34088" lon="-2.30004">
        <ele>15.800000190735</ele>
        <time>2019-10-13T08:06:33.000Z</time>
      </trkpt>
      <trkpt lat="47.3408" lon="-2.29987">
        <ele>15.800000190735</ele>
        <time>2019-10-13T08:06:36.000Z</time>
      </trkpt>
      <trkpt lat="47.34071" lon="-2.29963">
        <ele>15.800000190735</ele>
        <time>2019-10-13T08:06:39.000Z</time>
      </trkpt>
      <trkpt lat="47.34062" lon="-2.29929">
        <ele>15.800000190735</ele>
        <time>2019-10-13T08:06:45.000Z</time>
      </trkpt>
      <trkpt lat="47.34055" lon="-2.29899">
        <ele>15.800000190735</ele>
        <time>2019-10-13T08:06:51.000Z</time>
      </trkpt>
      <trkpt lat="47.3405" lon="-2.29875">
        <ele>15.800000190735</ele>
        <time>2019-10-13T08:06:55.000Z</time>
      </trkpt>
      <trkpt lat="47.3405" lon="-2.29869">
        <ele>15.800000190735</ele>
        <time>2019-10-13T08:06:56.000Z</time>
      </trkpt>
      <trkpt lat="47.34049" lon="-2.29833">
        <ele>15.800000190735</ele>
        <time>2019-10-13T08:07:02.000Z</time>
      </trkpt>
      <trkpt lat="47.34051" lon="-2.29827">
        <ele>15.800000190735</ele>
        <time>2019-10-13T08:07:03.000Z</time>
      </trkpt>
      <trkpt lat="47.3406" lon="-2.29789">
        <ele>15.800000190735</ele>
        <time>2019-10-13T08:07:07.000Z</time>
      </trkpt>
      <trkpt lat="47.3406" lon="-2.29782">
        <ele>15.800000190735</ele>
        <time>2019-10-13T08:07:10.000Z</time>
      </trkpt>
      <trkpt lat="47.34055" lon="-2.29751">
        <ele>15.800000190735</ele>
        <time>2019-10-13T08:07:15.000Z</time>
      </trkpt>
      <trkpt lat="47.34046" lon="-2.29729">
        <ele>15.800000190735</ele>
        <time>2019-10-13T08:07:19.000Z</time>
      </trkpt>
      <trkpt lat="47.3404" lon="-2.29719">
        <ele>15.800000190735</ele>
        <time>2019-10-13T08:07:21.000Z</time>
      </trkpt>
      <trkpt lat="47.34024" lon="-2.29685">
        <ele>15.800000190735</ele>
        <time>2019-10-13T08:07:27.000Z</time>
      </trkpt>
      <trkpt lat="47.34021" lon="-2.29681">
        <ele>15.800000190735</ele>
        <time>2019-10-13T08:07:28.000Z</time>
      </trkpt>
      <trkpt lat="47.34006" lon="-2.29664">
        <ele>15.800000190735</ele>
        <time>2019-10-13T08:07:32.000Z</time>
      </trkpt>
      <trkpt lat="47.33986" lon="-2.29641">
        <ele>15.800000190735</ele>
        <time>2019-10-13T08:07:38.000Z</time>
      </trkpt>
      <trkpt lat="47.33982" lon="-2.29637">
        <ele>15.800000190735</ele>
        <time>2019-10-13T08:07:39.000Z</time>
      </trkpt>
      <trkpt lat="47.33976" lon="-2.2963">
        <ele>15.800000190735</ele>
        <time>2019-10-13T08:07:41.000Z</time>
      </trkpt>
      <trkpt lat="47.33969" lon="-2.29625">
        <ele>15.800000190735</ele>
        <time>2019-10-13T08:07:43.000Z</time>
      </trkpt>
      <trkpt lat="47.33944" lon="-2.29609">
        <ele>15.800000190735</ele>
        <time>2019-10-13T08:07:50.000Z</time>
      </trkpt>
      <trkpt lat="47.3392" lon="-2.29603">
        <ele>15.800000190735</ele>
        <time>2019-10-13T08:07:58.000Z</time>
      </trkpt>
      <trkpt lat="47.33913" lon="-2.29598">
        <ele>15.800000190735</ele>
        <time>2019-10-13T08:08:03.000Z</time>
      </trkpt>
      <trkpt lat="47.33912" lon="-2.29596">
        <ele>15.800000190735</ele>
        <time>2019-10-13T08:08:06.000Z</time>
      </trkpt>
      <trkpt lat="47.33914" lon="-2.29582">
        <ele>15.800000190735</ele>
        <time>2019-10-13T08:08:10.000Z</time>
      </trkpt>
      <trkpt lat="47.33915" lon="-2.29561">
        <ele>15.800000190735</ele>
        <time>2019-10-13T08:08:16.000Z</time>
      </trkpt>
      <trkpt lat="47.33914" lon="-2.29551">
        <ele>15.800000190735</ele>
        <time>2019-10-13T08:08:21.000Z</time>
      </trkpt>
      <trkpt lat="47.33915" lon="-2.29547">
        <ele>15.800000190735</ele>
        <time>2019-10-13T08:08:24.000Z</time>
      </trkpt>
      <trkpt lat="47.33916" lon="-2.29537">
        <ele>15.800000190735</ele>
        <time>2019-10-13T08:08:27.000Z</time>
      </trkpt>
      <trkpt lat="47.33919" lon="-2.29505">
        <ele>15.800000190735</ele>
        <time>2019-10-13T08:08:34.000Z</time>
      </trkpt>
      <trkpt lat="47.33927" lon="-2.29484">
        <ele>15.800000190735</ele>
        <time>2019-10-13T08:08:38.000Z</time>
      </trkpt>
      <trkpt lat="47.33933" lon="-2.29477">
        <ele>15.800000190735</ele>
        <time>2019-10-13T08:08:40.000Z</time>
      </trkpt>
      <trkpt lat="47.33939" lon="-2.2947">
        <ele>15.800000190735</ele>
        <time>2019-10-13T08:08:42.000Z</time>
      </trkpt>
      <trkpt lat="47.33954" lon="-2.2946">
        <ele>15.800000190735</ele>
        <time>2019-10-13T08:08:47.000Z</time>
      </trkpt>
      <trkpt lat="47.33958" lon="-2.29461">
        <ele>15.800000190735</ele>
        <time>2019-10-13T08:08:48.000Z</time>
      </trkpt>
      <trkpt lat="47.33963" lon="-2.29468">
        <ele>15.800000190735</ele>
        <time>2019-10-13T08:08:50.000Z</time>
      </trkpt>
      <trkpt lat="47.33981" lon="-2.29498">
        <ele>15.800000190735</ele>
        <time>2019-10-13T08:08:56.000Z</time>
      </trkpt>
      <trkpt lat="47.34014" lon="-2.29549">
        <ele>15.800000190735</ele>
        <time>2019-10-13T08:09:04.000Z</time>
      </trkpt>
      <trkpt lat="47.34042" lon="-2.296">
        <ele>15.800000190735</ele>
        <time>2019-10-13T08:09:12.000Z</time>
      </trkpt>
      <trkpt lat="47.34066" lon="-2.29647">
        <ele>15.800000190735</ele>
        <time>2019-10-13T08:09:19.000Z</time>
      </trkpt>
      <trkpt lat="47.34089" lon="-2.29708">
        <ele>15.800000190735</ele>
        <time>2019-10-13T08:09:27.000Z</time>
      </trkpt>
      <trkpt lat="47.3411" lon="-2.29769">
        <ele>15.800000190735</ele>
        <time>2019-10-13T08:09:35.000Z</time>
      </trkpt>
      <trkpt lat="47.34126" lon="-2.29789">
        <ele>15.800000190735</ele>
        <time>2019-10-13T08:09:39.000Z</time>
      </trkpt>
      <trkpt lat="47.34143" lon="-2.29792">
        <ele>15.800000190735</ele>
        <time>2019-10-13T08:09:42.000Z</time>
      </trkpt>
      <trkpt lat="47.34149" lon="-2.29791">
        <ele>15.800000190735</ele>
        <time>2019-10-13T08:09:43.000Z</time>
      </trkpt>
      <trkpt lat="47.34168" lon="-2.29792">
        <ele>15.800000190735</ele>
        <time>2019-10-13T08:09:47.000Z</time>
      </trkpt>
      <trkpt lat="47.34196" lon="-2.29791">
        <ele>15.800000190735</ele>
        <time>2019-10-13T08:09:54.000Z</time>
      </trkpt>
      <trkpt lat="47.34207" lon="-2.29791">
        <ele>15.800000190735</ele>
        <time>2019-10-13T08:09:56.000Z</time>
      </trkpt>
      <trkpt lat="47.34246" lon="-2.29792">
        <ele>15.800000190735</ele>
        <time>2019-10-13T08:10:03.000Z</time>
      </trkpt>
      <trkpt lat="47.34252" lon="-2.29792">
        <ele>15.800000190735</ele>
        <time>2019-10-13T08:10:06.000Z</time>
      </trkpt>
      <trkpt lat="47.34256" lon="-2.29789">
        <ele>15.800000190735</ele>
        <time>2019-10-13T08:10:11.000Z</time>
      </trkpt>
      <trkpt lat="47.34254" lon="-2.29785">
        <ele>15.800000190735</ele>
        <time>2019-10-13T08:10:21.000Z</time>
      </trkpt>
      <trkpt lat="47.34248" lon="-2.29765">
        <ele>15.800000190735</ele>
        <time>2019-10-13T08:10:28.000Z</time>
      </trkpt>
      <trkpt lat="47.34246" lon="-2.29735">
        <ele>15.800000190735</ele>
        <time>2019-10-13T08:10:33.000Z</time>
      </trkpt>
      <trkpt lat="47.34237" lon="-2.29708">
        <ele>15.800000190735</ele>
        <time>2019-10-13T08:10:38.000Z</time>
      </trkpt>
      <trkpt lat="47.34219" lon="-2.2967">
        <ele>15.800000190735</ele>
        <time>2019-10-13T08:10:43.000Z</time>
      </trkpt>
      <trkpt lat="47.34217" lon="-2.29663">
        <ele>15.800000190735</ele>
        <time>2019-10-13T08:10:46.000Z</time>
      </trkpt>
      <trkpt lat="47.34216" lon="-2.2965">
        <ele>15.800000190735</ele>
        <time>2019-10-13T08:10:48.000Z</time>
      </trkpt>
      <trkpt lat="47.34219" lon="-2.29634">
        <ele>15.800000190735</ele>
        <time>2019-10-13T08:10:50.000Z</time>
      </trkpt>
      <trkpt lat="47.34229" lon="-2.29579">
        <ele>15.800000190735</ele>
        <time>2019-10-13T08:10:57.000Z</time>
      </trkpt>
      <trkpt lat="47.34233" lon="-2.29548">
        <ele>15.800000190735</ele>
        <time>2019-10-13T08:11:01.000Z</time>
      </trkpt>
      <trkpt lat="47.34235" lon="-2.29532">
        <ele>15.800000190735</ele>
        <time>2019-10-13T08:11:03.000Z</time>
      </trkpt>
      <trkpt lat="47.3424" lon="-2.29513">
        <ele>15.800000190735</ele>
        <time>2019-10-13T08:11:06.000Z</time>
      </trkpt>
      <trkpt lat="47.34243" lon="-2.29498">
        <ele>15.800000190735</ele>
        <time>2019-10-13T08:11:08.000Z</time>
      </trkpt>
      <trkpt lat="47.34253" lon="-2.29459">
        <ele>15.800000190735</ele>
        <time>2019-10-13T08:11:14.000Z</time>
      </trkpt>
      <trkpt lat="47.34252" lon="-2.29435">
        <ele>15.800000190735</ele>
        <time>2019-10-13T08:11:18.000Z</time>
      </trkpt>
      <trkpt lat="47.34251" lon="-2.29429">
        <ele>15.800000190735</ele>
        <time>2019-10-13T08:11:19.000Z</time>
      </trkpt>
      <trkpt lat="47.34243" lon="-2.2941">
        <ele>15.800000190735</ele>
        <time>2019-10-13T08:11:23.000Z</time>
      </trkpt>
      <trkpt lat="47.34236" lon="-2.29406">
        <ele>15.800000190735</ele>
        <time>2019-10-13T08:11:25.000Z</time>
      </trkpt>
      <trkpt lat="47.34227" lon="-2.29406">
        <ele>15.800000190735</ele>
        <time>2019-10-13T08:11:27.000Z</time>
      </trkpt>
      <trkpt lat="47.34219" lon="-2.29407">
        <ele>15.800000190735</ele>
        <time>2019-10-13T08:11:29.000Z</time>
      </trkpt>
      <trkpt lat="47.34201" lon="-2.29409">
        <ele>15.800000190735</ele>
        <time>2019-10-13T08:11:34.000Z</time>
      </trkpt>
      <trkpt lat="47.34171" lon="-2.29409">
        <ele>15.800000190735</ele>
        <time>2019-10-13T08:11:42.000Z</time>
      </trkpt>
      <trkpt lat="47.34148" lon="-2.29408">
        <ele>15.800000190735</ele>
        <time>2019-10-13T08:11:49.000Z</time>
      </trkpt>
      <trkpt lat="47.34122" lon="-2.29411">
        <ele>15.800000190735</ele>
        <time>2019-10-13T08:11:56.000Z</time>
      </trkpt>
      <trkpt lat="47.34081" lon="-2.29414">
        <ele>15.800000190735</ele>
        <time>2019-10-13T08:12:06.000Z</time>
      </trkpt>
      <trkpt lat="47.34051" lon="-2.29416">
        <ele>15.800000190735</ele>
        <time>2019-10-13T08:12:13.000Z</time>
      </trkpt>
      <trkpt lat="47.34024" lon="-2.29417">
        <ele>15.800000190735</ele>
        <time>2019-10-13T08:12:20.000Z</time>
      </trkpt>
      <trkpt lat="47.33997" lon="-2.2942">
        <ele>15.800000190735</ele>
        <time>2019-10-13T08:12:26.000Z</time>
      </trkpt>
      <trkpt lat="47.33987" lon="-2.29422">
        <ele>15.800000190735</ele>
        <time>2019-10-13T08:12:28.000Z</time>
      </trkpt>
      <trkpt lat="47.33966" lon="-2.29428">
        <ele>15.800000190735</ele>
        <time>2019-10-13T08:12:30.000Z</time>
      </trkpt>
      <trkpt lat="47.33961" lon="-2.29431">
        <ele>15.800000190735</ele>
        <time>2019-10-13T08:12:33.000Z</time>
      </trkpt>
      <trkpt lat="47.33952" lon="-2.29435">
        <ele>15.800000190735</ele>
        <time>2019-10-13T08:12:35.000Z</time>
      </trkpt>
      <trkpt lat="47.33947" lon="-2.29434">
        <ele>15.800000190735</ele>
        <time>2019-10-13T08:12:36.000Z</time>
      </trkpt>
      <trkpt lat="47.33936" lon="-2.29422">
        <ele>15.800000190735</ele>
        <time>2019-10-13T08:12:39.000Z</time>
      </trkpt>
      <trkpt lat="47.33932" lon="-2.29417">
        <ele>15.800000190735</ele>
        <time>2019-10-13T08:12:40.000Z</time>
      </trkpt>
      <trkpt lat="47.33924" lon="-2.29406">
        <ele>15.800000190735</ele>
        <time>2019-10-13T08:12:42.000Z</time>
      </trkpt>
      <trkpt lat="47.33911" lon="-2.2939">
        <ele>15.800000190735</ele>
        <time>2019-10-13T08:12:45.000Z</time>
      </trkpt>
      <trkpt lat="47.33894" lon="-2.29374">
        <ele>15.800000190735</ele>
        <time>2019-10-13T08:12:49.000Z</time>
      </trkpt>
      <trkpt lat="47.33886" lon="-2.29368">
        <ele>15.800000190735</ele>
        <time>2019-10-13T08:12:51.000Z</time>
      </trkpt>
      <trkpt lat="47.33878" lon="-2.29361">
        <ele>15.800000190735</ele>
        <time>2019-10-13T08:12:53.000Z</time>
      </trkpt>
      <trkpt lat="47.33864" lon="-2.29349">
        <ele>15.800000190735</ele>
        <time>2019-10-13T08:12:57.000Z</time>
      </trkpt>
      <trkpt lat="47.33849" lon="-2.29338">
        <ele>16.799999237061</ele>
        <time>2019-10-13T08:13:01.000Z</time>
      </trkpt>
      <trkpt lat="47.33846" lon="-2.29336">
        <ele>17.200000762939</ele>
        <time>2019-10-13T08:13:02.000Z</time>
      </trkpt>
      <trkpt lat="47.33843" lon="-2.29333">
        <ele>17.60000038147</ele>
        <time>2019-10-13T08:13:03.000Z</time>
      </trkpt>
      <trkpt lat="47.33839" lon="-2.2933">
        <ele>18</ele>
        <time>2019-10-13T08:13:04.000Z</time>
      </trkpt>
      <trkpt lat="47.33818" lon="-2.29312">
        <ele>18</ele>
        <time>2019-10-13T08:13:10.000Z</time>
      </trkpt>
      <trkpt lat="47.33805" lon="-2.29297">
        <ele>18</ele>
        <time>2019-10-13T08:13:15.000Z</time>
      </trkpt>
      <trkpt lat="47.33806" lon="-2.29266">
        <ele>18</ele>
        <time>2019-10-13T08:13:19.000Z</time>
      </trkpt>
      <trkpt lat="47.3381" lon="-2.2923">
        <ele>18</ele>
        <time>2019-10-13T08:13:26.000Z</time>
      </trkpt>
      <trkpt lat="47.33811" lon="-2.29214">
        <ele>18</ele>
        <time>2019-10-13T08:13:28.000Z</time>
      </trkpt>
      <trkpt lat="47.33815" lon="-2.29177">
        <ele>18</ele>
        <time>2019-10-13T08:13:33.000Z</time>
      </trkpt>
      <trkpt lat="47.33818" lon="-2.29137">
        <ele>17.60000038147</ele>
        <time>2019-10-13T08:13:38.000Z</time>
      </trkpt>
      <trkpt lat="47.3382" lon="-2.2913">
        <ele>17</ele>
        <time>2019-10-13T08:13:39.000Z</time>
      </trkpt>
      <trkpt lat="47.33822" lon="-2.29124">
        <ele>16.60000038147</ele>
        <time>2019-10-13T08:13:40.000Z</time>
      </trkpt>
      <trkpt lat="47.33825" lon="-2.29118">
        <ele>16.200000762939</ele>
        <time>2019-10-13T08:13:41.000Z</time>
      </trkpt>
      <trkpt lat="47.3383" lon="-2.29112">
        <ele>15.800000190735</ele>
        <time>2019-10-13T08:13:42.000Z</time>
      </trkpt>
      <trkpt lat="47.33835" lon="-2.29107">
        <ele>15.800000190735</ele>
        <time>2019-10-13T08:13:43.000Z</time>
      </trkpt>
      <trkpt lat="47.33839" lon="-2.29103">
        <ele>15.800000190735</ele>
        <time>2019-10-13T08:13:44.000Z</time>
      </trkpt>
      <trkpt lat="47.33849" lon="-2.29095">
        <ele>15.800000190735</ele>
        <time>2019-10-13T08:13:46.000Z</time>
      </trkpt>
      <trkpt lat="47.33859" lon="-2.29086">
        <ele>15.800000190735</ele>
        <time>2019-10-13T08:13:48.000Z</time>
      </trkpt>
      <trkpt lat="47.33893" lon="-2.29057">
        <ele>15.800000190735</ele>
        <time>2019-10-13T08:13:54.000Z</time>
      </trkpt>
      <trkpt lat="47.33928" lon="-2.29027">
        <ele>15.800000190735</ele>
        <time>2019-10-13T08:14:00.000Z</time>
      </trkpt>
      <trkpt lat="47.33969" lon="-2.28995">
        <ele>15.800000190735</ele>
        <time>2019-10-13T08:14:06.000Z</time>
      </trkpt>
      <trkpt lat="47.34007" lon="-2.28966">
        <ele>15.800000190735</ele>
        <time>2019-10-13T08:14:11.000Z</time>
      </trkpt>
      <trkpt lat="47.34037" lon="-2.28952">
        <ele>15.800000190735</ele>
        <time>2019-10-13T08:14:19.000Z</time>
      </trkpt>
      <trkpt lat="47.34051" lon="-2.28945">
        <ele>15.800000190735</ele>
        <time>2019-10-13T08:14:22.000Z</time>
      </trkpt>
      <trkpt lat="47.34062" lon="-2.28936">
        <ele>15.800000190735</ele>
        <time>2019-10-13T08:14:24.000Z</time>
      </trkpt>
      <trkpt lat="47.34093" lon="-2.28902">
        <ele>15.800000190735</ele>
        <time>2019-10-13T08:14:30.000Z</time>
      </trkpt>
      <trkpt lat="47.34096" lon="-2.28894">
        <ele>15.800000190735</ele>
        <time>2019-10-13T08:14:31.000Z</time>
      </trkpt>
      <trkpt lat="47.34099" lon="-2.28866">
        <ele>15.800000190735</ele>
        <time>2019-10-13T08:14:34.000Z</time>
      </trkpt>
      <trkpt lat="47.34099" lon="-2.28856">
        <ele>15.800000190735</ele>
        <time>2019-10-13T08:14:35.000Z</time>
      </trkpt>
      <trkpt lat="47.34101" lon="-2.28799">
        <ele>15.800000190735</ele>
        <time>2019-10-13T08:14:41.000Z</time>
      </trkpt>
      <trkpt lat="47.34101" lon="-2.28761">
        <ele>15.800000190735</ele>
        <time>2019-10-13T08:14:45.000Z</time>
      </trkpt>
      <trkpt lat="47.34098" lon="-2.28753">
        <ele>15.800000190735</ele>
        <time>2019-10-13T08:14:46.000Z</time>
      </trkpt>
      <trkpt lat="47.3408" lon="-2.28726">
        <ele>15.800000190735</ele>
        <time>2019-10-13T08:14:50.000Z</time>
      </trkpt>
      <trkpt lat="47.34054" lon="-2.28716">
        <ele>15.800000190735</ele>
        <time>2019-10-13T08:14:54.000Z</time>
      </trkpt>
      <trkpt lat="47.34011" lon="-2.287">
        <ele>15.800000190735</ele>
        <time>2019-10-13T08:15:01.000Z</time>
      </trkpt>
      <trkpt lat="47.34001" lon="-2.28693">
        <ele>15.800000190735</ele>
        <time>2019-10-13T08:15:03.000Z</time>
      </trkpt>
      <trkpt lat="47.33992" lon="-2.28676">
        <ele>15.800000190735</ele>
        <time>2019-10-13T08:15:06.000Z</time>
      </trkpt>
      <trkpt lat="47.33978" lon="-2.28641">
        <ele>15.800000190735</ele>
        <time>2019-10-13T08:15:11.000Z</time>
      </trkpt>
      <trkpt lat="47.3397" lon="-2.28625">
        <ele>15.800000190735</ele>
        <time>2019-10-13T08:15:13.000Z</time>
      </trkpt>
      <trkpt lat="47.33957" lon="-2.28605">
        <ele>15.800000190735</ele>
        <time>2019-10-13T08:15:16.000Z</time>
      </trkpt>
      <trkpt lat="47.33926" lon="-2.28565">
        <ele>15.800000190735</ele>
        <time>2019-10-13T08:15:22.000Z</time>
      </trkpt>
      <trkpt lat="47.33886" lon="-2.28513">
        <ele>15.800000190735</ele>
        <time>2019-10-13T08:15:30.000Z</time>
      </trkpt>
      <trkpt lat="47.3384" lon="-2.28455">
        <ele>15.800000190735</ele>
        <time>2019-10-13T08:15:39.000Z</time>
      </trkpt>
      <trkpt lat="47.33824" lon="-2.28454">
        <ele>15.800000190735</ele>
        <time>2019-10-13T08:15:41.000Z</time>
      </trkpt>
      <trkpt lat="47.33804" lon="-2.28467">
        <ele>15.800000190735</ele>
        <time>2019-10-13T08:15:44.000Z</time>
      </trkpt>
      <trkpt lat="47.33798" lon="-2.28472">
        <ele>15.800000190735</ele>
        <time>2019-10-13T08:15:45.000Z</time>
      </trkpt>
      <trkpt lat="47.33769" lon="-2.28496">
        <ele>15.800000190735</ele>
        <time>2019-10-13T08:15:50.000Z</time>
      </trkpt>
      <trkpt lat="47.33729" lon="-2.28532">
        <ele>15.800000190735</ele>
        <time>2019-10-13T08:15:57.000Z</time>
      </trkpt>
      <trkpt lat="47.33684" lon="-2.28578">
        <ele>15.800000190735</ele>
        <time>2019-10-13T08:16:05.000Z</time>
      </trkpt>
      <trkpt lat="47.33661" lon="-2.2861">
        <ele>15.800000190735</ele>
        <time>2019-10-13T08:16:10.000Z</time>
      </trkpt>
      <trkpt lat="47.33645" lon="-2.28624">
        <ele>15.800000190735</ele>
        <time>2019-10-13T08:16:13.000Z</time>
      </trkpt>
      <trkpt lat="47.33634" lon="-2.28632">
        <ele>15.800000190735</ele>
        <time>2019-10-13T08:16:15.000Z</time>
      </trkpt>
      <trkpt lat="47.33597" lon="-2.28651">
        <ele>15.800000190735</ele>
        <time>2019-10-13T08:16:21.000Z</time>
      </trkpt>
      <trkpt lat="47.33561" lon="-2.28669">
        <ele>15.800000190735</ele>
        <time>2019-10-13T08:16:27.000Z</time>
      </trkpt>
      <trkpt lat="47.33545" lon="-2.28676">
        <ele>15.800000190735</ele>
        <time>2019-10-13T08:16:31.000Z</time>
      </trkpt>
      <trkpt lat="47.33539" lon="-2.28678">
        <ele>15.800000190735</ele>
        <time>2019-10-13T08:16:35.000Z</time>
      </trkpt>
      <trkpt lat="47.33535" lon="-2.28676">
        <ele>15.800000190735</ele>
        <time>2019-10-13T08:16:38.000Z</time>
      </trkpt>
      <trkpt lat="47.33533" lon="-2.28671">
        <ele>15.800000190735</ele>
        <time>2019-10-13T08:16:40.000Z</time>
      </trkpt>
      <trkpt lat="47.33528" lon="-2.28657">
        <ele>15.800000190735</ele>
        <time>2019-10-13T08:16:44.000Z</time>
      </trkpt>
      <trkpt lat="47.33527" lon="-2.28654">
        <ele>15.800000190735</ele>
        <time>2019-10-13T08:16:45.000Z</time>
      </trkpt>
      <trkpt lat="47.33526" lon="-2.28647">
        <ele>15.800000190735</ele>
        <time>2019-10-13T08:16:47.000Z</time>
      </trkpt>
      <trkpt lat="47.3353" lon="-2.28638">
        <ele>15.800000190735</ele>
        <time>2019-10-13T08:16:49.000Z</time>
      </trkpt>
      <trkpt lat="47.33538" lon="-2.28626">
        <ele>15.800000190735</ele>
        <time>2019-10-13T08:16:52.000Z</time>
      </trkpt>
      <trkpt lat="47.33552" lon="-2.28604">
        <ele>15.800000190735</ele>
        <time>2019-10-13T08:16:56.000Z</time>
      </trkpt>
      <trkpt lat="47.33559" lon="-2.28593">
        <ele>15.800000190735</ele>
        <time>2019-10-13T08:16:58.000Z</time>
      </trkpt>
      <trkpt lat="47.33573" lon="-2.28571">
        <ele>15.800000190735</ele>
        <time>2019-10-13T08:17:02.000Z</time>
      </trkpt>
      <trkpt lat="47.33583" lon="-2.28556">
        <ele>15.800000190735</ele>
        <time>2019-10-13T08:17:05.000Z</time>
      </trkpt>
      <trkpt lat="47.33594" lon="-2.28545">
        <ele>15.800000190735</ele>
        <time>2019-10-13T08:17:08.000Z</time>
      </trkpt>
      <trkpt lat="47.33606" lon="-2.28513">
        <ele>15.800000190735</ele>
        <time>2019-10-13T08:17:13.000Z</time>
      </trkpt>
      <trkpt lat="47.33599" lon="-2.2849">
        <ele>15.800000190735</ele>
        <time>2019-10-13T08:17:21.000Z</time>
      </trkpt>
      <trkpt lat="47.33585" lon="-2.28458">
        <ele>15.800000190735</ele>
        <time>2019-10-13T08:17:28.000Z</time>
      </trkpt>
      <trkpt lat="47.33564" lon="-2.28436">
        <ele>15.800000190735</ele>
        <time>2019-10-13T08:17:34.000Z</time>
      </trkpt>
      <trkpt lat="47.33539" lon="-2.28407">
        <ele>15.800000190735</ele>
        <time>2019-10-13T08:17:39.000Z</time>
      </trkpt>
      <trkpt lat="47.33539" lon="-2.28407">
        <ele>15.800000190735</ele>
        <time>2019-10-13T08:17:41.000Z</time>
      </trkpt>
      <trkpt lat="47.3351" lon="-2.2836">
        <ele>15.800000190735</ele>
        <time>2019-10-13T08:17:49.000Z</time>
      </trkpt>
      <trkpt lat="47.33491" lon="-2.28332">
        <ele>15.800000190735</ele>
        <time>2019-10-13T08:17:58.000Z</time>
      </trkpt>
      <trkpt lat="47.33471" lon="-2.28311">
        <ele>15.800000190735</ele>
        <time>2019-10-13T08:18:05.000Z</time>
      </trkpt>
      <trkpt lat="47.33458" lon="-2.28291">
        <ele>15.800000190735</ele>
        <time>2019-10-13T08:18:10.000Z</time>
      </trkpt>
      <trkpt lat="47.33438" lon="-2.28292">
        <ele>15.800000190735</ele>
        <time>2019-10-13T08:18:14.000Z</time>
      </trkpt>
      <trkpt lat="47.334" lon="-2.28293">
        <ele>15.800000190735</ele>
        <time>2019-10-13T08:18:20.000Z</time>
      </trkpt>
      <trkpt lat="47.33387" lon="-2.28295">
        <ele>16.200000762939</ele>
        <time>2019-10-13T08:18:22.000Z</time>
      </trkpt>
      <trkpt lat="47.33381" lon="-2.28296">
        <ele>16.60000038147</ele>
        <time>2019-10-13T08:18:23.000Z</time>
      </trkpt>
      <trkpt lat="47.33375" lon="-2.28296">
        <ele>17</ele>
        <time>2019-10-13T08:18:24.000Z</time>
      </trkpt>
      <trkpt lat="47.33369" lon="-2.28296">
        <ele>17.39999961853</ele>
        <time>2019-10-13T08:18:25.000Z</time>
      </trkpt>
      <trkpt lat="47.33363" lon="-2.28297">
        <ele>17.799999237061</ele>
        <time>2019-10-13T08:18:26.000Z</time>
      </trkpt>
      <trkpt lat="47.33357" lon="-2.28297">
        <ele>17.799999237061</ele>
        <time>2019-10-13T08:18:27.000Z</time>
      </trkpt>
      <trkpt lat="47.33318" lon="-2.28301">
        <ele>17.799999237061</ele>
        <time>2019-10-13T08:18:33.000Z</time>
      </trkpt>
      <trkpt lat="47.33283" lon="-2.28303">
        <ele>18.39999961853</ele>
        <time>2019-10-13T08:18:38.000Z</time>
      </trkpt>
      <trkpt lat="47.33276" lon="-2.28304">
        <ele>18.799999237061</ele>
        <time>2019-10-13T08:18:39.000Z</time>
      </trkpt>
      <trkpt lat="47.33269" lon="-2.28304">
        <ele>19.39999961853</ele>
        <time>2019-10-13T08:18:40.000Z</time>
      </trkpt>
      <trkpt lat="47.33263" lon="-2.28305">
        <ele>19.799999237061</ele>
        <time>2019-10-13T08:18:41.000Z</time>
      </trkpt>
      <trkpt lat="47.33256" lon="-2.28305">
        <ele>20.39999961853</ele>
        <time>2019-10-13T08:18:42.000Z</time>
      </trkpt>
      <trkpt lat="47.33239" lon="-2.28304">
        <ele>20.39999961853</ele>
        <time>2019-10-13T08:18:45.000Z</time>
      </trkpt>
      <trkpt lat="47.33229" lon="-2.28292">
        <ele>20.39999961853</ele>
        <time>2019-10-13T08:18:48.000Z</time>
      </trkpt>
      <trkpt lat="47.33227" lon="-2.28271">
        <ele>20.39999961853</ele>
        <time>2019-10-13T08:18:51.000Z</time>
      </trkpt>
      <trkpt lat="47.33228" lon="-2.28263">
        <ele>20.39999961853</ele>
        <time>2019-10-13T08:18:52.000Z</time>
      </trkpt>
      <trkpt lat="47.33226" lon="-2.28226">
        <ele>20.39999961853</ele>
        <time>2019-10-13T08:18:56.000Z</time>
      </trkpt>
      <trkpt lat="47.33226" lon="-2.28146">
        <ele>20.39999961853</ele>
        <time>2019-10-13T08:19:05.000Z</time>
      </trkpt>
      <trkpt lat="47.33227" lon="-2.28087">
        <ele>20</ele>
        <time>2019-10-13T08:19:10.000Z</time>
      </trkpt>
      <trkpt lat="47.33227" lon="-2.28057">
        <ele>18.200000762939</ele>
        <time>2019-10-13T08:19:11.000Z</time>
      </trkpt>
      <trkpt lat="47.33227" lon="-2.28057">
        <ele>18.200000762939</ele>
        <time>2019-10-13T08:19:14.000Z</time>
      </trkpt>
      <trkpt lat="47.33229" lon="-2.28038">
        <ele>18.200000762939</ele>
        <time>2019-10-13T08:19:16.000Z</time>
      </trkpt>
      <trkpt lat="47.33234" lon="-2.28007">
        <ele>18.200000762939</ele>
        <time>2019-10-13T08:19:19.000Z</time>
      </trkpt>
      <trkpt lat="47.33245" lon="-2.27937">
        <ele>18.200000762939</ele>
        <time>2019-10-13T08:19:26.000Z</time>
      </trkpt>
      <trkpt lat="47.33252" lon="-2.27881">
        <ele>18.200000762939</ele>
        <time>2019-10-13T08:19:32.000Z</time>
      </trkpt>
      <trkpt lat="47.33252" lon="-2.2787">
        <ele>17.799999237061</ele>
        <time>2019-10-13T08:19:34.000Z</time>
      </trkpt>
      <trkpt lat="47.33252" lon="-2.27866">
        <ele>17.39999961853</ele>
        <time>2019-10-13T08:19:35.000Z</time>
      </trkpt>
      <trkpt lat="47.33252" lon="-2.27862">
        <ele>17</ele>
        <time>2019-10-13T08:19:36.000Z</time>
      </trkpt>
      <trkpt lat="47.33252" lon="-2.27858">
        <ele>16</ele>
        <time>2019-10-13T08:19:37.000Z</time>
      </trkpt>
      <trkpt lat="47.33251" lon="-2.27851">
        <ele>16</ele>
        <time>2019-10-13T08:19:38.000Z</time>
      </trkpt>
      <trkpt lat="47.33249" lon="-2.2785">
        <ele>16</ele>
        <time>2019-10-13T08:19:41.000Z</time>
      </trkpt>
      <trkpt lat="47.33236" lon="-2.27847">
        <ele>16</ele>
        <time>2019-10-13T08:19:45.000Z</time>
      </trkpt>
      <trkpt lat="47.33214" lon="-2.27851">
        <ele>16</ele>
        <time>2019-10-13T08:19:49.000Z</time>
      </trkpt>
      <trkpt lat="47.33208" lon="-2.27853">
        <ele>16</ele>
        <time>2019-10-13T08:19:50.000Z</time>
      </trkpt>
      <trkpt lat="47.33177" lon="-2.27866">
        <ele>16</ele>
        <time>2019-10-13T08:19:55.000Z</time>
      </trkpt>
      <trkpt lat="47.33163" lon="-2.27878">
        <ele>16</ele>
        <time>2019-10-13T08:19:58.000Z</time>
      </trkpt>
      <trkpt lat="47.33158" lon="-2.2788">
        <ele>16</ele>
        <time>2019-10-13T08:19:59.000Z</time>
      </trkpt>
      <trkpt lat="47.33144" lon="-2.27887">
        <ele>16</ele>
        <time>2019-10-13T08:20:02.000Z</time>
      </trkpt>
      <trkpt lat="47.33138" lon="-2.27888">
        <ele>16</ele>
        <time>2019-10-13T08:20:04.000Z</time>
      </trkpt>
      <trkpt lat="47.33136" lon="-2.27888">
        <ele>16</ele>
        <time>2019-10-13T08:20:07.000Z</time>
      </trkpt>
      <trkpt lat="47.33112" lon="-2.2789">
        <ele>16</ele>
        <time>2019-10-13T08:22:53.000Z</time>
      </trkpt>
      <trkpt lat="47.33101" lon="-2.27877">
        <ele>16</ele>
        <time>2019-10-13T08:22:58.000Z</time>
      </trkpt>
      <trkpt lat="47.33091" lon="-2.27871">
        <ele>16</ele>
        <time>2019-10-13T08:23:03.000Z</time>
      </trkpt>
      <trkpt lat="47.33077" lon="-2.27864">
        <ele>16</ele>
        <time>2019-10-13T08:23:10.000Z</time>
      </trkpt>
      <trkpt lat="47.33061" lon="-2.27852">
        <ele>16</ele>
        <time>2019-10-13T08:23:15.000Z</time>
      </trkpt>
      <trkpt lat="47.3304" lon="-2.2784">
        <ele>16</ele>
        <time>2019-10-13T08:23:22.000Z</time>
      </trkpt>
      <trkpt lat="47.33025" lon="-2.27829">
        <ele>16</ele>
        <time>2019-10-13T08:23:28.000Z</time>
      </trkpt>
      <trkpt lat="47.33017" lon="-2.27818">
        <ele>16</ele>
        <time>2019-10-13T08:23:34.000Z</time>
      </trkpt>
      <trkpt lat="47.33005" lon="-2.27805">
        <ele>16</ele>
        <time>2019-10-13T08:23:43.000Z</time>
      </trkpt>
      <trkpt lat="47.32993" lon="-2.27789">
        <ele>16</ele>
        <time>2019-10-13T08:23:49.000Z</time>
      </trkpt>
      <trkpt lat="47.32981" lon="-2.27767">
        <ele>16</ele>
        <time>2019-10-13T08:23:56.000Z</time>
      </trkpt>
      <trkpt lat="47.32972" lon="-2.27743">
        <ele>16</ele>
        <time>2019-10-13T08:24:01.000Z</time>
      </trkpt>
      <trkpt lat="47.32961" lon="-2.277">
        <ele>16</ele>
        <time>2019-10-13T08:24:10.000Z</time>
      </trkpt>
      <trkpt lat="47.3295" lon="-2.27665">
        <ele>16</ele>
        <time>2019-10-13T08:24:17.000Z</time>
      </trkpt>
      <trkpt lat="47.3295" lon="-2.27656">
        <ele>16</ele>
        <time>2019-10-13T08:24:21.000Z</time>
      </trkpt>
      <trkpt lat="47.32954" lon="-2.27652">
        <ele>16</ele>
        <time>2019-10-13T08:24:25.000Z</time>
      </trkpt>
      <trkpt lat="47.32955" lon="-2.27653">
        <ele>16</ele>
        <time>2019-10-13T08:24:26.000Z</time>
      </trkpt>
      <trkpt lat="47.32958" lon="-2.27666">
        <ele>16</ele>
        <time>2019-10-13T08:24:30.000Z</time>
      </trkpt>
      <trkpt lat="47.32961" lon="-2.2769">
        <ele>16</ele>
        <time>2019-10-13T08:24:35.000Z</time>
      </trkpt>
      <trkpt lat="47.32966" lon="-2.27703">
        <ele>16</ele>
        <time>2019-10-13T08:24:38.000Z</time>
      </trkpt>
      <trkpt lat="47.32972" lon="-2.27733">
        <ele>16</ele>
        <time>2019-10-13T08:24:43.000Z</time>
      </trkpt>
      <trkpt lat="47.32982" lon="-2.27763">
        <ele>16</ele>
        <time>2019-10-13T08:24:49.000Z</time>
      </trkpt>
      <trkpt lat="47.32994" lon="-2.27787">
        <ele>16</ele>
        <time>2019-10-13T08:24:55.000Z</time>
      </trkpt>
      <trkpt lat="47.33007" lon="-2.27805">
        <ele>16</ele>
        <time>2019-10-13T08:25:02.000Z</time>
      </trkpt>
      <trkpt lat="47.33019" lon="-2.27817">
        <ele>16</ele>
        <time>2019-10-13T08:25:08.000Z</time>
      </trkpt>
      <trkpt lat="47.33032" lon="-2.2783">
        <ele>16</ele>
        <time>2019-10-13T08:25:13.000Z</time>
      </trkpt>
      <trkpt lat="47.33047" lon="-2.27841">
        <ele>16</ele>
        <time>2019-10-13T08:25:17.000Z</time>
      </trkpt>
      <trkpt lat="47.33058" lon="-2.27847">
        <ele>16</ele>
        <time>2019-10-13T08:25:20.000Z</time>
      </trkpt>
      <trkpt lat="47.33062" lon="-2.27849">
        <ele>16</ele>
        <time>2019-10-13T08:25:21.000Z</time>
      </trkpt>
      <trkpt lat="47.33081" lon="-2.27862">
        <ele>16</ele>
        <time>2019-10-13T08:25:27.000Z</time>
      </trkpt>
      <trkpt lat="47.33094" lon="-2.2788">
        <ele>16</ele>
        <time>2019-10-13T08:25:34.000Z</time>
      </trkpt>
      <trkpt lat="47.331" lon="-2.27903">
        <ele>16</ele>
        <time>2019-10-13T08:25:38.000Z</time>
      </trkpt>
      <trkpt lat="47.33099" lon="-2.27908">
        <ele>16</ele>
        <time>2019-10-13T08:25:39.000Z</time>
      </trkpt>
      <trkpt lat="47.33095" lon="-2.27921">
        <ele>16</ele>
        <time>2019-10-13T08:25:42.000Z</time>
      </trkpt>
      <trkpt lat="47.3309" lon="-2.27932">
        <ele>16</ele>
        <time>2019-10-13T08:25:47.000Z</time>
      </trkpt>
      <trkpt lat="47.33085" lon="-2.27943">
        <ele>16</ele>
        <time>2019-10-13T08:25:53.000Z</time>
      </trkpt>
      <trkpt lat="47.33083" lon="-2.27952">
        <ele>16</ele>
        <time>2019-10-13T08:25:58.000Z</time>
      </trkpt>
      <trkpt lat="47.33076" lon="-2.27961">
        <ele>16</ele>
        <time>2019-10-13T08:26:01.000Z</time>
      </trkpt>
      <trkpt lat="47.33075" lon="-2.27963">
        <ele>16</ele>
        <time>2019-10-13T08:26:03.000Z</time>
      </trkpt>
      <trkpt lat="47.33067" lon="-2.27975">
        <ele>16</ele>
        <time>2019-10-13T08:26:08.000Z</time>
      </trkpt>
      <trkpt lat="47.33066" lon="-2.27976">
        <ele>16</ele>
        <time>2019-10-13T08:26:09.000Z</time>
      </trkpt>
      <trkpt lat="47.33059" lon="-2.27982">
        <ele>16</ele>
        <time>2019-10-13T08:26:15.000Z</time>
      </trkpt>
      <trkpt lat="47.33054" lon="-2.27995">
        <ele>16</ele>
        <time>2019-10-13T08:26:20.000Z</time>
      </trkpt>
      <trkpt lat="47.33051" lon="-2.27999">
        <ele>16</ele>
        <time>2019-10-13T08:26:25.000Z</time>
      </trkpt>
      <trkpt lat="47.33045" lon="-2.28006">
        <ele>16</ele>
        <time>2019-10-13T08:26:29.000Z</time>
      </trkpt>
      <trkpt lat="47.33032" lon="-2.28021">
        <ele>16</ele>
        <time>2019-10-13T08:26:36.000Z</time>
      </trkpt>
      <trkpt lat="47.33022" lon="-2.2804">
        <ele>16</ele>
        <time>2019-10-13T08:26:42.000Z</time>
      </trkpt>
      <trkpt lat="47.33015" lon="-2.28054">
        <ele>16</ele>
        <time>2019-10-13T08:26:47.000Z</time>
      </trkpt>
      <trkpt lat="47.33006" lon="-2.28066">
        <ele>16</ele>
        <time>2019-10-13T08:26:52.000Z</time>
      </trkpt>
      <trkpt lat="47.32992" lon="-2.28076">
        <ele>16</ele>
        <time>2019-10-13T08:26:57.000Z</time>
      </trkpt>
      <trkpt lat="47.32979" lon="-2.28074">
        <ele>16</ele>
        <time>2019-10-13T08:27:01.000Z</time>
      </trkpt>
      <trkpt lat="47.32965" lon="-2.28071">
        <ele>16</ele>
        <time>2019-10-13T08:27:06.000Z</time>
      </trkpt>
      <trkpt lat="47.32953" lon="-2.28079">
        <ele>16</ele>
        <time>2019-10-13T08:27:11.000Z</time>
      </trkpt>
      <trkpt lat="47.32945" lon="-2.28083">
        <ele>16</ele>
        <time>2019-10-13T08:27:13.000Z</time>
      </trkpt>
      <trkpt lat="47.32931" lon="-2.28089">
        <ele>16</ele>
        <time>2019-10-13T08:27:16.000Z</time>
      </trkpt>
      <trkpt lat="47.32906" lon="-2.28102">
        <ele>16</ele>
        <time>2019-10-13T08:27:22.000Z</time>
      </trkpt>
      <trkpt lat="47.32893" lon="-2.2811">
        <ele>16</ele>
        <time>2019-10-13T08:27:26.000Z</time>
      </trkpt>
      <trkpt lat="47.32871" lon="-2.28117">
        <ele>16</ele>
        <time>2019-10-13T08:27:32.000Z</time>
      </trkpt>
      <trkpt lat="47.3284" lon="-2.28132">
        <ele>16</ele>
        <time>2019-10-13T08:27:40.000Z</time>
      </trkpt>
      <trkpt lat="47.32818" lon="-2.28143">
        <ele>16</ele>
        <time>2019-10-13T08:27:46.000Z</time>
      </trkpt>
      <trkpt lat="47.32792" lon="-2.28156">
        <ele>16</ele>
        <time>2019-10-13T08:27:53.000Z</time>
      </trkpt>
      <trkpt lat="47.32766" lon="-2.28173">
        <ele>16</ele>
        <time>2019-10-13T08:28:00.000Z</time>
      </trkpt>
      <trkpt lat="47.32758" lon="-2.28191">
        <ele>16</ele>
        <time>2019-10-13T08:28:05.000Z</time>
      </trkpt>
      <trkpt lat="47.32759" lon="-2.28208">
        <ele>16</ele>
        <time>2019-10-13T08:28:09.000Z</time>
      </trkpt>
      <trkpt lat="47.32755" lon="-2.28234">
        <ele>16</ele>
        <time>2019-10-13T08:28:14.000Z</time>
      </trkpt>
      <trkpt lat="47.3274" lon="-2.2826">
        <ele>16</ele>
        <time>2019-10-13T08:28:20.000Z</time>
      </trkpt>
      <trkpt lat="47.32723" lon="-2.28283">
        <ele>16</ele>
        <time>2019-10-13T08:28:27.000Z</time>
      </trkpt>
      <trkpt lat="47.32711" lon="-2.28298">
        <ele>16</ele>
        <time>2019-10-13T08:28:33.000Z</time>
      </trkpt>
      <trkpt lat="47.32704" lon="-2.28304">
        <ele>16</ele>
        <time>2019-10-13T08:28:39.000Z</time>
      </trkpt>
      <trkpt lat="47.32704" lon="-2.28303">
        <ele>16</ele>
        <time>2019-10-13T08:28:40.000Z</time>
      </trkpt>
      <trkpt lat="47.32702" lon="-2.28305">
        <ele>16</ele>
        <time>2019-10-13T08:28:54.000Z</time>
      </trkpt>
      <trkpt lat="47.3269" lon="-2.28318">
        <ele>16</ele>
        <time>2019-10-13T08:28:56.000Z</time>
      </trkpt>
      <trkpt lat="47.32672" lon="-2.28331">
        <ele>16</ele>
        <time>2019-10-13T08:29:00.000Z</time>
      </trkpt>
      <trkpt lat="47.32658" lon="-2.2834">
        <ele>16</ele>
        <time>2019-10-13T08:29:04.000Z</time>
      </trkpt>
      <trkpt lat="47.32642" lon="-2.28344">
        <ele>16</ele>
        <time>2019-10-13T08:29:09.000Z</time>
      </trkpt>
      <trkpt lat="47.32632" lon="-2.28339">
        <ele>16</ele>
        <time>2019-10-13T08:29:11.000Z</time>
      </trkpt>
      <trkpt lat="47.3262" lon="-2.28321">
        <ele>16</ele>
        <time>2019-10-13T08:29:15.000Z</time>
      </trkpt>
      <trkpt lat="47.32618" lon="-2.28315">
        <ele>16</ele>
        <time>2019-10-13T08:29:16.000Z</time>
      </trkpt>
      <trkpt lat="47.32614" lon="-2.28302">
        <ele>16</ele>
        <time>2019-10-13T08:29:18.000Z</time>
      </trkpt>
      <trkpt lat="47.32608" lon="-2.28278">
        <ele>16</ele>
        <time>2019-10-13T08:29:21.000Z</time>
      </trkpt>
      <trkpt lat="47.32598" lon="-2.28224">
        <ele>16</ele>
        <time>2019-10-13T08:29:27.000Z</time>
      </trkpt>
      <trkpt lat="47.32585" lon="-2.28158">
        <ele>16</ele>
        <time>2019-10-13T08:29:35.000Z</time>
      </trkpt>
      <trkpt lat="47.32571" lon="-2.28091">
        <ele>16</ele>
        <time>2019-10-13T08:29:42.000Z</time>
      </trkpt>
      <trkpt lat="47.32555" lon="-2.28011">
        <ele>16</ele>
        <time>2019-10-13T08:29:50.000Z</time>
      </trkpt>
      <trkpt lat="47.32553" lon="-2.28001">
        <ele>16</ele>
        <time>2019-10-13T08:29:51.000Z</time>
      </trkpt>
      <trkpt lat="47.32534" lon="-2.27916">
        <ele>16</ele>
        <time>2019-10-13T08:30:00.000Z</time>
      </trkpt>
      <trkpt lat="47.32518" lon="-2.27853">
        <ele>16</ele>
        <time>2019-10-13T08:30:07.000Z</time>
      </trkpt>
      <trkpt lat="47.32515" lon="-2.27846">
        <ele>16</ele>
        <time>2019-10-13T08:30:08.000Z</time>
      </trkpt>
      <trkpt lat="47.32495" lon="-2.27825">
        <ele>16</ele>
        <time>2019-10-13T08:30:12.000Z</time>
      </trkpt>
      <trkpt lat="47.3249" lon="-2.27823">
        <ele>16</ele>
        <time>2019-10-13T08:30:13.000Z</time>
      </trkpt>
      <trkpt lat="47.3247" lon="-2.27826">
        <ele>16</ele>
        <time>2019-10-13T08:30:16.000Z</time>
      </trkpt>
      <trkpt lat="47.32448" lon="-2.27829">
        <ele>16</ele>
        <time>2019-10-13T08:30:21.000Z</time>
      </trkpt>
      <trkpt lat="47.32441" lon="-2.27827">
        <ele>16</ele>
        <time>2019-10-13T08:30:26.000Z</time>
      </trkpt>
      <trkpt lat="47.3244" lon="-2.27824">
        <ele>16</ele>
        <time>2019-10-13T08:30:28.000Z</time>
      </trkpt>
      <trkpt lat="47.32441" lon="-2.27824">
        <ele>16</ele>
        <time>2019-10-13T08:30:30.000Z</time>
      </trkpt>
      <trkpt lat="47.32442" lon="-2.27808">
        <ele>16</ele>
        <time>2019-10-13T08:30:48.000Z</time>
      </trkpt>
      <trkpt lat="47.32443" lon="-2.27785">
        <ele>16</ele>
        <time>2019-10-13T08:30:57.000Z</time>
      </trkpt>
      <trkpt lat="47.32438" lon="-2.27758">
        <ele>16</ele>
        <time>2019-10-13T08:31:02.000Z</time>
      </trkpt>
      <trkpt lat="47.32436" lon="-2.27743">
        <ele>16</ele>
        <time>2019-10-13T08:31:03.000Z</time>
      </trkpt>
      <trkpt lat="47.32435" lon="-2.27704">
        <ele>16</ele>
        <time>2019-10-13T08:31:13.000Z</time>
      </trkpt>
      <trkpt lat="47.32434" lon="-2.2767">
        <ele>16</ele>
        <time>2019-10-13T08:31:20.000Z</time>
      </trkpt>
      <trkpt lat="47.32431" lon="-2.27649">
        <ele>16</ele>
        <time>2019-10-13T08:31:24.000Z</time>
      </trkpt>
      <trkpt lat="47.32429" lon="-2.27644">
        <ele>16</ele>
        <time>2019-10-13T08:31:25.000Z</time>
      </trkpt>
      <trkpt lat="47.32425" lon="-2.27633">
        <ele>16</ele>
        <time>2019-10-13T08:31:27.000Z</time>
      </trkpt>
      <trkpt lat="47.32418" lon="-2.27612">
        <ele>16</ele>
        <time>2019-10-13T08:31:31.000Z</time>
      </trkpt>
      <trkpt lat="47.32405" lon="-2.27558">
        <ele>16</ele>
        <time>2019-10-13T08:31:39.000Z</time>
      </trkpt>
      <trkpt lat="47.32407" lon="-2.27551">
        <ele>16</ele>
        <time>2019-10-13T08:31:43.000Z</time>
      </trkpt>
      <trkpt lat="47.32409" lon="-2.2755">
        <ele>16</ele>
        <time>2019-10-13T08:31:44.000Z</time>
      </trkpt>
      <trkpt lat="47.32428" lon="-2.27548">
        <ele>16</ele>
        <time>2019-10-13T08:31:48.000Z</time>
      </trkpt>
      <trkpt lat="47.32442" lon="-2.27555">
        <ele>16</ele>
        <time>2019-10-13T08:31:51.000Z</time>
      </trkpt>
      <trkpt lat="47.32446" lon="-2.27558">
        <ele>16</ele>
        <time>2019-10-13T08:31:52.000Z</time>
      </trkpt>
      <trkpt lat="47.3245" lon="-2.2756">
        <ele>16</ele>
        <time>2019-10-13T08:31:53.000Z</time>
      </trkpt>
      <trkpt lat="47.32479" lon="-2.27575">
        <ele>16</ele>
        <time>2019-10-13T08:31:59.000Z</time>
      </trkpt>
      <trkpt lat="47.32496" lon="-2.27571">
        <ele>16</ele>
        <time>2019-10-13T08:32:03.000Z</time>
      </trkpt>
      <trkpt lat="47.3251" lon="-2.27556">
        <ele>16</ele>
        <time>2019-10-13T08:32:05.000Z</time>
      </trkpt>
      <trkpt lat="47.32514" lon="-2.27552">
        <ele>16</ele>
        <time>2019-10-13T08:32:08.000Z</time>
      </trkpt>
      <trkpt lat="47.32529" lon="-2.27542">
        <ele>16</ele>
        <time>2019-10-13T08:32:12.000Z</time>
      </trkpt>
      <trkpt lat="47.3255" lon="-2.27522">
        <ele>16</ele>
        <time>2019-10-13T08:32:17.000Z</time>
      </trkpt>
      <trkpt lat="47.3257" lon="-2.27502">
        <ele>16</ele>
        <time>2019-10-13T08:32:22.000Z</time>
      </trkpt>
      <trkpt lat="47.3258" lon="-2.27482">
        <ele>16</ele>
        <time>2019-10-13T08:32:27.000Z</time>
      </trkpt>
      <trkpt lat="47.32581" lon="-2.27467">
        <ele>16</ele>
        <time>2019-10-13T08:32:32.000Z</time>
      </trkpt>
      <trkpt lat="47.32582" lon="-2.2745">
        <ele>16</ele>
        <time>2019-10-13T08:32:38.000Z</time>
      </trkpt>
      <trkpt lat="47.32584" lon="-2.2742">
        <ele>16</ele>
        <time>2019-10-13T08:32:45.000Z</time>
      </trkpt>
      <trkpt lat="47.32586" lon="-2.27392">
        <ele>16</ele>
        <time>2019-10-13T08:32:51.000Z</time>
      </trkpt>
      <trkpt lat="47.32587" lon="-2.27366">
        <ele>16</ele>
        <time>2019-10-13T08:32:57.000Z</time>
      </trkpt>
      <trkpt lat="47.32588" lon="-2.27347">
        <ele>16</ele>
        <time>2019-10-13T08:33:02.000Z</time>
      </trkpt>
      <trkpt lat="47.3259" lon="-2.27328">
        <ele>16</ele>
        <time>2019-10-13T08:33:08.000Z</time>
      </trkpt>
      <trkpt lat="47.32591" lon="-2.27306">
        <ele>16</ele>
        <time>2019-10-13T08:33:13.000Z</time>
      </trkpt>
      <trkpt lat="47.32596" lon="-2.27279">
        <ele>16</ele>
        <time>2019-10-13T08:33:19.000Z</time>
      </trkpt>
      <trkpt lat="47.32599" lon="-2.27248">
        <ele>16</ele>
        <time>2019-10-13T08:33:24.000Z</time>
      </trkpt>
      <trkpt lat="47.32601" lon="-2.27231">
        <ele>16</ele>
        <time>2019-10-13T08:33:33.000Z</time>
      </trkpt>
      <trkpt lat="47.32604" lon="-2.27218">
        <ele>16</ele>
        <time>2019-10-13T08:33:38.000Z</time>
      </trkpt>
      <trkpt lat="47.32605" lon="-2.2721">
        <ele>16</ele>
        <time>2019-10-13T08:33:41.000Z</time>
      </trkpt>
      <trkpt lat="47.32606" lon="-2.27202">
        <ele>16</ele>
        <time>2019-10-13T08:33:43.000Z</time>
      </trkpt>
      <trkpt lat="47.32603" lon="-2.2718">
        <ele>16</ele>
        <time>2019-10-13T08:33:48.000Z</time>
      </trkpt>
      <trkpt lat="47.326" lon="-2.27153">
        <ele>16</ele>
        <time>2019-10-13T08:33:54.000Z</time>
      </trkpt>
      <trkpt lat="47.32604" lon="-2.27128">
        <ele>16</ele>
        <time>2019-10-13T08:34:00.000Z</time>
      </trkpt>
      <trkpt lat="47.32612" lon="-2.27108">
        <ele>15.60000038147</ele>
        <time>2019-10-13T08:34:07.000Z</time>
      </trkpt>
      <trkpt lat="47.32613" lon="-2.27106">
        <ele>15.199999809265</ele>
        <time>2019-10-13T08:34:08.000Z</time>
      </trkpt>
      <trkpt lat="47.32614" lon="-2.27103">
        <ele>14.800000190735</ele>
        <time>2019-10-13T08:34:09.000Z</time>
      </trkpt>
      <trkpt lat="47.32615" lon="-2.271">
        <ele>14.39999961853</ele>
        <time>2019-10-13T08:34:10.000Z</time>
      </trkpt>
      <trkpt lat="47.32616" lon="-2.27097">
        <ele>14</ele>
        <time>2019-10-13T08:34:11.000Z</time>
      </trkpt>
      <trkpt lat="47.32618" lon="-2.27094">
        <ele>14</ele>
        <time>2019-10-13T08:34:12.000Z</time>
      </trkpt>
      <trkpt lat="47.32625" lon="-2.27072">
        <ele>14</ele>
        <time>2019-10-13T08:34:17.000Z</time>
      </trkpt>
      <trkpt lat="47.32625" lon="-2.2705">
        <ele>14</ele>
        <time>2019-10-13T08:34:22.000Z</time>
      </trkpt>
      <trkpt lat="47.32616" lon="-2.27039">
        <ele>14</ele>
        <time>2019-10-13T08:34:26.000Z</time>
      </trkpt>
      <trkpt lat="47.32603" lon="-2.27023">
        <ele>14</ele>
        <time>2019-10-13T08:34:31.000Z</time>
      </trkpt>
      <trkpt lat="47.32581" lon="-2.2699">
        <ele>14</ele>
        <time>2019-10-13T08:34:39.000Z</time>
      </trkpt>
      <trkpt lat="47.32562" lon="-2.26954">
        <ele>14</ele>
        <time>2019-10-13T08:34:47.000Z</time>
      </trkpt>
      <trkpt lat="47.32541" lon="-2.26914">
        <ele>14</ele>
        <time>2019-10-13T08:34:57.000Z</time>
      </trkpt>
      <trkpt lat="47.32528" lon="-2.2689">
        <ele>14</ele>
        <time>2019-10-13T08:35:03.000Z</time>
      </trkpt>
      <trkpt lat="47.32522" lon="-2.26867">
        <ele>14</ele>
        <time>2019-10-13T08:35:08.000Z</time>
      </trkpt>
      <trkpt lat="47.32517" lon="-2.26836">
        <ele>14</ele>
        <time>2019-10-13T08:35:14.000Z</time>
      </trkpt>
      <trkpt lat="47.32516" lon="-2.26803">
        <ele>14</ele>
        <time>2019-10-13T08:35:20.000Z</time>
      </trkpt>
      <trkpt lat="47.32521" lon="-2.26776">
        <ele>14</ele>
        <time>2019-10-13T08:35:25.000Z</time>
      </trkpt>
      <trkpt lat="47.32529" lon="-2.26743">
        <ele>14</ele>
        <time>2019-10-13T08:35:32.000Z</time>
      </trkpt>
      <trkpt lat="47.32536" lon="-2.26715">
        <ele>14</ele>
        <time>2019-10-13T08:35:38.000Z</time>
      </trkpt>
      <trkpt lat="47.32541" lon="-2.26696">
        <ele>14</ele>
        <time>2019-10-13T08:35:42.000Z</time>
      </trkpt>
      <trkpt lat="47.32548" lon="-2.26659">
        <ele>14</ele>
        <time>2019-10-13T08:35:49.000Z</time>
      </trkpt>
      <trkpt lat="47.32558" lon="-2.2663">
        <ele>14</ele>
        <time>2019-10-13T08:35:55.000Z</time>
      </trkpt>
      <trkpt lat="47.32569" lon="-2.26598">
        <ele>14</ele>
        <time>2019-10-13T08:36:02.000Z</time>
      </trkpt>
      <trkpt lat="47.32575" lon="-2.2658">
        <ele>14</ele>
        <time>2019-10-13T08:36:06.000Z</time>
      </trkpt>
      <trkpt lat="47.3258" lon="-2.26565">
        <ele>14</ele>
        <time>2019-10-13T08:36:07.000Z</time>
      </trkpt>
      <trkpt lat="47.3258" lon="-2.26565">
        <ele>14</ele>
        <time>2019-10-13T08:36:10.000Z</time>
      </trkpt>
      <trkpt lat="47.32589" lon="-2.26541">
        <ele>14</ele>
        <time>2019-10-13T08:36:16.000Z</time>
      </trkpt>
      <trkpt lat="47.326" lon="-2.26515">
        <ele>14</ele>
        <time>2019-10-13T08:36:21.000Z</time>
      </trkpt>
      <trkpt lat="47.3261" lon="-2.26485">
        <ele>14</ele>
        <time>2019-10-13T08:36:27.000Z</time>
      </trkpt>
      <trkpt lat="47.32624" lon="-2.26451">
        <ele>14</ele>
        <time>2019-10-13T08:36:35.000Z</time>
      </trkpt>
      <trkpt lat="47.32629" lon="-2.26435">
        <ele>14</ele>
        <time>2019-10-13T08:36:41.000Z</time>
      </trkpt>
      <trkpt lat="47.32629" lon="-2.26434">
        <ele>14</ele>
        <time>2019-10-13T08:36:43.000Z</time>
      </trkpt>
      <trkpt lat="47.32627" lon="-2.26433">
        <ele>14</ele>
        <time>2019-10-13T08:36:45.000Z</time>
      </trkpt>
      <trkpt lat="47.32625" lon="-2.26433">
        <ele>14</ele>
        <time>2019-10-13T08:36:46.000Z</time>
      </trkpt>
      <trkpt lat="47.32619" lon="-2.26433">
        <ele>14</ele>
        <time>2019-10-13T08:36:51.000Z</time>
      </trkpt>
      <trkpt lat="47.32619" lon="-2.26434">
        <ele>14</ele>
        <time>2019-10-13T08:36:53.000Z</time>
      </trkpt>
      <trkpt lat="47.32615" lon="-2.26435">
        <ele>14</ele>
        <time>2019-10-13T08:37:10.000Z</time>
      </trkpt>
      <trkpt lat="47.32612" lon="-2.26439">
        <ele>14</ele>
        <time>2019-10-13T08:37:14.000Z</time>
      </trkpt>
      <trkpt lat="47.32603" lon="-2.2644">
        <ele>14</ele>
        <time>2019-10-13T08:37:18.000Z</time>
      </trkpt>
      <trkpt lat="47.326" lon="-2.26442">
        <ele>14</ele>
        <time>2019-10-13T08:37:19.000Z</time>
      </trkpt>
      <trkpt lat="47.32588" lon="-2.26446">
        <ele>14</ele>
        <time>2019-10-13T08:37:23.000Z</time>
      </trkpt>
      <trkpt lat="47.32565" lon="-2.26452">
        <ele>14</ele>
        <time>2019-10-13T08:37:29.000Z</time>
      </trkpt>
      <trkpt lat="47.32542" lon="-2.26462">
        <ele>14.39999961853</ele>
        <time>2019-10-13T08:37:34.000Z</time>
      </trkpt>
      <trkpt lat="47.32536" lon="-2.26464">
        <ele>14.800000190735</ele>
        <time>2019-10-13T08:37:35.000Z</time>
      </trkpt>
      <trkpt lat="47.3253" lon="-2.26467">
        <ele>15.199999809265</ele>
        <time>2019-10-13T08:37:36.000Z</time>
      </trkpt>
      <trkpt lat="47.32516" lon="-2.26477">
        <ele>16</ele>
        <time>2019-10-13T08:37:37.000Z</time>
      </trkpt>
      <trkpt lat="47.325" lon="-2.26486">
        <ele>16</ele>
        <time>2019-10-13T08:37:43.000Z</time>
      </trkpt>
      <trkpt lat="47.32492" lon="-2.26489">
        <ele>16</ele>
        <time>2019-10-13T08:37:44.000Z</time>
      </trkpt>
      <trkpt lat="47.32467" lon="-2.265">
        <ele>16</ele>
        <time>2019-10-13T08:37:49.000Z</time>
      </trkpt>
      <trkpt lat="47.32439" lon="-2.26511">
        <ele>16</ele>
        <time>2019-10-13T08:37:54.000Z</time>
      </trkpt>
      <trkpt lat="47.32424" lon="-2.2652">
        <ele>16</ele>
        <time>2019-10-13T08:37:57.000Z</time>
      </trkpt>
      <trkpt lat="47.32389" lon="-2.2653">
        <ele>16</ele>
        <time>2019-10-13T08:38:03.000Z</time>
      </trkpt>
      <trkpt lat="47.32374" lon="-2.26531">
        <ele>16</ele>
        <time>2019-10-13T08:38:06.000Z</time>
      </trkpt>
      <trkpt lat="47.32364" lon="-2.26532">
        <ele>16</ele>
        <time>2019-10-13T08:38:08.000Z</time>
      </trkpt>
      <trkpt lat="47.3236" lon="-2.26534">
        <ele>16</ele>
        <time>2019-10-13T08:38:09.000Z</time>
      </trkpt>
      <trkpt lat="47.32345" lon="-2.26541">
        <ele>16</ele>
        <time>2019-10-13T08:38:12.000Z</time>
      </trkpt>
      <trkpt lat="47.32332" lon="-2.26551">
        <ele>16</ele>
        <time>2019-10-13T08:38:15.000Z</time>
      </trkpt>
      <trkpt lat="47.32328" lon="-2.26555">
        <ele>16</ele>
        <time>2019-10-13T08:38:16.000Z</time>
      </trkpt>
      <trkpt lat="47.32312" lon="-2.26574">
        <ele>16</ele>
        <time>2019-10-13T08:38:20.000Z</time>
      </trkpt>
      <trkpt lat="47.32287" lon="-2.26601">
        <ele>16</ele>
        <time>2019-10-13T08:38:24.000Z</time>
      </trkpt>
      <trkpt lat="47.32282" lon="-2.26604">
        <ele>16</ele>
        <time>2019-10-13T08:38:26.000Z</time>
      </trkpt>
      <trkpt lat="47.32262" lon="-2.26608">
        <ele>16</ele>
        <time>2019-10-13T08:38:28.000Z</time>
      </trkpt>
      <trkpt lat="47.32246" lon="-2.26608">
        <ele>16</ele>
        <time>2019-10-13T08:38:33.000Z</time>
      </trkpt>
      <trkpt lat="47.32215" lon="-2.26609">
        <ele>16.60000038147</ele>
        <time>2019-10-13T08:38:39.000Z</time>
      </trkpt>
      <trkpt lat="47.3221" lon="-2.2661">
        <ele>17</ele>
        <time>2019-10-13T08:38:40.000Z</time>
      </trkpt>
      <trkpt lat="47.32204" lon="-2.2661">
        <ele>17.39999961853</ele>
        <time>2019-10-13T08:38:41.000Z</time>
      </trkpt>
      <trkpt lat="47.32198" lon="-2.26609">
        <ele>17.799999237061</ele>
        <time>2019-10-13T08:38:42.000Z</time>
      </trkpt>
      <trkpt lat="47.32192" lon="-2.26608">
        <ele>18.200000762939</ele>
        <time>2019-10-13T08:38:43.000Z</time>
      </trkpt>
      <trkpt lat="47.32175" lon="-2.26607">
        <ele>18.200000762939</ele>
        <time>2019-10-13T08:38:46.000Z</time>
      </trkpt>
      <trkpt lat="47.32137" lon="-2.26599">
        <ele>18.200000762939</ele>
        <time>2019-10-13T08:38:53.000Z</time>
      </trkpt>
      <trkpt lat="47.32115" lon="-2.26591">
        <ele>18.200000762939</ele>
        <time>2019-10-13T08:38:57.000Z</time>
      </trkpt>
      <trkpt lat="47.32111" lon="-2.26591">
        <ele>18.200000762939</ele>
        <time>2019-10-13T08:38:58.000Z</time>
      </trkpt>
      <trkpt lat="47.32095" lon="-2.26589">
        <ele>18.200000762939</ele>
        <time>2019-10-13T08:39:01.000Z</time>
      </trkpt>
      <trkpt lat="47.32089" lon="-2.26589">
        <ele>18.200000762939</ele>
        <time>2019-10-13T08:39:02.000Z</time>
      </trkpt>
      <trkpt lat="47.32083" lon="-2.26588">
        <ele>18.200000762939</ele>
        <time>2019-10-13T08:39:03.000Z</time>
      </trkpt>
      <trkpt lat="47.32061" lon="-2.26592">
        <ele>18.200000762939</ele>
        <time>2019-10-13T08:39:04.000Z</time>
      </trkpt>
      <trkpt lat="47.32054" lon="-2.26594">
        <ele>18.200000762939</ele>
        <time>2019-10-13T08:39:07.000Z</time>
      </trkpt>
      <trkpt lat="47.32017" lon="-2.26614">
        <ele>18.200000762939</ele>
        <time>2019-10-13T08:39:13.000Z</time>
      </trkpt>
      <trkpt lat="47.31973" lon="-2.26644">
        <ele>18.200000762939</ele>
        <time>2019-10-13T08:39:21.000Z</time>
      </trkpt>
      <trkpt lat="47.31962" lon="-2.26653">
        <ele>18.799999237061</ele>
        <time>2019-10-13T08:39:23.000Z</time>
      </trkpt>
      <trkpt lat="47.31956" lon="-2.26657">
        <ele>19.200000762939</ele>
        <time>2019-10-13T08:39:24.000Z</time>
      </trkpt>
      <trkpt lat="47.31951" lon="-2.26661">
        <ele>19.60000038147</ele>
        <time>2019-10-13T08:39:25.000Z</time>
      </trkpt>
      <trkpt lat="47.31946" lon="-2.26665">
        <ele>20</ele>
        <time>2019-10-13T08:39:26.000Z</time>
      </trkpt>
      <trkpt lat="47.31941" lon="-2.2667">
        <ele>20.39999961853</ele>
        <time>2019-10-13T08:39:27.000Z</time>
      </trkpt>
      <trkpt lat="47.31935" lon="-2.26675">
        <ele>20.39999961853</ele>
        <time>2019-10-13T08:39:28.000Z</time>
      </trkpt>
      <trkpt lat="47.31916" lon="-2.26691">
        <ele>20.39999961853</ele>
        <time>2019-10-13T08:39:32.000Z</time>
      </trkpt>
      <trkpt lat="47.31912" lon="-2.26694">
        <ele>20.39999961853</ele>
        <time>2019-10-13T08:39:33.000Z</time>
      </trkpt>
      <trkpt lat="47.31887" lon="-2.26715">
        <ele>20.799999237061</ele>
        <time>2019-10-13T08:39:38.000Z</time>
      </trkpt>
      <trkpt lat="47.31868" lon="-2.26728">
        <ele>22.60000038147</ele>
        <time>2019-10-13T08:39:39.000Z</time>
      </trkpt>
      <trkpt lat="47.31856" lon="-2.26737">
        <ele>22.60000038147</ele>
        <time>2019-10-13T08:39:44.000Z</time>
      </trkpt>
      <trkpt lat="47.31845" lon="-2.26742">
        <ele>22.60000038147</ele>
        <time>2019-10-13T08:39:46.000Z</time>
      </trkpt>
      <trkpt lat="47.31839" lon="-2.26742">
        <ele>22.60000038147</ele>
        <time>2019-10-13T08:39:47.000Z</time>
      </trkpt>
      <trkpt lat="47.31823" lon="-2.26728">
        <ele>22.60000038147</ele>
        <time>2019-10-13T08:39:50.000Z</time>
      </trkpt>
      <trkpt lat="47.31811" lon="-2.26712">
        <ele>22.60000038147</ele>
        <time>2019-10-13T08:39:52.000Z</time>
      </trkpt>
      <trkpt lat="47.31802" lon="-2.26697">
        <ele>22.60000038147</ele>
        <time>2019-10-13T08:39:55.000Z</time>
      </trkpt>
      <trkpt lat="47.31788" lon="-2.26697">
        <ele>22.60000038147</ele>
        <time>2019-10-13T08:39:58.000Z</time>
      </trkpt>
      <trkpt lat="47.31764" lon="-2.26705">
        <ele>22</ele>
        <time>2019-10-13T08:40:02.000Z</time>
      </trkpt>
      <trkpt lat="47.31758" lon="-2.26707">
        <ele>21.60000038147</ele>
        <time>2019-10-13T08:40:03.000Z</time>
      </trkpt>
      <trkpt lat="47.31752" lon="-2.26708">
        <ele>21.200000762939</ele>
        <time>2019-10-13T08:40:04.000Z</time>
      </trkpt>
      <trkpt lat="47.31746" lon="-2.2671">
        <ele>20.200000762939</ele>
        <time>2019-10-13T08:40:05.000Z</time>
      </trkpt>
      <trkpt lat="47.31722" lon="-2.26717">
        <ele>19.799999237061</ele>
        <time>2019-10-13T08:40:09.000Z</time>
      </trkpt>
      <trkpt lat="47.31717" lon="-2.26719">
        <ele>19.39999961853</ele>
        <time>2019-10-13T08:40:10.000Z</time>
      </trkpt>
      <trkpt lat="47.31712" lon="-2.26721">
        <ele>19</ele>
        <time>2019-10-13T08:40:11.000Z</time>
      </trkpt>
      <trkpt lat="47.31707" lon="-2.26722">
        <ele>18.60000038147</ele>
        <time>2019-10-13T08:40:12.000Z</time>
      </trkpt>
      <trkpt lat="47.31701" lon="-2.26724">
        <ele>18</ele>
        <time>2019-10-13T08:40:13.000Z</time>
      </trkpt>
      <trkpt lat="47.31678" lon="-2.26727">
        <ele>18</ele>
        <time>2019-10-13T08:40:17.000Z</time>
      </trkpt>
      <trkpt lat="47.31657" lon="-2.26733">
        <ele>18</ele>
        <time>2019-10-13T08:40:19.000Z</time>
      </trkpt>
      <trkpt lat="47.31652" lon="-2.26735">
        <ele>18</ele>
        <time>2019-10-13T08:40:23.000Z</time>
      </trkpt>
      <trkpt lat="47.31647" lon="-2.26737">
        <ele>18</ele>
        <time>2019-10-13T08:40:24.000Z</time>
      </trkpt>
      <trkpt lat="47.31623" lon="-2.26756">
        <ele>18</ele>
        <time>2019-10-13T08:40:30.000Z</time>
      </trkpt>
      <trkpt lat="47.31599" lon="-2.26756">
        <ele>18</ele>
        <time>2019-10-13T08:40:35.000Z</time>
      </trkpt>
      <trkpt lat="47.31584" lon="-2.26753">
        <ele>18</ele>
        <time>2019-10-13T08:40:38.000Z</time>
      </trkpt>
      <trkpt lat="47.31574" lon="-2.26758">
        <ele>18</ele>
        <time>2019-10-13T08:40:40.000Z</time>
      </trkpt>
      <trkpt lat="47.31564" lon="-2.26774">
        <ele>18</ele>
        <time>2019-10-13T08:40:43.000Z</time>
      </trkpt>
      <trkpt lat="47.31557" lon="-2.26794">
        <ele>18</ele>
        <time>2019-10-13T08:40:44.000Z</time>
      </trkpt>
      <trkpt lat="47.31543" lon="-2.2683">
        <ele>16.799999237061</ele>
        <time>2019-10-13T08:40:50.000Z</time>
      </trkpt>
      <trkpt lat="47.31543" lon="-2.2683">
        <ele>16.799999237061</ele>
        <time>2019-10-13T08:40:52.000Z</time>
      </trkpt>
      <trkpt lat="47.31541" lon="-2.26836">
        <ele>16.39999961853</ele>
        <time>2019-10-13T08:40:53.000Z</time>
      </trkpt>
      <trkpt lat="47.31539" lon="-2.26842">
        <ele>16</ele>
        <time>2019-10-13T08:40:54.000Z</time>
      </trkpt>
      <trkpt lat="47.31537" lon="-2.26849">
        <ele>16</ele>
        <time>2019-10-13T08:40:55.000Z</time>
      </trkpt>
      <trkpt lat="47.31531" lon="-2.26861">
        <ele>16</ele>
        <time>2019-10-13T08:40:57.000Z</time>
      </trkpt>
      <trkpt lat="47.31517" lon="-2.26895">
        <ele>16</ele>
        <time>2019-10-13T08:41:03.000Z</time>
      </trkpt>
      <trkpt lat="47.31497" lon="-2.26954">
        <ele>16</ele>
        <time>2019-10-13T08:41:11.000Z</time>
      </trkpt>
      <trkpt lat="47.31491" lon="-2.26976">
        <ele>16</ele>
        <time>2019-10-13T08:41:16.000Z</time>
      </trkpt>
      <trkpt lat="47.31489" lon="-2.26979">
        <ele>16</ele>
        <time>2019-10-13T08:41:17.000Z</time>
      </trkpt>
      <trkpt lat="47.31481" lon="-2.26987">
        <ele>16</ele>
        <time>2019-10-13T08:41:19.000Z</time>
      </trkpt>
      <trkpt lat="47.31474" lon="-2.26994">
        <ele>16.799999237061</ele>
        <time>2019-10-13T08:41:21.000Z</time>
      </trkpt>
      <trkpt lat="47.31469" lon="-2.26998">
        <ele>17.200000762939</ele>
        <time>2019-10-13T08:41:22.000Z</time>
      </trkpt>
      <trkpt lat="47.31463" lon="-2.27002">
        <ele>17.60000038147</ele>
        <time>2019-10-13T08:41:23.000Z</time>
      </trkpt>
      <trkpt lat="47.31457" lon="-2.27006">
        <ele>18.200000762939</ele>
        <time>2019-10-13T08:41:24.000Z</time>
      </trkpt>
      <trkpt lat="47.31426" lon="-2.27029">
        <ele>18.200000762939</ele>
        <time>2019-10-13T08:41:30.000Z</time>
      </trkpt>
      <trkpt lat="47.31399" lon="-2.27048">
        <ele>18.200000762939</ele>
        <time>2019-10-13T08:41:36.000Z</time>
      </trkpt>
      <trkpt lat="47.31371" lon="-2.27058">
        <ele>18.60000038147</ele>
        <time>2019-10-13T08:41:41.000Z</time>
      </trkpt>
      <trkpt lat="47.31364" lon="-2.27061">
        <ele>19</ele>
        <time>2019-10-13T08:41:42.000Z</time>
      </trkpt>
      <trkpt lat="47.31359" lon="-2.27064">
        <ele>19.39999961853</ele>
        <time>2019-10-13T08:41:43.000Z</time>
      </trkpt>
      <trkpt lat="47.3134" lon="-2.27072">
        <ele>20.200000762939</ele>
        <time>2019-10-13T08:41:44.000Z</time>
      </trkpt>
      <trkpt lat="47.31314" lon="-2.27082">
        <ele>20.200000762939</ele>
        <time>2019-10-13T08:41:51.000Z</time>
      </trkpt>
      <trkpt lat="47.31283" lon="-2.27097">
        <ele>20.200000762939</ele>
        <time>2019-10-13T08:41:56.000Z</time>
      </trkpt>
      <trkpt lat="47.31223" lon="-2.27142">
        <ele>20.200000762939</ele>
        <time>2019-10-13T08:42:04.000Z</time>
      </trkpt>
      <trkpt lat="47.31188" lon="-2.27174">
        <ele>20.60000038147</ele>
        <time>2019-10-13T08:42:12.000Z</time>
      </trkpt>
      <trkpt lat="47.31182" lon="-2.2718">
        <ele>21</ele>
        <time>2019-10-13T08:42:13.000Z</time>
      </trkpt>
      <trkpt lat="47.31177" lon="-2.27186">
        <ele>21.799999237061</ele>
        <time>2019-10-13T08:42:14.000Z</time>
      </trkpt>
      <trkpt lat="47.31171" lon="-2.27192">
        <ele>22.200000762939</ele>
        <time>2019-10-13T08:42:15.000Z</time>
      </trkpt>
      <trkpt lat="47.31146" lon="-2.27216">
        <ele>22.200000762939</ele>
        <time>2019-10-13T08:42:19.000Z</time>
      </trkpt>
      <trkpt lat="47.31111" lon="-2.27233">
        <ele>22.200000762939</ele>
        <time>2019-10-13T08:42:24.000Z</time>
      </trkpt>
      <trkpt lat="47.31072" lon="-2.27248">
        <ele>22.200000762939</ele>
        <time>2019-10-13T08:42:30.000Z</time>
      </trkpt>
      <trkpt lat="47.3104" lon="-2.27257">
        <ele>22.200000762939</ele>
        <time>2019-10-13T08:42:35.000Z</time>
      </trkpt>
      <trkpt lat="47.31034" lon="-2.27255">
        <ele>22.200000762939</ele>
        <time>2019-10-13T08:42:36.000Z</time>
      </trkpt>
      <trkpt lat="47.31016" lon="-2.27241">
        <ele>22.200000762939</ele>
        <time>2019-10-13T08:42:39.000Z</time>
      </trkpt>
      <trkpt lat="47.31" lon="-2.27204">
        <ele>22.200000762939</ele>
        <time>2019-10-13T08:42:42.000Z</time>
      </trkpt>
      <trkpt lat="47.30997" lon="-2.27172">
        <ele>22.200000762939</ele>
        <time>2019-10-13T08:42:43.000Z</time>
      </trkpt>
      <trkpt lat="47.30998" lon="-2.271">
        <ele>22.200000762939</ele>
        <time>2019-10-13T08:42:53.000Z</time>
      </trkpt>
      <trkpt lat="47.30995" lon="-2.27032">
        <ele>21.799999237061</ele>
        <time>2019-10-13T08:42:59.000Z</time>
      </trkpt>
      <trkpt lat="47.30994" lon="-2.2702">
        <ele>21.39999961853</ele>
        <time>2019-10-13T08:43:00.000Z</time>
      </trkpt>
      <trkpt lat="47.30993" lon="-2.27008">
        <ele>21</ele>
        <time>2019-10-13T08:43:01.000Z</time>
      </trkpt>
      <trkpt lat="47.30991" lon="-2.26995">
        <ele>20.60000038147</ele>
        <time>2019-10-13T08:43:02.000Z</time>
      </trkpt>
      <trkpt lat="47.30987" lon="-2.26983">
        <ele>20.200000762939</ele>
        <time>2019-10-13T08:43:03.000Z</time>
      </trkpt>
      <trkpt lat="47.30962" lon="-2.26953">
        <ele>18.799999237061</ele>
        <time>2019-10-13T08:43:05.000Z</time>
      </trkpt>
      <trkpt lat="47.30962" lon="-2.26953">
        <ele>18.799999237061</ele>
        <time>2019-10-13T08:43:06.000Z</time>
      </trkpt>
      <trkpt lat="47.30955" lon="-2.26947">
        <ele>18.39999961853</ele>
        <time>2019-10-13T08:43:07.000Z</time>
      </trkpt>
      <trkpt lat="47.30948" lon="-2.26943">
        <ele>17.799999237061</ele>
        <time>2019-10-13T08:43:08.000Z</time>
      </trkpt>
      <trkpt lat="47.30926" lon="-2.26931">
        <ele>17.799999237061</ele>
        <time>2019-10-13T08:43:11.000Z</time>
      </trkpt>
      <trkpt lat="47.30897" lon="-2.26917">
        <ele>17.799999237061</ele>
        <time>2019-10-13T08:43:15.000Z</time>
      </trkpt>
      <trkpt lat="47.30882" lon="-2.26915">
        <ele>17.799999237061</ele>
        <time>2019-10-13T08:43:17.000Z</time>
      </trkpt>
      <trkpt lat="47.3086" lon="-2.26921">
        <ele>17.799999237061</ele>
        <time>2019-10-13T08:43:20.000Z</time>
      </trkpt>
      <trkpt lat="47.30853" lon="-2.26924">
        <ele>17.799999237061</ele>
        <time>2019-10-13T08:43:21.000Z</time>
      </trkpt>
      <trkpt lat="47.30812" lon="-2.26945">
        <ele>17.799999237061</ele>
        <time>2019-10-13T08:43:27.000Z</time>
      </trkpt>
      <trkpt lat="47.30778" lon="-2.2695">
        <ele>17.799999237061</ele>
        <time>2019-10-13T08:43:32.000Z</time>
      </trkpt>
      <trkpt lat="47.3077" lon="-2.26948">
        <ele>17.799999237061</ele>
        <time>2019-10-13T08:43:33.000Z</time>
      </trkpt>
      <trkpt lat="47.30729" lon="-2.26936">
        <ele>17.799999237061</ele>
        <time>2019-10-13T08:43:39.000Z</time>
      </trkpt>
      <trkpt lat="47.30723" lon="-2.26933">
        <ele>17.799999237061</ele>
        <time>2019-10-13T08:43:40.000Z</time>
      </trkpt>
      <trkpt lat="47.30712" lon="-2.26926">
        <ele>18.39999961853</ele>
        <time>2019-10-13T08:43:42.000Z</time>
      </trkpt>
      <trkpt lat="47.30707" lon="-2.26921">
        <ele>18.799999237061</ele>
        <time>2019-10-13T08:43:43.000Z</time>
      </trkpt>
      <trkpt lat="47.30701" lon="-2.26914">
        <ele>19.200000762939</ele>
        <time>2019-10-13T08:43:44.000Z</time>
      </trkpt>
      <trkpt lat="47.30696" lon="-2.26907">
        <ele>19.60000038147</ele>
        <time>2019-10-13T08:43:45.000Z</time>
      </trkpt>
      <trkpt lat="47.30691" lon="-2.26899">
        <ele>20</ele>
        <time>2019-10-13T08:43:46.000Z</time>
      </trkpt>
      <trkpt lat="47.30686" lon="-2.26891">
        <ele>20</ele>
        <time>2019-10-13T08:43:47.000Z</time>
      </trkpt>
      <trkpt lat="47.30682" lon="-2.26882">
        <ele>20</ele>
        <time>2019-10-13T08:43:48.000Z</time>
      </trkpt>
      <trkpt lat="47.30667" lon="-2.26848">
        <ele>20.799999237061</ele>
        <time>2019-10-13T08:43:52.000Z</time>
      </trkpt>
      <trkpt lat="47.30663" lon="-2.26839">
        <ele>21.200000762939</ele>
        <time>2019-10-13T08:43:53.000Z</time>
      </trkpt>
      <trkpt lat="47.30659" lon="-2.2683">
        <ele>21.799999237061</ele>
        <time>2019-10-13T08:43:54.000Z</time>
      </trkpt>
      <trkpt lat="47.30648" lon="-2.26803">
        <ele>22.200000762939</ele>
        <time>2019-10-13T08:43:55.000Z</time>
      </trkpt>
      <trkpt lat="47.30631" lon="-2.2676">
        <ele>22.200000762939</ele>
        <time>2019-10-13T08:44:03.000Z</time>
      </trkpt>
      <trkpt lat="47.30618" lon="-2.26708">
        <ele>22.200000762939</ele>
        <time>2019-10-13T08:44:08.000Z</time>
      </trkpt>
      <trkpt lat="47.30616" lon="-2.26698">
        <ele>22.200000762939</ele>
        <time>2019-10-13T08:44:09.000Z</time>
      </trkpt>
      <trkpt lat="47.30611" lon="-2.26667">
        <ele>22.60000038147</ele>
        <time>2019-10-13T08:44:12.000Z</time>
      </trkpt>
      <trkpt lat="47.3061" lon="-2.26657">
        <ele>23</ele>
        <time>2019-10-13T08:44:13.000Z</time>
      </trkpt>
      <trkpt lat="47.30608" lon="-2.26647">
        <ele>23.39999961853</ele>
        <time>2019-10-13T08:44:14.000Z</time>
      </trkpt>
      <trkpt lat="47.30606" lon="-2.26637">
        <ele>23.799999237061</ele>
        <time>2019-10-13T08:44:15.000Z</time>
      </trkpt>
      <trkpt lat="47.30605" lon="-2.26627">
        <ele>24.39999961853</ele>
        <time>2019-10-13T08:44:16.000Z</time>
      </trkpt>
      <trkpt lat="47.30597" lon="-2.26586">
        <ele>24.39999961853</ele>
        <time>2019-10-13T08:44:20.000Z</time>
      </trkpt>
      <trkpt lat="47.30591" lon="-2.26569">
        <ele>24.39999961853</ele>
        <time>2019-10-13T08:44:22.000Z</time>
      </trkpt>
      <trkpt lat="47.30578" lon="-2.26545">
        <ele>24.39999961853</ele>
        <time>2019-10-13T08:44:23.000Z</time>
      </trkpt>
      <trkpt lat="47.30573" lon="-2.26539">
        <ele>24.39999961853</ele>
        <time>2019-10-13T08:44:25.000Z</time>
      </trkpt>
      <trkpt lat="47.30538" lon="-2.26516">
        <ele>24.39999961853</ele>
        <time>2019-10-13T08:44:30.000Z</time>
      </trkpt>
      <trkpt lat="47.30499" lon="-2.26494">
        <ele>24.39999961853</ele>
        <time>2019-10-13T08:44:36.000Z</time>
      </trkpt>
      <trkpt lat="47.30495" lon="-2.26491">
        <ele>24.39999961853</ele>
        <time>2019-10-13T08:44:38.000Z</time>
      </trkpt>
      <trkpt lat="47.30493" lon="-2.26486">
        <ele>23.799999237061</ele>
        <time>2019-10-13T08:44:40.000Z</time>
      </trkpt>
      <trkpt lat="47.30494" lon="-2.26481">
        <ele>23.39999961853</ele>
        <time>2019-10-13T08:44:41.000Z</time>
      </trkpt>
      <trkpt lat="47.30496" lon="-2.26475">
        <ele>22.60000038147</ele>
        <time>2019-10-13T08:44:42.000Z</time>
      </trkpt>
      <trkpt lat="47.30499" lon="-2.26469">
        <ele>22.200000762939</ele>
        <time>2019-10-13T08:44:43.000Z</time>
      </trkpt>
      <trkpt lat="47.30502" lon="-2.26462">
        <ele>22.200000762939</ele>
        <time>2019-10-13T08:44:44.000Z</time>
      </trkpt>
      <trkpt lat="47.30515" lon="-2.26434">
        <ele>22.200000762939</ele>
        <time>2019-10-13T08:44:48.000Z</time>
      </trkpt>
      <trkpt lat="47.30533" lon="-2.26391">
        <ele>22.200000762939</ele>
        <time>2019-10-13T08:44:54.000Z</time>
      </trkpt>
      <trkpt lat="47.30549" lon="-2.2634">
        <ele>22.200000762939</ele>
        <time>2019-10-13T08:45:00.000Z</time>
      </trkpt>
      <trkpt lat="47.30564" lon="-2.26279">
        <ele>22.200000762939</ele>
        <time>2019-10-13T08:45:07.000Z</time>
      </trkpt>
      <trkpt lat="47.3058" lon="-2.2622">
        <ele>22.200000762939</ele>
        <time>2019-10-13T08:45:14.000Z</time>
      </trkpt>
      <trkpt lat="47.30593" lon="-2.2618">
        <ele>22.200000762939</ele>
        <time>2019-10-13T08:45:19.000Z</time>
      </trkpt>
      <trkpt lat="47.306" lon="-2.26163">
        <ele>22.200000762939</ele>
        <time>2019-10-13T08:45:21.000Z</time>
      </trkpt>
      <trkpt lat="47.30613" lon="-2.26142">
        <ele>22.200000762939</ele>
        <time>2019-10-13T08:45:24.000Z</time>
      </trkpt>
      <trkpt lat="47.30638" lon="-2.26106">
        <ele>22.200000762939</ele>
        <time>2019-10-13T08:45:30.000Z</time>
      </trkpt>
      <trkpt lat="47.30644" lon="-2.26102">
        <ele>22.200000762939</ele>
        <time>2019-10-13T08:45:31.000Z</time>
      </trkpt>
      <trkpt lat="47.30682" lon="-2.2608">
        <ele>22.200000762939</ele>
        <time>2019-10-13T08:45:37.000Z</time>
      </trkpt>
      <trkpt lat="47.30728" lon="-2.26057">
        <ele>22.200000762939</ele>
        <time>2019-10-13T08:45:44.000Z</time>
      </trkpt>
      <trkpt lat="47.30761" lon="-2.26038">
        <ele>22.60000038147</ele>
        <time>2019-10-13T08:45:49.000Z</time>
      </trkpt>
      <trkpt lat="47.30767" lon="-2.26035">
        <ele>23</ele>
        <time>2019-10-13T08:45:50.000Z</time>
      </trkpt>
      <trkpt lat="47.30774" lon="-2.2603">
        <ele>23.39999961853</ele>
        <time>2019-10-13T08:45:51.000Z</time>
      </trkpt>
      <trkpt lat="47.3078" lon="-2.26026">
        <ele>23.799999237061</ele>
        <time>2019-10-13T08:45:52.000Z</time>
      </trkpt>
      <trkpt lat="47.30787" lon="-2.26023">
        <ele>24.200000762939</ele>
        <time>2019-10-13T08:45:53.000Z</time>
      </trkpt>
      <trkpt lat="47.30805" lon="-2.26008">
        <ele>24.200000762939</ele>
        <time>2019-10-13T08:45:56.000Z</time>
      </trkpt>
      <trkpt lat="47.30837" lon="-2.25977">
        <ele>24.200000762939</ele>
        <time>2019-10-13T08:46:01.000Z</time>
      </trkpt>
      <trkpt lat="47.30872" lon="-2.25937">
        <ele>24.200000762939</ele>
        <time>2019-10-13T08:46:07.000Z</time>
      </trkpt>
      <trkpt lat="47.309" lon="-2.25902">
        <ele>24.200000762939</ele>
        <time>2019-10-13T08:46:13.000Z</time>
      </trkpt>
      <trkpt lat="47.30914" lon="-2.25885">
        <ele>24.200000762939</ele>
        <time>2019-10-13T08:46:16.000Z</time>
      </trkpt>
      <trkpt lat="47.30915" lon="-2.25879">
        <ele>24.200000762939</ele>
        <time>2019-10-13T08:46:17.000Z</time>
      </trkpt>
      <trkpt lat="47.30911" lon="-2.25858">
        <ele>24.200000762939</ele>
        <time>2019-10-13T08:46:20.000Z</time>
      </trkpt>
      <trkpt lat="47.30909" lon="-2.25852">
        <ele>24.200000762939</ele>
        <time>2019-10-13T08:46:21.000Z</time>
      </trkpt>
      <trkpt lat="47.30893" lon="-2.25811">
        <ele>24.200000762939</ele>
        <time>2019-10-13T08:46:27.000Z</time>
      </trkpt>
      <trkpt lat="47.3088" lon="-2.25763">
        <ele>24.200000762939</ele>
        <time>2019-10-13T08:46:33.000Z</time>
      </trkpt>
      <trkpt lat="47.30876" lon="-2.25715">
        <ele>24.200000762939</ele>
        <time>2019-10-13T08:46:38.000Z</time>
      </trkpt>
      <trkpt lat="47.30874" lon="-2.25655">
        <ele>24.200000762939</ele>
        <time>2019-10-13T08:46:44.000Z</time>
      </trkpt>
      <trkpt lat="47.30869" lon="-2.25582">
        <ele>24.200000762939</ele>
        <time>2019-10-13T08:46:51.000Z</time>
      </trkpt>
      <trkpt lat="47.30862" lon="-2.25512">
        <ele>24.200000762939</ele>
        <time>2019-10-13T08:46:58.000Z</time>
      </trkpt>
      <trkpt lat="47.30861" lon="-2.25503">
        <ele>23.799999237061</ele>
        <time>2019-10-13T08:46:59.000Z</time>
      </trkpt>
      <trkpt lat="47.3086" lon="-2.25493">
        <ele>23.39999961853</ele>
        <time>2019-10-13T08:47:00.000Z</time>
      </trkpt>
      <trkpt lat="47.30859" lon="-2.25484">
        <ele>23</ele>
        <time>2019-10-13T08:47:01.000Z</time>
      </trkpt>
      <trkpt lat="47.30858" lon="-2.25474">
        <ele>22.60000038147</ele>
        <time>2019-10-13T08:47:02.000Z</time>
      </trkpt>
      <trkpt lat="47.30857" lon="-2.25465">
        <ele>22.200000762939</ele>
        <time>2019-10-13T08:47:03.000Z</time>
      </trkpt>
      <trkpt lat="47.30855" lon="-2.25448">
        <ele>22.200000762939</ele>
        <time>2019-10-13T08:47:05.000Z</time>
      </trkpt>
      <trkpt lat="47.30853" lon="-2.25421">
        <ele>22.200000762939</ele>
        <time>2019-10-13T08:47:08.000Z</time>
      </trkpt>
      <trkpt lat="47.30854" lon="-2.254">
        <ele>22.200000762939</ele>
        <time>2019-10-13T08:47:10.000Z</time>
      </trkpt>
      <trkpt lat="47.30854" lon="-2.2539">
        <ele>22.200000762939</ele>
        <time>2019-10-13T08:47:11.000Z</time>
      </trkpt>
      <trkpt lat="47.30851" lon="-2.25358">
        <ele>22.200000762939</ele>
        <time>2019-10-13T08:47:14.000Z</time>
      </trkpt>
      <trkpt lat="47.30849" lon="-2.25348">
        <ele>22.200000762939</ele>
        <time>2019-10-13T08:47:15.000Z</time>
      </trkpt>
      <trkpt lat="47.30844" lon="-2.25318">
        <ele>22.200000762939</ele>
        <time>2019-10-13T08:47:18.000Z</time>
      </trkpt>
      <trkpt lat="47.30844" lon="-2.25298">
        <ele>22.200000762939</ele>
        <time>2019-10-13T08:47:20.000Z</time>
      </trkpt>
      <trkpt lat="47.30846" lon="-2.2528">
        <ele>22.200000762939</ele>
        <time>2019-10-13T08:47:22.000Z</time>
      </trkpt>
      <trkpt lat="47.30851" lon="-2.25266">
        <ele>22.200000762939</ele>
        <time>2019-10-13T08:47:24.000Z</time>
      </trkpt>
      <trkpt lat="47.30855" lon="-2.2526">
        <ele>21.799999237061</ele>
        <time>2019-10-13T08:47:25.000Z</time>
      </trkpt>
      <trkpt lat="47.3086" lon="-2.25255">
        <ele>21.39999961853</ele>
        <time>2019-10-13T08:47:26.000Z</time>
      </trkpt>
      <trkpt lat="47.30866" lon="-2.25251">
        <ele>20.799999237061</ele>
        <time>2019-10-13T08:47:27.000Z</time>
      </trkpt>
      <trkpt lat="47.30871" lon="-2.25247">
        <ele>20.39999961853</ele>
        <time>2019-10-13T08:47:28.000Z</time>
      </trkpt>
      <trkpt lat="47.30877" lon="-2.25243">
        <ele>20</ele>
        <time>2019-10-13T08:47:29.000Z</time>
      </trkpt>
      <trkpt lat="47.309" lon="-2.25225">
        <ele>20</ele>
        <time>2019-10-13T08:47:33.000Z</time>
      </trkpt>
      <trkpt lat="47.30905" lon="-2.25221">
        <ele>20</ele>
        <time>2019-10-13T08:47:34.000Z</time>
      </trkpt>
      <trkpt lat="47.30917" lon="-2.25212">
        <ele>19.200000762939</ele>
        <time>2019-10-13T08:47:38.000Z</time>
      </trkpt>
      <trkpt lat="47.30917" lon="-2.25211">
        <ele>18.799999237061</ele>
        <time>2019-10-13T08:47:39.000Z</time>
      </trkpt>
      <trkpt lat="47.30917" lon="-2.25208">
        <ele>18</ele>
        <time>2019-10-13T08:48:04.000Z</time>
      </trkpt>
      <trkpt lat="47.30916" lon="-2.25206">
        <ele>18</ele>
        <time>2019-10-13T08:48:05.000Z</time>
      </trkpt>
      <trkpt lat="47.3091" lon="-2.2519">
        <ele>18</ele>
        <time>2019-10-13T08:48:09.000Z</time>
      </trkpt>
      <trkpt lat="47.30898" lon="-2.25158">
        <ele>18</ele>
        <time>2019-10-13T08:48:14.000Z</time>
      </trkpt>
      <trkpt lat="47.30887" lon="-2.25115">
        <ele>18</ele>
        <time>2019-10-13T08:48:19.000Z</time>
      </trkpt>
      <trkpt lat="47.30881" lon="-2.25052">
        <ele>18</ele>
        <time>2019-10-13T08:48:25.000Z</time>
      </trkpt>
      <trkpt lat="47.30869" lon="-2.2496">
        <ele>18</ele>
        <time>2019-10-13T08:48:32.000Z</time>
      </trkpt>
      <trkpt lat="47.30856" lon="-2.24935">
        <ele>18</ele>
        <time>2019-10-13T08:48:33.000Z</time>
      </trkpt>
      <trkpt lat="47.30856" lon="-2.24935">
        <ele>18</ele>
        <time>2019-10-13T08:48:36.000Z</time>
      </trkpt>
      <trkpt lat="47.30839" lon="-2.24919">
        <ele>18</ele>
        <time>2019-10-13T08:48:39.000Z</time>
      </trkpt>
      <trkpt lat="47.30817" lon="-2.24911">
        <ele>18</ele>
        <time>2019-10-13T08:48:40.000Z</time>
      </trkpt>
      <trkpt lat="47.30767" lon="-2.24895">
        <ele>18</ele>
        <time>2019-10-13T08:48:48.000Z</time>
      </trkpt>
      <trkpt lat="47.30738" lon="-2.2488">
        <ele>18</ele>
        <time>2019-10-13T08:48:52.000Z</time>
      </trkpt>
      <trkpt lat="47.30732" lon="-2.24875">
        <ele>18</ele>
        <time>2019-10-13T08:48:53.000Z</time>
      </trkpt>
      <trkpt lat="47.30726" lon="-2.24868">
        <ele>18</ele>
        <time>2019-10-13T08:48:54.000Z</time>
      </trkpt>
      <trkpt lat="47.30712" lon="-2.24844">
        <ele>18</ele>
        <time>2019-10-13T08:48:57.000Z</time>
      </trkpt>
      <trkpt lat="47.30683" lon="-2.24795">
        <ele>18</ele>
        <time>2019-10-13T08:49:03.000Z</time>
      </trkpt>
      <trkpt lat="47.30646" lon="-2.2474">
        <ele>18</ele>
        <time>2019-10-13T08:49:07.000Z</time>
      </trkpt>
      <trkpt lat="47.30646" lon="-2.2474">
        <ele>18</ele>
        <time>2019-10-13T08:49:09.000Z</time>
      </trkpt>
      <trkpt lat="47.30639" lon="-2.24721">
        <ele>18</ele>
        <time>2019-10-13T08:49:11.000Z</time>
      </trkpt>
      <trkpt lat="47.30631" lon="-2.2469">
        <ele>18</ele>
        <time>2019-10-13T08:49:14.000Z</time>
      </trkpt>
      <trkpt lat="47.30625" lon="-2.24671">
        <ele>18</ele>
        <time>2019-10-13T08:49:16.000Z</time>
      </trkpt>
      <trkpt lat="47.30622" lon="-2.24663">
        <ele>17.60000038147</ele>
        <time>2019-10-13T08:49:17.000Z</time>
      </trkpt>
      <trkpt lat="47.3062" lon="-2.24654">
        <ele>17.200000762939</ele>
        <time>2019-10-13T08:49:18.000Z</time>
      </trkpt>
      <trkpt lat="47.30618" lon="-2.24647">
        <ele>16.799999237061</ele>
        <time>2019-10-13T08:49:19.000Z</time>
      </trkpt>
      <trkpt lat="47.30616" lon="-2.24642">
        <ele>16.39999961853</ele>
        <time>2019-10-13T08:49:20.000Z</time>
      </trkpt>
      <trkpt lat="47.30613" lon="-2.24637">
        <ele>16</ele>
        <time>2019-10-13T08:49:21.000Z</time>
      </trkpt>
      <trkpt lat="47.30608" lon="-2.24629">
        <ele>16</ele>
        <time>2019-10-13T08:49:23.000Z</time>
      </trkpt>
      <trkpt lat="47.30606" lon="-2.24625">
        <ele>16</ele>
        <time>2019-10-13T08:49:24.000Z</time>
      </trkpt>
      <trkpt lat="47.30605" lon="-2.24619">
        <ele>16</ele>
        <time>2019-10-13T08:49:25.000Z</time>
      </trkpt>
      <trkpt lat="47.30607" lon="-2.24606">
        <ele>16</ele>
        <time>2019-10-13T08:49:27.000Z</time>
      </trkpt>
      <trkpt lat="47.30615" lon="-2.24569">
        <ele>16</ele>
        <time>2019-10-13T08:49:32.000Z</time>
      </trkpt>
      <trkpt lat="47.30619" lon="-2.24532">
        <ele>16</ele>
        <time>2019-10-13T08:49:37.000Z</time>
      </trkpt>
      <trkpt lat="47.30621" lon="-2.24518">
        <ele>16.799999237061</ele>
        <time>2019-10-13T08:49:39.000Z</time>
      </trkpt>
      <trkpt lat="47.30622" lon="-2.24511">
        <ele>17.200000762939</ele>
        <time>2019-10-13T08:49:40.000Z</time>
      </trkpt>
      <trkpt lat="47.30623" lon="-2.24505">
        <ele>17.60000038147</ele>
        <time>2019-10-13T08:49:41.000Z</time>
      </trkpt>
      <trkpt lat="47.30624" lon="-2.24498">
        <ele>18</ele>
        <time>2019-10-13T08:49:42.000Z</time>
      </trkpt>
      <trkpt lat="47.30626" lon="-2.24478">
        <ele>18.39999961853</ele>
        <time>2019-10-13T08:49:45.000Z</time>
      </trkpt>
      <trkpt lat="47.30627" lon="-2.24472">
        <ele>19</ele>
        <time>2019-10-13T08:49:46.000Z</time>
      </trkpt>
      <trkpt lat="47.30628" lon="-2.24466">
        <ele>19.39999961853</ele>
        <time>2019-10-13T08:49:47.000Z</time>
      </trkpt>
      <trkpt lat="47.30629" lon="-2.2446">
        <ele>19.799999237061</ele>
        <time>2019-10-13T08:49:48.000Z</time>
      </trkpt>
      <trkpt lat="47.30631" lon="-2.24446">
        <ele>20.200000762939</ele>
        <time>2019-10-13T08:49:49.000Z</time>
      </trkpt>
      <trkpt lat="47.30632" lon="-2.24435">
        <ele>20.200000762939</ele>
        <time>2019-10-13T08:49:52.000Z</time>
      </trkpt>
      <trkpt lat="47.30631" lon="-2.24429">
        <ele>20.200000762939</ele>
        <time>2019-10-13T08:49:53.000Z</time>
      </trkpt>
      <trkpt lat="47.30629" lon="-2.24424">
        <ele>20.799999237061</ele>
        <time>2019-10-13T08:49:54.000Z</time>
      </trkpt>
      <trkpt lat="47.30627" lon="-2.24421">
        <ele>21.200000762939</ele>
        <time>2019-10-13T08:49:55.000Z</time>
      </trkpt>
      <trkpt lat="47.30624" lon="-2.24419">
        <ele>21.60000038147</ele>
        <time>2019-10-13T08:49:56.000Z</time>
      </trkpt>
      <trkpt lat="47.30621" lon="-2.24418">
        <ele>22</ele>
        <time>2019-10-13T08:49:57.000Z</time>
      </trkpt>
      <trkpt lat="47.30618" lon="-2.24417">
        <ele>22.60000038147</ele>
        <time>2019-10-13T08:49:58.000Z</time>
      </trkpt>
      <trkpt lat="47.30605" lon="-2.24412">
        <ele>23</ele>
        <time>2019-10-13T08:50:02.000Z</time>
      </trkpt>
      <trkpt lat="47.30602" lon="-2.2441">
        <ele>23.39999961853</ele>
        <time>2019-10-13T08:50:03.000Z</time>
      </trkpt>
      <trkpt lat="47.30598" lon="-2.24407">
        <ele>24.39999961853</ele>
        <time>2019-10-13T08:50:04.000Z</time>
      </trkpt>
      <trkpt lat="47.30595" lon="-2.24403">
        <ele>24.799999237061</ele>
        <time>2019-10-13T08:50:05.000Z</time>
      </trkpt>
      <trkpt lat="47.30587" lon="-2.24395">
        <ele>24.799999237061</ele>
        <time>2019-10-13T08:50:07.000Z</time>
      </trkpt>
      <trkpt lat="47.30565" lon="-2.24371">
        <ele>24.799999237061</ele>
        <time>2019-10-13T08:50:13.000Z</time>
      </trkpt>
      <trkpt lat="47.30561" lon="-2.24368">
        <ele>24.799999237061</ele>
        <time>2019-10-13T08:50:14.000Z</time>
      </trkpt>
      <trkpt lat="47.30536" lon="-2.24343">
        <ele>25.200000762939</ele>
        <time>2019-10-13T08:50:21.000Z</time>
      </trkpt>
      <trkpt lat="47.30532" lon="-2.24339">
        <ele>25.60000038147</ele>
        <time>2019-10-13T08:50:22.000Z</time>
      </trkpt>
      <trkpt lat="47.30529" lon="-2.24335">
        <ele>26</ele>
        <time>2019-10-13T08:50:23.000Z</time>
      </trkpt>
      <trkpt lat="47.30525" lon="-2.24331">
        <ele>26.39999961853</ele>
        <time>2019-10-13T08:50:24.000Z</time>
      </trkpt>
      <trkpt lat="47.30521" lon="-2.24327">
        <ele>26.799999237061</ele>
        <time>2019-10-13T08:50:25.000Z</time>
      </trkpt>
      <trkpt lat="47.30501" lon="-2.24305">
        <ele>26.799999237061</ele>
        <time>2019-10-13T08:50:30.000Z</time>
      </trkpt>
      <trkpt lat="47.30471" lon="-2.24285">
        <ele>26.799999237061</ele>
        <time>2019-10-13T08:50:36.000Z</time>
      </trkpt>
      <trkpt lat="47.30428" lon="-2.24273">
        <ele>26.799999237061</ele>
        <time>2019-10-13T08:50:44.000Z</time>
      </trkpt>
      <trkpt lat="47.30413" lon="-2.24265">
        <ele>26.799999237061</ele>
        <time>2019-10-13T08:50:47.000Z</time>
      </trkpt>
      <trkpt lat="47.30401" lon="-2.24253">
        <ele>26.799999237061</ele>
        <time>2019-10-13T08:50:50.000Z</time>
      </trkpt>
      <trkpt lat="47.30389" lon="-2.24239">
        <ele>26.799999237061</ele>
        <time>2019-10-13T08:50:53.000Z</time>
      </trkpt>
      <trkpt lat="47.30375" lon="-2.24225">
        <ele>26.799999237061</ele>
        <time>2019-10-13T08:50:56.000Z</time>
      </trkpt>
      <trkpt lat="47.3035" lon="-2.24193">
        <ele>26.799999237061</ele>
        <time>2019-10-13T08:51:02.000Z</time>
      </trkpt>
      <trkpt lat="47.30348" lon="-2.24187">
        <ele>26.799999237061</ele>
        <time>2019-10-13T08:51:03.000Z</time>
      </trkpt>
      <trkpt lat="47.30361" lon="-2.24158">
        <ele>26.799999237061</ele>
        <time>2019-10-13T08:51:06.000Z</time>
      </trkpt>
      <trkpt lat="47.30361" lon="-2.24158">
        <ele>26.799999237061</ele>
        <time>2019-10-13T08:51:09.000Z</time>
      </trkpt>
      <trkpt lat="47.30376" lon="-2.24135">
        <ele>26.799999237061</ele>
        <time>2019-10-13T08:51:12.000Z</time>
      </trkpt>
      <trkpt lat="47.30382" lon="-2.24127">
        <ele>26.799999237061</ele>
        <time>2019-10-13T08:51:16.000Z</time>
      </trkpt>
      <trkpt lat="47.304" lon="-2.24106">
        <ele>26.799999237061</ele>
        <time>2019-10-13T08:51:22.000Z</time>
      </trkpt>
      <trkpt lat="47.30403" lon="-2.24102">
        <ele>26.799999237061</ele>
        <time>2019-10-13T08:51:23.000Z</time>
      </trkpt>
      <trkpt lat="47.30419" lon="-2.24078">
        <ele>26.799999237061</ele>
        <time>2019-10-13T08:51:27.000Z</time>
      </trkpt>
      <trkpt lat="47.30424" lon="-2.24072">
        <ele>26.799999237061</ele>
        <time>2019-10-13T08:51:28.000Z</time>
      </trkpt>
      <trkpt lat="47.3044" lon="-2.24052">
        <ele>26.799999237061</ele>
        <time>2019-10-13T08:51:31.000Z</time>
      </trkpt>
      <trkpt lat="47.30446" lon="-2.24046">
        <ele>26.39999961853</ele>
        <time>2019-10-13T08:51:32.000Z</time>
      </trkpt>
      <trkpt lat="47.30452" lon="-2.24041">
        <ele>26</ele>
        <time>2019-10-13T08:51:33.000Z</time>
      </trkpt>
      <trkpt lat="47.30469" lon="-2.2403">
        <ele>24.60000038147</ele>
        <time>2019-10-13T08:51:34.000Z</time>
      </trkpt>
      <trkpt lat="47.30469" lon="-2.2403">
        <ele>24.60000038147</ele>
        <time>2019-10-13T08:51:36.000Z</time>
      </trkpt>
      <trkpt lat="47.30481" lon="-2.2402">
        <ele>24.60000038147</ele>
        <time>2019-10-13T08:51:38.000Z</time>
      </trkpt>
      <trkpt lat="47.30488" lon="-2.24012">
        <ele>24.200000762939</ele>
        <time>2019-10-13T08:51:39.000Z</time>
      </trkpt>
      <trkpt lat="47.30496" lon="-2.24002">
        <ele>23.60000038147</ele>
        <time>2019-10-13T08:51:40.000Z</time>
      </trkpt>
      <trkpt lat="47.30518" lon="-2.23973">
        <ele>21.799999237061</ele>
        <time>2019-10-13T08:51:41.000Z</time>
      </trkpt>
      <trkpt lat="47.30525" lon="-2.23964">
        <ele>21.200000762939</ele>
        <time>2019-10-13T08:51:43.000Z</time>
      </trkpt>
      <trkpt lat="47.30532" lon="-2.23956">
        <ele>20.799999237061</ele>
        <time>2019-10-13T08:51:44.000Z</time>
      </trkpt>
      <trkpt lat="47.30538" lon="-2.23949">
        <ele>20.200000762939</ele>
        <time>2019-10-13T08:51:45.000Z</time>
      </trkpt>
      <trkpt lat="47.30543" lon="-2.23941">
        <ele>19.60000038147</ele>
        <time>2019-10-13T08:51:46.000Z</time>
      </trkpt>
      <trkpt lat="47.30546" lon="-2.23933">
        <ele>18.799999237061</ele>
        <time>2019-10-13T08:51:47.000Z</time>
      </trkpt>
      <trkpt lat="47.30547" lon="-2.23926">
        <ele>18</ele>
        <time>2019-10-13T08:51:48.000Z</time>
      </trkpt>
      <trkpt lat="47.30546" lon="-2.23918">
        <ele>17.39999961853</ele>
        <time>2019-10-13T08:51:49.000Z</time>
      </trkpt>
      <trkpt lat="47.30544" lon="-2.23912">
        <ele>16.60000038147</ele>
        <time>2019-10-13T08:51:50.000Z</time>
      </trkpt>
      <trkpt lat="47.30539" lon="-2.23906">
        <ele>15.800000190735</ele>
        <time>2019-10-13T08:51:51.000Z</time>
      </trkpt>
      <trkpt lat="47.30529" lon="-2.23895">
        <ele>15.800000190735</ele>
        <time>2019-10-13T08:51:53.000Z</time>
      </trkpt>
      <trkpt lat="47.30514" lon="-2.23876">
        <ele>15.800000190735</ele>
        <time>2019-10-13T08:51:56.000Z</time>
      </trkpt>
      <trkpt lat="47.30485" lon="-2.23841">
        <ele>15.800000190735</ele>
        <time>2019-10-13T08:52:02.000Z</time>
      </trkpt>
      <trkpt lat="47.30465" lon="-2.2384">
        <ele>15.800000190735</ele>
        <time>2019-10-13T08:52:05.000Z</time>
      </trkpt>
      <trkpt lat="47.30446" lon="-2.23843">
        <ele>15.800000190735</ele>
        <time>2019-10-13T08:52:06.000Z</time>
      </trkpt>
      <trkpt lat="47.30421" lon="-2.23847">
        <ele>15.800000190735</ele>
        <time>2019-10-13T08:52:13.000Z</time>
      </trkpt>
      <trkpt lat="47.30371" lon="-2.23856">
        <ele>15.800000190735</ele>
        <time>2019-10-13T08:52:21.000Z</time>
      </trkpt>
      <trkpt lat="47.30321" lon="-2.23872">
        <ele>15.800000190735</ele>
        <time>2019-10-13T08:52:29.000Z</time>
      </trkpt>
      <trkpt lat="47.30306" lon="-2.23878">
        <ele>15.800000190735</ele>
        <time>2019-10-13T08:52:32.000Z</time>
      </trkpt>
      <trkpt lat="47.30296" lon="-2.23881">
        <ele>15.800000190735</ele>
        <time>2019-10-13T08:52:34.000Z</time>
      </trkpt>
      <trkpt lat="47.30275" lon="-2.23891">
        <ele>15.800000190735</ele>
        <time>2019-10-13T08:52:40.000Z</time>
      </trkpt>
      <trkpt lat="47.30273" lon="-2.23895">
        <ele>15.800000190735</ele>
        <time>2019-10-13T08:52:43.000Z</time>
      </trkpt>
      <trkpt lat="47.3027" lon="-2.23899">
        <ele>14.199999809265</ele>
        <time>2019-10-13T08:53:00.000Z</time>
      </trkpt>
      <trkpt lat="47.30268" lon="-2.23901">
        <ele>13.800000190735</ele>
        <time>2019-10-13T08:53:01.000Z</time>
      </trkpt>
      <trkpt lat="47.30263" lon="-2.23919">
        <ele>13.800000190735</ele>
        <time>2019-10-13T08:53:03.000Z</time>
      </trkpt>
      <trkpt lat="47.30263" lon="-2.23919">
        <ele>13.800000190735</ele>
        <time>2019-10-13T08:53:05.000Z</time>
      </trkpt>
      <trkpt lat="47.30264" lon="-2.23937">
        <ele>13.800000190735</ele>
        <time>2019-10-13T08:53:06.000Z</time>
      </trkpt>
      <trkpt lat="47.30267" lon="-2.2395">
        <ele>13.800000190735</ele>
        <time>2019-10-13T08:53:11.000Z</time>
      </trkpt>
      <trkpt lat="47.30278" lon="-2.23989">
        <ele>14.199999809265</ele>
        <time>2019-10-13T08:53:17.000Z</time>
      </trkpt>
      <trkpt lat="47.30279" lon="-2.23995">
        <ele>14.60000038147</ele>
        <time>2019-10-13T08:53:18.000Z</time>
      </trkpt>
      <trkpt lat="47.30279" lon="-2.24001">
        <ele>15</ele>
        <time>2019-10-13T08:53:19.000Z</time>
      </trkpt>
      <trkpt lat="47.3028" lon="-2.24007">
        <ele>15.39999961853</ele>
        <time>2019-10-13T08:53:20.000Z</time>
      </trkpt>
      <trkpt lat="47.3028" lon="-2.24012">
        <ele>16</ele>
        <time>2019-10-13T08:53:21.000Z</time>
      </trkpt>
      <trkpt lat="47.3028" lon="-2.24017">
        <ele>16</ele>
        <time>2019-10-13T08:53:22.000Z</time>
      </trkpt>
      <trkpt lat="47.30281" lon="-2.24041">
        <ele>16.39999961853</ele>
        <time>2019-10-13T08:53:28.000Z</time>
      </trkpt>
      <trkpt lat="47.30281" lon="-2.24043">
        <ele>16.799999237061</ele>
        <time>2019-10-13T08:53:29.000Z</time>
      </trkpt>
      <trkpt lat="47.30281" lon="-2.24046">
        <ele>17.200000762939</ele>
        <time>2019-10-13T08:53:30.000Z</time>
      </trkpt>
      <trkpt lat="47.30279" lon="-2.2405">
        <ele>17.60000038147</ele>
        <time>2019-10-13T08:53:31.000Z</time>
      </trkpt>
      <trkpt lat="47.30278" lon="-2.24053">
        <ele>18</ele>
        <time>2019-10-13T08:53:32.000Z</time>
      </trkpt>
      <trkpt lat="47.30276" lon="-2.24054">
        <ele>18</ele>
        <time>2019-10-13T08:53:33.000Z</time>
      </trkpt>
      <trkpt lat="47.3026" lon="-2.24058">
        <ele>18</ele>
        <time>2019-10-13T08:53:38.000Z</time>
      </trkpt>
      <trkpt lat="47.30246" lon="-2.24058">
        <ele>18</ele>
        <time>2019-10-13T08:53:43.000Z</time>
      </trkpt>
      <trkpt lat="47.30237" lon="-2.24058">
        <ele>18.799999237061</ele>
        <time>2019-10-13T08:53:46.000Z</time>
      </trkpt>
      <trkpt lat="47.30233" lon="-2.24058">
        <ele>19.200000762939</ele>
        <time>2019-10-13T08:53:47.000Z</time>
      </trkpt>
      <trkpt lat="47.30225" lon="-2.24058">
        <ele>20</ele>
        <time>2019-10-13T08:53:48.000Z</time>
      </trkpt>
      <trkpt lat="47.30202" lon="-2.24059">
        <ele>20</ele>
        <time>2019-10-13T08:53:56.000Z</time>
      </trkpt>
      <trkpt lat="47.30189" lon="-2.24058">
        <ele>20</ele>
        <time>2019-10-13T08:54:00.000Z</time>
      </trkpt>
      <trkpt lat="47.30166" lon="-2.24064">
        <ele>20</ele>
        <time>2019-10-13T08:54:06.000Z</time>
      </trkpt>
      <trkpt lat="47.30154" lon="-2.24069">
        <ele>20</ele>
        <time>2019-10-13T08:54:10.000Z</time>
      </trkpt>
      <trkpt lat="47.30148" lon="-2.24072">
        <ele>20.39999961853</ele>
        <time>2019-10-13T08:54:12.000Z</time>
      </trkpt>
      <trkpt lat="47.30145" lon="-2.24074">
        <ele>20.799999237061</ele>
        <time>2019-10-13T08:54:13.000Z</time>
      </trkpt>
      <trkpt lat="47.30143" lon="-2.24074">
        <ele>21.39999961853</ele>
        <time>2019-10-13T08:54:14.000Z</time>
      </trkpt>
      <trkpt lat="47.3014" lon="-2.24074">
        <ele>21.799999237061</ele>
        <time>2019-10-13T08:54:15.000Z</time>
      </trkpt>
      <trkpt lat="47.30137" lon="-2.24075">
        <ele>22.200000762939</ele>
        <time>2019-10-13T08:54:16.000Z</time>
      </trkpt>
      <trkpt lat="47.30134" lon="-2.24077">
        <ele>22.200000762939</ele>
        <time>2019-10-13T08:54:17.000Z</time>
      </trkpt>
      <trkpt lat="47.30126" lon="-2.24083">
        <ele>22.200000762939</ele>
        <time>2019-10-13T08:54:20.000Z</time>
      </trkpt>
      <trkpt lat="47.30109" lon="-2.24094">
        <ele>22.200000762939</ele>
        <time>2019-10-13T08:54:25.000Z</time>
      </trkpt>
      <trkpt lat="47.30087" lon="-2.24104">
        <ele>22.200000762939</ele>
        <time>2019-10-13T08:54:30.000Z</time>
      </trkpt>
      <trkpt lat="47.30072" lon="-2.24115">
        <ele>22.200000762939</ele>
        <time>2019-10-13T08:54:34.000Z</time>
      </trkpt>
      <trkpt lat="47.30067" lon="-2.24118">
        <ele>22.200000762939</ele>
        <time>2019-10-13T08:54:35.000Z</time>
      </trkpt>
      <trkpt lat="47.3004" lon="-2.24134">
        <ele>22.200000762939</ele>
        <time>2019-10-13T08:54:41.000Z</time>
      </trkpt>
      <trkpt lat="47.3003" lon="-2.24141">
        <ele>21.799999237061</ele>
        <time>2019-10-13T08:54:44.000Z</time>
      </trkpt>
      <trkpt lat="47.3003" lon="-2.24143">
        <ele>21.200000762939</ele>
        <time>2019-10-13T08:54:45.000Z</time>
      </trkpt>
      <trkpt lat="47.3003" lon="-2.24145">
        <ele>20.799999237061</ele>
        <time>2019-10-13T08:54:46.000Z</time>
      </trkpt>
      <trkpt lat="47.3003" lon="-2.24148">
        <ele>20.39999961853</ele>
        <time>2019-10-13T08:54:47.000Z</time>
      </trkpt>
      <trkpt lat="47.3003" lon="-2.24151">
        <ele>20</ele>
        <time>2019-10-13T08:54:48.000Z</time>
      </trkpt>
      <trkpt lat="47.30032" lon="-2.2416">
        <ele>20</ele>
        <time>2019-10-13T08:54:51.000Z</time>
      </trkpt>
      <trkpt lat="47.30031" lon="-2.24176">
        <ele>20</ele>
        <time>2019-10-13T08:54:57.000Z</time>
      </trkpt>
      <trkpt lat="47.30033" lon="-2.24191">
        <ele>20.39999961853</ele>
        <time>2019-10-13T08:55:03.000Z</time>
      </trkpt>
      <trkpt lat="47.30033" lon="-2.24195">
        <ele>20.799999237061</ele>
        <time>2019-10-13T08:55:04.000Z</time>
      </trkpt>
      <trkpt lat="47.30032" lon="-2.24199">
        <ele>21.39999961853</ele>
        <time>2019-10-13T08:55:05.000Z</time>
      </trkpt>
      <trkpt lat="47.30031" lon="-2.24202">
        <ele>21.799999237061</ele>
        <time>2019-10-13T08:55:06.000Z</time>
      </trkpt>
      <trkpt lat="47.30031" lon="-2.24205">
        <ele>22.200000762939</ele>
        <time>2019-10-13T08:55:07.000Z</time>
      </trkpt>
      <trkpt lat="47.30029" lon="-2.24213">
        <ele>22.200000762939</ele>
        <time>2019-10-13T08:55:10.000Z</time>
      </trkpt>
      <trkpt lat="47.30029" lon="-2.24216">
        <ele>22.200000762939</ele>
        <time>2019-10-13T08:55:11.000Z</time>
      </trkpt>
      <trkpt lat="47.30026" lon="-2.24228">
        <ele>22.200000762939</ele>
        <time>2019-10-13T08:55:15.000Z</time>
      </trkpt>
      <trkpt lat="47.30026" lon="-2.24231">
        <ele>22.200000762939</ele>
        <time>2019-10-13T08:55:16.000Z</time>
      </trkpt>
      <trkpt lat="47.30026" lon="-2.24235">
        <ele>22.60000038147</ele>
        <time>2019-10-13T08:55:17.000Z</time>
      </trkpt>
      <trkpt lat="47.30027" lon="-2.24237">
        <ele>23</ele>
        <time>2019-10-13T08:55:18.000Z</time>
      </trkpt>
      <trkpt lat="47.30028" lon="-2.2424">
        <ele>23.39999961853</ele>
        <time>2019-10-13T08:55:19.000Z</time>
      </trkpt>
      <trkpt lat="47.30028" lon="-2.24242">
        <ele>23.799999237061</ele>
        <time>2019-10-13T08:55:20.000Z</time>
      </trkpt>
      <trkpt lat="47.30029" lon="-2.24245">
        <ele>24.200000762939</ele>
        <time>2019-10-13T08:55:21.000Z</time>
      </trkpt>
      <trkpt lat="47.30028" lon="-2.24248">
        <ele>24.200000762939</ele>
        <time>2019-10-13T08:55:22.000Z</time>
      </trkpt>
      <trkpt lat="47.30028" lon="-2.24256">
        <ele>24.200000762939</ele>
        <time>2019-10-13T08:55:26.000Z</time>
      </trkpt>
      <trkpt lat="47.30029" lon="-2.24258">
        <ele>24.799999237061</ele>
        <time>2019-10-13T08:55:27.000Z</time>
      </trkpt>
      <trkpt lat="47.3003" lon="-2.2426">
        <ele>25.200000762939</ele>
        <time>2019-10-13T08:55:28.000Z</time>
      </trkpt>
      <trkpt lat="47.3003" lon="-2.24262">
        <ele>25.60000038147</ele>
        <time>2019-10-13T08:55:29.000Z</time>
      </trkpt>
      <trkpt lat="47.3003" lon="-2.24265">
        <ele>26</ele>
        <time>2019-10-13T08:55:30.000Z</time>
      </trkpt>
      <trkpt lat="47.3003" lon="-2.24267">
        <ele>26.39999961853</ele>
        <time>2019-10-13T08:55:31.000Z</time>
      </trkpt>
      <trkpt lat="47.30028" lon="-2.2427">
        <ele>26.39999961853</ele>
        <time>2019-10-13T08:55:32.000Z</time>
      </trkpt>
      <trkpt lat="47.30024" lon="-2.24276">
        <ele>26.39999961853</ele>
        <time>2019-10-13T08:55:35.000Z</time>
      </trkpt>
      <trkpt lat="47.30021" lon="-2.24281">
        <ele>26.39999961853</ele>
        <time>2019-10-13T08:55:37.000Z</time>
      </trkpt>
      <trkpt lat="47.30021" lon="-2.24286">
        <ele>26.39999961853</ele>
        <time>2019-10-13T08:55:38.000Z</time>
      </trkpt>
      <trkpt lat="47.30019" lon="-2.243">
        <ele>26.39999961853</ele>
        <time>2019-10-13T08:55:41.000Z</time>
      </trkpt>
      <trkpt lat="47.30016" lon="-2.24303">
        <ele>26.39999961853</ele>
        <time>2019-10-13T08:55:42.000Z</time>
      </trkpt>
      <trkpt lat="47.30009" lon="-2.24318">
        <ele>26.39999961853</ele>
        <time>2019-10-13T08:55:46.000Z</time>
      </trkpt>
      <trkpt lat="47.30008" lon="-2.24323">
        <ele>26.39999961853</ele>
        <time>2019-10-13T08:55:47.000Z</time>
      </trkpt>
      <trkpt lat="47.29998" lon="-2.24352">
        <ele>26.39999961853</ele>
        <time>2019-10-13T08:55:54.000Z</time>
      </trkpt>
      <trkpt lat="47.29986" lon="-2.24349">
        <ele>26.39999961853</ele>
        <time>2019-10-13T08:55:58.000Z</time>
      </trkpt>
      <trkpt lat="47.29962" lon="-2.2432">
        <ele>26.39999961853</ele>
        <time>2019-10-13T08:56:05.000Z</time>
      </trkpt>
      <trkpt lat="47.29944" lon="-2.24303">
        <ele>26.39999961853</ele>
        <time>2019-10-13T08:56:10.000Z</time>
      </trkpt>
      <trkpt lat="47.29941" lon="-2.24299">
        <ele>26.39999961853</ele>
        <time>2019-10-13T08:56:11.000Z</time>
      </trkpt>
      <trkpt lat="47.29934" lon="-2.2429">
        <ele>26.39999961853</ele>
        <time>2019-10-13T08:56:13.000Z</time>
      </trkpt>
      <trkpt lat="47.29923" lon="-2.24283">
        <ele>26.39999961853</ele>
        <time>2019-10-13T08:56:16.000Z</time>
      </trkpt>
      <trkpt lat="47.29911" lon="-2.24277">
        <ele>26.39999961853</ele>
        <time>2019-10-13T08:56:19.000Z</time>
      </trkpt>
      <trkpt lat="47.299" lon="-2.24276">
        <ele>26.39999961853</ele>
        <time>2019-10-13T08:56:22.000Z</time>
      </trkpt>
      <trkpt lat="47.29895" lon="-2.2428">
        <ele>26.39999961853</ele>
        <time>2019-10-13T08:56:26.000Z</time>
      </trkpt>
      <trkpt lat="47.29894" lon="-2.24277">
        <ele>26.39999961853</ele>
        <time>2019-10-13T09:02:23.000Z</time>
      </trkpt>
      <trkpt lat="47.29894" lon="-2.24268">
        <ele>26.39999961853</ele>
        <time>2019-10-13T09:02:26.000Z</time>
      </trkpt>
      <trkpt lat="47.2989" lon="-2.2426">
        <ele>26.39999961853</ele>
        <time>2019-10-13T09:02:28.000Z</time>
      </trkpt>
      <trkpt lat="47.29882" lon="-2.24255">
        <ele>26.39999961853</ele>
        <time>2019-10-13T09:02:30.000Z</time>
      </trkpt>
      <trkpt lat="47.29851" lon="-2.24238">
        <ele>26.39999961853</ele>
        <time>2019-10-13T09:02:37.000Z</time>
      </trkpt>
      <trkpt lat="47.29846" lon="-2.24236">
        <ele>26.799999237061</ele>
        <time>2019-10-13T09:02:38.000Z</time>
      </trkpt>
      <trkpt lat="47.29841" lon="-2.24234">
        <ele>27.200000762939</ele>
        <time>2019-10-13T09:02:39.000Z</time>
      </trkpt>
      <trkpt lat="47.29837" lon="-2.24231">
        <ele>27.60000038147</ele>
        <time>2019-10-13T09:02:40.000Z</time>
      </trkpt>
      <trkpt lat="47.29832" lon="-2.24229">
        <ele>28.200000762939</ele>
        <time>2019-10-13T09:02:41.000Z</time>
      </trkpt>
      <trkpt lat="47.29827" lon="-2.24226">
        <ele>28.60000038147</ele>
        <time>2019-10-13T09:02:42.000Z</time>
      </trkpt>
      <trkpt lat="47.29817" lon="-2.2422">
        <ele>28.60000038147</ele>
        <time>2019-10-13T09:02:44.000Z</time>
      </trkpt>
      <trkpt lat="47.29806" lon="-2.24215">
        <ele>28.60000038147</ele>
        <time>2019-10-13T09:02:46.000Z</time>
      </trkpt>
      <trkpt lat="47.29793" lon="-2.24217">
        <ele>28.60000038147</ele>
        <time>2019-10-13T09:02:48.000Z</time>
      </trkpt>
      <trkpt lat="47.29769" lon="-2.24229">
        <ele>28.200000762939</ele>
        <time>2019-10-13T09:02:51.000Z</time>
      </trkpt>
      <trkpt lat="47.29762" lon="-2.24233">
        <ele>27.799999237061</ele>
        <time>2019-10-13T09:02:53.000Z</time>
      </trkpt>
      <trkpt lat="47.29756" lon="-2.24237">
        <ele>27.200000762939</ele>
        <time>2019-10-13T09:02:54.000Z</time>
      </trkpt>
      <trkpt lat="47.29735" lon="-2.24249">
        <ele>26.39999961853</ele>
        <time>2019-10-13T09:02:55.000Z</time>
      </trkpt>
      <trkpt lat="47.29715" lon="-2.24261">
        <ele>26</ele>
        <time>2019-10-13T09:02:59.000Z</time>
      </trkpt>
      <trkpt lat="47.29708" lon="-2.24264">
        <ele>25.60000038147</ele>
        <time>2019-10-13T09:03:00.000Z</time>
      </trkpt>
      <trkpt lat="47.29701" lon="-2.24267">
        <ele>25.200000762939</ele>
        <time>2019-10-13T09:03:01.000Z</time>
      </trkpt>
      <trkpt lat="47.29694" lon="-2.2427">
        <ele>24.799999237061</ele>
        <time>2019-10-13T09:03:02.000Z</time>
      </trkpt>
      <trkpt lat="47.29686" lon="-2.24274">
        <ele>24.39999961853</ele>
        <time>2019-10-13T09:03:03.000Z</time>
      </trkpt>
      <trkpt lat="47.29666" lon="-2.24287">
        <ele>24</ele>
        <time>2019-10-13T09:03:06.000Z</time>
      </trkpt>
      <trkpt lat="47.29659" lon="-2.24291">
        <ele>23.39999961853</ele>
        <time>2019-10-13T09:03:07.000Z</time>
      </trkpt>
      <trkpt lat="47.29651" lon="-2.24295">
        <ele>23</ele>
        <time>2019-10-13T09:03:08.000Z</time>
      </trkpt>
      <trkpt lat="47.29643" lon="-2.24299">
        <ele>22.60000038147</ele>
        <time>2019-10-13T09:03:09.000Z</time>
      </trkpt>
      <trkpt lat="47.29636" lon="-2.24303">
        <ele>22.200000762939</ele>
        <time>2019-10-13T09:03:10.000Z</time>
      </trkpt>
      <trkpt lat="47.29628" lon="-2.24307">
        <ele>22.200000762939</ele>
        <time>2019-10-13T09:03:11.000Z</time>
      </trkpt>
      <trkpt lat="47.2962" lon="-2.24309">
        <ele>22.200000762939</ele>
        <time>2019-10-13T09:03:12.000Z</time>
      </trkpt>
      <trkpt lat="47.2959" lon="-2.24316">
        <ele>22.200000762939</ele>
        <time>2019-10-13T09:03:16.000Z</time>
      </trkpt>
      <trkpt lat="47.29582" lon="-2.24316">
        <ele>22.200000762939</ele>
        <time>2019-10-13T09:03:17.000Z</time>
      </trkpt>
      <trkpt lat="47.29562" lon="-2.24305">
        <ele>21.200000762939</ele>
        <time>2019-10-13T09:03:18.000Z</time>
      </trkpt>
      <trkpt lat="47.29562" lon="-2.24305">
        <ele>21.200000762939</ele>
        <time>2019-10-13T09:03:21.000Z</time>
      </trkpt>
      <trkpt lat="47.29554" lon="-2.24299">
        <ele>20.60000038147</ele>
        <time>2019-10-13T09:03:22.000Z</time>
      </trkpt>
      <trkpt lat="47.29547" lon="-2.24293">
        <ele>20.200000762939</ele>
        <time>2019-10-13T09:03:23.000Z</time>
      </trkpt>
      <trkpt lat="47.29523" lon="-2.24287">
        <ele>18.799999237061</ele>
        <time>2019-10-13T09:03:24.000Z</time>
      </trkpt>
      <trkpt lat="47.29516" lon="-2.24288">
        <ele>18.39999961853</ele>
        <time>2019-10-13T09:03:27.000Z</time>
      </trkpt>
      <trkpt lat="47.29509" lon="-2.2429">
        <ele>18</ele>
        <time>2019-10-13T09:03:28.000Z</time>
      </trkpt>
      <trkpt lat="47.29503" lon="-2.24294">
        <ele>17.60000038147</ele>
        <time>2019-10-13T09:03:29.000Z</time>
      </trkpt>
      <trkpt lat="47.29466" lon="-2.2431">
        <ele>18</ele>
        <time>2019-10-13T09:03:35.000Z</time>
      </trkpt>
      <trkpt lat="47.2946" lon="-2.24312">
        <ele>18.60000038147</ele>
        <time>2019-10-13T09:03:36.000Z</time>
      </trkpt>
      <trkpt lat="47.29454" lon="-2.24315">
        <ele>19</ele>
        <time>2019-10-13T09:03:37.000Z</time>
      </trkpt>
      <trkpt lat="47.29448" lon="-2.24316">
        <ele>19.39999961853</ele>
        <time>2019-10-13T09:03:38.000Z</time>
      </trkpt>
      <trkpt lat="47.29442" lon="-2.24318">
        <ele>19.799999237061</ele>
        <time>2019-10-13T09:03:39.000Z</time>
      </trkpt>
      <trkpt lat="47.29425" lon="-2.24328">
        <ele>20.799999237061</ele>
        <time>2019-10-13T09:03:40.000Z</time>
      </trkpt>
      <trkpt lat="47.29425" lon="-2.24328">
        <ele>20.799999237061</ele>
        <time>2019-10-13T09:03:42.000Z</time>
      </trkpt>
      <trkpt lat="47.29419" lon="-2.24332">
        <ele>21.200000762939</ele>
        <time>2019-10-13T09:03:43.000Z</time>
      </trkpt>
      <trkpt lat="47.29414" lon="-2.24337">
        <ele>21.60000038147</ele>
        <time>2019-10-13T09:03:44.000Z</time>
      </trkpt>
      <trkpt lat="47.29408" lon="-2.24342">
        <ele>22</ele>
        <time>2019-10-13T09:03:45.000Z</time>
      </trkpt>
      <trkpt lat="47.29393" lon="-2.24358">
        <ele>22</ele>
        <time>2019-10-13T09:03:48.000Z</time>
      </trkpt>
      <trkpt lat="47.29362" lon="-2.24391">
        <ele>22</ele>
        <time>2019-10-13T09:03:54.000Z</time>
      </trkpt>
      <trkpt lat="47.2933" lon="-2.24425">
        <ele>22</ele>
        <time>2019-10-13T09:04:00.000Z</time>
      </trkpt>
      <trkpt lat="47.29301" lon="-2.2445">
        <ele>22</ele>
        <time>2019-10-13T09:04:06.000Z</time>
      </trkpt>
      <trkpt lat="47.29297" lon="-2.24454">
        <ele>22</ele>
        <time>2019-10-13T09:04:07.000Z</time>
      </trkpt>
      <trkpt lat="47.29293" lon="-2.24472">
        <ele>22</ele>
        <time>2019-10-13T09:04:10.000Z</time>
      </trkpt>
      <trkpt lat="47.29294" lon="-2.24503">
        <ele>22</ele>
        <time>2019-10-13T09:04:14.000Z</time>
      </trkpt>
      <trkpt lat="47.29294" lon="-2.24512">
        <ele>22</ele>
        <time>2019-10-13T09:04:15.000Z</time>
      </trkpt>
      <trkpt lat="47.29296" lon="-2.24548">
        <ele>22</ele>
        <time>2019-10-13T09:04:19.000Z</time>
      </trkpt>
      <trkpt lat="47.29297" lon="-2.24567">
        <ele>22</ele>
        <time>2019-10-13T09:04:21.000Z</time>
      </trkpt>
      <trkpt lat="47.29299" lon="-2.24604">
        <ele>22</ele>
        <time>2019-10-13T09:04:25.000Z</time>
      </trkpt>
      <trkpt lat="47.29295" lon="-2.24637">
        <ele>22</ele>
        <time>2019-10-13T09:04:29.000Z</time>
      </trkpt>
      <trkpt lat="47.29297" lon="-2.24684">
        <ele>22</ele>
        <time>2019-10-13T09:04:34.000Z</time>
      </trkpt>
      <trkpt lat="47.293" lon="-2.24696">
        <ele>22.39999961853</ele>
        <time>2019-10-13T09:04:38.000Z</time>
      </trkpt>
      <trkpt lat="47.29302" lon="-2.24702">
        <ele>22.799999237061</ele>
        <time>2019-10-13T09:04:39.000Z</time>
      </trkpt>
      <trkpt lat="47.29303" lon="-2.24708">
        <ele>23.39999961853</ele>
        <time>2019-10-13T09:04:40.000Z</time>
      </trkpt>
      <trkpt lat="47.29305" lon="-2.24715">
        <ele>23.799999237061</ele>
        <time>2019-10-13T09:04:41.000Z</time>
      </trkpt>
      <trkpt lat="47.29307" lon="-2.24722">
        <ele>24.200000762939</ele>
        <time>2019-10-13T09:04:42.000Z</time>
      </trkpt>
      <trkpt lat="47.29314" lon="-2.24755">
        <ele>24.200000762939</ele>
        <time>2019-10-13T09:04:47.000Z</time>
      </trkpt>
      <trkpt lat="47.29317" lon="-2.2476">
        <ele>24.200000762939</ele>
        <time>2019-10-13T09:04:48.000Z</time>
      </trkpt>
      <trkpt lat="47.29321" lon="-2.24774">
        <ele>24.200000762939</ele>
        <time>2019-10-13T09:04:50.000Z</time>
      </trkpt>
      <trkpt lat="47.29323" lon="-2.24785">
        <ele>24.200000762939</ele>
        <time>2019-10-13T09:04:52.000Z</time>
      </trkpt>
      <trkpt lat="47.29328" lon="-2.24803">
        <ele>24.200000762939</ele>
        <time>2019-10-13T09:04:55.000Z</time>
      </trkpt>
      <trkpt lat="47.29332" lon="-2.24824">
        <ele>24.200000762939</ele>
        <time>2019-10-13T09:04:58.000Z</time>
      </trkpt>
      <trkpt lat="47.29333" lon="-2.24831">
        <ele>24.200000762939</ele>
        <time>2019-10-13T09:04:59.000Z</time>
      </trkpt>
      <trkpt lat="47.29335" lon="-2.24859">
        <ele>24.200000762939</ele>
        <time>2019-10-13T09:05:03.000Z</time>
      </trkpt>
      <trkpt lat="47.29336" lon="-2.24886">
        <ele>24.60000038147</ele>
        <time>2019-10-13T09:05:07.000Z</time>
      </trkpt>
      <trkpt lat="47.29333" lon="-2.24901">
        <ele>25.799999237061</ele>
        <time>2019-10-13T09:05:08.000Z</time>
      </trkpt>
      <trkpt lat="47.29331" lon="-2.24904">
        <ele>26.200000762939</ele>
        <time>2019-10-13T09:05:11.000Z</time>
      </trkpt>
      <trkpt lat="47.29329" lon="-2.24906">
        <ele>26.200000762939</ele>
        <time>2019-10-13T09:05:12.000Z</time>
      </trkpt>
      <trkpt lat="47.29321" lon="-2.24907">
        <ele>26.200000762939</ele>
        <time>2019-10-13T09:05:15.000Z</time>
      </trkpt>
      <trkpt lat="47.29306" lon="-2.24915">
        <ele>26.200000762939</ele>
        <time>2019-10-13T09:05:19.000Z</time>
      </trkpt>
      <trkpt lat="47.29281" lon="-2.24918">
        <ele>26.200000762939</ele>
        <time>2019-10-13T09:05:24.000Z</time>
      </trkpt>
      <trkpt lat="47.29263" lon="-2.24921">
        <ele>26.200000762939</ele>
        <time>2019-10-13T09:05:28.000Z</time>
      </trkpt>
      <trkpt lat="47.29257" lon="-2.24932">
        <ele>26.200000762939</ele>
        <time>2019-10-13T09:05:30.000Z</time>
      </trkpt>
      <trkpt lat="47.29262" lon="-2.24969">
        <ele>26.200000762939</ele>
        <time>2019-10-13T09:05:33.000Z</time>
      </trkpt>
      <trkpt lat="47.29262" lon="-2.24969">
        <ele>26.200000762939</ele>
        <time>2019-10-13T09:05:35.000Z</time>
      </trkpt>
      <trkpt lat="47.29276" lon="-2.25025">
        <ele>26.200000762939</ele>
        <time>2019-10-13T09:05:42.000Z</time>
      </trkpt>
      <trkpt lat="47.29298" lon="-2.25116">
        <ele>26.200000762939</ele>
        <time>2019-10-13T09:05:52.000Z</time>
      </trkpt>
      <trkpt lat="47.29308" lon="-2.2518">
        <ele>26.200000762939</ele>
        <time>2019-10-13T09:05:58.000Z</time>
      </trkpt>
      <trkpt lat="47.2931" lon="-2.25188">
        <ele>25.799999237061</ele>
        <time>2019-10-13T09:05:59.000Z</time>
      </trkpt>
      <trkpt lat="47.29313" lon="-2.25194">
        <ele>25.200000762939</ele>
        <time>2019-10-13T09:06:00.000Z</time>
      </trkpt>
      <trkpt lat="47.29316" lon="-2.25195">
        <ele>24.799999237061</ele>
        <time>2019-10-13T09:06:01.000Z</time>
      </trkpt>
      <trkpt lat="47.2932" lon="-2.25195">
        <ele>24.200000762939</ele>
        <time>2019-10-13T09:06:02.000Z</time>
      </trkpt>
      <trkpt lat="47.29324" lon="-2.25194">
        <ele>23.799999237061</ele>
        <time>2019-10-13T09:06:03.000Z</time>
      </trkpt>
      <trkpt lat="47.29327" lon="-2.25194">
        <ele>23.799999237061</ele>
        <time>2019-10-13T09:06:04.000Z</time>
      </trkpt>
      <trkpt lat="47.29331" lon="-2.25194">
        <ele>23.799999237061</ele>
        <time>2019-10-13T09:06:05.000Z</time>
      </trkpt>
      <trkpt lat="47.2935" lon="-2.25196">
        <ele>23.799999237061</ele>
        <time>2019-10-13T09:06:09.000Z</time>
      </trkpt>
      <trkpt lat="47.29386" lon="-2.25205">
        <ele>23.799999237061</ele>
        <time>2019-10-13T09:06:15.000Z</time>
      </trkpt>
      <trkpt lat="47.29409" lon="-2.2521">
        <ele>23.799999237061</ele>
        <time>2019-10-13T09:06:19.000Z</time>
      </trkpt>
      <trkpt lat="47.2942" lon="-2.25209">
        <ele>23.799999237061</ele>
        <time>2019-10-13T09:06:21.000Z</time>
      </trkpt>
      <trkpt lat="47.2943" lon="-2.25205">
        <ele>23.799999237061</ele>
        <time>2019-10-13T09:06:23.000Z</time>
      </trkpt>
      <trkpt lat="47.29444" lon="-2.25201">
        <ele>23.799999237061</ele>
        <time>2019-10-13T09:06:26.000Z</time>
      </trkpt>
      <trkpt lat="47.29448" lon="-2.252">
        <ele>23.799999237061</ele>
        <time>2019-10-13T09:06:27.000Z</time>
      </trkpt>
      <trkpt lat="47.2948" lon="-2.25193">
        <ele>24.200000762939</ele>
        <time>2019-10-13T09:06:34.000Z</time>
      </trkpt>
      <trkpt lat="47.29485" lon="-2.25192">
        <ele>25</ele>
        <time>2019-10-13T09:06:35.000Z</time>
      </trkpt>
      <trkpt lat="47.2949" lon="-2.25191">
        <ele>25.39999961853</ele>
        <time>2019-10-13T09:06:36.000Z</time>
      </trkpt>
      <trkpt lat="47.29495" lon="-2.25189">
        <ele>25.799999237061</ele>
        <time>2019-10-13T09:06:37.000Z</time>
      </trkpt>
      <trkpt lat="47.29505" lon="-2.25186">
        <ele>25.799999237061</ele>
        <time>2019-10-13T09:06:39.000Z</time>
      </trkpt>
      <trkpt lat="47.29532" lon="-2.25176">
        <ele>25.799999237061</ele>
        <time>2019-10-13T09:06:45.000Z</time>
      </trkpt>
      <trkpt lat="47.2954" lon="-2.25175">
        <ele>25.799999237061</ele>
        <time>2019-10-13T09:06:49.000Z</time>
      </trkpt>
      <trkpt lat="47.29549" lon="-2.25174">
        <ele>25.799999237061</ele>
        <time>2019-10-13T09:06:54.000Z</time>
      </trkpt>
      <trkpt lat="47.29554" lon="-2.25177">
        <ele>25.799999237061</ele>
        <time>2019-10-13T09:06:56.000Z</time>
      </trkpt>
      <trkpt lat="47.29556" lon="-2.25182">
        <ele>25.799999237061</ele>
        <time>2019-10-13T09:07:00.000Z</time>
      </trkpt>
      <trkpt lat="47.29552" lon="-2.25192">
        <ele>25.799999237061</ele>
        <time>2019-10-13T09:07:04.000Z</time>
      </trkpt>
      <trkpt lat="47.29544" lon="-2.25218">
        <ele>25.799999237061</ele>
        <time>2019-10-13T09:07:09.000Z</time>
      </trkpt>
      <trkpt lat="47.29539" lon="-2.25248">
        <ele>25.799999237061</ele>
        <time>2019-10-13T09:07:14.000Z</time>
      </trkpt>
      <trkpt lat="47.29539" lon="-2.25255">
        <ele>25.799999237061</ele>
        <time>2019-10-13T09:07:15.000Z</time>
      </trkpt>
      <trkpt lat="47.29539" lon="-2.25269">
        <ele>25.799999237061</ele>
        <time>2019-10-13T09:07:17.000Z</time>
      </trkpt>
      <trkpt lat="47.29543" lon="-2.25291">
        <ele>25.799999237061</ele>
        <time>2019-10-13T09:07:20.000Z</time>
      </trkpt>
      <trkpt lat="47.29548" lon="-2.25304">
        <ele>25.799999237061</ele>
        <time>2019-10-13T09:07:22.000Z</time>
      </trkpt>
      <trkpt lat="47.2955" lon="-2.2531">
        <ele>26.200000762939</ele>
        <time>2019-10-13T09:07:23.000Z</time>
      </trkpt>
      <trkpt lat="47.29553" lon="-2.25316">
        <ele>26.60000038147</ele>
        <time>2019-10-13T09:07:24.000Z</time>
      </trkpt>
      <trkpt lat="47.29557" lon="-2.25323">
        <ele>27.39999961853</ele>
        <time>2019-10-13T09:07:25.000Z</time>
      </trkpt>
      <trkpt lat="47.2956" lon="-2.2533">
        <ele>27.799999237061</ele>
        <time>2019-10-13T09:07:26.000Z</time>
      </trkpt>
      <trkpt lat="47.29575" lon="-2.25364">
        <ele>27.799999237061</ele>
        <time>2019-10-13T09:07:31.000Z</time>
      </trkpt>
      <trkpt lat="47.29577" lon="-2.25372">
        <ele>28.200000762939</ele>
        <time>2019-10-13T09:07:32.000Z</time>
      </trkpt>
      <trkpt lat="47.2958" lon="-2.25381">
        <ele>28.60000038147</ele>
        <time>2019-10-13T09:07:33.000Z</time>
      </trkpt>
      <trkpt lat="47.29582" lon="-2.25389">
        <ele>29</ele>
        <time>2019-10-13T09:07:34.000Z</time>
      </trkpt>
      <trkpt lat="47.29584" lon="-2.25398">
        <ele>29.39999961853</ele>
        <time>2019-10-13T09:07:35.000Z</time>
      </trkpt>
      <trkpt lat="47.29585" lon="-2.25407">
        <ele>30</ele>
        <time>2019-10-13T09:07:36.000Z</time>
      </trkpt>
      <trkpt lat="47.29586" lon="-2.25416">
        <ele>30</ele>
        <time>2019-10-13T09:07:37.000Z</time>
      </trkpt>
      <trkpt lat="47.29589" lon="-2.25472">
        <ele>30.39999961853</ele>
        <time>2019-10-13T09:07:43.000Z</time>
      </trkpt>
      <trkpt lat="47.29589" lon="-2.25482">
        <ele>30.799999237061</ele>
        <time>2019-10-13T09:07:44.000Z</time>
      </trkpt>
      <trkpt lat="47.29585" lon="-2.25508">
        <ele>32</ele>
        <time>2019-10-13T09:07:45.000Z</time>
      </trkpt>
      <trkpt lat="47.29583" lon="-2.25516">
        <ele>32</ele>
        <time>2019-10-13T09:07:48.000Z</time>
      </trkpt>
      <trkpt lat="47.29564" lon="-2.25541">
        <ele>32.400001525879</ele>
        <time>2019-10-13T09:07:50.000Z</time>
      </trkpt>
      <trkpt lat="47.29564" lon="-2.25541">
        <ele>32.400001525879</ele>
        <time>2019-10-13T09:07:52.000Z</time>
      </trkpt>
      <trkpt lat="47.29559" lon="-2.25545">
        <ele>32.799999237061</ele>
        <time>2019-10-13T09:07:53.000Z</time>
      </trkpt>
      <trkpt lat="47.29553" lon="-2.25549">
        <ele>33.200000762939</ele>
        <time>2019-10-13T09:07:54.000Z</time>
      </trkpt>
      <trkpt lat="47.29547" lon="-2.25554">
        <ele>33.799999237061</ele>
        <time>2019-10-13T09:07:55.000Z</time>
      </trkpt>
      <trkpt lat="47.29541" lon="-2.25558">
        <ele>34.200000762939</ele>
        <time>2019-10-13T09:07:56.000Z</time>
      </trkpt>
      <trkpt lat="47.29535" lon="-2.25561">
        <ele>34.200000762939</ele>
        <time>2019-10-13T09:07:57.000Z</time>
      </trkpt>
      <trkpt lat="47.29494" lon="-2.2559">
        <ele>34.200000762939</ele>
        <time>2019-10-13T09:08:04.000Z</time>
      </trkpt>
      <trkpt lat="47.2945" lon="-2.2561">
        <ele>34.200000762939</ele>
        <time>2019-10-13T09:08:11.000Z</time>
      </trkpt>
      <trkpt lat="47.294" lon="-2.25631">
        <ele>34.200000762939</ele>
        <time>2019-10-13T09:08:19.000Z</time>
      </trkpt>
      <trkpt lat="47.29395" lon="-2.25636">
        <ele>34.200000762939</ele>
        <time>2019-10-13T09:08:20.000Z</time>
      </trkpt>
      <trkpt lat="47.29388" lon="-2.25653">
        <ele>34.200000762939</ele>
        <time>2019-10-13T09:08:22.000Z</time>
      </trkpt>
      <trkpt lat="47.29384" lon="-2.25682">
        <ele>34.200000762939</ele>
        <time>2019-10-13T09:08:25.000Z</time>
      </trkpt>
      <trkpt lat="47.29383" lon="-2.25692">
        <ele>34.200000762939</ele>
        <time>2019-10-13T09:08:26.000Z</time>
      </trkpt>
      <trkpt lat="47.29375" lon="-2.25719">
        <ele>34.200000762939</ele>
        <time>2019-10-13T09:08:29.000Z</time>
      </trkpt>
      <trkpt lat="47.29371" lon="-2.25728">
        <ele>34.200000762939</ele>
        <time>2019-10-13T09:08:30.000Z</time>
      </trkpt>
      <trkpt lat="47.29356" lon="-2.25746">
        <ele>34.200000762939</ele>
        <time>2019-10-13T09:08:33.000Z</time>
      </trkpt>
      <trkpt lat="47.29352" lon="-2.25751">
        <ele>34.200000762939</ele>
        <time>2019-10-13T09:08:34.000Z</time>
      </trkpt>
      <trkpt lat="47.29347" lon="-2.25755">
        <ele>34.200000762939</ele>
        <time>2019-10-13T09:08:35.000Z</time>
      </trkpt>
      <trkpt lat="47.29338" lon="-2.25763">
        <ele>34.200000762939</ele>
        <time>2019-10-13T09:08:37.000Z</time>
      </trkpt>
      <trkpt lat="47.29322" lon="-2.25781">
        <ele>34.200000762939</ele>
        <time>2019-10-13T09:08:42.000Z</time>
      </trkpt>
      <trkpt lat="47.29323" lon="-2.25784">
        <ele>34.200000762939</ele>
        <time>2019-10-13T09:08:43.000Z</time>
      </trkpt>
      <trkpt lat="47.29323" lon="-2.25788">
        <ele>34.200000762939</ele>
        <time>2019-10-13T09:08:45.000Z</time>
      </trkpt>
      <trkpt lat="47.29327" lon="-2.2579">
        <ele>34.200000762939</ele>
        <time>2019-10-13T09:08:48.000Z</time>
      </trkpt>
      <trkpt lat="47.2933" lon="-2.25792">
        <ele>34.200000762939</ele>
        <time>2019-10-13T09:08:49.000Z</time>
      </trkpt>
      <trkpt lat="47.29344" lon="-2.25797">
        <ele>33.799999237061</ele>
        <time>2019-10-13T09:08:55.000Z</time>
      </trkpt>
      <trkpt lat="47.29347" lon="-2.25796">
        <ele>33.400001525879</ele>
        <time>2019-10-13T09:08:56.000Z</time>
      </trkpt>
      <trkpt lat="47.29349" lon="-2.25795">
        <ele>32.799999237061</ele>
        <time>2019-10-13T09:08:57.000Z</time>
      </trkpt>
      <trkpt lat="47.2935" lon="-2.25793">
        <ele>32.400001525879</ele>
        <time>2019-10-13T09:08:58.000Z</time>
      </trkpt>
      <trkpt lat="47.2935" lon="-2.25791">
        <ele>32</ele>
        <time>2019-10-13T09:08:59.000Z</time>
      </trkpt>
      <trkpt lat="47.29354" lon="-2.25782">
        <ele>32</ele>
        <time>2019-10-13T09:09:05.000Z</time>
      </trkpt>
      <trkpt lat="47.29354" lon="-2.25781">
        <ele>32</ele>
        <time>2019-10-13T09:09:06.000Z</time>
      </trkpt>
      <trkpt lat="47.29361" lon="-2.25796">
        <ele>32</ele>
        <time>2019-10-13T09:09:44.000Z</time>
      </trkpt>
      <trkpt lat="47.29363" lon="-2.258">
        <ele>32</ele>
        <time>2019-10-13T09:09:46.000Z</time>
      </trkpt>
      <trkpt lat="47.29367" lon="-2.25807">
        <ele>32</ele>
        <time>2019-10-13T09:09:49.000Z</time>
      </trkpt>
      <trkpt lat="47.29369" lon="-2.25813">
        <ele>32</ele>
        <time>2019-10-13T09:09:54.000Z</time>
      </trkpt>
      <trkpt lat="47.29369" lon="-2.25817">
        <ele>32</ele>
        <time>2019-10-13T09:09:56.000Z</time>
      </trkpt>
      <trkpt lat="47.29366" lon="-2.25859">
        <ele>32</ele>
        <time>2019-10-13T09:10:15.000Z</time>
      </trkpt>
      <trkpt lat="47.29369" lon="-2.25865">
        <ele>32</ele>
        <time>2019-10-13T09:10:16.000Z</time>
      </trkpt>
      <trkpt lat="47.29369" lon="-2.25865">
        <ele>32</ele>
        <time>2019-10-13T09:10:18.000Z</time>
      </trkpt>
      <trkpt lat="47.29377" lon="-2.25875">
        <ele>32</ele>
        <time>2019-10-13T09:10:20.000Z</time>
      </trkpt>
      <trkpt lat="47.29378" lon="-2.25882">
        <ele>32</ele>
        <time>2019-10-13T09:10:24.000Z</time>
      </trkpt>
      <trkpt lat="47.29375" lon="-2.25897">
        <ele>32</ele>
        <time>2019-10-13T09:10:29.000Z</time>
      </trkpt>
      <trkpt lat="47.29376" lon="-2.25901">
        <ele>32</ele>
        <time>2019-10-13T09:10:30.000Z</time>
      </trkpt>
      <trkpt lat="47.29379" lon="-2.25908">
        <ele>32</ele>
        <time>2019-10-13T09:10:33.000Z</time>
      </trkpt>
      <trkpt lat="47.29383" lon="-2.25928">
        <ele>32</ele>
        <time>2019-10-13T09:10:38.000Z</time>
      </trkpt>
      <trkpt lat="47.29383" lon="-2.25933">
        <ele>32</ele>
        <time>2019-10-13T09:10:39.000Z</time>
      </trkpt>
      <trkpt lat="47.29377" lon="-2.25941">
        <ele>32</ele>
        <time>2019-10-13T09:10:41.000Z</time>
      </trkpt>
      <trkpt lat="47.29366" lon="-2.25959">
        <ele>32</ele>
        <time>2019-10-13T09:10:45.000Z</time>
      </trkpt>
      <trkpt lat="47.29351" lon="-2.25969">
        <ele>32</ele>
        <time>2019-10-13T09:10:49.000Z</time>
      </trkpt>
      <trkpt lat="47.29334" lon="-2.25965">
        <ele>32</ele>
        <time>2019-10-13T09:10:53.000Z</time>
      </trkpt>
      <trkpt lat="47.29319" lon="-2.25966">
        <ele>32</ele>
        <time>2019-10-13T09:10:57.000Z</time>
      </trkpt>
      <trkpt lat="47.29302" lon="-2.25963">
        <ele>32</ele>
        <time>2019-10-13T09:11:02.000Z</time>
      </trkpt>
      <trkpt lat="47.293" lon="-2.2596">
        <ele>32</ele>
        <time>2019-10-13T09:11:03.000Z</time>
      </trkpt>
      <trkpt lat="47.29295" lon="-2.25948">
        <ele>32</ele>
        <time>2019-10-13T09:11:06.000Z</time>
      </trkpt>
      <trkpt lat="47.29292" lon="-2.25937">
        <ele>32</ele>
        <time>2019-10-13T09:11:09.000Z</time>
      </trkpt>
      <trkpt lat="47.29292" lon="-2.25931">
        <ele>32</ele>
        <time>2019-10-13T09:11:10.000Z</time>
      </trkpt>
      <trkpt lat="47.29293" lon="-2.2593">
        <ele>32</ele>
        <time>2019-10-13T09:11:13.000Z</time>
      </trkpt>
      <trkpt lat="47.29301" lon="-2.2592">
        <ele>32</ele>
        <time>2019-10-13T09:11:17.000Z</time>
      </trkpt>
      <trkpt lat="47.29303" lon="-2.25917">
        <ele>32</ele>
        <time>2019-10-13T09:11:18.000Z</time>
      </trkpt>
      <trkpt lat="47.29307" lon="-2.25915">
        <ele>32</ele>
        <time>2019-10-13T09:11:20.000Z</time>
      </trkpt>
      <trkpt lat="47.29309" lon="-2.25913">
        <ele>32</ele>
        <time>2019-10-13T09:11:22.000Z</time>
      </trkpt>
      <trkpt lat="47.29309" lon="-2.25897">
        <ele>32</ele>
        <time>2019-10-13T09:11:26.000Z</time>
      </trkpt>
      <trkpt lat="47.29308" lon="-2.25893">
        <ele>32</ele>
        <time>2019-10-13T09:11:27.000Z</time>
      </trkpt>
      <trkpt lat="47.29301" lon="-2.25876">
        <ele>32</ele>
        <time>2019-10-13T09:11:32.000Z</time>
      </trkpt>
      <trkpt lat="47.29299" lon="-2.25871">
        <ele>32.400001525879</ele>
        <time>2019-10-13T09:11:34.000Z</time>
      </trkpt>
      <trkpt lat="47.29298" lon="-2.25868">
        <ele>33.200000762939</ele>
        <time>2019-10-13T09:11:35.000Z</time>
      </trkpt>
      <trkpt lat="47.29296" lon="-2.25865">
        <ele>33.599998474121</ele>
        <time>2019-10-13T09:11:36.000Z</time>
      </trkpt>
      <trkpt lat="47.29295" lon="-2.25863">
        <ele>34</ele>
        <time>2019-10-13T09:11:37.000Z</time>
      </trkpt>
      <trkpt lat="47.29296" lon="-2.25858">
        <ele>34</ele>
        <time>2019-10-13T09:11:39.000Z</time>
      </trkpt>
      <trkpt lat="47.29301" lon="-2.25859">
        <ele>34</ele>
        <time>2019-10-13T09:11:41.000Z</time>
      </trkpt>
      <trkpt lat="47.29308" lon="-2.25867">
        <ele>34</ele>
        <time>2019-10-13T09:11:44.000Z</time>
      </trkpt>
      <trkpt lat="47.29312" lon="-2.25873">
        <ele>34</ele>
        <time>2019-10-13T09:11:46.000Z</time>
      </trkpt>
      <trkpt lat="47.29322" lon="-2.25889">
        <ele>34</ele>
        <time>2019-10-13T09:11:50.000Z</time>
      </trkpt>
      <trkpt lat="47.29326" lon="-2.25893">
        <ele>34</ele>
        <time>2019-10-13T09:11:51.000Z</time>
      </trkpt>
      <trkpt lat="47.29338" lon="-2.25899">
        <ele>34</ele>
        <time>2019-10-13T09:11:55.000Z</time>
      </trkpt>
      <trkpt lat="47.2934" lon="-2.259">
        <ele>34</ele>
        <time>2019-10-13T09:11:57.000Z</time>
      </trkpt>
      <trkpt lat="47.29343" lon="-2.25897">
        <ele>34</ele>
        <time>2019-10-13T09:11:59.000Z</time>
      </trkpt>
      <trkpt lat="47.29343" lon="-2.25896">
        <ele>33.599998474121</ele>
        <time>2019-10-13T09:12:00.000Z</time>
      </trkpt>
      <trkpt lat="47.29343" lon="-2.25889">
        <ele>32.400001525879</ele>
        <time>2019-10-13T09:12:01.000Z</time>
      </trkpt>
      <trkpt lat="47.29344" lon="-2.25886">
        <ele>32</ele>
        <time>2019-10-13T09:12:04.000Z</time>
      </trkpt>
      <trkpt lat="47.29351" lon="-2.25875">
        <ele>32</ele>
        <time>2019-10-13T09:12:09.000Z</time>
      </trkpt>
      <trkpt lat="47.29363" lon="-2.25869">
        <ele>32</ele>
        <time>2019-10-13T09:12:14.000Z</time>
      </trkpt>
      <trkpt lat="47.29372" lon="-2.25869">
        <ele>32</ele>
        <time>2019-10-13T09:12:19.000Z</time>
      </trkpt>
      <trkpt lat="47.29392" lon="-2.2586">
        <ele>32</ele>
        <time>2019-10-13T09:12:24.000Z</time>
      </trkpt>
      <trkpt lat="47.29392" lon="-2.2586">
        <ele>32</ele>
        <time>2019-10-13T09:12:26.000Z</time>
      </trkpt>
      <trkpt lat="47.29408" lon="-2.2586">
        <ele>32</ele>
        <time>2019-10-13T09:12:31.000Z</time>
      </trkpt>
      <trkpt lat="47.29427" lon="-2.25867">
        <ele>32</ele>
        <time>2019-10-13T09:12:35.000Z</time>
      </trkpt>
      <trkpt lat="47.29432" lon="-2.25879">
        <ele>31.60000038147</ele>
        <time>2019-10-13T09:12:37.000Z</time>
      </trkpt>
      <trkpt lat="47.29434" lon="-2.25886">
        <ele>31.200000762939</ele>
        <time>2019-10-13T09:12:38.000Z</time>
      </trkpt>
      <trkpt lat="47.29436" lon="-2.25893">
        <ele>30.799999237061</ele>
        <time>2019-10-13T09:12:39.000Z</time>
      </trkpt>
      <trkpt lat="47.29437" lon="-2.25901">
        <ele>30.39999961853</ele>
        <time>2019-10-13T09:12:40.000Z</time>
      </trkpt>
      <trkpt lat="47.29438" lon="-2.2591">
        <ele>30</ele>
        <time>2019-10-13T09:12:41.000Z</time>
      </trkpt>
      <trkpt lat="47.2944" lon="-2.2592">
        <ele>30</ele>
        <time>2019-10-13T09:12:43.000Z</time>
      </trkpt>
      <trkpt lat="47.29439" lon="-2.25931">
        <ele>30</ele>
        <time>2019-10-13T09:12:46.000Z</time>
      </trkpt>
      <trkpt lat="47.29436" lon="-2.25938">
        <ele>30</ele>
        <time>2019-10-13T09:12:48.000Z</time>
      </trkpt>
      <trkpt lat="47.29424" lon="-2.25948">
        <ele>30</ele>
        <time>2019-10-13T09:12:52.000Z</time>
      </trkpt>
      <trkpt lat="47.29408" lon="-2.25954">
        <ele>30</ele>
        <time>2019-10-13T09:12:57.000Z</time>
      </trkpt>
      <trkpt lat="47.29398" lon="-2.25956">
        <ele>30</ele>
        <time>2019-10-13T09:13:01.000Z</time>
      </trkpt>
      <trkpt lat="47.29397" lon="-2.25957">
        <ele>30</ele>
        <time>2019-10-13T09:13:02.000Z</time>
      </trkpt>
      <trkpt lat="47.29398" lon="-2.25964">
        <ele>30</ele>
        <time>2019-10-13T09:13:04.000Z</time>
      </trkpt>
      <trkpt lat="47.29399" lon="-2.25972">
        <ele>30</ele>
        <time>2019-10-13T09:13:06.000Z</time>
      </trkpt>
      <trkpt lat="47.29398" lon="-2.25988">
        <ele>30</ele>
        <time>2019-10-13T09:13:09.000Z</time>
      </trkpt>
      <trkpt lat="47.29399" lon="-2.26028">
        <ele>30</ele>
        <time>2019-10-13T09:13:15.000Z</time>
      </trkpt>
      <trkpt lat="47.29404" lon="-2.26042">
        <ele>30</ele>
        <time>2019-10-13T09:13:17.000Z</time>
      </trkpt>
      <trkpt lat="47.29409" lon="-2.26054">
        <ele>30</ele>
        <time>2019-10-13T09:13:19.000Z</time>
      </trkpt>
      <trkpt lat="47.29413" lon="-2.26066">
        <ele>30</ele>
        <time>2019-10-13T09:13:21.000Z</time>
      </trkpt>
      <trkpt lat="47.29421" lon="-2.26089">
        <ele>30</ele>
        <time>2019-10-13T09:13:25.000Z</time>
      </trkpt>
      <trkpt lat="47.2942" lon="-2.26109">
        <ele>30</ele>
        <time>2019-10-13T09:13:28.000Z</time>
      </trkpt>
      <trkpt lat="47.29416" lon="-2.2614">
        <ele>30</ele>
        <time>2019-10-13T09:13:33.000Z</time>
      </trkpt>
      <trkpt lat="47.29408" lon="-2.26159">
        <ele>30</ele>
        <time>2019-10-13T09:13:37.000Z</time>
      </trkpt>
      <trkpt lat="47.29393" lon="-2.26159">
        <ele>30.39999961853</ele>
        <time>2019-10-13T09:13:41.000Z</time>
      </trkpt>
      <trkpt lat="47.29389" lon="-2.26159">
        <ele>30.799999237061</ele>
        <time>2019-10-13T09:13:42.000Z</time>
      </trkpt>
      <trkpt lat="47.29386" lon="-2.26159">
        <ele>31.200000762939</ele>
        <time>2019-10-13T09:13:43.000Z</time>
      </trkpt>
      <trkpt lat="47.29382" lon="-2.26159">
        <ele>31.60000038147</ele>
        <time>2019-10-13T09:13:44.000Z</time>
      </trkpt>
      <trkpt lat="47.29379" lon="-2.2616">
        <ele>32</ele>
        <time>2019-10-13T09:13:45.000Z</time>
      </trkpt>
      <trkpt lat="47.29375" lon="-2.26161">
        <ele>32</ele>
        <time>2019-10-13T09:13:46.000Z</time>
      </trkpt>
      <trkpt lat="47.2936" lon="-2.26165">
        <ele>32</ele>
        <time>2019-10-13T09:13:50.000Z</time>
      </trkpt>
      <trkpt lat="47.29341" lon="-2.26166">
        <ele>32.400001525879</ele>
        <time>2019-10-13T09:13:55.000Z</time>
      </trkpt>
      <trkpt lat="47.29339" lon="-2.26167">
        <ele>32.799999237061</ele>
        <time>2019-10-13T09:13:56.000Z</time>
      </trkpt>
      <trkpt lat="47.29336" lon="-2.26169">
        <ele>33.200000762939</ele>
        <time>2019-10-13T09:13:57.000Z</time>
      </trkpt>
      <trkpt lat="47.29333" lon="-2.26171">
        <ele>33.599998474121</ele>
        <time>2019-10-13T09:13:58.000Z</time>
      </trkpt>
      <trkpt lat="47.2933" lon="-2.26171">
        <ele>34.200000762939</ele>
        <time>2019-10-13T09:13:59.000Z</time>
      </trkpt>
      <trkpt lat="47.29321" lon="-2.26173">
        <ele>34.200000762939</ele>
        <time>2019-10-13T09:14:02.000Z</time>
      </trkpt>
      <trkpt lat="47.29317" lon="-2.26176">
        <ele>34.200000762939</ele>
        <time>2019-10-13T09:14:05.000Z</time>
      </trkpt>
      <trkpt lat="47.29316" lon="-2.2618">
        <ele>34.200000762939</ele>
        <time>2019-10-13T09:14:07.000Z</time>
      </trkpt>
      <trkpt lat="47.29314" lon="-2.26181">
        <ele>34.599998474121</ele>
        <time>2019-10-13T09:14:08.000Z</time>
      </trkpt>
      <trkpt lat="47.29311" lon="-2.26183">
        <ele>35</ele>
        <time>2019-10-13T09:14:09.000Z</time>
      </trkpt>
      <trkpt lat="47.29308" lon="-2.26183">
        <ele>35.400001525879</ele>
        <time>2019-10-13T09:14:10.000Z</time>
      </trkpt>
      <trkpt lat="47.29304" lon="-2.26182">
        <ele>35.799999237061</ele>
        <time>2019-10-13T09:14:11.000Z</time>
      </trkpt>
      <trkpt lat="47.293" lon="-2.26182">
        <ele>36.200000762939</ele>
        <time>2019-10-13T09:14:12.000Z</time>
      </trkpt>
      <trkpt lat="47.29292" lon="-2.26181">
        <ele>36.200000762939</ele>
        <time>2019-10-13T09:14:14.000Z</time>
      </trkpt>
      <trkpt lat="47.29274" lon="-2.2618">
        <ele>36.200000762939</ele>
        <time>2019-10-13T09:14:19.000Z</time>
      </trkpt>
      <trkpt lat="47.29268" lon="-2.26181">
        <ele>36.200000762939</ele>
        <time>2019-10-13T09:14:21.000Z</time>
      </trkpt>
      <trkpt lat="47.29264" lon="-2.26187">
        <ele>36.200000762939</ele>
        <time>2019-10-13T09:14:23.000Z</time>
      </trkpt>
      <trkpt lat="47.29255" lon="-2.26202">
        <ele>36.200000762939</ele>
        <time>2019-10-13T09:14:27.000Z</time>
      </trkpt>
      <trkpt lat="47.29242" lon="-2.26204">
        <ele>36.200000762939</ele>
        <time>2019-10-13T09:14:30.000Z</time>
      </trkpt>
      <trkpt lat="47.29233" lon="-2.26204">
        <ele>36.200000762939</ele>
        <time>2019-10-13T09:14:32.000Z</time>
      </trkpt>
      <trkpt lat="47.29225" lon="-2.26206">
        <ele>36.200000762939</ele>
        <time>2019-10-13T09:14:34.000Z</time>
      </trkpt>
      <trkpt lat="47.29216" lon="-2.26209">
        <ele>36.200000762939</ele>
        <time>2019-10-13T09:14:36.000Z</time>
      </trkpt>
      <trkpt lat="47.29197" lon="-2.26215">
        <ele>36.200000762939</ele>
        <time>2019-10-13T09:14:40.000Z</time>
      </trkpt>
      <trkpt lat="47.29188" lon="-2.26219">
        <ele>36.200000762939</ele>
        <time>2019-10-13T09:14:42.000Z</time>
      </trkpt>
      <trkpt lat="47.29184" lon="-2.26221">
        <ele>36.200000762939</ele>
        <time>2019-10-13T09:14:43.000Z</time>
      </trkpt>
      <trkpt lat="47.29166" lon="-2.26226">
        <ele>36.200000762939</ele>
        <time>2019-10-13T09:14:47.000Z</time>
      </trkpt>
      <trkpt lat="47.29149" lon="-2.26233">
        <ele>36.200000762939</ele>
        <time>2019-10-13T09:14:49.000Z</time>
      </trkpt>
      <trkpt lat="47.29139" lon="-2.26238">
        <ele>36.200000762939</ele>
        <time>2019-10-13T09:14:53.000Z</time>
      </trkpt>
      <trkpt lat="47.29133" lon="-2.26246">
        <ele>36.200000762939</ele>
        <time>2019-10-13T09:14:54.000Z</time>
      </trkpt>
      <trkpt lat="47.29136" lon="-2.26262">
        <ele>36.200000762939</ele>
        <time>2019-10-13T09:14:58.000Z</time>
      </trkpt>
      <trkpt lat="47.29145" lon="-2.26308">
        <ele>36.200000762939</ele>
        <time>2019-10-13T09:15:08.000Z</time>
      </trkpt>
      <trkpt lat="47.29155" lon="-2.26369">
        <ele>36.200000762939</ele>
        <time>2019-10-13T09:15:16.000Z</time>
      </trkpt>
      <trkpt lat="47.29158" lon="-2.26388">
        <ele>35.799999237061</ele>
        <time>2019-10-13T09:15:18.000Z</time>
      </trkpt>
      <trkpt lat="47.29159" lon="-2.26397">
        <ele>35.400001525879</ele>
        <time>2019-10-13T09:15:19.000Z</time>
      </trkpt>
      <trkpt lat="47.2916" lon="-2.26407">
        <ele>34.799999237061</ele>
        <time>2019-10-13T09:15:20.000Z</time>
      </trkpt>
      <trkpt lat="47.29162" lon="-2.26418">
        <ele>34.400001525879</ele>
        <time>2019-10-13T09:15:21.000Z</time>
      </trkpt>
      <trkpt lat="47.29164" lon="-2.26449">
        <ele>34</ele>
        <time>2019-10-13T09:15:22.000Z</time>
      </trkpt>
      <trkpt lat="47.29161" lon="-2.26506">
        <ele>33.599998474121</ele>
        <time>2019-10-13T09:15:29.000Z</time>
      </trkpt>
      <trkpt lat="47.2916" lon="-2.26518">
        <ele>33.200000762939</ele>
        <time>2019-10-13T09:15:30.000Z</time>
      </trkpt>
      <trkpt lat="47.29159" lon="-2.26529">
        <ele>32.599998474121</ele>
        <time>2019-10-13T09:15:31.000Z</time>
      </trkpt>
      <trkpt lat="47.29162" lon="-2.26575">
        <ele>31.799999237061</ele>
        <time>2019-10-13T09:15:32.000Z</time>
      </trkpt>
      <trkpt lat="47.29162" lon="-2.26575">
        <ele>31.799999237061</ele>
        <time>2019-10-13T09:15:35.000Z</time>
      </trkpt>
      <trkpt lat="47.29165" lon="-2.26586">
        <ele>31.799999237061</ele>
        <time>2019-10-13T09:15:36.000Z</time>
      </trkpt>
      <trkpt lat="47.29172" lon="-2.26608">
        <ele>31.799999237061</ele>
        <time>2019-10-13T09:15:38.000Z</time>
      </trkpt>
      <trkpt lat="47.29176" lon="-2.26618">
        <ele>31.39999961853</ele>
        <time>2019-10-13T09:15:39.000Z</time>
      </trkpt>
      <trkpt lat="47.29179" lon="-2.26629">
        <ele>31</ele>
        <time>2019-10-13T09:15:40.000Z</time>
      </trkpt>
      <trkpt lat="47.29183" lon="-2.26639">
        <ele>30.60000038147</ele>
        <time>2019-10-13T09:15:41.000Z</time>
      </trkpt>
      <trkpt lat="47.29186" lon="-2.2665">
        <ele>30.200000762939</ele>
        <time>2019-10-13T09:15:42.000Z</time>
      </trkpt>
      <trkpt lat="47.29189" lon="-2.2666">
        <ele>29.60000038147</ele>
        <time>2019-10-13T09:15:43.000Z</time>
      </trkpt>
      <trkpt lat="47.29195" lon="-2.26679">
        <ele>29.60000038147</ele>
        <time>2019-10-13T09:15:45.000Z</time>
      </trkpt>
      <trkpt lat="47.29208" lon="-2.26728">
        <ele>29.200000762939</ele>
        <time>2019-10-13T09:15:50.000Z</time>
      </trkpt>
      <trkpt lat="47.29214" lon="-2.26761">
        <ele>28</ele>
        <time>2019-10-13T09:15:51.000Z</time>
      </trkpt>
      <trkpt lat="47.29214" lon="-2.26761">
        <ele>28</ele>
        <time>2019-10-13T09:15:53.000Z</time>
      </trkpt>
      <trkpt lat="47.29216" lon="-2.26771">
        <ele>27.60000038147</ele>
        <time>2019-10-13T09:15:54.000Z</time>
      </trkpt>
      <trkpt lat="47.29229" lon="-2.26845">
        <ele>27.60000038147</ele>
        <time>2019-10-13T09:16:01.000Z</time>
      </trkpt>
      <trkpt lat="47.29233" lon="-2.26873">
        <ele>27.60000038147</ele>
        <time>2019-10-13T09:16:04.000Z</time>
      </trkpt>
      <trkpt lat="47.29234" lon="-2.26899">
        <ele>27.60000038147</ele>
        <time>2019-10-13T09:16:07.000Z</time>
      </trkpt>
      <trkpt lat="47.29235" lon="-2.26923">
        <ele>27.60000038147</ele>
        <time>2019-10-13T09:16:11.000Z</time>
      </trkpt>
      <trkpt lat="47.29233" lon="-2.26926">
        <ele>27.60000038147</ele>
        <time>2019-10-13T09:16:12.000Z</time>
      </trkpt>
      <trkpt lat="47.29229" lon="-2.2693">
        <ele>27.60000038147</ele>
        <time>2019-10-13T09:16:14.000Z</time>
      </trkpt>
      <trkpt lat="47.29226" lon="-2.26936">
        <ele>27.60000038147</ele>
        <time>2019-10-13T09:16:17.000Z</time>
      </trkpt>
      <trkpt lat="47.29226" lon="-2.26942">
        <ele>27.60000038147</ele>
        <time>2019-10-13T09:16:20.000Z</time>
      </trkpt>
      <trkpt lat="47.29226" lon="-2.2697">
        <ele>27.60000038147</ele>
        <time>2019-10-13T09:16:28.000Z</time>
      </trkpt>
      <trkpt lat="47.29224" lon="-2.27002">
        <ele>27.60000038147</ele>
        <time>2019-10-13T09:16:34.000Z</time>
      </trkpt>
      <trkpt lat="47.29226" lon="-2.27022">
        <ele>27.60000038147</ele>
        <time>2019-10-13T09:16:37.000Z</time>
      </trkpt>
      <trkpt lat="47.29228" lon="-2.27041">
        <ele>27.60000038147</ele>
        <time>2019-10-13T09:16:40.000Z</time>
      </trkpt>
      <trkpt lat="47.29229" lon="-2.27048">
        <ele>27.60000038147</ele>
        <time>2019-10-13T09:16:41.000Z</time>
      </trkpt>
      <trkpt lat="47.29229" lon="-2.27073">
        <ele>27.60000038147</ele>
        <time>2019-10-13T09:16:45.000Z</time>
      </trkpt>
      <trkpt lat="47.2923" lon="-2.2708">
        <ele>27.60000038147</ele>
        <time>2019-10-13T09:16:46.000Z</time>
      </trkpt>
      <trkpt lat="47.29233" lon="-2.271">
        <ele>27.60000038147</ele>
        <time>2019-10-13T09:16:49.000Z</time>
      </trkpt>
      <trkpt lat="47.29222" lon="-2.27147">
        <ele>27.60000038147</ele>
        <time>2019-10-13T09:16:53.000Z</time>
      </trkpt>
      <trkpt lat="47.29222" lon="-2.27147">
        <ele>27.60000038147</ele>
        <time>2019-10-13T09:16:56.000Z</time>
      </trkpt>
      <trkpt lat="47.29219" lon="-2.27152">
        <ele>27.60000038147</ele>
        <time>2019-10-13T09:16:57.000Z</time>
      </trkpt>
      <trkpt lat="47.29203" lon="-2.27167">
        <ele>27.60000038147</ele>
        <time>2019-10-13T09:16:59.000Z</time>
      </trkpt>
      <trkpt lat="47.29203" lon="-2.27167">
        <ele>27.60000038147</ele>
        <time>2019-10-13T09:17:01.000Z</time>
      </trkpt>
      <trkpt lat="47.29197" lon="-2.27168">
        <ele>27.60000038147</ele>
        <time>2019-10-13T09:17:02.000Z</time>
      </trkpt>
      <trkpt lat="47.29178" lon="-2.27177">
        <ele>27.60000038147</ele>
        <time>2019-10-13T09:17:05.000Z</time>
      </trkpt>
      <trkpt lat="47.29164" lon="-2.2718">
        <ele>27.60000038147</ele>
        <time>2019-10-13T09:17:09.000Z</time>
      </trkpt>
      <trkpt lat="47.29153" lon="-2.27183">
        <ele>27.60000038147</ele>
        <time>2019-10-13T09:17:13.000Z</time>
      </trkpt>
      <trkpt lat="47.29144" lon="-2.27186">
        <ele>27.60000038147</ele>
        <time>2019-10-13T09:17:17.000Z</time>
      </trkpt>
      <trkpt lat="47.29137" lon="-2.27187">
        <ele>27.60000038147</ele>
        <time>2019-10-13T09:17:20.000Z</time>
      </trkpt>
      <trkpt lat="47.29135" lon="-2.2719">
        <ele>27.60000038147</ele>
        <time>2019-10-13T09:17:21.000Z</time>
      </trkpt>
      <trkpt lat="47.29131" lon="-2.27204">
        <ele>27.60000038147</ele>
        <time>2019-10-13T09:17:24.000Z</time>
      </trkpt>
      <trkpt lat="47.29127" lon="-2.27222">
        <ele>27.60000038147</ele>
        <time>2019-10-13T09:17:28.000Z</time>
      </trkpt>
      <trkpt lat="47.29122" lon="-2.27243">
        <ele>27.60000038147</ele>
        <time>2019-10-13T09:17:32.000Z</time>
      </trkpt>
      <trkpt lat="47.29121" lon="-2.27248">
        <ele>27.60000038147</ele>
        <time>2019-10-13T09:17:33.000Z</time>
      </trkpt>
      <trkpt lat="47.29113" lon="-2.27285">
        <ele>27.60000038147</ele>
        <time>2019-10-13T09:17:39.000Z</time>
      </trkpt>
      <trkpt lat="47.29107" lon="-2.27311">
        <ele>27.60000038147</ele>
        <time>2019-10-13T09:17:44.000Z</time>
      </trkpt>
      <trkpt lat="47.29099" lon="-2.27348">
        <ele>27.60000038147</ele>
        <time>2019-10-13T09:17:51.000Z</time>
      </trkpt>
      <trkpt lat="47.29105" lon="-2.2738">
        <ele>27.60000038147</ele>
        <time>2019-10-13T09:17:56.000Z</time>
      </trkpt>
      <trkpt lat="47.29107" lon="-2.27388">
        <ele>27.60000038147</ele>
        <time>2019-10-13T09:17:57.000Z</time>
      </trkpt>
      <trkpt lat="47.29108" lon="-2.27402">
        <ele>27.60000038147</ele>
        <time>2019-10-13T09:17:59.000Z</time>
      </trkpt>
      <trkpt lat="47.29107" lon="-2.27418">
        <ele>27.60000038147</ele>
        <time>2019-10-13T09:18:01.000Z</time>
      </trkpt>
      <trkpt lat="47.29107" lon="-2.27434">
        <ele>27.60000038147</ele>
        <time>2019-10-13T09:18:03.000Z</time>
      </trkpt>
      <trkpt lat="47.29105" lon="-2.27458">
        <ele>27.60000038147</ele>
        <time>2019-10-13T09:18:06.000Z</time>
      </trkpt>
      <trkpt lat="47.29104" lon="-2.27508">
        <ele>27.60000038147</ele>
        <time>2019-10-13T09:18:13.000Z</time>
      </trkpt>
      <trkpt lat="47.29102" lon="-2.27525">
        <ele>27.60000038147</ele>
        <time>2019-10-13T09:18:17.000Z</time>
      </trkpt>
      <trkpt lat="47.29099" lon="-2.27526">
        <ele>27.60000038147</ele>
        <time>2019-10-13T09:18:18.000Z</time>
      </trkpt>
      <trkpt lat="47.29081" lon="-2.27527">
        <ele>27.60000038147</ele>
        <time>2019-10-13T09:18:20.000Z</time>
      </trkpt>
      <trkpt lat="47.29062" lon="-2.27525">
        <ele>28</ele>
        <time>2019-10-13T09:18:26.000Z</time>
      </trkpt>
      <trkpt lat="47.29057" lon="-2.27524">
        <ele>28.39999961853</ele>
        <time>2019-10-13T09:18:27.000Z</time>
      </trkpt>
      <trkpt lat="47.29052" lon="-2.27523">
        <ele>28.799999237061</ele>
        <time>2019-10-13T09:18:28.000Z</time>
      </trkpt>
      <trkpt lat="47.29046" lon="-2.27523">
        <ele>29.200000762939</ele>
        <time>2019-10-13T09:18:29.000Z</time>
      </trkpt>
      <trkpt lat="47.29041" lon="-2.27522">
        <ele>29.60000038147</ele>
        <time>2019-10-13T09:18:30.000Z</time>
      </trkpt>
      <trkpt lat="47.29015" lon="-2.27521">
        <ele>29.60000038147</ele>
        <time>2019-10-13T09:18:35.000Z</time>
      </trkpt>
      <trkpt lat="47.28967" lon="-2.2752">
        <ele>29.60000038147</ele>
        <time>2019-10-13T09:18:45.000Z</time>
      </trkpt>
      <trkpt lat="47.28929" lon="-2.2752">
        <ele>29.60000038147</ele>
        <time>2019-10-13T09:18:52.000Z</time>
      </trkpt>
      <trkpt lat="47.28914" lon="-2.2752">
        <ele>29.60000038147</ele>
        <time>2019-10-13T09:18:55.000Z</time>
      </trkpt>
      <trkpt lat="47.28903" lon="-2.27522">
        <ele>29.60000038147</ele>
        <time>2019-10-13T09:18:57.000Z</time>
      </trkpt>
      <trkpt lat="47.2887" lon="-2.27528">
        <ele>29.60000038147</ele>
        <time>2019-10-13T09:19:04.000Z</time>
      </trkpt>
      <trkpt lat="47.28848" lon="-2.27532">
        <ele>29.60000038147</ele>
        <time>2019-10-13T09:19:10.000Z</time>
      </trkpt>
      <trkpt lat="47.28829" lon="-2.27537">
        <ele>29.60000038147</ele>
        <time>2019-10-13T09:19:17.000Z</time>
      </trkpt>
      <trkpt lat="47.28815" lon="-2.27542">
        <ele>29.60000038147</ele>
        <time>2019-10-13T09:19:22.000Z</time>
      </trkpt>
      <trkpt lat="47.28799" lon="-2.27557">
        <ele>29.60000038147</ele>
        <time>2019-10-13T09:19:28.000Z</time>
      </trkpt>
      <trkpt lat="47.28787" lon="-2.27568">
        <ele>29.60000038147</ele>
        <time>2019-10-13T09:19:34.000Z</time>
      </trkpt>
      <trkpt lat="47.28778" lon="-2.27577">
        <ele>29.60000038147</ele>
        <time>2019-10-13T09:19:40.000Z</time>
      </trkpt>
      <trkpt lat="47.28769" lon="-2.27585">
        <ele>29.60000038147</ele>
        <time>2019-10-13T09:19:46.000Z</time>
      </trkpt>
      <trkpt lat="47.28759" lon="-2.27598">
        <ele>29.60000038147</ele>
        <time>2019-10-13T09:19:52.000Z</time>
      </trkpt>
      <trkpt lat="47.28746" lon="-2.27616">
        <ele>29.60000038147</ele>
        <time>2019-10-13T09:20:00.000Z</time>
      </trkpt>
      <trkpt lat="47.28738" lon="-2.27631">
        <ele>29.60000038147</ele>
        <time>2019-10-13T09:20:06.000Z</time>
      </trkpt>
      <trkpt lat="47.2873" lon="-2.27643">
        <ele>29.60000038147</ele>
        <time>2019-10-13T09:20:11.000Z</time>
      </trkpt>
      <trkpt lat="47.28714" lon="-2.2767">
        <ele>29.60000038147</ele>
        <time>2019-10-13T09:20:17.000Z</time>
      </trkpt>
      <trkpt lat="47.28703" lon="-2.27688">
        <ele>29.60000038147</ele>
        <time>2019-10-13T09:20:26.000Z</time>
      </trkpt>
      <trkpt lat="47.28688" lon="-2.27712">
        <ele>29.60000038147</ele>
        <time>2019-10-13T09:20:34.000Z</time>
      </trkpt>
      <trkpt lat="47.28676" lon="-2.2773">
        <ele>29.60000038147</ele>
        <time>2019-10-13T09:20:40.000Z</time>
      </trkpt>
      <trkpt lat="47.28664" lon="-2.27755">
        <ele>29.60000038147</ele>
        <time>2019-10-13T09:20:47.000Z</time>
      </trkpt>
      <trkpt lat="47.28655" lon="-2.27779">
        <ele>29.60000038147</ele>
        <time>2019-10-13T09:20:53.000Z</time>
      </trkpt>
      <trkpt lat="47.28649" lon="-2.27802">
        <ele>29.60000038147</ele>
        <time>2019-10-13T09:20:59.000Z</time>
      </trkpt>
      <trkpt lat="47.28643" lon="-2.27835">
        <ele>29.60000038147</ele>
        <time>2019-10-13T09:21:06.000Z</time>
      </trkpt>
      <trkpt lat="47.28637" lon="-2.27868">
        <ele>29.60000038147</ele>
        <time>2019-10-13T09:21:13.000Z</time>
      </trkpt>
      <trkpt lat="47.28632" lon="-2.27896">
        <ele>29.60000038147</ele>
        <time>2019-10-13T09:21:20.000Z</time>
      </trkpt>
      <trkpt lat="47.28631" lon="-2.27915">
        <ele>29.60000038147</ele>
        <time>2019-10-13T09:21:25.000Z</time>
      </trkpt>
      <trkpt lat="47.28628" lon="-2.27932">
        <ele>29.60000038147</ele>
        <time>2019-10-13T09:21:31.000Z</time>
      </trkpt>
      <trkpt lat="47.28626" lon="-2.27942">
        <ele>29.60000038147</ele>
        <time>2019-10-13T09:21:36.000Z</time>
      </trkpt>
      <trkpt lat="47.28624" lon="-2.27942">
        <ele>29.60000038147</ele>
        <time>2019-10-13T09:22:37.000Z</time>
      </trkpt>
      <trkpt lat="47.28613" lon="-2.27954">
        <ele>29.60000038147</ele>
        <time>2019-10-13T09:22:41.000Z</time>
      </trkpt>
      <trkpt lat="47.28606" lon="-2.27992">
        <ele>29.60000038147</ele>
        <time>2019-10-13T09:22:49.000Z</time>
      </trkpt>
      <trkpt lat="47.28593" lon="-2.28018">
        <ele>29.60000038147</ele>
        <time>2019-10-13T09:22:56.000Z</time>
      </trkpt>
      <trkpt lat="47.28577" lon="-2.28035">
        <ele>29.60000038147</ele>
        <time>2019-10-13T09:23:01.000Z</time>
      </trkpt>
      <trkpt lat="47.28568" lon="-2.28046">
        <ele>29.60000038147</ele>
        <time>2019-10-13T09:23:04.000Z</time>
      </trkpt>
      <trkpt lat="47.28558" lon="-2.2805">
        <ele>30</ele>
        <time>2019-10-13T09:23:07.000Z</time>
      </trkpt>
      <trkpt lat="47.28554" lon="-2.28051">
        <ele>30.39999961853</ele>
        <time>2019-10-13T09:23:08.000Z</time>
      </trkpt>
      <trkpt lat="47.28551" lon="-2.2805">
        <ele>31</ele>
        <time>2019-10-13T09:23:09.000Z</time>
      </trkpt>
      <trkpt lat="47.28548" lon="-2.28049">
        <ele>31.39999961853</ele>
        <time>2019-10-13T09:23:10.000Z</time>
      </trkpt>
      <trkpt lat="47.28545" lon="-2.28048">
        <ele>31.799999237061</ele>
        <time>2019-10-13T09:23:11.000Z</time>
      </trkpt>
      <trkpt lat="47.28542" lon="-2.28047">
        <ele>31.799999237061</ele>
        <time>2019-10-13T09:23:12.000Z</time>
      </trkpt>
      <trkpt lat="47.28531" lon="-2.28047">
        <ele>32.200000762939</ele>
        <time>2019-10-13T09:23:17.000Z</time>
      </trkpt>
      <trkpt lat="47.28529" lon="-2.28047">
        <ele>33</ele>
        <time>2019-10-13T09:23:18.000Z</time>
      </trkpt>
      <trkpt lat="47.28526" lon="-2.28047">
        <ele>33.400001525879</ele>
        <time>2019-10-13T09:23:19.000Z</time>
      </trkpt>
      <trkpt lat="47.28524" lon="-2.28048">
        <ele>34</ele>
        <time>2019-10-13T09:23:20.000Z</time>
      </trkpt>
      <trkpt lat="47.28517" lon="-2.28048">
        <ele>34.400001525879</ele>
        <time>2019-10-13T09:23:23.000Z</time>
      </trkpt>
      <trkpt lat="47.28515" lon="-2.28048">
        <ele>34.799999237061</ele>
        <time>2019-10-13T09:23:24.000Z</time>
      </trkpt>
      <trkpt lat="47.28513" lon="-2.28048">
        <ele>35.200000762939</ele>
        <time>2019-10-13T09:23:25.000Z</time>
      </trkpt>
      <trkpt lat="47.2851" lon="-2.28047">
        <ele>35.599998474121</ele>
        <time>2019-10-13T09:23:26.000Z</time>
      </trkpt>
      <trkpt lat="47.28509" lon="-2.28046">
        <ele>36</ele>
        <time>2019-10-13T09:23:27.000Z</time>
      </trkpt>
      <trkpt lat="47.28505" lon="-2.28043">
        <ele>36</ele>
        <time>2019-10-13T09:23:29.000Z</time>
      </trkpt>
      <trkpt lat="47.28496" lon="-2.28036">
        <ele>36.400001525879</ele>
        <time>2019-10-13T09:23:33.000Z</time>
      </trkpt>
      <trkpt lat="47.28495" lon="-2.28036">
        <ele>36.799999237061</ele>
        <time>2019-10-13T09:23:34.000Z</time>
      </trkpt>
      <trkpt lat="47.28493" lon="-2.28037">
        <ele>37.400001525879</ele>
        <time>2019-10-13T09:23:35.000Z</time>
      </trkpt>
      <trkpt lat="47.28491" lon="-2.28039">
        <ele>37.799999237061</ele>
        <time>2019-10-13T09:23:36.000Z</time>
      </trkpt>
      <trkpt lat="47.28489" lon="-2.2804">
        <ele>38.200000762939</ele>
        <time>2019-10-13T09:23:37.000Z</time>
      </trkpt>
      <trkpt lat="47.28483" lon="-2.28048">
        <ele>38.200000762939</ele>
        <time>2019-10-13T09:23:38.000Z</time>
      </trkpt>
      <trkpt lat="47.28482" lon="-2.28056">
        <ele>38.200000762939</ele>
        <time>2019-10-13T09:23:42.000Z</time>
      </trkpt>
      <trkpt lat="47.28485" lon="-2.28065">
        <ele>38.200000762939</ele>
        <time>2019-10-13T09:23:44.000Z</time>
      </trkpt>
      <trkpt lat="47.28488" lon="-2.2808">
        <ele>38.200000762939</ele>
        <time>2019-10-13T09:23:48.000Z</time>
      </trkpt>
      <trkpt lat="47.28483" lon="-2.28086">
        <ele>38.200000762939</ele>
        <time>2019-10-13T09:23:50.000Z</time>
      </trkpt>
      <trkpt lat="47.28477" lon="-2.28093">
        <ele>38.200000762939</ele>
        <time>2019-10-13T09:23:52.000Z</time>
      </trkpt>
      <trkpt lat="47.28468" lon="-2.28095">
        <ele>37.599998474121</ele>
        <time>2019-10-13T09:23:54.000Z</time>
      </trkpt>
      <trkpt lat="47.28464" lon="-2.28094">
        <ele>37.200000762939</ele>
        <time>2019-10-13T09:23:55.000Z</time>
      </trkpt>
      <trkpt lat="47.28462" lon="-2.28093">
        <ele>36.799999237061</ele>
        <time>2019-10-13T09:23:56.000Z</time>
      </trkpt>
      <trkpt lat="47.28459" lon="-2.28092">
        <ele>36.400001525879</ele>
        <time>2019-10-13T09:23:57.000Z</time>
      </trkpt>
      <trkpt lat="47.28457" lon="-2.28091">
        <ele>36</ele>
        <time>2019-10-13T09:23:58.000Z</time>
      </trkpt>
      <trkpt lat="47.28454" lon="-2.28089">
        <ele>36</ele>
        <time>2019-10-13T09:23:59.000Z</time>
      </trkpt>
      <trkpt lat="47.28449" lon="-2.28087">
        <ele>36</ele>
        <time>2019-10-13T09:24:01.000Z</time>
      </trkpt>
      <trkpt lat="47.28437" lon="-2.2809">
        <ele>36</ele>
        <time>2019-10-13T09:24:04.000Z</time>
      </trkpt>
      <trkpt lat="47.28421" lon="-2.28091">
        <ele>36</ele>
        <time>2019-10-13T09:24:11.000Z</time>
      </trkpt>
      <trkpt lat="47.28409" lon="-2.28087">
        <ele>36</ele>
        <time>2019-10-13T09:24:15.000Z</time>
      </trkpt>
      <trkpt lat="47.28394" lon="-2.28082">
        <ele>36</ele>
        <time>2019-10-13T09:24:20.000Z</time>
      </trkpt>
      <trkpt lat="47.28375" lon="-2.28078">
        <ele>36</ele>
        <time>2019-10-13T09:24:25.000Z</time>
      </trkpt>
      <trkpt lat="47.28372" lon="-2.28066">
        <ele>36</ele>
        <time>2019-10-13T09:24:33.000Z</time>
      </trkpt>
      <trkpt lat="47.28372" lon="-2.28063">
        <ele>36</ele>
        <time>2019-10-13T09:24:34.000Z</time>
      </trkpt>
      <trkpt lat="47.28371" lon="-2.28056">
        <ele>36</ele>
        <time>2019-10-13T09:24:38.000Z</time>
      </trkpt>
      <trkpt lat="47.2837" lon="-2.28057">
        <ele>36</ele>
        <time>2019-10-13T09:24:40.000Z</time>
      </trkpt>
      <trkpt lat="47.28369" lon="-2.28062">
        <ele>36</ele>
        <time>2019-10-13T09:24:42.000Z</time>
      </trkpt>
      <trkpt lat="47.28367" lon="-2.28074">
        <ele>36</ele>
        <time>2019-10-13T09:24:47.000Z</time>
      </trkpt>
      <trkpt lat="47.28363" lon="-2.2808">
        <ele>35.599998474121</ele>
        <time>2019-10-13T09:24:48.000Z</time>
      </trkpt>
      <trkpt lat="47.28361" lon="-2.28082">
        <ele>35</ele>
        <time>2019-10-13T09:24:49.000Z</time>
      </trkpt>
      <trkpt lat="47.28358" lon="-2.28083">
        <ele>34.599998474121</ele>
        <time>2019-10-13T09:24:50.000Z</time>
      </trkpt>
      <trkpt lat="47.28356" lon="-2.28084">
        <ele>34.200000762939</ele>
        <time>2019-10-13T09:24:51.000Z</time>
      </trkpt>
      <trkpt lat="47.28353" lon="-2.28084">
        <ele>33.799999237061</ele>
        <time>2019-10-13T09:24:52.000Z</time>
      </trkpt>
      <trkpt lat="47.28334" lon="-2.28089">
        <ele>33.799999237061</ele>
        <time>2019-10-13T09:24:59.000Z</time>
      </trkpt>
      <trkpt lat="47.28332" lon="-2.28093">
        <ele>33.799999237061</ele>
        <time>2019-10-13T09:25:00.000Z</time>
      </trkpt>
      <trkpt lat="47.28325" lon="-2.28119">
        <ele>33.799999237061</ele>
        <time>2019-10-13T09:25:05.000Z</time>
      </trkpt>
      <trkpt lat="47.28324" lon="-2.28157">
        <ele>34.200000762939</ele>
        <time>2019-10-13T09:25:11.000Z</time>
      </trkpt>
      <trkpt lat="47.28324" lon="-2.28163">
        <ele>34.599998474121</ele>
        <time>2019-10-13T09:25:12.000Z</time>
      </trkpt>
      <trkpt lat="47.28324" lon="-2.28169">
        <ele>35</ele>
        <time>2019-10-13T09:25:13.000Z</time>
      </trkpt>
      <trkpt lat="47.28324" lon="-2.28175">
        <ele>35.400001525879</ele>
        <time>2019-10-13T09:25:14.000Z</time>
      </trkpt>
      <trkpt lat="47.28324" lon="-2.28181">
        <ele>35.799999237061</ele>
        <time>2019-10-13T09:25:15.000Z</time>
      </trkpt>
      <trkpt lat="47.28324" lon="-2.28205">
        <ele>37</ele>
        <time>2019-10-13T09:25:17.000Z</time>
      </trkpt>
      <trkpt lat="47.28324" lon="-2.28205">
        <ele>37</ele>
        <time>2019-10-13T09:25:20.000Z</time>
      </trkpt>
      <trkpt lat="47.28324" lon="-2.28211">
        <ele>37.400001525879</ele>
        <time>2019-10-13T09:25:21.000Z</time>
      </trkpt>
      <trkpt lat="47.28324" lon="-2.28217">
        <ele>37.799999237061</ele>
        <time>2019-10-13T09:25:22.000Z</time>
      </trkpt>
      <trkpt lat="47.28325" lon="-2.28247">
        <ele>38.400001525879</ele>
        <time>2019-10-13T09:25:27.000Z</time>
      </trkpt>
      <trkpt lat="47.28325" lon="-2.28252">
        <ele>38.799999237061</ele>
        <time>2019-10-13T09:25:28.000Z</time>
      </trkpt>
      <trkpt lat="47.28325" lon="-2.28258">
        <ele>39.200000762939</ele>
        <time>2019-10-13T09:25:29.000Z</time>
      </trkpt>
      <trkpt lat="47.28325" lon="-2.28264">
        <ele>39.599998474121</ele>
        <time>2019-10-13T09:25:30.000Z</time>
      </trkpt>
      <trkpt lat="47.28325" lon="-2.2827">
        <ele>40</ele>
        <time>2019-10-13T09:25:31.000Z</time>
      </trkpt>
      <trkpt lat="47.28324" lon="-2.28297">
        <ele>40</ele>
        <time>2019-10-13T09:25:36.000Z</time>
      </trkpt>
      <trkpt lat="47.28323" lon="-2.28303">
        <ele>40.400001525879</ele>
        <time>2019-10-13T09:25:37.000Z</time>
      </trkpt>
      <trkpt lat="47.28323" lon="-2.28308">
        <ele>40.799999237061</ele>
        <time>2019-10-13T09:25:38.000Z</time>
      </trkpt>
      <trkpt lat="47.28324" lon="-2.28314">
        <ele>41.200000762939</ele>
        <time>2019-10-13T09:25:39.000Z</time>
      </trkpt>
      <trkpt lat="47.28324" lon="-2.2832">
        <ele>41.599998474121</ele>
        <time>2019-10-13T09:25:40.000Z</time>
      </trkpt>
      <trkpt lat="47.28325" lon="-2.28326">
        <ele>42.200000762939</ele>
        <time>2019-10-13T09:25:41.000Z</time>
      </trkpt>
      <trkpt lat="47.28325" lon="-2.28332">
        <ele>42.200000762939</ele>
        <time>2019-10-13T09:25:42.000Z</time>
      </trkpt>
      <trkpt lat="47.28324" lon="-2.28357">
        <ele>42.200000762939</ele>
        <time>2019-10-13T09:25:46.000Z</time>
      </trkpt>
      <trkpt lat="47.28323" lon="-2.28369">
        <ele>42.200000762939</ele>
        <time>2019-10-13T09:25:48.000Z</time>
      </trkpt>
      <trkpt lat="47.2832" lon="-2.28395">
        <ele>42.200000762939</ele>
        <time>2019-10-13T09:25:50.000Z</time>
      </trkpt>
      <trkpt lat="47.28318" lon="-2.28401">
        <ele>42.200000762939</ele>
        <time>2019-10-13T09:25:53.000Z</time>
      </trkpt>
      <trkpt lat="47.28316" lon="-2.28407">
        <ele>42.200000762939</ele>
        <time>2019-10-13T09:25:54.000Z</time>
      </trkpt>
      <trkpt lat="47.28307" lon="-2.28433">
        <ele>42.200000762939</ele>
        <time>2019-10-13T09:25:58.000Z</time>
      </trkpt>
      <trkpt lat="47.28304" lon="-2.28448">
        <ele>42.200000762939</ele>
        <time>2019-10-13T09:26:00.000Z</time>
      </trkpt>
      <trkpt lat="47.28295" lon="-2.28486">
        <ele>42.200000762939</ele>
        <time>2019-10-13T09:26:05.000Z</time>
      </trkpt>
      <trkpt lat="47.28293" lon="-2.28502">
        <ele>42.200000762939</ele>
        <time>2019-10-13T09:26:07.000Z</time>
      </trkpt>
      <trkpt lat="47.28278" lon="-2.28597">
        <ele>42.200000762939</ele>
        <time>2019-10-13T09:26:16.000Z</time>
      </trkpt>
      <trkpt lat="47.28262" lon="-2.28668">
        <ele>42.200000762939</ele>
        <time>2019-10-13T09:26:27.000Z</time>
      </trkpt>
      <trkpt lat="47.28254" lon="-2.28716">
        <ele>42.200000762939</ele>
        <time>2019-10-13T09:26:33.000Z</time>
      </trkpt>
      <trkpt lat="47.28248" lon="-2.28748">
        <ele>42.200000762939</ele>
        <time>2019-10-13T09:26:37.000Z</time>
      </trkpt>
      <trkpt lat="47.28243" lon="-2.2878">
        <ele>42.200000762939</ele>
        <time>2019-10-13T09:26:41.000Z</time>
      </trkpt>
      <trkpt lat="47.28231" lon="-2.28846">
        <ele>42.200000762939</ele>
        <time>2019-10-13T09:26:49.000Z</time>
      </trkpt>
      <trkpt lat="47.28229" lon="-2.28854">
        <ele>42.200000762939</ele>
        <time>2019-10-13T09:26:50.000Z</time>
      </trkpt>
      <trkpt lat="47.28213" lon="-2.28871">
        <ele>42.200000762939</ele>
        <time>2019-10-13T09:26:52.000Z</time>
      </trkpt>
      <trkpt lat="47.28213" lon="-2.28871">
        <ele>42.200000762939</ele>
        <time>2019-10-13T09:26:54.000Z</time>
      </trkpt>
      <trkpt lat="47.28208" lon="-2.28871">
        <ele>42.200000762939</ele>
        <time>2019-10-13T09:26:55.000Z</time>
      </trkpt>
      <trkpt lat="47.28197" lon="-2.28865">
        <ele>42.200000762939</ele>
        <time>2019-10-13T09:26:57.000Z</time>
      </trkpt>
      <trkpt lat="47.28187" lon="-2.28855">
        <ele>42.200000762939</ele>
        <time>2019-10-13T09:26:59.000Z</time>
      </trkpt>
      <trkpt lat="47.28166" lon="-2.28836">
        <ele>42.200000762939</ele>
        <time>2019-10-13T09:27:03.000Z</time>
      </trkpt>
      <trkpt lat="47.28123" lon="-2.288">
        <ele>42.200000762939</ele>
        <time>2019-10-13T09:27:10.000Z</time>
      </trkpt>
      <trkpt lat="47.28093" lon="-2.28784">
        <ele>42.200000762939</ele>
        <time>2019-10-13T09:27:12.000Z</time>
      </trkpt>
      <trkpt lat="47.28079" lon="-2.28778">
        <ele>42.200000762939</ele>
        <time>2019-10-13T09:27:16.000Z</time>
      </trkpt>
      <trkpt lat="47.28057" lon="-2.28767">
        <ele>41.200000762939</ele>
        <time>2019-10-13T09:27:17.000Z</time>
      </trkpt>
      <trkpt lat="47.2805" lon="-2.28763">
        <ele>40.799999237061</ele>
        <time>2019-10-13T09:27:20.000Z</time>
      </trkpt>
      <trkpt lat="47.28043" lon="-2.2876">
        <ele>40.400001525879</ele>
        <time>2019-10-13T09:27:21.000Z</time>
      </trkpt>
      <trkpt lat="47.28035" lon="-2.28758">
        <ele>39.799999237061</ele>
        <time>2019-10-13T09:27:22.000Z</time>
      </trkpt>
      <trkpt lat="47.28022" lon="-2.28755">
        <ele>39.799999237061</ele>
        <time>2019-10-13T09:27:24.000Z</time>
      </trkpt>
      <trkpt lat="47.2798" lon="-2.28746">
        <ele>39.799999237061</ele>
        <time>2019-10-13T09:27:30.000Z</time>
      </trkpt>
      <trkpt lat="47.27974" lon="-2.28745">
        <ele>39.400001525879</ele>
        <time>2019-10-13T09:27:31.000Z</time>
      </trkpt>
      <trkpt lat="47.27967" lon="-2.28745">
        <ele>39</ele>
        <time>2019-10-13T09:27:32.000Z</time>
      </trkpt>
      <trkpt lat="47.2796" lon="-2.28746">
        <ele>38.599998474121</ele>
        <time>2019-10-13T09:27:33.000Z</time>
      </trkpt>
      <trkpt lat="47.27953" lon="-2.28746">
        <ele>38.200000762939</ele>
        <time>2019-10-13T09:27:34.000Z</time>
      </trkpt>
      <trkpt lat="47.27947" lon="-2.28748">
        <ele>37.799999237061</ele>
        <time>2019-10-13T09:27:35.000Z</time>
      </trkpt>
      <trkpt lat="47.2794" lon="-2.28749">
        <ele>37.799999237061</ele>
        <time>2019-10-13T09:27:36.000Z</time>
      </trkpt>
      <trkpt lat="47.27928" lon="-2.28753">
        <ele>37.799999237061</ele>
        <time>2019-10-13T09:27:38.000Z</time>
      </trkpt>
      <trkpt lat="47.27912" lon="-2.28761">
        <ele>37.799999237061</ele>
        <time>2019-10-13T09:27:41.000Z</time>
      </trkpt>
      <trkpt lat="47.27882" lon="-2.28774">
        <ele>37.799999237061</ele>
        <time>2019-10-13T09:27:47.000Z</time>
      </trkpt>
      <trkpt lat="47.2787" lon="-2.28798">
        <ele>37.799999237061</ele>
        <time>2019-10-13T09:27:51.000Z</time>
      </trkpt>
      <trkpt lat="47.27869" lon="-2.28805">
        <ele>37.799999237061</ele>
        <time>2019-10-13T09:27:52.000Z</time>
      </trkpt>
      <trkpt lat="47.27863" lon="-2.28815">
        <ele>37.799999237061</ele>
        <time>2019-10-13T09:27:54.000Z</time>
      </trkpt>
      <trkpt lat="47.27849" lon="-2.2881">
        <ele>37.799999237061</ele>
        <time>2019-10-13T09:27:57.000Z</time>
      </trkpt>
      <trkpt lat="47.27844" lon="-2.28807">
        <ele>37.799999237061</ele>
        <time>2019-10-13T09:27:58.000Z</time>
      </trkpt>
      <trkpt lat="47.27834" lon="-2.288">
        <ele>37.799999237061</ele>
        <time>2019-10-13T09:28:00.000Z</time>
      </trkpt>
      <trkpt lat="47.27818" lon="-2.28794">
        <ele>37.799999237061</ele>
        <time>2019-10-13T09:28:03.000Z</time>
      </trkpt>
      <trkpt lat="47.27808" lon="-2.28794">
        <ele>37.799999237061</ele>
        <time>2019-10-13T09:28:05.000Z</time>
      </trkpt>
      <trkpt lat="47.27781" lon="-2.28798">
        <ele>37.799999237061</ele>
        <time>2019-10-13T09:28:08.000Z</time>
      </trkpt>
      <trkpt lat="47.27755" lon="-2.28804">
        <ele>37.799999237061</ele>
        <time>2019-10-13T09:28:13.000Z</time>
      </trkpt>
      <trkpt lat="47.27745" lon="-2.28808">
        <ele>37.799999237061</ele>
        <time>2019-10-13T09:28:17.000Z</time>
      </trkpt>
      <trkpt lat="47.27725" lon="-2.28817">
        <ele>37.799999237061</ele>
        <time>2019-10-13T09:28:21.000Z</time>
      </trkpt>
      <trkpt lat="47.27716" lon="-2.2882">
        <ele>37.799999237061</ele>
        <time>2019-10-13T09:28:23.000Z</time>
      </trkpt>
      <trkpt lat="47.27703" lon="-2.28813">
        <ele>37.799999237061</ele>
        <time>2019-10-13T09:28:26.000Z</time>
      </trkpt>
      <trkpt lat="47.27699" lon="-2.28803">
        <ele>37.799999237061</ele>
        <time>2019-10-13T09:28:28.000Z</time>
      </trkpt>
      <trkpt lat="47.27695" lon="-2.28793">
        <ele>37.400001525879</ele>
        <time>2019-10-13T09:28:30.000Z</time>
      </trkpt>
      <trkpt lat="47.27692" lon="-2.28788">
        <ele>37</ele>
        <time>2019-10-13T09:28:31.000Z</time>
      </trkpt>
      <trkpt lat="47.2769" lon="-2.28785">
        <ele>36.599998474121</ele>
        <time>2019-10-13T09:28:32.000Z</time>
      </trkpt>
      <trkpt lat="47.27687" lon="-2.28781">
        <ele>36.200000762939</ele>
        <time>2019-10-13T09:28:33.000Z</time>
      </trkpt>
      <trkpt lat="47.27684" lon="-2.28778">
        <ele>35.799999237061</ele>
        <time>2019-10-13T09:28:34.000Z</time>
      </trkpt>
      <trkpt lat="47.27676" lon="-2.28773">
        <ele>35.799999237061</ele>
        <time>2019-10-13T09:28:36.000Z</time>
      </trkpt>
      <trkpt lat="47.2765" lon="-2.28763">
        <ele>35.799999237061</ele>
        <time>2019-10-13T09:28:42.000Z</time>
      </trkpt>
      <trkpt lat="47.27626" lon="-2.28756">
        <ele>35.799999237061</ele>
        <time>2019-10-13T09:28:47.000Z</time>
      </trkpt>
      <trkpt lat="47.27592" lon="-2.28742">
        <ele>35.799999237061</ele>
        <time>2019-10-13T09:28:53.000Z</time>
      </trkpt>
      <trkpt lat="47.27588" lon="-2.28739">
        <ele>35.799999237061</ele>
        <time>2019-10-13T09:28:54.000Z</time>
      </trkpt>
      <trkpt lat="47.27573" lon="-2.28727">
        <ele>35.799999237061</ele>
        <time>2019-10-13T09:28:57.000Z</time>
      </trkpt>
      <trkpt lat="47.27535" lon="-2.28707">
        <ele>35.799999237061</ele>
        <time>2019-10-13T09:29:02.000Z</time>
      </trkpt>
      <trkpt lat="47.2752" lon="-2.28691">
        <ele>35.799999237061</ele>
        <time>2019-10-13T09:29:08.000Z</time>
      </trkpt>
      <trkpt lat="47.27516" lon="-2.28685">
        <ele>35.799999237061</ele>
        <time>2019-10-13T09:29:09.000Z</time>
      </trkpt>
      <trkpt lat="47.27499" lon="-2.28658">
        <ele>35.799999237061</ele>
        <time>2019-10-13T09:29:13.000Z</time>
      </trkpt>
      <trkpt lat="47.27492" lon="-2.28642">
        <ele>35.799999237061</ele>
        <time>2019-10-13T09:29:15.000Z</time>
      </trkpt>
      <trkpt lat="47.27478" lon="-2.28603">
        <ele>35.799999237061</ele>
        <time>2019-10-13T09:29:20.000Z</time>
      </trkpt>
      <trkpt lat="47.27477" lon="-2.28594">
        <ele>35.799999237061</ele>
        <time>2019-10-13T09:29:21.000Z</time>
      </trkpt>
      <trkpt lat="47.27477" lon="-2.28578">
        <ele>36.200000762939</ele>
        <time>2019-10-13T09:29:23.000Z</time>
      </trkpt>
      <trkpt lat="47.27478" lon="-2.2857">
        <ele>36.599998474121</ele>
        <time>2019-10-13T09:29:24.000Z</time>
      </trkpt>
      <trkpt lat="47.27479" lon="-2.28562">
        <ele>37.599998474121</ele>
        <time>2019-10-13T09:29:25.000Z</time>
      </trkpt>
      <trkpt lat="47.27481" lon="-2.28554">
        <ele>38</ele>
        <time>2019-10-13T09:29:26.000Z</time>
      </trkpt>
      <trkpt lat="47.27483" lon="-2.28547">
        <ele>38</ele>
        <time>2019-10-13T09:29:27.000Z</time>
      </trkpt>
      <trkpt lat="47.27491" lon="-2.28528">
        <ele>38</ele>
        <time>2019-10-13T09:29:30.000Z</time>
      </trkpt>
      <trkpt lat="47.27509" lon="-2.28488">
        <ele>38</ele>
        <time>2019-10-13T09:29:36.000Z</time>
      </trkpt>
      <trkpt lat="47.27524" lon="-2.2845">
        <ele>38</ele>
        <time>2019-10-13T09:29:41.000Z</time>
      </trkpt>
      <trkpt lat="47.27532" lon="-2.28437">
        <ele>38</ele>
        <time>2019-10-13T09:29:43.000Z</time>
      </trkpt>
      <trkpt lat="47.27544" lon="-2.28419">
        <ele>38</ele>
        <time>2019-10-13T09:29:46.000Z</time>
      </trkpt>
      <trkpt lat="47.27585" lon="-2.28369">
        <ele>38</ele>
        <time>2019-10-13T09:29:53.000Z</time>
      </trkpt>
      <trkpt lat="47.27612" lon="-2.28335">
        <ele>38</ele>
        <time>2019-10-13T09:30:03.000Z</time>
      </trkpt>
      <trkpt lat="47.27627" lon="-2.28318">
        <ele>38</ele>
        <time>2019-10-13T09:30:06.000Z</time>
      </trkpt>
      <trkpt lat="47.27637" lon="-2.28309">
        <ele>38</ele>
        <time>2019-10-13T09:30:08.000Z</time>
      </trkpt>
      <trkpt lat="47.27649" lon="-2.28288">
        <ele>38</ele>
        <time>2019-10-13T09:30:13.000Z</time>
      </trkpt>
      <trkpt lat="47.27635" lon="-2.28264">
        <ele>38</ele>
        <time>2019-10-13T09:30:17.000Z</time>
      </trkpt>
      <trkpt lat="47.27602" lon="-2.28229">
        <ele>38</ele>
        <time>2019-10-13T09:30:24.000Z</time>
      </trkpt>
      <trkpt lat="47.27571" lon="-2.28201">
        <ele>38</ele>
        <time>2019-10-13T09:30:31.000Z</time>
      </trkpt>
      <trkpt lat="47.27537" lon="-2.28178">
        <ele>38</ele>
        <time>2019-10-13T09:30:38.000Z</time>
      </trkpt>
      <trkpt lat="47.27532" lon="-2.28175">
        <ele>38</ele>
        <time>2019-10-13T09:30:39.000Z</time>
      </trkpt>
      <trkpt lat="47.27512" lon="-2.28163">
        <ele>38</ele>
        <time>2019-10-13T09:30:43.000Z</time>
      </trkpt>
      <trkpt lat="47.27502" lon="-2.28157">
        <ele>38</ele>
        <time>2019-10-13T09:30:45.000Z</time>
      </trkpt>
      <trkpt lat="47.27491" lon="-2.28154">
        <ele>38.400001525879</ele>
        <time>2019-10-13T09:30:47.000Z</time>
      </trkpt>
      <trkpt lat="47.27486" lon="-2.28154">
        <ele>38.799999237061</ele>
        <time>2019-10-13T09:30:48.000Z</time>
      </trkpt>
      <trkpt lat="47.2748" lon="-2.28155">
        <ele>39.200000762939</ele>
        <time>2019-10-13T09:30:49.000Z</time>
      </trkpt>
      <trkpt lat="47.27474" lon="-2.28156">
        <ele>39.599998474121</ele>
        <time>2019-10-13T09:30:50.000Z</time>
      </trkpt>
      <trkpt lat="47.27467" lon="-2.28157">
        <ele>40</ele>
        <time>2019-10-13T09:30:51.000Z</time>
      </trkpt>
      <trkpt lat="47.27449" lon="-2.28159">
        <ele>40</ele>
        <time>2019-10-13T09:30:54.000Z</time>
      </trkpt>
      <trkpt lat="47.2742" lon="-2.28151">
        <ele>40</ele>
        <time>2019-10-13T09:30:59.000Z</time>
      </trkpt>
      <trkpt lat="47.27415" lon="-2.28147">
        <ele>40</ele>
        <time>2019-10-13T09:31:00.000Z</time>
      </trkpt>
      <trkpt lat="47.2741" lon="-2.28143">
        <ele>40</ele>
        <time>2019-10-13T09:31:01.000Z</time>
      </trkpt>
      <trkpt lat="47.27396" lon="-2.28126">
        <ele>40</ele>
        <time>2019-10-13T09:31:04.000Z</time>
      </trkpt>
      <trkpt lat="47.27365" lon="-2.28086">
        <ele>40</ele>
        <time>2019-10-13T09:31:11.000Z</time>
      </trkpt>
      <trkpt lat="47.27361" lon="-2.2808">
        <ele>40</ele>
        <time>2019-10-13T09:31:12.000Z</time>
      </trkpt>
      <trkpt lat="47.27355" lon="-2.28067">
        <ele>40</ele>
        <time>2019-10-13T09:31:14.000Z</time>
      </trkpt>
      <trkpt lat="47.27348" lon="-2.28055">
        <ele>40</ele>
        <time>2019-10-13T09:31:16.000Z</time>
      </trkpt>
      <trkpt lat="47.27334" lon="-2.28048">
        <ele>40</ele>
        <time>2019-10-13T09:31:19.000Z</time>
      </trkpt>
      <trkpt lat="47.27329" lon="-2.28047">
        <ele>40.400001525879</ele>
        <time>2019-10-13T09:31:20.000Z</time>
      </trkpt>
      <trkpt lat="47.27324" lon="-2.28046">
        <ele>40.799999237061</ele>
        <time>2019-10-13T09:31:21.000Z</time>
      </trkpt>
      <trkpt lat="47.27319" lon="-2.28046">
        <ele>41.200000762939</ele>
        <time>2019-10-13T09:31:22.000Z</time>
      </trkpt>
      <trkpt lat="47.27304" lon="-2.28047">
        <ele>42.200000762939</ele>
        <time>2019-10-13T09:31:23.000Z</time>
      </trkpt>
      <trkpt lat="47.27294" lon="-2.28049">
        <ele>42.200000762939</ele>
        <time>2019-10-13T09:31:27.000Z</time>
      </trkpt>
      <trkpt lat="47.27275" lon="-2.28059">
        <ele>42.599998474121</ele>
        <time>2019-10-13T09:31:31.000Z</time>
      </trkpt>
      <trkpt lat="47.2727" lon="-2.28061">
        <ele>43</ele>
        <time>2019-10-13T09:31:32.000Z</time>
      </trkpt>
      <trkpt lat="47.27265" lon="-2.28065">
        <ele>43.400001525879</ele>
        <time>2019-10-13T09:31:33.000Z</time>
      </trkpt>
      <trkpt lat="47.2726" lon="-2.28069">
        <ele>43.799999237061</ele>
        <time>2019-10-13T09:31:34.000Z</time>
      </trkpt>
      <trkpt lat="47.27256" lon="-2.28073">
        <ele>44.200000762939</ele>
        <time>2019-10-13T09:31:35.000Z</time>
      </trkpt>
      <trkpt lat="47.27232" lon="-2.28086">
        <ele>44.200000762939</ele>
        <time>2019-10-13T09:31:40.000Z</time>
      </trkpt>
      <trkpt lat="47.27213" lon="-2.281">
        <ele>44.200000762939</ele>
        <time>2019-10-13T09:31:45.000Z</time>
      </trkpt>
      <trkpt lat="47.27188" lon="-2.28118">
        <ele>44.200000762939</ele>
        <time>2019-10-13T09:31:51.000Z</time>
      </trkpt>
      <trkpt lat="47.27184" lon="-2.28121">
        <ele>44.200000762939</ele>
        <time>2019-10-13T09:31:52.000Z</time>
      </trkpt>
      <trkpt lat="47.27162" lon="-2.28144">
        <ele>44.200000762939</ele>
        <time>2019-10-13T09:31:58.000Z</time>
      </trkpt>
      <trkpt lat="47.27158" lon="-2.28144">
        <ele>44.200000762939</ele>
        <time>2019-10-13T09:32:01.000Z</time>
      </trkpt>
      <trkpt lat="47.27158" lon="-2.28142">
        <ele>44.200000762939</ele>
        <time>2019-10-13T09:32:03.000Z</time>
      </trkpt>
      <trkpt lat="47.27157" lon="-2.28129">
        <ele>44.200000762939</ele>
        <time>2019-10-13T09:32:06.000Z</time>
      </trkpt>
      <trkpt lat="47.27152" lon="-2.28107">
        <ele>44.200000762939</ele>
        <time>2019-10-13T09:32:10.000Z</time>
      </trkpt>
      <trkpt lat="47.27151" lon="-2.28101">
        <ele>44.200000762939</ele>
        <time>2019-10-13T09:32:11.000Z</time>
      </trkpt>
      <trkpt lat="47.27148" lon="-2.28083">
        <ele>44.200000762939</ele>
        <time>2019-10-13T09:32:14.000Z</time>
      </trkpt>
      <trkpt lat="47.27147" lon="-2.28077">
        <ele>44.200000762939</ele>
        <time>2019-10-13T09:32:15.000Z</time>
      </trkpt>
      <trkpt lat="47.27146" lon="-2.28071">
        <ele>44.599998474121</ele>
        <time>2019-10-13T09:32:16.000Z</time>
      </trkpt>
      <trkpt lat="47.27145" lon="-2.28064">
        <ele>45</ele>
        <time>2019-10-13T09:32:17.000Z</time>
      </trkpt>
      <trkpt lat="47.27144" lon="-2.28059">
        <ele>45.799999237061</ele>
        <time>2019-10-13T09:32:18.000Z</time>
      </trkpt>
      <trkpt lat="47.27142" lon="-2.28054">
        <ele>46.200000762939</ele>
        <time>2019-10-13T09:32:19.000Z</time>
      </trkpt>
      <trkpt lat="47.27138" lon="-2.2805">
        <ele>46.200000762939</ele>
        <time>2019-10-13T09:32:20.000Z</time>
      </trkpt>
      <trkpt lat="47.27127" lon="-2.2805">
        <ele>46.200000762939</ele>
        <time>2019-10-13T09:32:23.000Z</time>
      </trkpt>
      <trkpt lat="47.27121" lon="-2.28054">
        <ele>46.200000762939</ele>
        <time>2019-10-13T09:32:26.000Z</time>
      </trkpt>
      <trkpt lat="47.27121" lon="-2.2807">
        <ele>46.200000762939</ele>
        <time>2019-10-13T09:32:29.000Z</time>
      </trkpt>
      <trkpt lat="47.27121" lon="-2.28076">
        <ele>46.200000762939</ele>
        <time>2019-10-13T09:32:30.000Z</time>
      </trkpt>
      <trkpt lat="47.27122" lon="-2.28112">
        <ele>46.200000762939</ele>
        <time>2019-10-13T09:32:35.000Z</time>
      </trkpt>
      <trkpt lat="47.27125" lon="-2.28135">
        <ele>46.200000762939</ele>
        <time>2019-10-13T09:32:38.000Z</time>
      </trkpt>
      <trkpt lat="47.27127" lon="-2.2815">
        <ele>46.200000762939</ele>
        <time>2019-10-13T09:32:40.000Z</time>
      </trkpt>
      <trkpt lat="47.27124" lon="-2.2819">
        <ele>46.200000762939</ele>
        <time>2019-10-13T09:32:45.000Z</time>
      </trkpt>
      <trkpt lat="47.27119" lon="-2.28243">
        <ele>46.200000762939</ele>
        <time>2019-10-13T09:32:51.000Z</time>
      </trkpt>
      <trkpt lat="47.27126" lon="-2.28275">
        <ele>46.200000762939</ele>
        <time>2019-10-13T09:32:55.000Z</time>
      </trkpt>
      <trkpt lat="47.27137" lon="-2.28314">
        <ele>46.200000762939</ele>
        <time>2019-10-13T09:33:00.000Z</time>
      </trkpt>
      <trkpt lat="47.27145" lon="-2.28363">
        <ele>46.200000762939</ele>
        <time>2019-10-13T09:33:06.000Z</time>
      </trkpt>
      <trkpt lat="47.2715" lon="-2.28407">
        <ele>46.200000762939</ele>
        <time>2019-10-13T09:33:11.000Z</time>
      </trkpt>
      <trkpt lat="47.2715" lon="-2.28415">
        <ele>46.200000762939</ele>
        <time>2019-10-13T09:33:12.000Z</time>
      </trkpt>
      <trkpt lat="47.27154" lon="-2.28448">
        <ele>46.200000762939</ele>
        <time>2019-10-13T09:33:16.000Z</time>
      </trkpt>
      <trkpt lat="47.27155" lon="-2.28466">
        <ele>46.200000762939</ele>
        <time>2019-10-13T09:33:18.000Z</time>
      </trkpt>
      <trkpt lat="47.2716" lon="-2.28504">
        <ele>45.799999237061</ele>
        <time>2019-10-13T09:33:22.000Z</time>
      </trkpt>
      <trkpt lat="47.27162" lon="-2.28514">
        <ele>45.400001525879</ele>
        <time>2019-10-13T09:33:23.000Z</time>
      </trkpt>
      <trkpt lat="47.27164" lon="-2.28524">
        <ele>45</ele>
        <time>2019-10-13T09:33:24.000Z</time>
      </trkpt>
      <trkpt lat="47.27166" lon="-2.28533">
        <ele>44.400001525879</ele>
        <time>2019-10-13T09:33:25.000Z</time>
      </trkpt>
      <trkpt lat="47.27168" lon="-2.28543">
        <ele>44</ele>
        <time>2019-10-13T09:33:26.000Z</time>
      </trkpt>
      <trkpt lat="47.27178" lon="-2.2858">
        <ele>44</ele>
        <time>2019-10-13T09:33:30.000Z</time>
      </trkpt>
      <trkpt lat="47.27182" lon="-2.28607">
        <ele>44</ele>
        <time>2019-10-13T09:33:31.000Z</time>
      </trkpt>
      <trkpt lat="47.27182" lon="-2.28607">
        <ele>44</ele>
        <time>2019-10-13T09:33:33.000Z</time>
      </trkpt>
      <trkpt lat="47.27181" lon="-2.28645">
        <ele>43.599998474121</ele>
        <time>2019-10-13T09:33:37.000Z</time>
      </trkpt>
      <trkpt lat="47.27181" lon="-2.28655">
        <ele>43.200000762939</ele>
        <time>2019-10-13T09:33:38.000Z</time>
      </trkpt>
      <trkpt lat="47.27181" lon="-2.28666">
        <ele>42.799999237061</ele>
        <time>2019-10-13T09:33:39.000Z</time>
      </trkpt>
      <trkpt lat="47.27181" lon="-2.28676">
        <ele>42.400001525879</ele>
        <time>2019-10-13T09:33:40.000Z</time>
      </trkpt>
      <trkpt lat="47.27181" lon="-2.28686">
        <ele>42</ele>
        <time>2019-10-13T09:33:41.000Z</time>
      </trkpt>
      <trkpt lat="47.27183" lon="-2.28726">
        <ele>42</ele>
        <time>2019-10-13T09:33:45.000Z</time>
      </trkpt>
      <trkpt lat="47.27183" lon="-2.28747">
        <ele>42</ele>
        <time>2019-10-13T09:33:47.000Z</time>
      </trkpt>
      <trkpt lat="47.27181" lon="-2.28789">
        <ele>42</ele>
        <time>2019-10-13T09:33:51.000Z</time>
      </trkpt>
      <trkpt lat="47.27176" lon="-2.28875">
        <ele>42</ele>
        <time>2019-10-13T09:34:00.000Z</time>
      </trkpt>
      <trkpt lat="47.27175" lon="-2.28893">
        <ele>41.599998474121</ele>
        <time>2019-10-13T09:34:02.000Z</time>
      </trkpt>
      <trkpt lat="47.27175" lon="-2.28903">
        <ele>41.200000762939</ele>
        <time>2019-10-13T09:34:03.000Z</time>
      </trkpt>
      <trkpt lat="47.27175" lon="-2.28913">
        <ele>40.799999237061</ele>
        <time>2019-10-13T09:34:04.000Z</time>
      </trkpt>
      <trkpt lat="47.27175" lon="-2.28923">
        <ele>40.400001525879</ele>
        <time>2019-10-13T09:34:05.000Z</time>
      </trkpt>
      <trkpt lat="47.27175" lon="-2.28934">
        <ele>40</ele>
        <time>2019-10-13T09:34:06.000Z</time>
      </trkpt>
      <trkpt lat="47.27181" lon="-2.28993">
        <ele>40</ele>
        <time>2019-10-13T09:34:12.000Z</time>
      </trkpt>
      <trkpt lat="47.27188" lon="-2.29043">
        <ele>40</ele>
        <time>2019-10-13T09:34:17.000Z</time>
      </trkpt>
      <trkpt lat="47.27192" lon="-2.29068">
        <ele>40</ele>
        <time>2019-10-13T09:34:20.000Z</time>
      </trkpt>
      <trkpt lat="47.27195" lon="-2.29092">
        <ele>40</ele>
        <time>2019-10-13T09:34:23.000Z</time>
      </trkpt>
      <trkpt lat="47.27189" lon="-2.29103">
        <ele>40</ele>
        <time>2019-10-13T09:34:25.000Z</time>
      </trkpt>
      <trkpt lat="47.27177" lon="-2.29107">
        <ele>39.599998474121</ele>
        <time>2019-10-13T09:34:28.000Z</time>
      </trkpt>
      <trkpt lat="47.27177" lon="-2.29108">
        <ele>39.200000762939</ele>
        <time>2019-10-13T09:34:29.000Z</time>
      </trkpt>
      <trkpt lat="47.27176" lon="-2.29108">
        <ele>38.799999237061</ele>
        <time>2019-10-13T09:34:30.000Z</time>
      </trkpt>
      <trkpt lat="47.27176" lon="-2.29108">
        <ele>38.400001525879</ele>
        <time>2019-10-13T09:34:31.000Z</time>
      </trkpt>
      <trkpt lat="47.27177" lon="-2.29111">
        <ele>38</ele>
        <time>2019-10-13T09:34:38.000Z</time>
      </trkpt>
      <trkpt lat="47.27179" lon="-2.29119">
        <ele>38</ele>
        <time>2019-10-13T09:34:40.000Z</time>
      </trkpt>
      <trkpt lat="47.27179" lon="-2.29119">
        <ele>38</ele>
        <time>2019-10-13T09:34:42.000Z</time>
      </trkpt>
      <trkpt lat="47.27173" lon="-2.29128">
        <ele>38</ele>
        <time>2019-10-13T09:34:43.000Z</time>
      </trkpt>
      <trkpt lat="47.27168" lon="-2.29137">
        <ele>38</ele>
        <time>2019-10-13T09:34:49.000Z</time>
      </trkpt>
      <trkpt lat="47.27153" lon="-2.29159">
        <ele>38</ele>
        <time>2019-10-13T09:34:54.000Z</time>
      </trkpt>
      <trkpt lat="47.27151" lon="-2.29169">
        <ele>38</ele>
        <time>2019-10-13T09:34:56.000Z</time>
      </trkpt>
      <trkpt lat="47.27151" lon="-2.29174">
        <ele>38</ele>
        <time>2019-10-13T09:34:57.000Z</time>
      </trkpt>
      <trkpt lat="47.27158" lon="-2.29196">
        <ele>38</ele>
        <time>2019-10-13T09:35:02.000Z</time>
      </trkpt>
      <trkpt lat="47.27175" lon="-2.29231">
        <ele>38</ele>
        <time>2019-10-13T09:35:10.000Z</time>
      </trkpt>
      <trkpt lat="47.27174" lon="-2.29244">
        <ele>38</ele>
        <time>2019-10-13T09:35:12.000Z</time>
      </trkpt>
      <trkpt lat="47.27172" lon="-2.29249">
        <ele>38</ele>
        <time>2019-10-13T09:35:13.000Z</time>
      </trkpt>
      <trkpt lat="47.27159" lon="-2.29283">
        <ele>38</ele>
        <time>2019-10-13T09:35:19.000Z</time>
      </trkpt>
      <trkpt lat="47.27156" lon="-2.29288">
        <ele>38</ele>
        <time>2019-10-13T09:35:20.000Z</time>
      </trkpt>
      <trkpt lat="47.27152" lon="-2.29305">
        <ele>38</ele>
        <time>2019-10-13T09:35:23.000Z</time>
      </trkpt>
      <trkpt lat="47.27159" lon="-2.2932">
        <ele>38</ele>
        <time>2019-10-13T09:35:26.000Z</time>
      </trkpt>
      <trkpt lat="47.27163" lon="-2.29325">
        <ele>38</ele>
        <time>2019-10-13T09:35:27.000Z</time>
      </trkpt>
      <trkpt lat="47.27177" lon="-2.29345">
        <ele>38</ele>
        <time>2019-10-13T09:35:31.000Z</time>
      </trkpt>
      <trkpt lat="47.27192" lon="-2.29371">
        <ele>38.400001525879</ele>
        <time>2019-10-13T09:35:35.000Z</time>
      </trkpt>
      <trkpt lat="47.27194" lon="-2.29379">
        <ele>39.200000762939</ele>
        <time>2019-10-13T09:35:36.000Z</time>
      </trkpt>
      <trkpt lat="47.27196" lon="-2.29387">
        <ele>39.599998474121</ele>
        <time>2019-10-13T09:35:37.000Z</time>
      </trkpt>
      <trkpt lat="47.27199" lon="-2.29395">
        <ele>40</ele>
        <time>2019-10-13T09:35:38.000Z</time>
      </trkpt>
      <trkpt lat="47.27211" lon="-2.29433">
        <ele>40</ele>
        <time>2019-10-13T09:35:43.000Z</time>
      </trkpt>
      <trkpt lat="47.27234" lon="-2.29503">
        <ele>40</ele>
        <time>2019-10-13T09:35:53.000Z</time>
      </trkpt>
      <trkpt lat="47.27239" lon="-2.29513">
        <ele>40</ele>
        <time>2019-10-13T09:35:55.000Z</time>
      </trkpt>
      <trkpt lat="47.27245" lon="-2.29527">
        <ele>40</ele>
        <time>2019-10-13T09:35:58.000Z</time>
      </trkpt>
      <trkpt lat="47.27247" lon="-2.29537">
        <ele>40</ele>
        <time>2019-10-13T09:36:00.000Z</time>
      </trkpt>
      <trkpt lat="47.27249" lon="-2.29552">
        <ele>40</ele>
        <time>2019-10-13T09:36:02.000Z</time>
      </trkpt>
      <trkpt lat="47.27256" lon="-2.296">
        <ele>40</ele>
        <time>2019-10-13T09:36:08.000Z</time>
      </trkpt>
      <trkpt lat="47.27265" lon="-2.29638">
        <ele>40</ele>
        <time>2019-10-13T09:36:14.000Z</time>
      </trkpt>
      <trkpt lat="47.27268" lon="-2.29655">
        <ele>40</ele>
        <time>2019-10-13T09:36:17.000Z</time>
      </trkpt>
      <trkpt lat="47.2727" lon="-2.29669">
        <ele>40</ele>
        <time>2019-10-13T09:36:19.000Z</time>
      </trkpt>
      <trkpt lat="47.27281" lon="-2.29715">
        <ele>40</ele>
        <time>2019-10-13T09:36:25.000Z</time>
      </trkpt>
      <trkpt lat="47.27285" lon="-2.29731">
        <ele>40</ele>
        <time>2019-10-13T09:36:27.000Z</time>
      </trkpt>
      <trkpt lat="47.2729" lon="-2.29748">
        <ele>40</ele>
        <time>2019-10-13T09:36:29.000Z</time>
      </trkpt>
      <trkpt lat="47.27307" lon="-2.29796">
        <ele>40</ele>
        <time>2019-10-13T09:36:35.000Z</time>
      </trkpt>
      <trkpt lat="47.27311" lon="-2.29802">
        <ele>40</ele>
        <time>2019-10-13T09:36:36.000Z</time>
      </trkpt>
      <trkpt lat="47.27333" lon="-2.29838">
        <ele>40</ele>
        <time>2019-10-13T09:36:42.000Z</time>
      </trkpt>
      <trkpt lat="47.27361" lon="-2.29895">
        <ele>40</ele>
        <time>2019-10-13T09:36:48.000Z</time>
      </trkpt>
      <trkpt lat="47.27383" lon="-2.29946">
        <ele>40</ele>
        <time>2019-10-13T09:36:57.000Z</time>
      </trkpt>
      <trkpt lat="47.274" lon="-2.29984">
        <ele>40</ele>
        <time>2019-10-13T09:37:02.000Z</time>
      </trkpt>
      <trkpt lat="47.27425" lon="-2.30043">
        <ele>40</ele>
        <time>2019-10-13T09:37:09.000Z</time>
      </trkpt>
      <trkpt lat="47.27444" lon="-2.30106">
        <ele>40</ele>
        <time>2019-10-13T09:37:16.000Z</time>
      </trkpt>
      <trkpt lat="47.27448" lon="-2.30125">
        <ele>39.599998474121</ele>
        <time>2019-10-13T09:37:18.000Z</time>
      </trkpt>
      <trkpt lat="47.2745" lon="-2.30134">
        <ele>39.200000762939</ele>
        <time>2019-10-13T09:37:19.000Z</time>
      </trkpt>
      <trkpt lat="47.27452" lon="-2.30143">
        <ele>38.799999237061</ele>
        <time>2019-10-13T09:37:20.000Z</time>
      </trkpt>
      <trkpt lat="47.27454" lon="-2.30153">
        <ele>38.400001525879</ele>
        <time>2019-10-13T09:37:21.000Z</time>
      </trkpt>
      <trkpt lat="47.27455" lon="-2.30163">
        <ele>37.799999237061</ele>
        <time>2019-10-13T09:37:22.000Z</time>
      </trkpt>
      <trkpt lat="47.27463" lon="-2.30214">
        <ele>37.799999237061</ele>
        <time>2019-10-13T09:37:27.000Z</time>
      </trkpt>
      <trkpt lat="47.27465" lon="-2.30223">
        <ele>37.400001525879</ele>
        <time>2019-10-13T09:37:28.000Z</time>
      </trkpt>
      <trkpt lat="47.27467" lon="-2.30233">
        <ele>37</ele>
        <time>2019-10-13T09:37:29.000Z</time>
      </trkpt>
      <trkpt lat="47.27469" lon="-2.30241">
        <ele>36.400001525879</ele>
        <time>2019-10-13T09:37:30.000Z</time>
      </trkpt>
      <trkpt lat="47.27471" lon="-2.3025">
        <ele>36</ele>
        <time>2019-10-13T09:37:31.000Z</time>
      </trkpt>
      <trkpt lat="47.27473" lon="-2.30259">
        <ele>35.400001525879</ele>
        <time>2019-10-13T09:37:32.000Z</time>
      </trkpt>
      <trkpt lat="47.27482" lon="-2.3031">
        <ele>35.400001525879</ele>
        <time>2019-10-13T09:37:37.000Z</time>
      </trkpt>
      <trkpt lat="47.27489" lon="-2.30352">
        <ele>34.599998474121</ele>
        <time>2019-10-13T09:37:39.000Z</time>
      </trkpt>
      <trkpt lat="47.27491" lon="-2.30363">
        <ele>34.200000762939</ele>
        <time>2019-10-13T09:37:42.000Z</time>
      </trkpt>
      <trkpt lat="47.27494" lon="-2.30373">
        <ele>33</ele>
        <time>2019-10-13T09:37:43.000Z</time>
      </trkpt>
      <trkpt lat="47.27496" lon="-2.30383">
        <ele>32.400001525879</ele>
        <time>2019-10-13T09:37:44.000Z</time>
      </trkpt>
      <trkpt lat="47.27497" lon="-2.30394">
        <ele>31.799999237061</ele>
        <time>2019-10-13T09:37:45.000Z</time>
      </trkpt>
      <trkpt lat="47.27499" lon="-2.30404">
        <ele>31.200000762939</ele>
        <time>2019-10-13T09:37:46.000Z</time>
      </trkpt>
      <trkpt lat="47.275" lon="-2.30422">
        <ele>31.200000762939</ele>
        <time>2019-10-13T09:37:48.000Z</time>
      </trkpt>
      <trkpt lat="47.27494" lon="-2.30431">
        <ele>30.60000038147</ele>
        <time>2019-10-13T09:37:50.000Z</time>
      </trkpt>
      <trkpt lat="47.2749" lon="-2.30433">
        <ele>30.200000762939</ele>
        <time>2019-10-13T09:37:51.000Z</time>
      </trkpt>
      <trkpt lat="47.27486" lon="-2.30434">
        <ele>29.799999237061</ele>
        <time>2019-10-13T09:37:52.000Z</time>
      </trkpt>
      <trkpt lat="47.27481" lon="-2.30436">
        <ele>29.39999961853</ele>
        <time>2019-10-13T09:37:53.000Z</time>
      </trkpt>
      <trkpt lat="47.27476" lon="-2.30437">
        <ele>28.799999237061</ele>
        <time>2019-10-13T09:37:54.000Z</time>
      </trkpt>
      <trkpt lat="47.27465" lon="-2.3044">
        <ele>28.799999237061</ele>
        <time>2019-10-13T09:37:56.000Z</time>
      </trkpt>
      <trkpt lat="47.2745" lon="-2.30444">
        <ele>28.799999237061</ele>
        <time>2019-10-13T09:37:59.000Z</time>
      </trkpt>
      <trkpt lat="47.27425" lon="-2.30447">
        <ele>28.799999237061</ele>
        <time>2019-10-13T09:38:04.000Z</time>
      </trkpt>
      <trkpt lat="47.27421" lon="-2.3045">
        <ele>28.799999237061</ele>
        <time>2019-10-13T09:38:05.000Z</time>
      </trkpt>
      <trkpt lat="47.27415" lon="-2.30457">
        <ele>28.799999237061</ele>
        <time>2019-10-13T09:38:07.000Z</time>
      </trkpt>
      <trkpt lat="47.27413" lon="-2.30459">
        <ele>28.799999237061</ele>
        <time>2019-10-13T09:38:10.000Z</time>
      </trkpt>
      <trkpt lat="47.2741" lon="-2.30459">
        <ele>28.799999237061</ele>
        <time>2019-10-13T09:38:13.000Z</time>
      </trkpt>
      <trkpt lat="47.27405" lon="-2.30462">
        <ele>28.799999237061</ele>
        <time>2019-10-13T09:38:16.000Z</time>
      </trkpt>
      <trkpt lat="47.27394" lon="-2.30472">
        <ele>28.799999237061</ele>
        <time>2019-10-13T09:38:19.000Z</time>
      </trkpt>
      <trkpt lat="47.2739" lon="-2.30475">
        <ele>28.799999237061</ele>
        <time>2019-10-13T09:38:20.000Z</time>
      </trkpt>
      <trkpt lat="47.27387" lon="-2.30479">
        <ele>28.799999237061</ele>
        <time>2019-10-13T09:38:21.000Z</time>
      </trkpt>
      <trkpt lat="47.27376" lon="-2.30491">
        <ele>28.799999237061</ele>
        <time>2019-10-13T09:38:24.000Z</time>
      </trkpt>
      <trkpt lat="47.27372" lon="-2.30493">
        <ele>28.799999237061</ele>
        <time>2019-10-13T09:38:25.000Z</time>
      </trkpt>
      <trkpt lat="47.27353" lon="-2.30504">
        <ele>28.39999961853</ele>
        <time>2019-10-13T09:38:30.000Z</time>
      </trkpt>
      <trkpt lat="47.2735" lon="-2.30506">
        <ele>27.60000038147</ele>
        <time>2019-10-13T09:38:31.000Z</time>
      </trkpt>
      <trkpt lat="47.27346" lon="-2.30508">
        <ele>27.200000762939</ele>
        <time>2019-10-13T09:38:32.000Z</time>
      </trkpt>
      <trkpt lat="47.27343" lon="-2.30509">
        <ele>26.799999237061</ele>
        <time>2019-10-13T09:38:33.000Z</time>
      </trkpt>
      <trkpt lat="47.27326" lon="-2.30516">
        <ele>26.799999237061</ele>
        <time>2019-10-13T09:38:35.000Z</time>
      </trkpt>
      <trkpt lat="47.27304" lon="-2.3053">
        <ele>26.799999237061</ele>
        <time>2019-10-13T09:38:43.000Z</time>
      </trkpt>
      <trkpt lat="47.27288" lon="-2.30544">
        <ele>26.799999237061</ele>
        <time>2019-10-13T09:38:48.000Z</time>
      </trkpt>
      <trkpt lat="47.27283" lon="-2.30545">
        <ele>26.799999237061</ele>
        <time>2019-10-13T09:38:49.000Z</time>
      </trkpt>
      <trkpt lat="47.27276" lon="-2.3054">
        <ele>26.799999237061</ele>
        <time>2019-10-13T09:38:51.000Z</time>
      </trkpt>
      <trkpt lat="47.27262" lon="-2.30542">
        <ele>26.799999237061</ele>
        <time>2019-10-13T09:38:55.000Z</time>
      </trkpt>
      <trkpt lat="47.27258" lon="-2.30542">
        <ele>26.799999237061</ele>
        <time>2019-10-13T09:38:56.000Z</time>
      </trkpt>
      <trkpt lat="47.27238" lon="-2.30541">
        <ele>26.799999237061</ele>
        <time>2019-10-13T09:39:01.000Z</time>
      </trkpt>
      <trkpt lat="47.27227" lon="-2.30544">
        <ele>27.200000762939</ele>
        <time>2019-10-13T09:39:04.000Z</time>
      </trkpt>
      <trkpt lat="47.27224" lon="-2.30545">
        <ele>27.60000038147</ele>
        <time>2019-10-13T09:39:05.000Z</time>
      </trkpt>
      <trkpt lat="47.27221" lon="-2.30546">
        <ele>28</ele>
        <time>2019-10-13T09:39:06.000Z</time>
      </trkpt>
      <trkpt lat="47.27219" lon="-2.30546">
        <ele>28.39999961853</ele>
        <time>2019-10-13T09:39:07.000Z</time>
      </trkpt>
      <trkpt lat="47.27217" lon="-2.30546">
        <ele>28.799999237061</ele>
        <time>2019-10-13T09:39:08.000Z</time>
      </trkpt>
      <trkpt lat="47.27215" lon="-2.30547">
        <ele>28.799999237061</ele>
        <time>2019-10-13T09:39:09.000Z</time>
      </trkpt>
      <trkpt lat="47.2719" lon="-2.30543">
        <ele>28.799999237061</ele>
        <time>2019-10-13T09:39:16.000Z</time>
      </trkpt>
      <trkpt lat="47.2717" lon="-2.30533">
        <ele>28.799999237061</ele>
        <time>2019-10-13T09:39:21.000Z</time>
      </trkpt>
      <trkpt lat="47.27154" lon="-2.30517">
        <ele>29.200000762939</ele>
        <time>2019-10-13T09:39:26.000Z</time>
      </trkpt>
      <trkpt lat="47.27149" lon="-2.30513">
        <ele>29.60000038147</ele>
        <time>2019-10-13T09:39:27.000Z</time>
      </trkpt>
      <trkpt lat="47.27145" lon="-2.3051">
        <ele>30</ele>
        <time>2019-10-13T09:39:28.000Z</time>
      </trkpt>
      <trkpt lat="47.2714" lon="-2.30508">
        <ele>30.39999961853</ele>
        <time>2019-10-13T09:39:29.000Z</time>
      </trkpt>
      <trkpt lat="47.27136" lon="-2.30505">
        <ele>30.799999237061</ele>
        <time>2019-10-13T09:39:30.000Z</time>
      </trkpt>
      <trkpt lat="47.2712" lon="-2.305">
        <ele>30.799999237061</ele>
        <time>2019-10-13T09:39:34.000Z</time>
      </trkpt>
      <trkpt lat="47.2711" lon="-2.30494">
        <ele>30.799999237061</ele>
        <time>2019-10-13T09:39:37.000Z</time>
      </trkpt>
      <trkpt lat="47.27102" lon="-2.30492">
        <ele>30.799999237061</ele>
        <time>2019-10-13T09:39:39.000Z</time>
      </trkpt>
      <trkpt lat="47.27092" lon="-2.30489">
        <ele>30.799999237061</ele>
        <time>2019-10-13T09:39:42.000Z</time>
      </trkpt>
      <trkpt lat="47.2709" lon="-2.30489">
        <ele>30.799999237061</ele>
        <time>2019-10-13T09:39:43.000Z</time>
      </trkpt>
      <trkpt lat="47.27086" lon="-2.30488">
        <ele>31.39999961853</ele>
        <time>2019-10-13T09:39:44.000Z</time>
      </trkpt>
      <trkpt lat="47.27083" lon="-2.30486">
        <ele>31.799999237061</ele>
        <time>2019-10-13T09:39:45.000Z</time>
      </trkpt>
      <trkpt lat="47.27079" lon="-2.30485">
        <ele>32.200000762939</ele>
        <time>2019-10-13T09:39:46.000Z</time>
      </trkpt>
      <trkpt lat="47.27075" lon="-2.30483">
        <ele>32.599998474121</ele>
        <time>2019-10-13T09:39:47.000Z</time>
      </trkpt>
      <trkpt lat="47.27071" lon="-2.30481">
        <ele>33</ele>
        <time>2019-10-13T09:39:48.000Z</time>
      </trkpt>
      <trkpt lat="47.27067" lon="-2.3048">
        <ele>33</ele>
        <time>2019-10-13T09:39:49.000Z</time>
      </trkpt>
      <trkpt lat="47.27051" lon="-2.30472">
        <ele>33</ele>
        <time>2019-10-13T09:39:54.000Z</time>
      </trkpt>
      <trkpt lat="47.27045" lon="-2.30472">
        <ele>33</ele>
        <time>2019-10-13T09:39:56.000Z</time>
      </trkpt>
      <trkpt lat="47.27043" lon="-2.30475">
        <ele>33</ele>
        <time>2019-10-13T09:39:57.000Z</time>
      </trkpt>
      <trkpt lat="47.27041" lon="-2.30479">
        <ele>33.400001525879</ele>
        <time>2019-10-13T09:39:58.000Z</time>
      </trkpt>
      <trkpt lat="47.27039" lon="-2.30482">
        <ele>34</ele>
        <time>2019-10-13T09:39:59.000Z</time>
      </trkpt>
      <trkpt lat="47.27039" lon="-2.30487">
        <ele>34.400001525879</ele>
        <time>2019-10-13T09:40:00.000Z</time>
      </trkpt>
      <trkpt lat="47.27037" lon="-2.30493">
        <ele>34.799999237061</ele>
        <time>2019-10-13T09:40:01.000Z</time>
      </trkpt>
      <trkpt lat="47.27036" lon="-2.30498">
        <ele>35.200000762939</ele>
        <time>2019-10-13T09:40:02.000Z</time>
      </trkpt>
      <trkpt lat="47.27032" lon="-2.3051">
        <ele>35.200000762939</ele>
        <time>2019-10-13T09:40:04.000Z</time>
      </trkpt>
      <trkpt lat="47.27028" lon="-2.30528">
        <ele>35.200000762939</ele>
        <time>2019-10-13T09:40:07.000Z</time>
      </trkpt>
      <trkpt lat="47.27022" lon="-2.30546">
        <ele>35.200000762939</ele>
        <time>2019-10-13T09:40:10.000Z</time>
      </trkpt>
      <trkpt lat="47.27018" lon="-2.30557">
        <ele>35.200000762939</ele>
        <time>2019-10-13T09:40:12.000Z</time>
      </trkpt>
      <trkpt lat="47.27016" lon="-2.30563">
        <ele>35.200000762939</ele>
        <time>2019-10-13T09:40:13.000Z</time>
      </trkpt>
      <trkpt lat="47.27006" lon="-2.30592">
        <ele>35.200000762939</ele>
        <time>2019-10-13T09:40:18.000Z</time>
      </trkpt>
      <trkpt lat="47.27002" lon="-2.30598">
        <ele>35.200000762939</ele>
        <time>2019-10-13T09:40:19.000Z</time>
      </trkpt>
      <trkpt lat="47.26987" lon="-2.3061">
        <ele>35.200000762939</ele>
        <time>2019-10-13T09:40:22.000Z</time>
      </trkpt>
      <trkpt lat="47.26982" lon="-2.30613">
        <ele>35.200000762939</ele>
        <time>2019-10-13T09:40:23.000Z</time>
      </trkpt>
      <trkpt lat="47.26953" lon="-2.30624">
        <ele>35.200000762939</ele>
        <time>2019-10-13T09:40:29.000Z</time>
      </trkpt>
      <trkpt lat="47.26948" lon="-2.30625">
        <ele>35.200000762939</ele>
        <time>2019-10-13T09:40:30.000Z</time>
      </trkpt>
      <trkpt lat="47.26935" lon="-2.30629">
        <ele>35.200000762939</ele>
        <time>2019-10-13T09:40:33.000Z</time>
      </trkpt>
      <trkpt lat="47.26931" lon="-2.3063">
        <ele>35.200000762939</ele>
        <time>2019-10-13T09:40:34.000Z</time>
      </trkpt>
      <trkpt lat="47.26927" lon="-2.3063">
        <ele>35.200000762939</ele>
        <time>2019-10-13T09:40:35.000Z</time>
      </trkpt>
      <trkpt lat="47.26914" lon="-2.30639">
        <ele>35.599998474121</ele>
        <time>2019-10-13T09:40:39.000Z</time>
      </trkpt>
      <trkpt lat="47.26911" lon="-2.30643">
        <ele>36</ele>
        <time>2019-10-13T09:40:40.000Z</time>
      </trkpt>
      <trkpt lat="47.26907" lon="-2.30646">
        <ele>36.599998474121</ele>
        <time>2019-10-13T09:40:41.000Z</time>
      </trkpt>
      <trkpt lat="47.26904" lon="-2.3065">
        <ele>37</ele>
        <time>2019-10-13T09:40:42.000Z</time>
      </trkpt>
      <trkpt lat="47.26901" lon="-2.30653">
        <ele>37.400001525879</ele>
        <time>2019-10-13T09:40:43.000Z</time>
      </trkpt>
      <trkpt lat="47.26893" lon="-2.30661">
        <ele>37.400001525879</ele>
        <time>2019-10-13T09:40:45.000Z</time>
      </trkpt>
      <trkpt lat="47.26886" lon="-2.3067">
        <ele>37.400001525879</ele>
        <time>2019-10-13T09:40:47.000Z</time>
      </trkpt>
      <trkpt lat="47.26869" lon="-2.30694">
        <ele>37.400001525879</ele>
        <time>2019-10-13T09:40:52.000Z</time>
      </trkpt>
      <trkpt lat="47.2686" lon="-2.30712">
        <ele>37.400001525879</ele>
        <time>2019-10-13T09:40:55.000Z</time>
      </trkpt>
      <trkpt lat="47.26852" lon="-2.30731">
        <ele>37.400001525879</ele>
        <time>2019-10-13T09:40:58.000Z</time>
      </trkpt>
      <trkpt lat="47.26848" lon="-2.30743">
        <ele>37.799999237061</ele>
        <time>2019-10-13T09:41:00.000Z</time>
      </trkpt>
      <trkpt lat="47.26845" lon="-2.3075">
        <ele>38.200000762939</ele>
        <time>2019-10-13T09:41:01.000Z</time>
      </trkpt>
      <trkpt lat="47.26842" lon="-2.30757">
        <ele>39</ele>
        <time>2019-10-13T09:41:02.000Z</time>
      </trkpt>
      <trkpt lat="47.2684" lon="-2.30763">
        <ele>39.400001525879</ele>
        <time>2019-10-13T09:41:03.000Z</time>
      </trkpt>
      <trkpt lat="47.26834" lon="-2.30784">
        <ele>39.400001525879</ele>
        <time>2019-10-13T09:41:04.000Z</time>
      </trkpt>
      <trkpt lat="47.26834" lon="-2.30784">
        <ele>39.400001525879</ele>
        <time>2019-10-13T09:41:06.000Z</time>
      </trkpt>
      <trkpt lat="47.2683" lon="-2.30831">
        <ele>39.400001525879</ele>
        <time>2019-10-13T09:41:12.000Z</time>
      </trkpt>
      <trkpt lat="47.26831" lon="-2.30873">
        <ele>39.400001525879</ele>
        <time>2019-10-13T09:41:17.000Z</time>
      </trkpt>
      <trkpt lat="47.26834" lon="-2.3089">
        <ele>39.400001525879</ele>
        <time>2019-10-13T09:41:19.000Z</time>
      </trkpt>
      <trkpt lat="47.26843" lon="-2.30948">
        <ele>39.400001525879</ele>
        <time>2019-10-13T09:41:26.000Z</time>
      </trkpt>
      <trkpt lat="47.2685" lon="-2.30995">
        <ele>39.400001525879</ele>
        <time>2019-10-13T09:41:32.000Z</time>
      </trkpt>
      <trkpt lat="47.2685" lon="-2.31004">
        <ele>39.400001525879</ele>
        <time>2019-10-13T09:41:33.000Z</time>
      </trkpt>
      <trkpt lat="47.26853" lon="-2.31056">
        <ele>39.400001525879</ele>
        <time>2019-10-13T09:41:40.000Z</time>
      </trkpt>
      <trkpt lat="47.26854" lon="-2.31081">
        <ele>39.400001525879</ele>
        <time>2019-10-13T09:41:45.000Z</time>
      </trkpt>
      <trkpt lat="47.26854" lon="-2.31086">
        <ele>39</ele>
        <time>2019-10-13T09:41:46.000Z</time>
      </trkpt>
      <trkpt lat="47.26854" lon="-2.31092">
        <ele>38.599998474121</ele>
        <time>2019-10-13T09:41:47.000Z</time>
      </trkpt>
      <trkpt lat="47.26855" lon="-2.31098">
        <ele>38.200000762939</ele>
        <time>2019-10-13T09:41:48.000Z</time>
      </trkpt>
      <trkpt lat="47.26855" lon="-2.31106">
        <ele>37.599998474121</ele>
        <time>2019-10-13T09:41:49.000Z</time>
      </trkpt>
      <trkpt lat="47.26855" lon="-2.31113">
        <ele>37.200000762939</ele>
        <time>2019-10-13T09:41:50.000Z</time>
      </trkpt>
      <trkpt lat="47.26854" lon="-2.31166">
        <ele>37.200000762939</ele>
        <time>2019-10-13T09:41:57.000Z</time>
      </trkpt>
      <trkpt lat="47.26851" lon="-2.31214">
        <ele>37.599998474121</ele>
        <time>2019-10-13T09:42:03.000Z</time>
      </trkpt>
      <trkpt lat="47.2685" lon="-2.31221">
        <ele>38</ele>
        <time>2019-10-13T09:42:04.000Z</time>
      </trkpt>
      <trkpt lat="47.2685" lon="-2.31229">
        <ele>38.400001525879</ele>
        <time>2019-10-13T09:42:05.000Z</time>
      </trkpt>
      <trkpt lat="47.2685" lon="-2.31237">
        <ele>38.799999237061</ele>
        <time>2019-10-13T09:42:06.000Z</time>
      </trkpt>
      <trkpt lat="47.2685" lon="-2.31244">
        <ele>39.200000762939</ele>
        <time>2019-10-13T09:42:07.000Z</time>
      </trkpt>
      <trkpt lat="47.26849" lon="-2.31252">
        <ele>39.200000762939</ele>
        <time>2019-10-13T09:42:08.000Z</time>
      </trkpt>
      <trkpt lat="47.26841" lon="-2.31306">
        <ele>39.200000762939</ele>
        <time>2019-10-13T09:42:15.000Z</time>
      </trkpt>
      <trkpt lat="47.26831" lon="-2.31331">
        <ele>39.200000762939</ele>
        <time>2019-10-13T09:42:19.000Z</time>
      </trkpt>
      <trkpt lat="47.26825" lon="-2.31334">
        <ele>39.200000762939</ele>
        <time>2019-10-13T09:42:20.000Z</time>
      </trkpt>
      <trkpt lat="47.26806" lon="-2.31345">
        <ele>39.200000762939</ele>
        <time>2019-10-13T09:42:24.000Z</time>
      </trkpt>
      <trkpt lat="47.26801" lon="-2.31349">
        <ele>39.200000762939</ele>
        <time>2019-10-13T09:42:25.000Z</time>
      </trkpt>
      <trkpt lat="47.26771" lon="-2.3137">
        <ele>39.200000762939</ele>
        <time>2019-10-13T09:42:31.000Z</time>
      </trkpt>
      <trkpt lat="47.26728" lon="-2.31393">
        <ele>39.200000762939</ele>
        <time>2019-10-13T09:42:39.000Z</time>
      </trkpt>
      <trkpt lat="47.26718" lon="-2.314">
        <ele>39.200000762939</ele>
        <time>2019-10-13T09:42:41.000Z</time>
      </trkpt>
      <trkpt lat="47.26708" lon="-2.31407">
        <ele>38.799999237061</ele>
        <time>2019-10-13T09:42:43.000Z</time>
      </trkpt>
      <trkpt lat="47.26702" lon="-2.3141">
        <ele>38.400001525879</ele>
        <time>2019-10-13T09:42:44.000Z</time>
      </trkpt>
      <trkpt lat="47.26697" lon="-2.31413">
        <ele>38</ele>
        <time>2019-10-13T09:42:45.000Z</time>
      </trkpt>
      <trkpt lat="47.26691" lon="-2.31416">
        <ele>37.400001525879</ele>
        <time>2019-10-13T09:42:46.000Z</time>
      </trkpt>
      <trkpt lat="47.26686" lon="-2.31419">
        <ele>37</ele>
        <time>2019-10-13T09:42:47.000Z</time>
      </trkpt>
      <trkpt lat="47.26669" lon="-2.31428">
        <ele>37</ele>
        <time>2019-10-13T09:42:50.000Z</time>
      </trkpt>
      <trkpt lat="47.26647" lon="-2.31441">
        <ele>37</ele>
        <time>2019-10-13T09:42:54.000Z</time>
      </trkpt>
      <trkpt lat="47.26642" lon="-2.31446">
        <ele>37</ele>
        <time>2019-10-13T09:42:55.000Z</time>
      </trkpt>
      <trkpt lat="47.26627" lon="-2.3146">
        <ele>36.599998474121</ele>
        <time>2019-10-13T09:42:58.000Z</time>
      </trkpt>
      <trkpt lat="47.26622" lon="-2.31465">
        <ele>36.200000762939</ele>
        <time>2019-10-13T09:42:59.000Z</time>
      </trkpt>
      <trkpt lat="47.26616" lon="-2.3147">
        <ele>35.799999237061</ele>
        <time>2019-10-13T09:43:00.000Z</time>
      </trkpt>
      <trkpt lat="47.26613" lon="-2.31474">
        <ele>35.200000762939</ele>
        <time>2019-10-13T09:43:01.000Z</time>
      </trkpt>
      <trkpt lat="47.2661" lon="-2.31479">
        <ele>34.799999237061</ele>
        <time>2019-10-13T09:43:02.000Z</time>
      </trkpt>
      <trkpt lat="47.26609" lon="-2.31488">
        <ele>34.200000762939</ele>
        <time>2019-10-13T09:43:04.000Z</time>
      </trkpt>
      <trkpt lat="47.2661" lon="-2.31494">
        <ele>33.200000762939</ele>
        <time>2019-10-13T09:43:05.000Z</time>
      </trkpt>
      <trkpt lat="47.26613" lon="-2.31499">
        <ele>32.599998474121</ele>
        <time>2019-10-13T09:43:06.000Z</time>
      </trkpt>
      <trkpt lat="47.26616" lon="-2.31505">
        <ele>32</ele>
        <time>2019-10-13T09:43:07.000Z</time>
      </trkpt>
      <trkpt lat="47.26624" lon="-2.31524">
        <ele>32</ele>
        <time>2019-10-13T09:43:08.000Z</time>
      </trkpt>
      <trkpt lat="47.26632" lon="-2.31544">
        <ele>32</ele>
        <time>2019-10-13T09:43:13.000Z</time>
      </trkpt>
      <trkpt lat="47.2663" lon="-2.31551">
        <ele>32</ele>
        <time>2019-10-13T09:43:14.000Z</time>
      </trkpt>
      <trkpt lat="47.26605" lon="-2.31574">
        <ele>32</ele>
        <time>2019-10-13T09:43:19.000Z</time>
      </trkpt>
      <trkpt lat="47.26576" lon="-2.31593">
        <ele>31.60000038147</ele>
        <time>2019-10-13T09:43:23.000Z</time>
      </trkpt>
      <trkpt lat="47.26568" lon="-2.31598">
        <ele>31.200000762939</ele>
        <time>2019-10-13T09:43:24.000Z</time>
      </trkpt>
      <trkpt lat="47.2656" lon="-2.31604">
        <ele>30.799999237061</ele>
        <time>2019-10-13T09:43:25.000Z</time>
      </trkpt>
      <trkpt lat="47.26552" lon="-2.3161">
        <ele>30.39999961853</ele>
        <time>2019-10-13T09:43:26.000Z</time>
      </trkpt>
      <trkpt lat="47.26544" lon="-2.31615">
        <ele>30</ele>
        <time>2019-10-13T09:43:27.000Z</time>
      </trkpt>
      <trkpt lat="47.26536" lon="-2.3162">
        <ele>29.39999961853</ele>
        <time>2019-10-13T09:43:28.000Z</time>
      </trkpt>
      <trkpt lat="47.26528" lon="-2.31625">
        <ele>28.60000038147</ele>
        <time>2019-10-13T09:43:29.000Z</time>
      </trkpt>
      <trkpt lat="47.26519" lon="-2.3163">
        <ele>28.200000762939</ele>
        <time>2019-10-13T09:43:30.000Z</time>
      </trkpt>
      <trkpt lat="47.2651" lon="-2.31633">
        <ele>27.799999237061</ele>
        <time>2019-10-13T09:43:31.000Z</time>
      </trkpt>
      <trkpt lat="47.26487" lon="-2.3164">
        <ele>27.799999237061</ele>
        <time>2019-10-13T09:43:34.000Z</time>
      </trkpt>
      <trkpt lat="47.26479" lon="-2.31643">
        <ele>27</ele>
        <time>2019-10-13T09:43:35.000Z</time>
      </trkpt>
      <trkpt lat="47.26471" lon="-2.31644">
        <ele>26.39999961853</ele>
        <time>2019-10-13T09:43:36.000Z</time>
      </trkpt>
      <trkpt lat="47.26462" lon="-2.31646">
        <ele>25.60000038147</ele>
        <time>2019-10-13T09:43:37.000Z</time>
      </trkpt>
      <trkpt lat="47.26455" lon="-2.31648">
        <ele>24.60000038147</ele>
        <time>2019-10-13T09:43:38.000Z</time>
      </trkpt>
      <trkpt lat="47.26447" lon="-2.3165">
        <ele>23.799999237061</ele>
        <time>2019-10-13T09:43:39.000Z</time>
      </trkpt>
      <trkpt lat="47.26439" lon="-2.31652">
        <ele>22.799999237061</ele>
        <time>2019-10-13T09:43:40.000Z</time>
      </trkpt>
      <trkpt lat="47.26431" lon="-2.31653">
        <ele>22</ele>
        <time>2019-10-13T09:43:41.000Z</time>
      </trkpt>
      <trkpt lat="47.26424" lon="-2.31654">
        <ele>21.60000038147</ele>
        <time>2019-10-13T09:43:42.000Z</time>
      </trkpt>
      <trkpt lat="47.26418" lon="-2.31654">
        <ele>21.200000762939</ele>
        <time>2019-10-13T09:43:43.000Z</time>
      </trkpt>
      <trkpt lat="47.26412" lon="-2.31653">
        <ele>20.799999237061</ele>
        <time>2019-10-13T09:43:44.000Z</time>
      </trkpt>
      <trkpt lat="47.26407" lon="-2.3165">
        <ele>20.200000762939</ele>
        <time>2019-10-13T09:43:45.000Z</time>
      </trkpt>
      <trkpt lat="47.26403" lon="-2.31644">
        <ele>19.39999961853</ele>
        <time>2019-10-13T09:43:46.000Z</time>
      </trkpt>
      <trkpt lat="47.26402" lon="-2.31638">
        <ele>18.799999237061</ele>
        <time>2019-10-13T09:43:47.000Z</time>
      </trkpt>
      <trkpt lat="47.26401" lon="-2.3163">
        <ele>18.200000762939</ele>
        <time>2019-10-13T09:43:48.000Z</time>
      </trkpt>
      <trkpt lat="47.26401" lon="-2.31623">
        <ele>17.60000038147</ele>
        <time>2019-10-13T09:43:49.000Z</time>
      </trkpt>
      <trkpt lat="47.26404" lon="-2.31608">
        <ele>17.60000038147</ele>
        <time>2019-10-13T09:43:51.000Z</time>
      </trkpt>
      <trkpt lat="47.26404" lon="-2.316">
        <ele>17.60000038147</ele>
        <time>2019-10-13T09:43:52.000Z</time>
      </trkpt>
      <trkpt lat="47.26405" lon="-2.31585">
        <ele>17.60000038147</ele>
        <time>2019-10-13T09:43:54.000Z</time>
      </trkpt>
      <trkpt lat="47.26403" lon="-2.31565">
        <ele>17.60000038147</ele>
        <time>2019-10-13T09:43:57.000Z</time>
      </trkpt>
      <trkpt lat="47.26404" lon="-2.31554">
        <ele>17.60000038147</ele>
        <time>2019-10-13T09:43:59.000Z</time>
      </trkpt>
      <trkpt lat="47.26411" lon="-2.3155">
        <ele>17.60000038147</ele>
        <time>2019-10-13T09:44:01.000Z</time>
      </trkpt>
      <trkpt lat="47.26417" lon="-2.31549">
        <ele>17.60000038147</ele>
        <time>2019-10-13T09:44:05.000Z</time>
      </trkpt>
      <trkpt lat="47.26417" lon="-2.31549">
        <ele>17.60000038147</ele>
        <time>2019-10-13T09:44:06.000Z</time>
      </trkpt>
    </trkseg>
  </trk>
</gpx>